GFSSGP_sfc_wetblb_000.txt.gz
Wetbulb
71.75 69.66 71.03 69.71 61.73 60.54 54.16 55.70 60.54 59.57 59.60 62.60 63.02 61.02 59.01 61.62 59.94 55.70 68.63 69.05 70.75 74.09 75.64 75.79 77.98 77.59 76.83 76.51 76.26 76.35 76.22 76.33 76.07 76.59 76.29 76.30 76.41 76.37 76.53 76.35 76.33 75.44 75.41 75.58 75.50 75.53 75.37 75.03 75.19
70.41 69.11 70.20 65.65 57.80 52.44 52.52 57.49 56.04 58.96 61.57 63.55 62.39 60.64 57.93 55.74 62.31 62.11 63.90 67.34 69.93 71.22 75.19 76.40 77.67 77.84 77.61 76.94 77.04 76.51 76.85 76.71 76.78 76.66 76.30 76.33 76.26 76.17 76.11 75.76 75.62 75.15 75.12 75.17 74.92 75.34 75.33 74.86 74.80
69.71 67.61 63.35 61.50 56.99 51.19 52.27 56.30 55.87 59.66 61.10 61.56 58.85 58.26 56.57 56.06 59.78 60.36 62.62 65.64 67.46 70.01 73.97 76.60 77.93 77.90 77.50 76.90 77.14 77.23 77.11 76.71 76.81 76.60 75.80 75.78 75.62 75.46 75.54 75.52 75.51 75.49 75.35 74.99 75.88 75.80 75.50 75.09 74.79
65.71 67.25 63.22 56.36 54.16 55.80 55.76 55.63 56.86 57.74 59.50 59.79 57.10 52.56 56.42 58.69 59.21 59.66 63.05 63.64 64.75 69.10 73.08 76.71 78.01 77.73 77.49 76.95 76.35 76.73 76.52 75.90 75.69 75.68 75.68 75.57 75.52 75.49 75.01 74.95 75.41 75.28 75.34 75.35 75.76 75.88 75.35 75.68 74.99
66.18 63.52 57.01 53.67 53.73 56.74 56.36 56.23 56.50 56.32 57.13 56.74 56.56 52.39 53.16 57.94 60.28 60.30 61.47 62.67 63.96 66.31 72.96 75.57 76.88 76.67 76.52 76.28 75.92 75.14 74.89 74.26 74.36 74.57 75.16 75.81 74.76 74.47 74.10 74.84 73.62 74.31 74.68 74.98 75.00 74.61 75.05 74.54 75.46
61.57 61.76 52.79 50.24 53.21 55.28 55.81 56.03 55.00 55.08 55.87 55.64 53.57 52.99 53.09 58.05 58.34 58.77 60.78 61.59 65.38 65.73 72.53 74.18 76.14 75.79 75.34 74.62 73.81 73.77 73.43 73.74 73.57 73.66 73.89 74.60 74.67 74.95 74.73 73.36 72.86 73.07 73.51 73.73 74.15 74.36 73.91 74.11 74.44
61.73 58.25 51.72 53.40 52.70 52.98 54.42 55.79 52.08 54.14 53.67 53.66 55.18 51.75 53.65 55.80 57.87 58.58 59.19 61.61 62.87 63.62 64.91 72.18 72.00 73.60 74.29 73.93 73.80 73.49 72.61 72.47 73.04 71.87 71.73 72.75 74.89 73.44 72.49 74.04 72.44 72.46 72.86 72.73 73.33 73.32 73.44 73.84 73.10
62.19 59.41 54.26 54.28 52.56 52.82 54.67 55.38 54.30 55.76 51.50 55.99 55.37 50.63 50.16 55.14 57.68 58.20 58.71 58.47 58.70 60.14 61.61 62.63 64.44 64.99 66.37 66.92 71.58 71.13 72.77 71.56 70.29 70.71 69.44 70.61 69.25 70.55 69.56 72.10 71.42 72.82 72.80 72.47 73.20 72.61 72.35 73.19 73.17
65.63 54.94 50.68 52.97 54.97 54.81 54.70 52.60 54.77 55.75 53.56 55.37 55.84 54.80 55.71 57.26 57.92 56.48 55.80 56.87 56.70 58.52 58.29 59.00 59.66 59.57 59.10 58.96 63.55 65.63 67.34 68.31 66.92 64.97 66.61 62.40 58.95 60.55 61.62 67.51 70.65 71.26 72.73 71.72 73.11 72.48 72.13 72.60 72.90
58.11 52.46 53.86 56.92 56.84 54.82 54.12 52.97 52.35 52.34 52.85 53.22 53.67 54.68 55.54 56.39 55.70 54.81 53.91 53.32 53.64 53.12 54.58 55.76 55.56 56.04 56.26 57.44 55.07 54.88 56.41 55.53 55.59 56.04 55.35 56.39 56.99 59.51 62.47 63.74 67.79 68.72 69.58 69.52 69.91 72.03 72.14 71.20 70.29
57.37 53.88 57.32 56.29 56.35 57.52 53.68 52.80 53.84 51.44 50.38 53.46 52.58 52.43 53.95 53.82 53.05 52.80 52.86 53.31 52.43 52.27 52.95 53.58 52.60 53.16 53.46 53.57 53.74 53.61 53.50 53.59 54.38 54.67 53.85 55.00 55.78 54.87 54.71 55.55 56.53 58.99 63.86 60.32 62.11 61.97 63.92 65.53 67.93
52.76 56.27 56.09 56.99 55.41 56.41 52.62 54.03 51.53 51.92 53.39 55.72 54.80 53.88 53.43 52.38 51.92 52.05 51.96 52.47 52.55 52.00 50.89 51.60 51.85 51.42 51.88 53.40 53.03 52.72 51.92 52.12 51.95 52.55 52.93 52.97 52.28 51.87 51.82 52.83 53.10 54.60 55.77 55.50 56.52 57.82 58.87 59.47 67.01
52.01 53.82 55.65 55.37 54.82 53.68 54.62 51.60 51.19 52.19 55.21 55.72 54.71 54.09 52.26 51.80 51.49 51.71 52.23 52.52 52.09 50.78 50.01 49.84 49.63 49.40 50.29 51.29 51.47 51.63 50.80 50.48 51.17 51.76 52.19 51.86 50.65 50.43 51.31 51.14 51.64 52.13 53.09 53.39 53.13 53.49 54.77 56.42 57.92
54.32 53.40 53.64 53.54 52.54 53.94 51.84 51.36 51.73 52.51 54.91 53.88 52.43 51.59 51.49 51.61 51.54 51.10 51.47 51.00 49.92 49.33 48.70 49.34 49.15 48.41 49.59 49.54 50.22 50.17 50.13 50.29 51.01 51.04 50.70 51.55 50.33 50.07 50.34 50.39 50.44 50.66 51.27 51.77 52.46 53.13 53.63 54.61 56.60
54.14 49.55 50.88 50.97 51.39 51.02 52.20 49.08 48.96 53.02 53.20 50.89 50.40 50.47 51.31 51.50 51.91 50.59 51.52 50.83 49.86 48.63 48.00 47.95 48.35 48.68 48.07 48.54 49.30 49.79 49.19 49.92 48.93 49.30 50.02 50.02 50.82 50.23 49.51 49.68 49.42 49.90 50.35 51.28 51.49 51.97 53.08 54.04 55.97
49.18 49.38 44.95 50.15 50.90 51.59 50.34 43.57 50.79 52.50 51.09 49.47 50.05 50.23 50.62 50.86 50.90 50.63 51.06 50.63 48.80 48.46 47.23 47.86 50.22 47.80 47.68 47.36 47.86 48.03 48.10 47.79 47.80 47.94 48.80 49.64 50.79 50.07 49.05 49.46 49.32 49.66 50.05 50.49 50.30 50.14 50.95 51.65 52.86
47.96 42.64 44.88 47.49 51.16 50.88 48.41 45.36 51.33 52.33 50.99 49.42 49.66 50.23 50.58 50.15 50.10 49.97 50.04 48.83 49.02 48.06 47.15 47.28 47.83 47.32 47.39 46.81 47.05 47.08 47.80 47.07 46.87 46.99 47.47 47.72 50.32 50.30 48.39 49.06 48.99 49.08 48.94 48.85 49.35 48.97 48.88 48.88 50.03
44.00 43.30 45.64 45.77 49.00 49.28 47.12 45.98 50.34 51.32 50.43 49.30 49.92 50.32 50.58 50.46 50.22 49.97 49.14 48.35 48.26 47.41 46.94 46.74 47.29 46.73 46.32 46.31 46.25 46.46 46.46 46.19 46.48 46.18 46.63 47.22 48.27 48.84 48.32 48.80 48.40 48.72 47.77 47.36 47.44 46.96 48.10 48.78 49.98
48.51 46.44 45.62 48.20 51.06 48.03 46.38 46.72 48.70 51.08 50.07 48.85 49.22 50.25 50.58 50.92 52.12 50.92 48.84 47.10 46.23 46.48 45.78 45.87 46.54 45.86 45.46 44.98 43.82 43.49 43.32 43.91 45.17 45.88 46.87 46.85 47.53 48.10 47.27 47.57 47.64 47.62 46.77 46.25 46.98 46.69 46.43 46.70 48.25
48.08 45.61 44.70 48.01 49.84 47.96 46.95 46.42 48.99 50.17 50.15 49.55 49.28 49.63 50.63 51.05 51.22 50.45 48.04 46.03 45.72 45.49 45.56 45.37 45.86 46.28 45.41 45.28 44.33 43.61 42.89 43.99 45.04 46.52 46.31 47.01 46.72 46.98 47.32 45.76 46.08 46.14 45.62 45.51 45.76 45.55 44.70 45.67 46.97
46.91 44.89 44.72 44.78 48.32 48.03 45.65 43.06 45.32 48.65 50.23 51.56 51.28 51.08 51.45 51.26 50.76 49.80 47.02 45.52 45.11 44.57 45.20 45.57 45.58 45.71 45.85 45.28 44.85 44.59 44.35 44.57 44.26 44.22 44.95 46.16 46.29 46.40 46.14 45.67 45.01 44.56 44.49 43.98 44.30 44.59 44.04 43.09 44.84
43.25 48.66 47.55 46.67 43.44 37.92 45.62 35.96 43.68 46.77 47.65 48.86 50.64 50.64 50.70 51.02 51.76 50.95 47.90 45.94 44.57 44.83 45.89 46.10 46.04 45.16 45.94 45.49 43.95 42.59 41.54 40.82 42.08 42.86 44.13 44.69 45.68 45.33 45.90 45.50 44.95 44.37 43.98 43.05 43.31 45.80 43.55 42.96 42.43
45.72 49.34 47.61 46.50 42.93 41.32 42.31 37.82 41.01 47.13 45.32 47.66 49.06 50.21 50.97 51.29 51.07 50.67 49.08 47.55 46.11 45.63 45.39 45.31 45.31 45.14 45.31 44.16 44.24 43.19 42.21 42.47 43.19 42.79 42.82 43.09 44.05 45.08 45.58 45.00 44.36 43.88 43.74 43.57 43.65 43.63 43.34 44.05 43.33
49.07 46.82 46.61 45.10 41.78 34.56 40.61 40.63 40.08 44.20 46.58 47.77 49.13 49.94 50.46 50.81 50.77 50.60 49.88 48.93 46.30 45.71 46.46 45.97 45.21 44.62 44.86 44.55 44.08 43.19 42.16 41.87 41.17 41.57 41.33 42.04 42.89 43.57 44.72 45.35 44.03 43.91 43.67 43.73 43.61 43.95 43.71 44.04 44.34
46.75 42.30 35.51 34.42 34.25 33.61 43.37 40.56 42.63 46.79 47.03 46.58 47.68 48.61 49.51 49.83 49.69 49.12 47.98 47.90 46.06 45.15 45.76 45.96 45.35 44.64 44.61 44.13 43.42 42.60 42.61 42.42 41.59 41.23 40.89 41.08 41.15 41.78 42.61 43.79 43.32 43.12 43.35 43.57 43.67 42.99 43.44 43.96 43.96
43.12 42.56 36.73 30.85 33.03 37.41 41.87 35.71 41.53 48.12 47.87 47.62 49.30 49.20 49.49 48.71 48.77 48.06 47.82 47.65 46.62 46.18 45.58 45.24 44.68 44.26 44.34 43.52 42.88 42.66 42.43 42.76 42.37 41.86 41.63 41.04 41.27 41.80 43.60 43.58 43.83 43.51 44.20 43.76 43.05 43.12 43.47 44.18 44.49
44.21 39.64 44.93 39.47 40.63 35.94 39.07 42.77 46.27 47.15 45.20 46.48 46.88 47.33 47.83 47.99 48.14 47.78 47.73 48.09 47.48 46.29 45.67 45.70 44.99 44.56 44.40 43.58 42.63 41.30 41.09 41.33 41.70 42.06 41.90 41.66 42.23 44.54 43.93 43.60 43.18 43.49 43.48 43.42 43.06 42.68 42.78 44.34 44.76
45.61 47.36 38.50 38.39 30.45 29.06 36.32 38.09 39.78 43.41 44.47 44.49 44.34 44.72 46.95 48.32 47.97 47.58 47.60 47.65 48.10 47.03 47.07 46.56 45.50 44.30 44.19 43.57 42.12 41.75 40.97 41.28 41.56 41.71 41.38 41.57 42.30 43.08 43.15 43.00 42.97 42.83 43.03 42.72 42.40 42.42 42.98 43.63 43.04
41.86 40.93 42.63 41.79 38.54 31.59 31.88 36.17 44.46 43.53 44.56 45.11 44.30 44.99 46.50 47.47 47.93 47.54 47.13 47.13 47.23 46.67 45.88 44.95 44.51 43.65 42.80 42.72 41.82 41.05 40.94 41.39 41.05 40.60 41.24 41.72 42.44 42.49 42.51 42.82 42.95 42.90 42.25 42.52 41.53 41.47 42.78 42.99 43.58
45.79 43.00 43.23 37.01 35.04 38.76 38.10 38.12 47.76 45.33 45.69 46.18 45.47 46.57 46.69 47.73 47.70 47.37 46.72 46.02 45.87 45.30 44.39 43.56 43.04 42.50 42.74 42.82 41.47 41.06 41.10 41.07 40.28 40.34 40.84 41.95 41.40 42.15 42.39 42.64 42.82 42.95 42.38 41.72 40.99 41.69 43.39 42.70 42.98

GFSSGP_sfc_wetblb_003.txt.gz
Wetbulb
71.75 69.45 65.63 64.86 56.03 53.05 52.08 51.20 57.00 56.56 57.03 58.71 61.20 59.95 58.47 59.77 59.00 53.07 66.57 73.08 74.07 74.69 75.49 76.86 78.34 77.87 76.82 76.31 76.24 76.16 76.25 76.61 76.97 77.03 76.63 76.35 76.39 76.27 76.00 75.85 75.74 75.39 75.41 75.22 75.07 74.97 74.65 74.52 74.86
70.33 69.39 64.70 59.54 52.30 47.59 47.46 52.21 52.21 55.94 59.52 59.21 59.69 58.51 56.28 54.20 60.94 60.86 62.71 68.70 74.10 74.67 76.39 76.25 77.66 78.11 77.62 76.68 77.19 76.95 76.70 76.45 76.85 76.62 76.11 75.93 75.79 75.60 75.51 75.71 75.64 75.59 75.34 75.10 74.90 74.68 74.91 74.38 74.89
67.60 68.40 57.49 55.03 51.55 47.78 47.32 51.59 52.71 57.30 58.52 57.66 54.58 55.51 53.97 54.24 58.50 58.33 60.67 67.63 72.62 74.15 75.73 76.48 78.18 77.91 77.53 77.22 77.12 77.37 76.58 76.34 76.24 76.35 76.38 75.50 75.49 75.01 75.24 75.10 75.46 75.63 75.81 75.59 75.21 75.72 74.46 74.28 74.64
61.13 61.89 58.77 50.73 47.80 50.28 50.87 51.32 54.77 56.30 57.16 56.34 54.10 51.17 53.81 55.67 57.21 57.66 60.75 65.74 70.91 72.89 75.25 76.74 77.81 77.24 76.77 77.27 76.47 75.32 75.28 75.36 75.60 76.21 75.62 75.28 74.17 73.95 74.61 72.98 74.29 75.01 75.35 75.57 75.58 75.75 75.01 75.10 74.63
60.50 57.41 50.88 46.91 48.11 50.15 50.16 53.42 54.15 53.84 54.18 53.14 53.34 49.81 50.38 55.81 57.90 58.80 59.70 63.01 69.82 72.31 74.68 75.33 76.99 76.90 76.68 75.85 74.95 74.09 73.95 74.39 74.51 74.66 74.34 74.17 74.39 73.64 73.36 72.43 73.01 73.25 73.28 73.35 74.25 74.92 74.59 74.45 74.74
55.61 55.47 46.89 44.00 47.49 50.87 50.17 52.08 51.98 51.63 51.89 51.72 51.22 49.99 49.89 54.61 55.39 56.98 60.85 61.26 67.36 71.91 74.05 74.99 76.23 75.85 75.19 73.84 73.34 73.49 73.25 73.36 73.30 71.59 71.83 74.65 74.64 73.35 73.03 73.64 73.14 72.48 72.74 72.70 72.72 72.81 73.77 74.27 74.04
55.05 52.34 46.35 46.35 46.79 48.26 50.94 52.39 47.68 49.86 49.93 49.82 52.68 47.94 49.25 52.12 54.78 57.77 59.56 59.30 59.56 65.46 72.19 72.30 70.85 72.56 74.32 73.89 73.11 72.50 72.17 70.94 70.27 69.65 69.24 69.22 68.51 68.42 70.53 71.38 72.79 73.65 73.45 72.89 72.21 71.21 71.94 73.13 73.88
56.43 53.30 47.99 47.36 47.38 47.50 50.45 51.77 51.92 50.88 48.67 53.26 52.91 47.06 46.19 51.88 55.61 56.53 56.37 56.01 56.60 58.18 61.15 68.01 69.79 68.33 65.67 64.70 71.18 70.18 70.10 68.84 66.27 65.72 66.65 65.90 65.09 65.73 65.60 66.82 69.52 70.96 71.66 71.57 72.98 71.79 72.12 72.56 72.85
57.26 47.96 44.54 47.32 48.71 49.70 50.77 49.47 51.93 52.83 50.82 52.58 52.16 50.74 52.16 54.84 55.34 53.51 53.30 54.18 54.39 56.19 54.70 54.54 54.99 54.56 55.96 58.42 60.21 60.53 64.19 64.38 63.47 60.99 63.17 59.17 56.45 57.50 57.46 63.41 66.24 66.72 68.94 68.40 69.84 70.51 71.58 71.84 71.97
51.67 44.40 47.40 53.23 51.36 48.93 50.50 49.48 49.36 49.73 49.62 49.42 49.62 51.52 53.55 54.18 52.52 52.03 51.81 51.44 50.95 50.35 51.68 50.98 51.12 51.90 51.81 56.34 52.01 51.85 53.86 52.88 52.79 52.36 52.72 53.45 52.71 55.38 57.11 58.70 61.94 63.18 64.11 64.05 64.01 64.12 64.78 67.55 66.46
50.76 48.26 53.53 52.98 54.24 53.62 50.81 49.81 50.97 48.30 46.78 50.01 48.77 50.02 51.87 51.45 50.87 50.91 50.66 50.74 49.75 48.62 49.83 50.68 48.99 50.39 51.46 51.73 50.31 49.36 49.46 49.64 50.52 50.54 51.33 50.84 51.84 50.98 51.40 51.23 52.24 53.47 58.94 55.71 56.09 55.08 55.31 56.39 60.37
47.31 52.73 52.93 53.79 53.62 52.88 49.56 50.70 48.48 48.87 49.25 52.94 51.54 51.09 50.81 49.96 49.97 50.22 50.34 49.87 49.19 48.63 47.13 48.85 49.30 49.23 49.32 50.13 49.49 48.34 48.36 47.79 48.53 49.08 49.92 48.23 48.53 48.82 48.97 49.42 50.08 50.99 51.93 51.28 51.56 51.93 53.01 53.57 54.71
47.63 49.96 52.99 52.15 51.83 50.65 51.75 48.86 48.13 49.51 51.35 51.98 52.25 51.82 50.34 49.37 49.23 50.05 50.57 50.30 48.35 47.56 46.93 46.98 46.95 46.60 47.67 48.21 47.71 47.73 47.16 46.95 47.93 48.03 48.79 47.91 47.85 47.54 48.59 48.70 49.18 49.55 50.15 50.12 50.14 50.32 51.64 52.32 54.02
49.88 50.57 50.77 51.04 50.16 50.15 49.45 48.45 49.09 49.85 52.04 50.65 50.66 49.47 49.17 49.24 49.57 49.15 49.72 49.02 47.03 45.85 46.17 46.36 46.74 45.62 46.88 46.40 46.93 46.96 46.09 46.71 46.60 46.79 47.36 48.87 48.11 47.48 47.95 48.41 48.71 48.83 48.72 49.64 49.84 49.72 50.09 51.27 52.03
50.19 46.10 47.00 47.81 48.58 47.94 49.26 45.95 46.87 49.77 51.45 49.37 48.22 47.24 48.37 48.92 49.79 49.08 49.69 48.44 46.45 44.79 45.28 45.55 46.26 46.14 45.58 46.05 46.57 46.34 46.00 46.73 44.89 45.45 46.78 47.79 48.52 47.36 47.03 47.93 48.03 48.12 48.52 49.56 49.49 49.22 49.51 49.56 51.03
45.03 43.89 38.82 46.00 47.96 48.89 47.31 38.87 47.31 49.73 49.15 47.02 46.43 45.42 47.31 48.38 49.19 48.00 49.71 49.08 46.23 44.65 43.80 45.06 49.39 45.82 45.10 44.89 45.10 44.93 45.12 44.73 44.18 44.60 45.27 46.54 48.94 47.71 46.69 47.39 47.37 47.72 48.28 48.70 48.24 47.54 47.50 47.31 47.36
41.10 35.42 39.09 43.41 48.34 48.13 44.87 40.59 47.22 49.27 49.62 46.79 44.71 45.58 47.00 46.59 47.48 47.66 48.29 47.91 46.61 44.57 43.48 44.60 44.77 44.83 45.20 44.20 44.18 44.36 45.02 44.20 43.72 43.84 44.18 45.21 47.68 48.33 46.12 46.93 46.80 47.28 46.90 46.50 46.71 46.62 46.27 46.32 46.99
37.29 37.18 40.67 40.51 45.59 46.40 43.58 42.89 46.38 47.32 48.34 46.86 46.05 46.44 46.67 47.52 48.57 48.11 47.63 47.02 46.73 44.73 43.53 43.94 43.93 43.78 43.70 43.26 43.21 43.30 43.33 43.03 43.45 43.44 43.97 44.91 45.67 46.71 45.45 46.17 46.41 46.35 45.78 45.56 45.48 44.67 45.88 45.40 46.13
42.62 41.51 40.91 43.15 47.69 44.72 43.68 44.04 45.16 47.53 46.94 45.83 45.31 45.79 47.29 47.94 49.78 48.22 47.03 45.75 44.92 44.12 43.07 42.68 43.44 42.34 42.98 42.00 41.28 40.86 40.83 41.16 42.38 43.28 44.93 44.60 45.16 46.11 44.65 44.84 45.42 45.52 44.81 44.22 44.93 44.64 43.84 43.82 45.32
43.79 41.02 40.41 43.87 47.65 45.08 42.93 43.30 46.15 46.18 47.55 48.03 47.24 46.92 47.65 47.91 46.96 47.41 45.71 44.14 43.62 43.31 42.98 42.20 43.33 43.15 42.72 42.54 41.75 41.27 40.45 41.38 42.42 43.66 44.07 44.75 44.94 44.94 45.15 43.72 44.05 44.05 43.39 43.17 42.95 43.29 42.05 43.19 43.98
43.39 41.15 40.55 40.83 44.71 44.56 42.24 39.26 42.16 46.23 47.29 49.11 49.32 49.25 49.00 48.61 47.59 46.76 44.62 43.48 42.68 41.83 42.40 42.10 42.55 43.31 43.22 42.93 42.65 42.07 41.69 41.45 41.46 41.62 42.28 44.08 44.76 44.51 44.21 43.51 43.01 42.77 42.43 41.89 41.99 42.01 41.68 40.50 41.74
39.82 45.62 45.47 43.93 39.58 33.84 41.30 33.81 38.94 43.81 44.55 45.28 48.02 47.57 47.69 48.74 49.53 47.68 45.32 43.17 42.78 42.56 42.29 42.91 43.07 42.66 43.50 43.01 41.78 40.67 39.77 38.84 39.99 40.36 41.81 42.30 43.43 43.32 43.89 43.61 42.86 42.21 41.98 41.59 41.60 44.47 41.88 41.08 40.13
41.68 46.32 44.28 43.64 38.77 36.14 37.36 33.59 35.89 41.70 41.55 43.95 45.21 47.81 48.03 48.99 48.99 47.46 46.12 45.21 43.88 43.43 42.15 42.48 42.84 42.87 43.29 42.08 42.04 41.01 39.83 40.30 40.89 40.85 40.66 40.78 41.79 42.87 43.69 43.26 42.29 41.96 41.71 41.92 41.83 42.05 41.62 41.44 40.30
47.00 44.02 42.85 40.99 37.23 30.15 36.13 35.89 38.51 38.95 43.29 43.66 44.42 46.45 48.73 48.63 48.96 48.35 47.24 45.86 43.89 43.76 43.26 42.26 42.28 42.07 42.33 41.92 41.87 41.36 40.20 40.09 39.64 39.53 39.39 39.94 40.64 41.55 42.48 43.33 42.21 41.82 41.52 41.46 42.09 42.02 41.20 41.28 41.60
43.74 38.10 30.39 29.55 29.24 29.15 38.58 35.79 40.02 42.19 44.55 45.16 46.04 45.01 47.53 48.89 47.95 46.54 45.08 44.76 43.42 42.51 43.31 43.33 42.64 41.77 41.84 42.05 41.85 41.12 40.57 40.02 39.77 39.59 38.94 38.91 39.41 39.81 40.73 41.37 41.84 41.44 41.69 41.85 41.46 40.94 40.89 40.77 40.94
39.93 38.65 31.01 25.76 27.59 32.86 39.30 32.98 39.65 45.27 48.45 46.54 46.74 46.65 45.98 46.97 48.06 47.39 46.48 45.50 43.98 43.39 43.71 44.44 42.63 42.20 41.97 41.88 41.72 40.89 40.89 40.38 40.44 40.20 39.67 39.39 39.45 39.89 41.17 41.88 42.16 42.50 42.34 42.00 41.57 40.61 40.84 40.81 41.06
39.36 37.06 41.68 33.88 33.60 29.72 34.15 37.74 42.27 43.52 43.10 44.06 44.78 45.32 45.47 46.46 46.52 46.66 46.27 46.18 44.50 43.58 43.87 43.89 43.35 43.09 42.78 41.92 40.96 40.28 39.97 39.36 40.11 40.35 40.02 39.72 39.93 42.48 42.11 42.25 41.72 42.12 42.03 42.06 41.55 40.90 40.27 40.90 41.69
41.67 42.92 34.70 33.83 27.04 24.31 31.46 32.89 35.49 40.74 44.27 43.03 42.24 43.91 44.88 45.84 45.00 45.56 45.94 45.79 45.16 44.65 44.25 44.01 44.19 43.50 43.12 42.09 40.75 40.75 39.06 39.29 39.64 39.51 39.45 39.62 40.24 40.73 41.28 41.76 41.65 41.64 41.67 41.56 40.91 40.41 40.68 40.81 42.60
38.99 39.28 38.59 37.11 32.83 26.72 27.29 30.24 39.97 42.94 43.62 41.81 44.49 43.18 45.04 45.48 45.71 45.64 45.07 45.37 45.39 44.93 44.48 44.39 44.06 43.67 42.82 42.61 41.11 39.63 39.02 39.66 39.50 38.81 39.06 39.55 39.98 40.53 41.00 41.46 41.40 41.25 41.17 40.84 39.96 39.45 40.05 40.44 41.34
43.76 41.39 41.58 34.97 30.10 34.10 35.91 35.91 42.13 41.93 43.51 43.61 42.81 44.32 44.02 46.47 45.71 45.21 44.18 43.99 44.76 44.41 44.30 44.68 44.26 43.53 43.25 42.37 40.40 39.19 39.64 39.53 38.46 38.35 38.69 39.39 39.48 40.39 40.62 41.04 41.01 41.38 41.31 40.48 39.60 40.13 41.15 40.66 40.90

GFSSGP_sfc_wetblb_006.txt.gz
Wetbulb
71.75 69.97 65.49 64.37 54.24 52.40 48.93 50.67 55.21 55.19 54.89 57.70 60.65 59.92 57.56 58.29 57.10 52.06 66.03 72.69 73.66 73.81 75.96 76.60 77.48 77.02 76.26 76.22 76.02 76.19 76.32 76.34 76.25 76.01 75.93 75.76 75.62 75.55 75.53 75.53 75.39 75.22 74.93 74.64 74.43 74.56 74.17 74.26 74.64
70.07 69.46 63.17 58.27 51.68 45.69 46.92 50.98 52.43 54.95 57.20 58.18 58.00 56.87 55.13 54.44 59.20 59.04 61.90 72.66 74.46 74.81 75.69 75.62 76.83 77.06 76.63 76.17 75.99 75.91 75.95 75.92 75.88 75.63 75.20 74.99 74.78 74.57 74.80 75.21 75.34 75.50 75.49 75.05 74.70 74.32 74.36 73.81 74.27
65.36 67.56 56.87 52.90 48.35 48.69 46.74 50.92 53.11 56.50 57.87 56.37 53.34 54.11 52.59 53.57 57.52 57.20 63.73 72.18 74.66 74.48 75.16 75.46 77.02 77.07 77.03 76.29 76.13 75.63 75.32 75.29 75.36 75.30 74.79 73.61 73.27 72.64 72.22 73.09 74.33 74.66 75.06 75.38 75.22 74.88 74.00 73.64 74.15
60.27 59.66 56.98 48.96 46.30 48.99 50.90 51.49 54.66 55.99 55.61 54.89 53.05 49.90 52.23 54.85 56.68 57.55 68.55 71.51 72.50 73.36 74.42 76.55 76.91 76.60 76.34 75.18 73.94 74.04 74.04 73.66 73.29 73.42 73.37 72.83 72.52 72.18 71.20 71.07 71.35 71.22 72.31 73.50 74.37 74.77 74.68 74.05 73.72
59.56 56.21 48.85 46.26 47.03 48.83 49.75 53.27 54.89 53.95 52.06 52.58 52.15 48.74 49.78 54.74 57.32 58.87 66.14 70.91 71.91 72.54 73.85 74.69 76.10 76.06 75.10 74.18 72.74 72.09 72.59 71.65 71.09 71.57 72.85 72.96 71.12 72.20 71.95 71.06 71.25 71.38 71.17 70.91 71.16 72.91 73.91 74.39 73.92
55.15 53.50 45.68 42.96 46.21 49.28 48.28 51.75 51.74 51.76 49.96 51.02 50.11 48.69 49.41 53.66 55.68 58.02 61.98 68.06 72.33 72.97 74.09 74.54 75.81 74.77 73.88 72.25 71.83 72.08 69.97 68.12 68.11 68.44 68.61 69.10 68.71 68.74 68.94 70.08 71.62 70.97 71.67 71.93 70.35 70.85 71.77 73.06 74.02
53.24 49.76 45.04 44.43 45.73 47.12 50.10 50.88 47.98 49.14 48.48 48.54 51.42 46.74 48.14 50.94 54.21 58.53 57.24 62.05 68.57 72.42 72.34 70.24 70.51 72.30 73.17 72.24 72.06 69.47 67.20 66.73 66.21 66.71 66.52 65.64 66.05 65.75 66.51 66.97 68.46 68.54 68.55 69.09 70.82 70.56 71.47 70.72 72.64
55.66 51.60 46.86 45.29 46.02 46.37 50.91 50.61 50.87 49.80 47.30 51.60 51.73 46.16 46.27 51.60 54.70 57.34 56.27 55.89 57.88 66.17 68.98 67.41 66.17 64.51 63.59 59.96 68.03 66.37 65.77 64.81 64.27 64.49 63.64 61.99 61.24 62.17 63.45 64.47 65.80 66.61 66.26 66.86 66.77 67.88 71.27 70.04 70.08
55.62 46.60 43.38 46.05 47.05 49.21 50.25 48.25 50.90 51.53 50.26 50.74 50.37 49.19 51.31 54.03 53.83 52.56 52.11 52.88 53.44 55.49 55.90 54.65 52.90 52.98 54.01 53.44 58.21 60.03 62.53 62.08 61.03 58.73 60.55 55.03 51.93 53.76 54.53 61.32 62.97 64.11 63.63 63.76 63.91 64.08 63.50 63.25 63.46
49.33 42.19 45.22 51.48 50.46 47.98 49.33 48.32 49.04 49.49 48.74 47.57 47.71 49.94 51.94 52.65 51.32 51.72 51.32 50.95 49.94 49.99 49.90 49.83 49.46 50.20 50.87 54.27 49.16 48.97 52.20 49.73 49.52 50.32 49.39 49.81 49.53 53.28 54.80 56.84 60.38 61.19 61.14 60.85 60.86 61.19 60.48 57.92 55.64
49.48 46.06 51.33 51.67 53.12 51.34 49.50 48.34 49.93 48.21 45.92 48.31 47.81 49.75 51.36 50.68 50.17 51.06 50.99 51.29 49.94 49.11 49.44 49.19 48.24 49.60 50.73 49.62 47.47 46.84 46.84 47.75 47.92 48.41 48.10 47.86 49.42 48.91 48.92 49.02 49.77 50.46 56.20 51.88 53.03 52.35 52.75 51.98 53.46
46.54 51.36 51.66 52.20 52.63 51.58 48.51 50.12 47.10 48.69 48.37 51.70 50.90 51.44 50.59 49.87 49.74 49.69 49.70 49.26 48.55 48.02 47.59 48.33 48.81 48.77 48.28 48.62 47.02 46.62 46.77 46.27 46.25 46.98 47.28 46.45 46.75 46.87 46.90 47.44 48.15 48.55 48.82 48.55 48.84 49.39 50.47 50.89 51.99
46.47 48.38 51.61 51.54 50.66 49.70 50.59 47.83 47.17 46.98 50.78 51.04 51.01 50.45 49.28 48.83 48.17 49.05 50.61 49.30 47.37 46.69 46.22 47.07 46.55 45.98 46.28 46.58 45.98 45.54 45.45 45.33 46.09 45.99 47.03 46.77 46.46 45.49 46.57 46.82 47.41 47.23 47.54 47.80 47.93 48.13 48.55 48.72 49.79
48.26 48.98 49.66 49.97 49.64 48.87 48.04 47.41 47.64 48.10 49.15 49.14 49.85 49.06 48.50 48.79 48.53 48.05 48.54 48.94 46.33 45.95 45.33 45.50 46.30 44.94 45.95 45.20 45.29 44.20 44.93 44.75 44.71 45.14 45.92 47.63 46.27 45.30 46.08 46.64 46.98 46.78 46.73 47.59 47.45 46.65 46.79 46.79 47.66
48.79 45.32 45.94 46.90 47.50 46.61 48.05 45.03 45.45 48.13 49.04 47.72 47.22 46.67 47.71 47.86 48.51 48.88 49.99 49.21 47.53 45.32 44.96 44.24 44.96 45.59 44.53 44.66 45.03 44.00 45.21 44.99 43.21 44.66 45.10 46.90 47.01 45.59 45.62 46.18 46.00 45.62 46.26 47.33 47.03 46.42 46.72 46.60 48.06
44.05 42.45 37.14 43.78 46.59 47.48 46.47 38.85 45.10 48.34 48.24 46.17 46.31 45.39 46.55 47.45 48.20 47.62 48.55 49.21 45.94 44.53 43.27 44.10 48.66 45.39 44.06 43.82 43.64 43.91 43.87 43.49 42.87 43.78 43.65 45.93 47.77 46.18 45.26 45.86 45.44 45.98 46.33 46.55 45.60 45.46 45.27 44.82 44.89
39.12 33.61 36.94 40.86 46.77 46.31 43.37 39.63 44.74 47.30 49.11 47.74 46.46 46.01 46.70 46.09 46.42 46.65 48.18 47.64 46.06 44.10 42.67 43.32 43.91 44.28 43.76 42.69 42.67 42.95 43.26 42.99 42.65 42.81 42.99 44.35 46.70 46.89 44.41 45.04 44.92 45.72 45.23 45.00 45.07 44.57 44.73 43.34 44.11
35.06 35.03 37.56 37.90 43.73 44.84 42.33 41.98 44.06 46.06 48.17 48.34 47.29 46.69 46.49 46.93 48.30 49.06 47.96 46.60 45.46 42.96 42.55 43.15 42.79 42.78 42.46 41.80 41.60 41.67 41.86 41.82 42.10 42.38 43.03 43.74 44.55 45.55 43.56 43.71 44.13 44.88 44.28 43.60 43.88 42.66 43.89 43.13 43.29
39.41 38.25 38.32 41.16 45.34 43.47 42.51 43.42 45.12 45.87 45.65 46.17 45.09 45.50 45.69 47.27 50.00 48.46 47.33 45.71 44.01 42.34 41.36 41.86 42.01 41.25 41.58 40.47 40.00 39.62 39.92 40.17 41.23 41.92 43.72 43.42 43.87 44.74 42.81 42.91 43.38 43.88 43.20 42.53 43.08 42.60 42.23 41.66 42.81
41.15 38.47 37.72 41.70 45.28 43.29 41.59 41.96 45.39 44.28 45.26 46.62 46.92 45.86 45.90 47.20 47.02 46.98 47.48 45.42 44.82 42.88 42.20 41.01 42.51 41.63 41.77 41.23 40.38 40.14 39.61 39.99 41.09 42.22 43.17 43.27 43.46 43.92 43.47 42.41 42.20 42.76 41.77 41.52 40.95 41.14 40.07 41.36 41.78
41.38 39.65 38.20 39.73 42.55 42.42 40.57 39.61 41.00 44.44 46.17 48.21 48.64 48.56 48.07 47.47 47.61 47.06 46.81 45.42 44.31 43.31 42.33 42.10 41.96 42.38 42.13 42.00 41.35 40.45 40.57 40.14 40.39 40.70 40.82 42.41 43.55 43.52 42.70 41.75 41.69 40.93 40.82 40.38 40.09 40.24 39.55 38.42 40.05
38.84 43.70 43.56 42.60 38.72 33.50 40.46 34.25 37.21 40.76 42.38 43.47 46.90 48.43 48.08 48.18 49.08 48.44 47.20 45.60 43.84 44.55 43.65 42.61 42.56 42.23 42.38 41.69 40.93 39.90 39.20 38.14 38.97 39.46 40.52 41.39 42.02 41.78 42.56 42.32 41.15 40.57 40.20 39.77 39.99 42.98 40.24 39.33 38.54
41.28 45.09 43.17 42.14 37.17 34.11 36.20 32.37 34.35 39.15 39.69 42.85 43.63 46.13 48.08 49.43 48.92 47.78 47.30 46.17 45.09 44.44 43.28 43.15 42.20 42.42 42.27 41.45 41.25 39.89 38.69 39.18 39.70 39.41 39.51 39.35 40.30 41.43 42.29 41.74 40.87 40.34 40.04 40.13 39.86 39.93 39.78 39.38 38.32
45.15 42.06 40.48 38.27 35.07 29.04 36.23 34.84 38.38 38.33 41.91 44.35 45.83 44.85 46.00 47.97 48.14 48.64 48.19 46.43 44.40 43.72 43.13 41.96 41.86 42.22 41.68 41.42 40.58 40.19 39.46 39.11 38.71 38.66 38.38 39.08 39.44 40.34 41.15 41.90 40.71 40.39 40.07 39.76 40.57 40.01 39.06 38.82 39.03
42.45 36.86 29.35 27.93 27.50 29.45 36.88 34.14 39.47 39.88 41.26 42.51 44.54 45.68 43.92 46.97 47.14 46.98 45.32 44.44 43.12 42.22 42.35 42.52 42.02 41.23 41.37 41.20 41.00 40.44 40.02 39.28 39.06 38.84 38.35 38.00 38.43 38.83 39.63 40.00 40.12 40.14 40.39 40.89 40.36 39.24 38.86 39.08 38.68
38.95 37.91 30.71 25.05 26.15 32.13 35.74 31.16 38.03 42.54 46.59 47.44 46.24 45.45 43.85 45.12 46.90 45.87 46.01 44.91 43.35 43.10 42.52 43.02 41.91 41.85 41.02 41.16 41.09 40.63 40.45 39.69 39.29 39.17 38.90 38.42 38.56 38.96 39.91 40.16 40.33 40.87 41.23 41.03 40.13 39.28 39.48 39.08 39.10
39.38 35.33 40.22 33.30 30.53 27.51 31.66 35.98 40.52 42.21 42.67 42.92 42.92 43.37 44.29 45.10 46.14 46.06 45.84 44.98 44.03 43.44 43.07 43.17 42.10 42.38 41.45 41.41 41.56 39.65 39.51 39.15 39.15 39.50 38.95 38.72 38.68 40.79 40.24 40.43 40.26 40.60 40.61 40.68 40.07 39.21 39.03 39.28 39.42
41.47 41.75 33.26 31.75 26.72 25.00 30.78 30.13 34.71 37.63 42.97 43.91 42.01 42.62 44.45 44.59 44.64 45.52 44.79 44.72 44.29 44.03 43.83 43.62 43.23 42.59 42.08 41.82 41.49 40.78 39.13 38.67 38.83 38.69 38.58 38.69 39.12 39.62 39.89 39.60 39.90 40.38 40.34 40.15 39.39 38.82 39.48 39.13 39.81
37.51 37.89 36.84 35.06 32.76 29.65 29.30 33.49 38.57 42.05 42.99 41.91 42.25 43.74 45.06 44.43 45.22 45.32 45.24 45.25 44.23 43.44 43.21 43.16 42.93 42.77 42.27 42.16 41.22 39.61 38.79 38.15 38.08 38.06 38.43 38.44 38.69 38.77 39.08 39.98 40.06 39.85 39.58 39.50 38.52 38.21 38.82 38.55 39.30
43.25 40.84 40.58 35.02 32.37 30.09 34.62 35.50 40.27 40.55 41.47 42.08 44.32 43.36 42.92 44.70 44.37 44.47 43.78 43.26 43.03 42.54 42.29 42.33 42.80 42.70 43.06 42.85 41.55 40.26 38.89 38.28 37.56 37.54 37.71 38.11 38.12 38.96 39.15 39.51 39.43 39.54 39.56 39.06 38.06 38.14 39.35 39.06 39.04

GFSSGP_sfc_wetblb_009.txt.gz
Wetbulb
71.24 69.46 64.83 63.21 54.19 51.61 47.87 50.34 54.07 54.08 53.92 56.79 59.62 59.26 57.45 56.52 56.40 50.39 66.85 70.52 73.31 74.27 75.71 75.81 76.68 76.12 76.26 76.00 76.05 76.00 76.00 75.78 75.55 75.33 75.05 74.95 74.95 74.90 75.16 75.28 75.35 75.28 75.01 74.59 74.31 74.52 73.95 74.19 74.44
68.94 67.83 62.50 57.23 49.29 45.02 46.30 50.32 52.16 54.30 57.05 57.79 55.66 55.79 55.15 54.20 58.21 59.47 67.75 72.56 73.63 74.54 75.17 75.12 76.18 76.50 76.21 75.88 75.66 75.47 75.15 74.88 74.54 74.33 73.56 73.28 71.94 72.45 73.51 73.93 74.20 74.68 75.25 75.21 74.86 74.43 74.24 73.84 74.10
65.16 65.40 56.29 51.58 47.95 45.87 46.59 50.54 52.72 56.03 58.04 54.96 51.98 52.79 52.15 52.71 56.72 56.49 65.30 73.86 74.23 73.83 74.46 74.44 76.13 76.43 76.16 75.82 75.45 74.51 73.94 73.79 73.50 73.34 72.69 72.13 71.02 70.64 70.83 71.27 71.20 72.47 73.70 74.20 74.88 74.78 74.18 73.76 73.89
60.01 58.62 54.85 48.45 45.87 48.57 50.42 51.83 54.54 54.85 53.89 54.00 51.97 49.28 51.41 53.95 55.34 62.26 70.81 73.19 72.55 72.83 74.06 75.73 76.13 75.88 75.54 74.14 74.15 73.73 72.31 71.06 71.74 72.72 72.34 71.33 71.83 71.07 70.61 70.23 70.09 70.54 70.85 71.02 73.11 74.12 74.58 74.17 73.59
58.98 55.02 47.76 45.79 46.26 48.24 49.13 53.19 54.44 53.39 51.44 51.90 51.36 48.53 49.68 53.83 57.58 68.04 69.95 72.20 71.21 71.79 73.43 73.95 75.69 74.66 73.14 72.63 71.83 70.90 69.35 69.46 70.43 72.39 70.13 69.81 71.04 70.22 70.33 70.68 70.32 70.17 70.15 69.93 70.62 71.47 72.92 73.91 74.05
54.38 52.12 45.23 42.71 45.35 48.48 47.98 51.16 53.08 51.81 49.63 49.95 49.27 48.35 49.17 53.06 59.23 64.63 69.02 70.02 72.01 72.21 73.45 74.02 75.04 74.04 72.74 70.66 69.37 68.66 67.98 68.17 68.41 68.38 67.84 67.86 67.66 67.89 68.27 68.92 68.78 68.74 68.88 69.33 70.13 70.59 70.18 71.30 73.13
52.25 47.74 44.70 44.16 45.03 46.29 49.30 50.49 47.56 49.08 47.96 48.45 50.86 46.85 47.36 49.94 55.31 60.63 66.16 68.99 71.36 72.45 71.83 71.24 70.66 71.18 72.15 71.80 67.93 67.34 66.65 66.55 66.55 65.76 64.87 64.61 64.45 65.53 65.98 66.86 67.35 66.98 67.60 67.29 68.09 69.63 68.28 66.94 70.45
54.64 50.01 45.71 43.83 44.77 45.75 50.45 50.28 50.06 49.57 47.09 50.62 51.09 45.95 45.83 50.90 55.11 56.60 61.24 64.73 68.35 69.09 68.02 65.90 64.07 63.06 58.18 60.08 67.09 66.06 65.09 64.55 64.40 63.33 62.21 60.94 60.44 61.21 63.46 63.78 65.02 64.94 64.90 64.98 64.91 65.00 64.27 63.82 66.06
53.78 46.08 42.38 44.40 45.41 47.73 49.84 47.65 49.73 50.64 48.88 49.79 50.47 48.85 50.26 53.36 54.61 52.52 53.04 54.45 59.50 64.29 62.89 59.75 57.24 55.74 52.33 54.15 60.88 61.64 62.73 61.88 59.70 57.66 59.15 53.76 50.81 52.45 54.12 61.24 62.40 62.56 62.32 62.32 62.52 62.39 61.92 60.89 61.22
47.22 42.40 45.03 49.83 49.92 49.01 49.58 47.62 48.47 48.87 47.63 47.06 47.20 48.93 50.27 52.04 52.40 51.90 51.25 52.36 54.22 55.22 52.94 51.07 50.31 49.80 49.52 52.48 47.77 48.58 51.18 48.27 47.99 47.65 47.42 48.09 47.83 52.22 53.38 56.65 58.95 59.68 59.17 59.47 59.66 59.72 58.50 55.80 52.61
48.01 43.57 46.98 51.38 51.63 51.38 49.13 47.70 49.40 47.41 45.13 47.83 47.98 49.12 50.14 49.89 50.94 52.67 51.62 52.51 52.04 51.23 49.49 49.11 47.82 49.10 49.07 47.78 46.07 45.59 45.97 46.40 46.61 46.29 46.78 46.75 47.76 47.33 47.49 47.75 48.05 48.17 54.41 49.71 50.93 49.87 50.14 49.68 50.60
45.36 49.84 50.97 51.83 51.67 50.03 47.51 48.74 46.43 47.93 48.14 50.43 50.42 50.71 51.16 49.64 51.66 51.89 51.75 49.83 48.52 47.84 48.18 48.69 48.60 48.65 48.29 47.97 45.95 45.36 45.05 44.96 45.01 45.50 46.51 45.48 45.25 45.58 45.74 46.21 46.54 46.45 46.97 47.08 46.89 46.72 47.45 47.70 48.40
45.18 47.11 50.78 50.90 50.43 49.08 49.49 47.82 46.92 46.44 49.18 49.26 50.36 50.15 50.77 50.74 51.03 51.17 52.45 51.13 47.97 47.21 46.79 47.27 47.29 46.42 46.42 45.61 44.68 45.20 45.27 44.39 44.92 45.00 46.32 45.76 44.95 44.72 45.80 45.64 46.06 45.47 46.17 46.22 45.51 45.59 46.12 45.93 46.82
47.23 48.00 48.14 49.20 48.54 48.15 46.94 46.50 46.38 46.94 48.78 49.05 48.76 48.64 49.96 50.13 49.85 49.23 48.37 49.33 47.32 46.97 46.34 46.11 46.56 45.07 45.52 44.38 43.73 43.64 43.78 43.70 44.31 44.42 45.53 46.57 44.80 44.64 45.38 45.23 45.34 44.92 45.13 45.65 45.01 44.76 44.82 44.32 44.89
47.51 44.12 45.15 46.08 46.74 46.45 46.71 44.16 43.98 47.42 47.94 47.62 46.67 48.16 49.07 49.21 49.29 49.71 50.74 50.96 48.80 46.13 45.09 44.76 45.21 45.17 44.29 44.12 43.42 43.13 43.47 43.51 43.34 43.61 44.92 46.54 45.50 44.56 44.80 44.65 44.35 44.16 44.82 45.59 45.15 44.53 44.76 43.49 45.10
42.53 41.12 36.91 42.55 45.76 46.82 45.63 38.33 43.96 46.92 46.53 45.96 45.32 45.41 46.86 47.75 48.28 48.64 50.16 51.01 47.86 46.06 43.69 43.41 48.49 44.77 43.46 43.44 43.38 42.82 43.15 41.87 42.71 42.70 43.14 46.39 46.37 44.97 44.29 44.36 43.97 44.71 44.90 45.15 44.41 43.54 43.81 42.75 42.58
37.60 33.11 35.53 39.67 45.03 44.80 43.21 38.51 43.32 44.70 46.88 46.24 45.45 45.95 46.59 47.16 46.65 45.96 47.16 49.21 48.75 46.36 42.92 42.89 44.22 43.86 43.39 42.23 42.16 41.69 42.25 41.58 41.78 41.92 42.16 44.44 46.34 45.50 43.45 43.72 43.42 44.68 44.08 43.39 43.94 42.84 43.12 41.72 41.96
33.74 33.68 35.43 35.62 41.00 42.51 40.53 40.40 43.96 43.71 46.13 46.49 46.52 46.04 46.51 47.30 48.72 48.99 48.48 48.74 47.95 44.76 43.75 43.36 43.27 42.69 41.88 41.01 40.48 40.58 40.79 40.88 40.96 41.43 42.08 42.98 44.07 44.70 42.52 42.55 42.77 43.71 43.21 42.14 42.60 41.15 42.21 41.71 41.28
37.50 35.90 35.35 38.38 43.03 42.09 40.72 42.13 44.56 45.34 44.59 45.54 45.55 45.93 46.18 46.90 50.21 49.18 48.04 46.83 44.17 42.44 41.57 42.45 42.10 41.25 41.49 39.16 38.91 38.53 39.01 39.47 40.25 41.16 43.04 42.46 42.77 43.73 41.84 41.50 42.16 42.66 42.19 41.17 41.90 41.02 40.73 40.03 41.00
39.22 36.55 36.13 39.33 42.59 41.89 40.50 41.15 44.25 45.64 43.22 46.22 46.33 46.48 46.72 47.91 48.85 47.33 47.43 45.56 45.29 43.41 43.11 42.45 43.07 41.90 41.99 41.99 39.48 39.45 38.91 39.16 40.30 41.45 42.06 42.44 42.40 42.94 42.32 41.15 41.20 41.63 40.79 40.24 39.79 39.64 38.88 39.67 40.25
39.57 37.92 36.72 37.42 41.14 40.90 38.69 39.65 39.52 43.14 45.26 45.90 46.66 48.36 48.64 47.72 47.65 47.99 47.09 46.24 45.91 43.93 42.87 42.91 42.99 42.45 42.74 41.77 40.18 38.99 39.54 39.40 39.76 40.33 40.60 41.37 42.14 42.70 41.89 41.00 40.52 40.10 39.79 39.57 39.06 38.95 38.22 37.07 38.80
36.77 42.10 41.97 40.59 36.95 34.23 38.66 33.25 36.55 39.84 42.08 43.03 45.67 46.40 46.88 47.58 48.51 49.01 47.72 47.33 46.13 45.10 44.60 44.01 43.33 42.62 43.06 41.72 40.61 39.31 38.82 37.85 38.74 39.50 39.83 40.57 41.55 41.20 41.45 41.49 40.49 39.66 39.39 38.78 38.80 41.42 39.07 38.21 36.97
39.47 43.64 41.51 40.56 36.21 33.33 34.97 32.31 33.37 37.31 38.17 41.08 43.43 44.50 46.64 48.29 48.39 48.09 48.43 48.48 47.69 46.50 43.81 43.86 43.23 42.83 43.40 41.86 42.02 40.46 38.09 38.46 38.63 38.65 39.02 38.85 39.46 40.36 41.53 40.83 40.02 39.55 39.19 39.00 38.83 38.49 38.25 38.19 37.07
43.98 40.53 39.22 36.88 33.75 29.22 35.69 33.97 37.49 39.20 40.47 42.16 44.19 44.56 44.43 46.34 47.11 48.85 49.58 48.63 47.50 46.06 44.04 43.02 42.26 42.17 42.35 41.63 40.92 40.29 39.10 38.34 38.07 37.73 37.86 38.24 38.76 39.49 40.41 40.99 39.93 39.60 39.15 39.00 39.02 39.20 37.84 37.45 37.11
40.87 35.80 28.84 27.28 26.58 30.52 35.48 33.39 38.70 38.70 40.42 41.29 43.84 45.34 45.31 42.85 44.08 47.18 46.56 46.43 45.37 44.36 43.66 43.12 42.15 41.48 41.37 41.23 40.91 40.16 39.83 39.00 38.84 38.40 38.00 37.76 37.82 38.19 39.21 39.08 39.30 38.83 39.38 39.51 39.36 38.55 37.59 37.42 37.03
38.29 38.23 32.27 24.60 25.46 31.87 33.65 29.98 37.87 41.69 44.01 45.10 44.76 45.02 45.61 45.03 44.50 45.43 46.53 46.45 44.57 43.65 43.11 43.30 41.86 41.61 41.48 41.24 40.66 40.51 40.44 40.11 39.60 39.15 38.47 38.09 38.28 38.55 39.25 39.22 39.31 39.45 39.73 39.70 39.42 38.15 38.15 37.94 37.88
37.17 33.69 40.71 33.36 36.65 27.21 34.41 35.57 39.89 41.33 41.13 42.86 42.35 42.96 44.01 46.51 43.41 44.70 44.84 45.55 44.35 42.59 42.97 43.52 42.11 42.03 41.48 41.56 41.15 40.28 40.60 39.61 39.47 38.94 38.44 38.50 38.34 40.19 39.30 39.37 39.22 39.32 39.23 39.39 38.98 37.99 37.64 37.82 37.80
39.76 40.46 32.51 30.29 26.23 26.18 31.92 28.83 33.70 37.09 39.21 41.92 41.96 42.56 43.06 44.17 43.26 43.47 44.32 44.84 43.78 43.13 43.34 43.74 43.03 42.03 41.56 41.51 41.47 41.19 40.66 40.26 39.88 38.47 38.18 38.23 38.56 38.74 39.45 39.46 38.75 38.65 39.24 39.01 38.05 37.28 37.81 37.42 38.00
39.13 35.34 35.35 34.78 32.49 29.47 28.28 32.80 39.59 41.18 43.34 43.24 41.92 41.42 42.56 43.70 43.52 43.10 43.21 43.48 43.40 43.26 43.11 42.89 42.07 42.15 41.20 41.45 41.42 41.26 40.20 39.52 38.43 38.15 38.20 38.44 38.24 38.46 38.63 38.79 38.81 38.93 38.60 38.30 37.17 36.71 37.27 37.05 37.37
42.86 38.66 36.44 32.87 31.52 31.52 33.24 34.27 40.14 38.96 40.88 41.10 41.25 42.47 43.00 42.39 43.76 43.42 42.65 41.68 41.61 41.86 42.43 42.38 42.20 42.03 41.72 41.50 41.13 40.57 40.31 38.98 37.31 37.16 37.32 37.79 37.64 38.11 38.36 38.56 38.47 38.41 38.28 37.82 36.82 36.69 37.66 37.03 37.03

GFSSGP_sfc_wetblb_012.txt.gz
Wetbulb
71.15 67.48 64.48 61.65 53.77 50.92 47.42 50.55 53.23 52.59 52.99 56.08 59.13 57.75 55.93 55.70 55.87 49.77 65.47 69.74 73.16 73.82 75.20 75.08 76.21 76.19 75.90 75.71 75.70 75.97 75.64 75.50 74.85 74.16 74.50 74.08 74.00 74.33 74.57 74.88 75.39 75.43 75.11 74.88 74.65 74.64 74.17 74.72 74.61
67.48 66.46 61.40 56.23 49.14 44.55 45.87 49.94 51.91 54.13 56.46 56.54 55.57 55.57 55.42 53.32 57.79 63.23 66.83 71.67 73.52 74.62 74.97 74.56 76.03 76.20 75.85 75.70 75.35 74.94 74.40 74.00 73.74 72.84 72.47 70.86 71.46 72.11 72.77 72.50 73.09 74.01 74.85 75.12 74.81 74.42 74.31 74.43 74.49
64.87 63.36 56.48 50.82 47.52 45.51 45.81 49.89 52.63 55.92 57.50 53.61 51.57 51.97 53.46 53.27 56.42 63.00 66.19 72.60 73.43 73.29 73.93 73.97 75.96 76.39 75.94 75.43 74.42 73.75 73.46 72.90 72.33 72.27 71.56 71.07 70.59 70.40 70.36 70.57 71.35 71.67 71.84 73.78 74.55 74.88 74.44 74.01 73.94
59.43 58.25 53.70 48.68 45.40 48.16 49.45 50.94 54.20 55.39 55.32 53.68 51.57 48.96 50.46 53.58 55.40 60.29 72.08 73.05 71.82 72.25 72.80 75.01 75.94 75.57 75.37 74.34 74.08 72.43 71.35 71.97 72.50 72.45 70.70 71.53 71.17 70.17 70.35 70.25 70.01 70.31 70.22 71.23 72.18 73.34 74.28 74.62 74.08
58.24 53.85 47.50 45.26 45.73 47.65 48.61 52.71 54.88 53.53 51.40 51.26 51.18 48.64 49.09 52.99 57.27 69.42 71.23 71.94 70.77 71.58 72.80 73.26 75.47 74.51 73.74 73.19 71.05 70.04 70.04 71.91 72.11 70.45 69.78 69.56 69.92 69.20 69.46 69.33 69.76 69.70 70.04 70.18 70.95 70.84 71.81 73.41 74.16
53.30 51.49 45.24 43.35 45.09 48.09 47.38 51.84 54.04 52.04 49.30 49.42 49.32 48.53 49.09 52.28 65.65 67.54 70.54 69.97 71.33 71.23 72.54 73.14 74.81 73.33 72.54 71.11 69.84 68.82 69.15 69.22 68.85 68.31 67.75 67.75 67.81 68.10 68.34 68.39 67.98 68.60 68.14 70.04 70.41 68.76 68.26 71.01 72.66
50.41 47.76 45.17 43.96 44.41 46.03 49.46 51.06 49.58 49.89 47.93 48.67 50.28 47.51 47.26 49.68 60.05 66.27 68.53 69.35 70.99 71.85 71.67 70.70 69.91 70.66 72.06 69.67 68.17 67.62 67.74 67.33 66.50 65.66 65.25 64.87 65.58 65.95 66.55 66.85 66.70 66.60 66.40 66.78 67.10 66.29 66.01 67.48 68.17
52.87 48.54 43.67 42.92 44.44 45.52 49.58 49.84 49.96 49.94 48.21 50.00 51.42 47.23 45.73 50.46 56.40 63.10 66.74 68.23 71.28 70.33 69.27 66.68 64.34 60.48 60.94 62.16 67.30 66.39 65.87 65.37 64.33 63.30 62.14 61.11 61.50 63.22 64.08 64.27 64.54 64.44 64.22 64.42 64.32 64.18 63.57 64.05 65.31
52.44 45.34 42.08 44.14 44.74 47.24 49.23 48.01 49.09 49.71 47.63 48.45 49.58 48.34 49.33 52.52 55.57 59.01 59.20 63.91 67.29 67.54 65.05 62.62 58.45 54.02 55.51 58.06 62.40 63.32 63.91 62.22 60.81 59.13 58.83 54.56 50.67 51.66 54.90 61.42 62.16 61.86 62.08 62.16 62.11 61.50 60.85 59.02 59.57
46.74 41.85 43.78 48.28 48.53 47.58 49.15 47.48 47.67 47.72 46.46 46.76 47.24 48.86 49.35 52.83 54.75 59.51 58.39 61.94 61.57 61.55 59.64 57.39 53.45 50.09 49.53 53.44 48.67 48.75 50.96 47.05 46.72 46.90 46.60 46.65 48.70 52.13 53.50 56.62 58.93 59.50 58.86 58.75 58.79 58.28 57.16 53.74 49.83
45.86 42.22 45.03 49.62 51.07 51.04 49.05 46.80 49.09 47.10 44.66 47.89 48.66 48.92 49.27 50.95 51.88 59.76 60.71 62.75 62.33 61.06 55.99 52.29 49.88 48.33 48.32 47.45 45.75 44.99 45.32 45.27 45.04 45.72 45.73 45.93 46.71 46.59 46.50 46.22 46.35 46.96 53.04 47.68 48.91 47.96 48.19 47.48 47.54
43.62 48.75 49.90 50.89 51.04 49.33 47.39 48.22 46.25 47.36 48.88 50.09 50.33 49.26 49.45 50.00 52.37 55.01 58.44 58.04 57.57 55.00 54.31 50.21 49.01 48.03 46.72 47.38 45.34 44.55 44.19 44.01 43.82 45.01 45.40 44.44 44.61 45.00 45.02 45.17 45.02 45.57 45.62 44.83 44.96 45.09 45.51 45.78 46.14
44.66 46.66 49.77 50.94 50.37 48.57 48.52 47.06 46.80 45.84 48.63 48.58 49.54 49.36 49.14 50.92 52.93 53.95 55.86 56.18 55.77 54.18 50.78 48.66 47.68 46.92 46.30 45.38 44.57 44.38 45.23 43.75 44.02 44.49 45.50 44.53 44.55 44.36 44.98 44.38 44.26 44.35 44.84 44.37 43.75 43.94 43.65 43.82 44.34
45.86 46.80 47.49 48.34 47.92 47.73 46.35 46.20 45.89 46.27 47.42 48.25 48.44 47.85 48.68 50.61 51.95 51.87 49.40 49.65 48.21 54.32 49.54 47.50 47.37 45.91 45.43 44.12 44.16 43.89 43.53 43.68 43.85 44.06 44.93 45.14 44.42 44.41 44.66 44.09 43.94 43.64 44.08 43.83 43.40 43.33 42.50 42.50 42.61
46.06 43.37 44.09 44.48 45.92 46.25 45.91 43.40 43.68 46.76 46.58 46.16 46.79 46.07 47.39 49.61 49.67 51.43 52.04 51.21 50.71 48.51 48.28 46.26 46.39 45.46 44.32 43.57 43.22 43.13 42.79 43.94 43.07 43.41 44.98 44.91 44.66 44.52 44.12 43.66 43.04 42.93 43.89 44.09 43.68 42.87 42.71 41.89 43.39
41.25 39.76 36.47 41.69 44.46 46.24 45.31 39.90 44.14 45.00 45.43 45.60 45.09 44.48 46.01 47.99 48.90 50.58 52.07 51.71 50.39 48.39 44.90 45.45 49.25 45.52 43.65 43.00 42.40 42.51 42.32 41.98 42.37 41.98 43.66 45.29 45.33 44.46 43.61 43.24 43.19 43.69 43.99 43.61 43.36 42.27 42.35 40.93 40.81
36.84 32.94 33.84 38.37 43.90 43.60 42.55 38.43 42.65 42.66 43.99 44.38 44.00 44.74 45.51 47.47 47.87 47.90 48.37 50.54 49.09 49.36 45.79 44.40 44.92 44.62 43.67 42.44 41.55 41.33 41.44 40.99 41.52 41.02 41.83 44.75 45.44 44.53 43.17 42.66 42.45 43.80 43.11 42.20 43.08 41.22 41.86 40.08 39.97
32.76 32.42 34.03 34.23 39.17 41.00 39.51 39.18 43.61 42.72 43.50 43.61 44.55 43.86 43.95 45.57 47.73 50.03 48.15 49.08 49.50 48.58 45.40 45.35 44.67 43.95 42.37 41.31 39.90 39.66 40.00 39.86 40.25 40.60 41.09 43.04 44.20 43.66 42.03 41.85 42.31 42.86 42.32 41.09 41.23 40.04 40.82 40.42 39.69
35.41 33.95 34.03 36.55 40.91 39.80 38.85 40.40 42.96 45.43 42.73 43.48 44.01 44.29 44.54 46.17 49.64 49.34 47.78 47.63 46.52 44.54 43.18 43.42 43.55 42.75 42.32 39.96 39.37 37.81 38.32 38.53 39.06 40.25 42.07 41.68 42.57 43.14 41.13 40.92 41.45 42.09 41.44 40.25 40.87 40.08 39.55 38.99 39.60
38.46 35.76 35.98 37.92 40.82 40.15 38.47 39.47 42.84 44.61 43.06 45.16 45.52 45.63 46.31 47.29 48.10 46.55 47.18 46.63 46.05 45.27 45.03 43.87 44.42 42.82 43.00 43.46 38.81 39.11 38.06 38.24 39.73 40.74 41.24 41.86 41.75 42.44 41.35 40.42 40.62 41.01 40.41 39.53 39.02 38.99 38.03 38.37 38.93
37.42 35.50 36.41 36.66 38.97 39.22 37.80 38.50 40.09 41.80 44.17 43.51 45.33 47.47 48.10 47.49 47.90 48.56 46.86 46.41 47.07 46.05 44.68 44.20 44.11 43.47 43.52 42.69 39.79 37.87 38.89 38.57 38.85 39.22 40.02 41.03 41.47 41.85 41.44 40.43 39.79 39.94 39.36 39.05 38.44 38.47 37.97 36.57 37.68
34.46 39.78 39.93 38.63 34.93 32.72 37.27 32.47 35.53 38.71 41.43 41.20 43.22 44.72 46.07 47.03 48.03 48.98 48.15 46.95 46.61 47.10 46.14 45.67 44.75 43.45 43.24 41.96 41.61 39.15 39.07 37.35 38.43 39.35 39.77 40.49 40.84 41.10 41.18 40.29 39.94 39.01 39.13 38.51 38.40 39.81 38.14 37.54 35.59
37.48 42.15 39.92 38.89 34.54 32.46 33.96 31.28 38.74 37.07 36.63 39.82 41.81 42.66 45.05 46.76 47.23 47.51 48.10 48.78 48.42 48.48 45.73 45.53 44.38 43.46 43.69 42.21 42.78 41.50 37.87 38.40 37.96 38.21 38.86 38.66 39.24 39.75 40.36 40.07 39.26 38.78 38.49 38.37 38.59 37.69 37.70 37.39 36.16
42.22 38.86 37.77 35.37 32.83 27.81 34.79 32.95 36.82 37.55 38.26 40.17 41.75 43.15 44.13 44.73 45.02 46.57 48.52 49.03 48.54 48.29 46.20 44.67 43.35 43.30 43.43 42.68 42.30 41.79 40.43 38.12 37.33 36.98 37.69 37.64 37.88 38.52 39.57 39.96 38.87 38.82 38.47 38.43 38.44 37.82 37.39 36.37 36.01
39.59 34.54 27.92 26.43 25.96 28.81 35.36 32.74 38.30 38.44 37.76 40.14 41.86 43.82 45.63 43.92 41.96 42.80 44.79 46.40 47.10 45.83 44.94 44.04 43.39 42.40 42.54 42.28 41.70 41.63 41.00 39.59 39.10 38.58 38.58 37.29 37.20 37.38 38.43 38.69 38.41 38.23 38.42 38.87 38.41 37.74 37.27 36.70 35.82
35.19 34.79 28.23 24.16 23.13 27.53 32.29 29.12 37.02 38.95 41.24 41.46 42.87 43.26 42.89 43.49 43.90 42.12 43.98 45.37 45.91 44.99 43.69 43.77 42.58 42.23 41.77 42.05 41.49 41.63 40.64 40.62 40.07 39.37 38.29 38.60 38.52 38.35 38.96 38.83 38.65 38.69 38.78 38.77 38.29 37.72 37.59 36.98 36.73
35.00 32.08 37.30 32.28 34.92 29.56 33.56 35.51 41.12 41.88 40.82 41.05 41.65 42.07 42.88 44.69 44.91 42.92 43.96 43.87 44.01 43.95 43.20 43.07 42.13 42.80 41.86 41.94 41.73 40.95 40.35 39.82 39.68 38.67 38.90 38.53 38.27 39.89 38.89 38.71 38.41 38.51 38.55 38.53 37.94 37.33 36.96 36.72 36.53
38.16 38.66 32.04 30.82 25.37 25.13 30.44 29.52 33.63 38.68 40.84 41.61 40.10 41.75 43.35 44.69 45.47 44.23 43.05 43.32 43.77 43.39 43.07 43.04 43.00 42.83 41.96 41.75 41.84 41.26 40.86 40.56 40.07 39.07 38.31 38.12 38.28 38.85 38.95 38.43 38.15 38.32 38.09 38.09 37.63 36.67 36.81 36.13 36.62
38.06 36.88 35.13 34.43 34.89 28.79 26.72 30.68 36.61 33.70 36.60 38.11 40.03 42.33 44.04 44.79 45.57 44.28 44.76 42.35 42.43 41.19 41.97 42.37 42.56 42.58 41.33 41.66 41.61 41.16 40.32 40.02 39.46 39.20 38.94 38.76 38.08 38.07 38.33 38.77 38.59 37.99 37.88 37.71 36.33 35.72 36.13 35.86 35.97
39.99 37.87 37.73 30.72 29.04 28.85 27.67 28.62 38.03 38.30 39.10 39.69 39.79 42.08 44.47 45.34 45.54 45.26 42.89 41.39 40.20 40.35 40.75 41.45 42.02 41.86 41.62 41.99 41.19 40.45 40.51 40.00 38.84 38.59 38.42 38.24 38.05 37.92 38.34 38.26 37.88 37.93 37.99 37.13 35.98 35.79 36.60 35.87 35.82

GFSSGP_sfc_wetblb_015.txt.gz
Wetbulb
71.54 68.11 68.44 66.21 60.00 57.56 53.76 55.03 57.73 56.61 57.50 60.26 63.14 61.29 59.41 60.23 58.60 55.43 69.47 71.65 72.84 73.72 75.83 76.23 76.29 76.53 75.74 75.08 75.58 75.74 75.76 75.06 74.34 73.95 72.99 73.70 73.92 74.15 74.29 74.43 75.07 75.68 75.47 75.12 74.96 74.89 74.85 75.13 74.98
68.24 66.76 65.54 61.69 56.17 52.15 52.90 55.61 56.50 58.13 59.35 61.05 60.59 60.45 60.13 58.36 61.87 67.25 69.08 72.29 73.89 74.70 75.63 75.60 76.10 76.48 76.15 75.94 75.33 74.67 74.32 73.76 73.00 71.96 71.25 71.27 71.61 71.52 71.89 72.47 72.88 73.14 74.72 75.22 75.15 74.79 74.55 74.66 74.65
66.88 64.19 63.03 57.61 53.70 52.29 52.34 55.17 58.19 58.69 60.24 57.47 56.61 56.89 59.08 58.71 60.28 68.52 69.80 73.57 74.61 74.59 75.39 75.51 76.19 76.54 75.87 75.05 73.94 73.52 73.10 72.63 72.40 71.85 71.36 70.91 70.61 70.46 70.70 70.82 71.07 71.32 72.49 73.23 74.19 74.92 74.71 74.36 74.21
63.80 63.78 59.06 55.39 52.02 54.03 54.84 56.36 58.27 58.51 58.19 57.73 56.30 55.75 56.21 60.13 62.27 67.58 72.90 73.87 73.47 73.93 74.90 75.74 76.18 76.16 75.64 74.21 73.74 72.47 72.62 72.58 72.23 70.79 72.27 71.01 70.36 70.83 70.27 70.66 70.80 70.68 70.93 71.89 71.93 72.83 74.17 74.64 74.57
62.13 59.55 54.28 51.98 51.74 53.13 54.94 56.43 58.99 57.88 57.05 55.08 55.64 54.80 55.18 57.58 60.06 69.18 73.19 73.40 72.21 73.35 74.55 74.95 75.89 75.68 74.58 73.46 71.56 71.61 72.63 72.51 71.29 70.13 70.03 69.69 69.56 69.40 69.18 69.03 69.26 69.54 71.28 71.27 69.59 70.20 72.40 73.33 73.75
59.40 57.41 52.32 50.11 51.15 52.81 53.39 56.90 58.88 57.88 54.61 53.70 53.91 54.01 55.95 57.62 65.05 71.58 73.21 72.48 72.61 73.03 74.00 74.49 75.56 74.82 73.67 71.28 70.34 70.49 70.92 70.48 69.73 68.75 68.55 68.45 68.59 68.55 68.49 68.37 67.69 67.99 68.44 68.74 67.89 67.73 69.37 70.12 71.37
56.68 54.90 51.86 51.10 50.43 51.52 53.85 56.53 57.58 57.79 53.68 54.09 55.18 54.06 55.44 56.08 67.14 71.73 72.08 72.07 72.76 73.30 73.57 74.34 72.97 72.89 73.00 70.28 69.54 69.58 69.20 68.27 67.56 66.80 66.27 66.66 66.66 67.24 67.01 66.85 66.50 66.28 66.38 66.67 66.44 65.82 66.74 67.66 67.99
56.99 54.95 49.35 49.86 50.02 51.56 53.88 55.00 55.17 56.41 56.21 54.28 56.35 54.13 54.57 57.14 66.88 70.33 71.02 71.23 71.85 72.86 73.31 72.39 70.70 69.58 68.11 67.64 68.42 68.07 67.29 66.27 65.54 64.34 63.44 63.87 64.58 64.97 64.84 64.52 64.51 64.47 64.53 64.54 64.17 63.43 62.83 64.11 64.83
56.36 52.00 47.96 50.15 49.23 52.81 53.14 52.36 52.34 53.54 52.95 52.95 54.97 54.12 55.12 57.44 65.61 68.05 68.09 68.48 68.79 70.71 71.49 69.91 67.14 66.35 66.10 66.03 66.19 66.42 65.67 64.61 63.09 61.58 60.53 58.38 58.83 60.50 62.08 62.40 62.38 62.65 62.36 61.99 61.55 60.84 59.46 58.29 60.09
53.27 49.29 49.04 52.43 52.62 52.50 53.23 52.06 52.07 51.64 51.24 51.72 52.84 54.29 54.05 58.19 64.35 65.42 65.36 65.05 66.12 67.19 68.05 67.64 64.17 63.45 63.77 62.71 61.75 60.74 58.12 55.75 55.61 54.16 54.98 56.43 57.12 58.07 58.64 59.77 59.89 59.45 59.29 58.99 58.79 57.58 56.49 55.55 54.81
49.66 48.51 48.83 51.01 53.94 54.00 52.71 50.65 52.10 51.39 49.85 52.96 53.49 54.86 53.61 56.66 62.78 64.62 65.28 65.54 65.91 67.28 67.32 65.44 61.25 60.65 60.62 58.06 55.72 54.42 53.48 52.88 53.24 53.16 53.71 54.01 53.89 53.45 53.33 53.67 53.61 53.68 54.19 52.82 53.10 52.76 53.24 53.61 53.54
48.47 50.71 51.58 53.80 54.02 51.83 50.92 51.20 50.19 50.99 55.34 54.42 55.13 54.04 53.38 55.22 59.08 63.47 64.36 65.31 65.68 66.97 67.10 64.10 59.11 56.54 57.15 55.32 54.02 53.63 52.73 52.34 52.38 52.54 52.66 53.28 53.11 52.62 52.23 52.51 52.54 52.42 52.15 51.66 51.64 51.24 51.44 51.35 51.95
48.92 49.98 51.48 53.13 52.76 51.87 51.10 50.32 50.49 49.59 52.93 53.19 53.10 52.91 53.04 55.15 57.82 62.02 64.66 65.57 66.23 65.51 65.20 61.49 57.78 55.45 54.45 54.35 53.08 52.73 52.97 52.16 52.30 52.30 52.22 53.09 53.10 52.47 52.27 51.69 52.06 51.87 51.86 51.38 50.80 50.70 50.46 50.29 49.81
48.48 49.05 49.41 50.49 51.18 50.81 49.35 50.30 49.71 50.94 52.29 51.08 51.99 52.88 53.35 54.01 56.47 58.04 61.21 63.08 64.08 64.83 63.65 60.01 56.88 55.05 53.69 53.37 52.51 52.38 52.69 51.82 52.09 52.31 51.97 52.26 52.85 52.47 52.10 51.45 51.46 51.63 51.81 51.13 50.84 49.86 49.68 49.70 49.42
47.98 46.12 47.28 48.16 49.50 50.03 49.86 47.73 47.00 52.24 51.24 51.11 50.72 52.50 52.93 53.11 54.90 56.44 57.57 60.33 61.91 64.12 64.01 58.26 56.53 54.33 53.18 52.94 52.48 52.03 51.81 51.39 51.45 52.00 51.76 51.90 52.46 52.40 51.76 51.31 50.99 51.44 51.55 50.81 50.57 50.25 49.41 49.17 49.37
44.89 44.85 42.25 46.35 47.45 49.50 49.63 44.07 49.56 49.78 49.79 50.32 50.86 51.15 51.33 52.38 53.26 55.19 57.23 57.80 59.59 61.80 61.20 58.01 55.45 53.38 52.92 51.95 51.54 51.20 51.03 51.20 51.08 51.41 51.78 51.37 51.76 52.09 51.60 51.06 51.05 51.31 51.41 51.41 50.11 49.96 49.07 48.56 48.56
42.13 39.65 38.96 41.58 46.08 46.76 46.40 44.78 48.29 47.54 46.79 47.95 48.94 49.48 49.73 50.95 52.15 53.99 55.31 56.54 57.43 57.87 58.71 56.49 54.65 53.07 52.06 51.33 50.54 50.43 50.26 50.37 50.29 50.47 51.48 51.36 51.20 51.17 51.17 50.94 51.03 51.16 50.58 50.73 49.81 49.38 49.32 48.25 48.12
37.26 38.18 38.51 38.69 43.50 44.30 43.86 43.21 46.85 48.98 47.24 48.40 49.21 49.64 49.44 49.98 51.57 54.13 53.75 55.36 56.44 56.06 56.34 56.13 54.01 52.96 51.73 50.43 49.32 49.16 48.42 49.07 49.42 49.27 50.39 51.02 50.79 50.13 50.63 50.27 50.49 50.55 49.80 49.66 49.38 48.46 49.02 48.48 47.65
39.78 38.28 38.03 41.52 43.76 42.31 42.59 42.90 45.00 47.51 46.80 47.32 48.48 49.16 49.29 50.04 53.04 53.83 54.01 54.07 54.21 54.61 54.14 52.84 52.26 51.59 50.19 48.26 46.95 47.10 46.78 46.83 47.56 48.48 49.12 50.09 50.00 49.66 49.84 49.55 49.57 50.21 49.40 49.17 48.89 48.68 47.95 47.70 47.87
40.79 38.97 38.74 41.86 43.52 41.87 41.47 41.33 44.72 46.05 46.65 48.17 48.10 49.05 49.83 50.97 51.48 52.30 52.58 52.76 52.40 53.32 53.07 52.01 51.61 51.02 49.96 50.25 49.52 49.33 48.38 47.31 48.27 48.20 48.34 48.73 49.09 49.56 48.75 48.99 48.95 49.53 48.67 48.32 47.91 48.17 47.23 47.53 47.53
39.36 38.11 38.41 38.77 41.67 42.60 40.35 40.62 43.41 45.38 46.97 47.96 48.05 49.70 50.55 50.87 50.93 52.01 51.68 51.66 51.83 52.12 51.78 51.98 51.39 51.04 50.44 50.19 48.15 45.44 46.71 45.92 46.00 46.37 47.10 47.19 48.27 49.01 48.64 48.31 48.44 48.64 48.50 47.77 47.59 47.70 47.09 45.50 46.66
36.36 41.72 41.11 39.77 38.18 35.46 42.27 34.99 42.22 44.44 45.70 45.36 47.09 48.22 49.35 50.67 51.30 51.61 52.23 51.32 51.27 51.40 52.42 52.30 51.51 51.08 50.20 49.61 47.16 46.39 47.30 46.43 47.29 47.60 47.20 47.27 47.71 48.01 48.30 47.84 47.83 48.12 47.87 47.36 47.28 47.23 47.11 46.43 44.59
40.84 42.78 40.92 40.38 38.31 37.44 39.17 36.70 42.01 44.39 43.39 45.50 48.20 48.77 47.88 49.48 50.71 50.88 51.32 52.55 52.46 53.10 52.30 51.41 51.03 50.50 50.01 47.61 48.79 47.86 48.47 49.32 47.08 46.33 46.45 47.19 47.22 47.62 47.64 47.40 47.24 47.07 47.37 47.43 47.19 46.62 46.26 46.41 45.57
44.59 42.36 40.59 38.23 37.98 32.58 38.70 37.49 39.01 42.08 42.69 44.69 46.84 47.79 48.27 48.60 48.64 49.00 50.74 51.85 52.63 53.14 52.78 51.24 50.04 49.42 49.40 47.72 48.38 47.88 48.15 46.49 45.46 45.89 46.19 46.19 46.42 46.42 46.89 46.72 47.00 47.23 46.97 46.82 46.93 46.72 46.35 45.99 45.24
42.43 37.98 31.78 31.09 30.77 31.57 37.76 36.96 40.22 43.61 45.94 45.52 45.61 46.27 45.87 48.13 48.84 48.46 47.80 49.21 50.93 52.02 51.54 50.22 49.40 48.53 48.60 47.29 47.74 47.86 48.43 47.55 47.06 46.00 46.39 45.04 44.98 44.97 45.63 46.25 45.93 46.09 46.93 46.90 47.05 46.28 46.20 45.79 44.95
39.53 38.96 33.35 27.06 29.24 32.78 37.81 33.74 39.72 44.24 44.76 44.33 44.86 45.21 46.57 47.72 48.90 49.21 49.53 49.85 49.45 50.32 51.18 49.82 48.56 48.14 47.93 47.14 47.41 47.97 48.31 47.46 47.86 46.81 46.60 45.80 45.90 46.17 46.42 46.09 46.23 46.20 46.33 46.36 46.41 46.15 46.23 45.95 45.43
39.00 36.49 40.23 34.33 36.99 32.20 35.78 39.51 43.65 46.21 43.14 42.00 42.25 43.12 43.64 45.84 47.38 48.29 49.28 49.86 50.12 48.81 49.60 48.84 48.14 47.82 47.32 46.54 47.30 47.20 47.16 47.31 46.56 46.37 46.51 46.64 46.30 45.99 46.06 46.17 45.79 45.78 45.65 45.87 45.90 45.54 45.39 45.55 45.45
41.12 41.69 33.48 35.05 27.13 25.86 32.89 35.03 36.39 41.61 38.00 40.55 41.02 41.85 42.17 45.03 46.97 47.67 48.80 49.53 50.24 48.55 48.56 47.97 47.97 46.89 46.51 46.73 47.34 46.81 46.52 46.85 47.00 46.46 45.13 45.38 45.76 46.31 45.63 45.44 45.55 45.38 45.31 45.41 45.23 45.21 45.38 44.37 44.87
35.67 33.35 34.36 35.48 33.60 27.09 26.00 31.79 37.51 37.92 39.72 38.46 39.13 41.83 42.33 44.50 45.62 46.95 48.24 49.46 49.43 47.48 46.41 46.47 46.51 46.11 46.05 46.16 46.75 46.62 45.90 46.15 46.20 45.58 45.70 45.69 45.80 45.69 45.26 44.93 44.78 44.76 44.67 44.80 44.49 44.60 44.27 43.33 43.85
37.22 35.35 32.74 25.31 23.80 26.42 23.77 22.65 38.47 40.04 38.65 38.72 40.38 41.77 43.26 44.35 45.67 47.17 47.77 47.84 48.75 48.68 45.98 44.87 45.78 45.54 45.91 45.90 45.83 45.94 45.69 45.73 45.60 45.56 45.50 45.73 44.97 45.15 45.17 44.84 44.56 44.36 44.39 44.49 43.82 43.46 43.51 43.33 43.12

GFSSGP_sfc_wetblb_018.txt.gz
Wetbulb
72.38 71.31 73.33 70.47 62.82 61.51 58.25 58.36 62.34 60.63 61.09 64.38 65.86 64.17 62.40 63.49 61.02 58.50 72.27 73.87 73.18 73.23 74.60 76.24 76.80 76.11 75.98 75.00 76.06 75.97 75.10 74.84 73.27 72.95 73.47 73.74 73.63 73.64 73.80 74.04 74.18 75.45 75.56 75.32 75.10 75.08 75.33 75.03 75.19
70.47 68.11 70.54 68.00 59.33 55.56 56.65 60.79 59.47 61.89 63.07 64.91 65.31 64.20 62.96 60.55 66.00 69.16 70.92 73.89 74.00 73.92 74.57 74.90 76.66 76.40 75.95 76.25 75.32 74.78 74.10 73.36 71.82 71.58 71.54 71.56 71.58 71.94 72.13 72.19 72.51 73.76 74.43 75.22 75.43 74.90 74.65 74.78 74.75
69.89 68.05 66.10 62.31 59.27 55.32 56.05 59.89 62.20 62.84 63.72 63.80 63.29 64.01 63.39 61.25 64.52 69.33 73.05 74.56 74.38 74.13 74.12 75.39 76.37 76.77 76.16 74.98 74.14 73.82 73.27 72.49 71.84 71.58 70.91 70.91 70.73 70.91 71.19 71.23 71.36 71.95 72.97 73.37 73.94 75.08 74.86 74.72 74.37
67.28 67.21 64.45 59.01 56.92 58.65 58.75 61.12 63.42 62.43 62.37 62.43 62.76 59.83 62.39 66.03 66.57 71.60 74.02 75.06 74.75 73.92 74.30 75.87 76.48 76.34 75.24 74.24 73.74 73.02 72.32 72.21 71.05 72.55 71.16 70.38 70.74 70.42 70.60 70.69 70.97 71.63 72.03 70.85 71.85 73.53 74.22 74.43 74.78
68.58 65.29 59.47 57.72 58.08 59.17 60.53 61.10 63.65 62.57 61.64 61.39 61.09 59.39 60.72 63.45 66.74 72.52 74.25 74.73 74.13 72.83 73.53 74.78 76.49 76.21 74.71 73.84 72.71 72.72 73.18 71.97 70.89 70.54 70.19 69.79 69.59 69.39 69.06 69.54 69.04 70.50 70.10 69.13 70.00 71.37 72.03 72.70 73.77
61.56 63.45 56.72 54.39 57.16 59.09 59.32 61.41 63.20 63.17 62.02 59.82 58.87 59.43 61.44 64.26 65.44 72.43 74.50 74.40 72.89 72.00 72.56 73.52 75.92 75.46 74.32 72.46 72.03 72.99 72.43 71.16 70.19 69.64 69.19 69.09 68.96 68.87 68.64 67.79 67.74 68.21 68.32 67.94 67.65 69.01 69.90 70.53 71.75
57.66 57.45 54.64 56.16 56.74 58.50 59.27 61.29 62.12 62.64 62.19 60.40 60.95 58.73 61.71 62.00 66.62 72.50 73.98 73.66 71.96 71.78 71.79 72.49 74.48 74.72 72.88 71.39 71.32 71.43 70.89 70.04 68.93 68.32 68.02 67.64 67.97 67.66 67.35 66.85 66.59 66.73 66.54 66.50 65.90 66.19 67.28 67.80 68.70
63.47 58.17 53.61 54.85 54.11 55.73 59.76 60.27 61.95 62.72 61.55 60.18 61.50 58.60 58.30 62.64 67.43 72.27 73.46 71.96 71.38 71.39 71.10 71.50 73.07 73.89 71.97 70.35 70.42 70.01 69.03 68.03 66.97 66.23 66.15 66.11 66.06 65.82 64.90 64.87 64.83 65.03 64.90 64.54 64.07 63.27 64.34 65.02 65.24
61.97 54.03 51.73 53.37 53.86 55.22 58.85 58.33 58.75 60.62 61.98 59.27 60.44 61.01 60.46 62.92 69.22 71.10 71.12 70.23 70.13 70.23 70.88 71.35 71.33 72.36 70.85 69.01 69.06 68.41 67.29 66.20 64.86 63.40 62.75 62.56 63.23 63.70 63.83 63.19 63.11 62.87 62.52 62.24 61.45 60.63 59.75 59.72 61.25
56.79 52.47 51.85 56.05 56.94 55.98 57.70 57.73 58.58 56.28 58.33 58.32 59.33 60.78 59.41 63.82 68.14 68.46 68.30 68.03 68.35 68.94 70.10 71.03 70.50 70.52 69.36 66.98 67.28 65.90 65.50 64.25 61.56 60.38 59.36 59.50 60.42 61.13 62.04 61.26 60.38 60.16 59.73 59.06 58.33 57.47 56.99 58.19 59.94
54.51 49.86 53.04 52.96 55.76 57.50 56.99 56.33 57.52 56.26 56.44 58.60 58.75 60.70 59.78 61.96 66.17 66.90 67.33 67.58 67.65 68.76 70.18 70.50 69.98 69.69 68.69 66.15 65.52 63.65 60.72 58.77 58.07 57.57 58.09 58.71 58.43 58.18 57.98 58.00 57.06 56.79 54.73 56.15 55.32 55.81 56.16 56.27 57.46
51.00 52.94 53.90 54.15 55.41 55.65 54.71 56.43 55.58 56.72 58.01 59.52 59.58 60.57 60.47 59.70 63.66 65.27 65.97 66.74 67.21 68.23 69.34 70.13 69.63 68.79 67.87 66.01 63.06 60.35 58.36 57.78 57.22 57.19 57.01 57.33 57.01 56.22 56.03 56.15 55.94 56.24 56.14 54.97 55.42 54.71 54.33 54.43 54.33
51.82 52.20 53.48 54.76 54.80 55.22 55.73 54.26 54.32 54.91 57.83 59.24 58.97 57.45 58.42 59.30 61.33 64.81 66.09 66.80 67.38 67.37 68.88 69.79 69.92 67.74 66.93 64.46 61.80 59.57 58.52 57.49 57.50 56.81 56.77 57.26 56.99 56.01 55.79 55.59 55.56 55.50 55.71 55.26 54.53 54.54 53.99 53.06 52.27
52.22 52.12 52.29 53.10 53.29 54.36 52.81 53.18 54.06 54.28 57.20 57.11 57.59 57.63 58.38 58.84 60.04 61.71 64.02 65.26 66.52 67.51 68.39 69.47 69.09 67.12 65.95 63.44 61.18 59.32 58.85 58.08 57.38 57.16 56.76 56.77 56.98 56.25 55.65 55.06 55.10 55.05 55.27 55.38 54.89 54.16 54.22 53.69 53.11
52.17 49.08 51.17 51.77 52.50 52.15 53.74 50.41 51.33 55.19 55.84 54.80 54.95 55.91 57.53 58.78 59.62 59.98 61.97 64.15 66.13 67.28 68.34 68.57 68.22 66.64 64.46 62.12 60.82 59.70 59.12 57.68 57.24 57.17 56.54 56.40 56.86 56.21 55.60 54.97 54.57 54.67 54.81 53.43 54.29 53.44 54.03 53.94 53.28
48.84 48.82 45.84 50.36 51.09 52.04 51.64 46.40 51.81 54.09 53.50 53.58 54.00 54.94 56.03 56.91 58.39 59.64 60.71 62.23 64.81 66.36 67.18 68.08 66.96 65.35 63.34 61.57 60.51 59.28 58.83 57.66 57.36 57.06 56.43 56.00 56.22 56.27 55.52 54.71 54.31 54.67 54.50 54.34 53.83 53.82 53.57 53.49 53.35
48.04 42.95 45.03 46.69 49.75 49.80 50.25 47.45 51.15 52.67 51.82 51.66 52.24 52.78 53.64 55.04 56.56 58.32 59.50 60.52 62.24 64.19 65.78 67.06 67.00 63.94 62.61 61.80 60.35 59.53 58.53 57.48 57.22 56.84 56.36 55.88 55.83 55.65 55.34 54.75 54.59 54.46 53.89 53.61 53.00 53.13 53.60 52.93 53.05
42.39 42.56 43.83 43.97 47.16 47.82 46.56 46.30 49.31 51.17 51.23 51.54 52.30 52.73 53.06 53.51 54.69 56.83 58.26 59.83 60.72 62.12 63.67 65.86 67.11 64.19 63.27 61.85 59.98 59.01 57.52 57.07 57.15 56.22 56.12 55.50 55.44 55.09 54.84 54.48 54.23 53.94 53.28 52.92 52.47 51.92 52.72 52.75 52.05
44.71 43.34 42.94 45.82 48.27 46.70 45.99 46.37 48.24 50.54 50.86 50.95 51.81 52.25 52.56 52.90 55.09 56.46 58.38 59.28 59.73 60.75 61.50 62.83 64.62 64.19 63.77 60.93 58.17 56.94 55.52 55.62 55.77 55.46 55.47 55.45 55.13 54.51 54.48 53.96 53.61 53.87 52.81 52.51 52.42 51.96 50.89 51.51 52.05
44.91 43.19 43.28 45.91 47.23 46.30 46.18 45.85 48.98 50.43 50.97 51.81 51.84 52.18 53.07 54.24 54.99 55.97 56.58 58.04 58.44 58.95 60.25 60.74 62.02 63.65 63.33 61.12 60.07 58.60 57.14 56.50 55.81 55.14 54.55 55.11 54.78 54.05 53.46 53.41 52.99 53.31 52.71 52.31 51.79 51.45 50.46 51.30 51.56
44.64 43.24 43.83 43.54 46.44 47.71 47.03 46.09 49.40 51.21 51.15 52.14 52.70 53.60 53.89 54.14 54.58 55.95 56.92 57.67 58.41 58.15 58.78 59.49 60.36 61.23 62.72 60.08 59.70 58.03 57.45 55.86 53.69 53.28 53.05 53.46 54.07 53.60 52.89 52.81 52.71 52.68 52.73 51.56 51.81 51.38 50.62 48.96 50.36
42.57 46.49 44.97 44.15 43.47 41.26 46.65 39.38 47.10 49.60 49.61 50.25 51.86 53.05 53.30 53.56 53.52 53.69 54.08 54.98 56.24 57.86 58.89 58.96 59.59 59.65 60.75 59.99 58.36 55.84 54.69 51.90 53.00 53.36 53.39 52.87 53.02 52.93 52.57 52.24 52.33 52.12 52.21 51.56 51.48 51.07 50.45 49.71 47.79
44.13 46.90 45.33 44.79 43.52 43.47 43.87 40.72 45.12 48.78 47.69 48.70 50.70 50.65 51.65 52.79 53.15 52.83 53.68 54.82 56.19 56.48 57.07 58.18 58.51 58.59 59.02 58.77 58.40 56.27 55.18 56.03 55.39 54.03 53.07 52.55 52.08 52.56 52.36 51.87 51.60 51.43 51.63 51.46 50.91 50.05 49.87 49.68 48.54
47.22 45.57 46.05 45.17 43.14 37.34 42.97 42.33 43.12 45.53 46.29 48.71 49.63 49.67 49.60 49.33 50.83 51.41 52.88 53.72 54.39 56.65 56.80 57.21 57.35 57.14 58.46 58.41 57.58 56.59 56.11 56.06 55.65 54.02 52.40 51.83 51.82 51.71 51.80 51.51 51.39 51.48 51.35 51.00 50.66 50.59 49.88 49.50 48.79
47.01 44.48 38.38 37.30 37.22 37.47 42.79 40.79 43.45 47.60 48.03 46.90 46.38 47.24 47.34 47.79 48.15 49.47 50.55 51.44 53.07 54.77 55.91 55.25 56.07 56.04 56.82 56.66 56.13 55.77 56.97 57.38 55.58 53.28 53.01 52.03 51.61 50.90 51.00 51.12 50.72 50.77 51.30 51.06 50.78 50.16 49.65 49.40 48.70
43.89 42.71 37.65 30.92 33.66 36.27 42.09 37.20 42.68 48.82 50.25 49.05 48.78 48.10 46.51 45.89 47.31 48.27 49.81 50.92 51.99 53.51 54.84 54.53 54.51 55.41 55.49 55.41 54.81 54.83 55.86 56.65 55.75 54.29 53.76 53.02 52.57 52.09 51.80 51.02 50.88 50.63 50.65 50.56 50.25 49.76 49.61 49.62 49.14
42.61 39.89 43.44 37.97 39.22 34.88 38.19 42.20 46.08 47.84 47.52 44.20 45.02 45.60 43.59 45.38 46.84 47.46 48.98 50.76 52.11 52.96 53.90 54.02 53.16 54.35 54.81 54.71 54.35 53.54 54.51 55.18 54.82 54.57 53.91 54.03 52.93 52.31 51.53 50.91 50.37 50.14 50.02 49.88 49.59 49.09 48.91 48.98 48.85
40.93 41.85 33.24 35.65 27.11 27.82 34.52 35.28 36.44 40.30 38.92 40.70 41.00 41.95 43.62 45.31 46.47 47.85 49.58 50.44 51.28 52.57 53.83 54.80 53.50 52.42 53.56 53.62 53.71 52.99 53.42 53.86 54.18 54.54 53.18 52.84 52.50 52.06 51.03 50.27 50.07 49.72 49.45 49.16 49.16 48.82 48.93 48.43 48.61
35.40 34.88 35.99 35.83 34.04 27.36 25.49 30.93 40.25 37.17 38.07 38.20 40.39 42.50 43.70 45.19 46.66 48.08 49.12 50.05 51.22 52.29 53.07 54.16 53.85 51.90 51.86 52.43 52.72 52.15 52.44 53.00 53.21 53.00 52.93 52.47 52.19 51.32 50.33 49.77 49.48 49.05 48.62 48.66 48.40 48.30 48.21 47.64 47.43
37.47 35.35 34.21 27.82 26.00 29.21 27.63 26.56 38.52 38.27 39.06 40.70 41.39 43.07 44.38 45.50 46.46 47.44 48.61 49.38 49.83 50.87 51.86 53.14 53.77 52.70 51.49 51.52 51.60 51.12 51.85 52.08 52.01 51.95 52.24 51.97 51.20 51.01 50.18 49.54 48.94 48.65 48.36 48.38 47.88 47.35 47.21 46.90 46.25

GFSSGP_sfc_wetblb_021.txt.gz
Wetbulb
74.01 72.44 74.32 72.06 63.86 62.07 57.17 58.53 62.15 60.99 61.17 64.49 65.13 63.47 62.19 62.41 60.53 60.01 72.59 73.59 70.92 72.69 74.53 75.64 76.79 75.65 76.30 75.84 76.40 75.09 74.95 73.43 73.35 73.47 73.42 73.18 73.47 73.66 73.66 73.67 74.69 75.15 75.68 75.35 75.28 75.39 75.31 75.11 75.46
71.60 70.70 71.90 68.68 59.54 54.63 54.69 61.01 59.36 61.82 63.56 64.95 65.04 64.34 62.78 60.21 65.43 70.09 70.85 73.67 71.59 73.08 74.68 75.28 76.79 76.11 75.52 76.10 75.44 74.69 74.09 72.23 71.87 71.82 71.75 71.82 71.87 72.05 72.04 72.40 73.07 74.19 74.57 74.71 75.36 74.97 74.87 74.86 74.92
71.21 70.61 66.87 63.03 59.30 54.49 56.18 60.56 61.61 62.99 64.54 64.03 62.82 65.18 63.15 61.34 64.71 69.37 72.73 74.03 73.35 73.09 74.31 76.08 77.42 76.82 76.50 75.32 74.67 73.84 73.07 71.84 71.68 70.99 71.10 71.10 71.23 71.54 71.90 71.82 72.22 72.96 72.38 72.93 74.59 74.86 75.04 74.97 74.52
68.46 67.95 65.40 59.21 56.91 59.80 59.52 61.82 63.03 62.79 64.17 64.32 63.45 60.27 64.18 66.91 66.27 69.83 73.56 74.06 73.90 74.14 74.43 75.49 76.67 76.75 75.33 74.46 73.86 73.28 72.83 72.18 71.94 71.49 70.63 70.92 70.58 70.45 70.20 70.57 72.07 71.72 70.50 71.92 72.67 73.05 73.61 74.45 74.65
68.41 66.28 59.98 58.21 57.89 60.43 61.97 62.64 63.64 62.51 63.16 62.86 63.08 60.38 61.47 65.79 69.56 71.99 72.95 73.70 73.83 73.81 74.18 74.30 76.63 75.96 74.82 74.20 73.47 72.84 72.65 71.77 71.67 70.90 69.85 69.82 69.76 69.51 69.55 69.10 69.31 69.76 69.03 69.22 70.82 71.63 72.40 73.00 74.45
61.86 62.52 56.26 54.11 56.27 59.56 61.74 62.67 63.18 63.07 63.70 62.87 61.24 61.38 62.18 67.24 67.46 71.87 72.89 73.24 74.15 73.13 72.95 74.29 76.50 75.74 74.74 73.60 73.13 73.25 72.49 71.22 70.52 69.75 69.59 69.23 69.38 68.83 68.18 67.89 67.92 68.09 67.93 67.69 68.33 69.45 70.14 71.13 73.43
59.33 58.07 54.48 54.44 54.57 56.34 59.20 62.90 61.43 62.13 62.62 62.65 63.31 59.60 62.62 64.41 67.74 72.11 72.71 72.91 72.55 71.71 71.03 71.98 73.94 75.09 74.05 72.80 73.09 73.24 71.83 70.81 69.91 69.28 68.49 68.50 68.48 67.77 67.26 66.70 66.72 66.71 66.71 66.32 66.18 67.17 67.80 68.57 70.02
62.11 58.47 54.05 54.65 53.10 54.01 58.21 61.05 62.65 61.52 60.63 64.39 64.13 58.72 59.09 63.98 67.67 71.49 72.06 71.62 70.77 70.00 70.10 69.97 73.42 73.81 73.23 71.59 72.13 71.95 71.00 69.82 68.66 68.03 67.38 67.27 67.22 66.13 65.31 65.77 65.11 65.09 64.76 64.54 63.69 64.06 65.20 65.77 66.06
62.74 53.40 50.64 52.54 53.27 55.14 58.20 57.53 60.14 62.26 60.99 61.93 63.26 62.71 63.18 64.66 67.45 69.63 70.21 70.35 69.48 69.40 69.87 69.62 71.42 72.79 72.42 71.21 70.66 70.26 69.44 68.24 67.03 66.16 66.18 65.65 64.91 64.95 64.35 63.71 63.39 63.05 62.65 62.03 61.23 60.66 59.64 61.26 63.21
55.90 51.86 51.10 54.66 56.42 55.28 56.69 56.78 57.72 57.29 57.67 57.37 60.28 62.79 63.05 63.73 66.83 67.73 68.20 68.02 67.97 68.33 69.06 69.51 69.87 71.11 71.84 70.45 69.80 67.83 66.57 65.54 64.31 62.83 61.43 61.70 61.99 62.83 63.07 62.02 61.30 60.70 59.70 58.67 57.80 57.02 57.16 60.42 60.48
54.18 50.87 52.95 54.42 54.39 55.82 54.80 54.67 56.56 56.01 55.34 56.14 56.21 58.98 62.33 62.34 65.83 66.97 67.55 67.55 67.49 68.52 69.05 69.23 69.62 69.63 70.33 69.58 68.59 66.36 65.26 63.83 61.95 60.58 59.78 60.10 61.03 60.35 61.07 59.37 58.62 57.55 56.65 56.79 57.05 56.95 56.51 56.88 58.02
51.71 53.06 53.70 54.17 54.93 54.80 53.32 55.11 54.00 55.47 55.96 58.09 58.76 60.88 60.91 61.72 62.82 65.89 66.42 66.97 66.94 67.44 68.64 69.33 69.49 68.93 68.89 69.46 67.42 66.24 64.00 60.39 58.97 58.86 58.82 59.32 58.53 57.94 57.60 57.25 57.22 57.00 56.68 55.66 55.80 55.25 55.15 55.26 54.49
52.30 53.14 54.12 54.71 54.65 54.76 55.00 53.56 53.59 54.15 56.37 57.47 58.31 58.72 59.64 60.54 61.87 63.53 66.05 66.56 67.00 66.78 67.90 69.21 69.93 68.78 68.25 67.80 67.14 65.98 61.99 58.82 58.82 58.73 58.43 58.87 58.78 57.56 57.52 57.04 56.66 56.30 56.15 55.61 55.10 54.98 54.48 53.82 52.92
53.80 53.50 52.89 53.53 53.39 53.92 52.38 53.16 54.32 54.65 56.72 56.24 56.82 56.94 57.58 59.04 60.10 61.46 62.80 64.79 65.56 66.44 67.07 69.00 69.72 69.21 68.00 67.02 66.23 64.63 61.70 59.59 59.43 59.03 58.60 58.50 58.81 58.02 57.48 56.83 56.47 56.06 55.75 55.45 54.89 54.35 54.22 53.71 53.26
53.17 49.97 51.71 52.46 52.74 52.54 54.27 50.87 51.48 55.47 56.37 55.33 55.33 55.76 56.59 57.21 58.85 59.60 61.03 62.23 64.73 65.71 66.73 67.57 69.23 69.82 67.89 66.36 65.91 64.95 62.96 60.16 59.39 59.03 58.50 58.07 58.98 58.07 57.41 56.83 56.24 55.97 55.58 54.20 54.25 53.25 53.50 53.42 53.00
50.27 50.58 46.84 51.57 52.39 52.46 51.77 46.50 51.69 54.55 54.30 53.32 53.89 54.17 54.78 55.86 56.99 58.52 60.14 60.97 62.69 64.25 65.35 66.93 68.63 69.18 68.47 66.06 65.64 63.64 62.14 60.70 59.70 58.78 58.56 57.74 58.05 58.20 57.33 56.78 56.21 56.27 55.54 54.95 54.29 53.78 53.12 52.95 52.64
49.23 45.46 46.91 47.83 51.53 50.08 50.01 47.91 52.09 53.71 52.79 52.30 53.03 53.65 54.18 54.63 55.43 57.03 58.19 59.72 60.61 61.87 63.39 65.08 67.73 68.24 68.22 66.49 64.48 62.98 61.62 61.06 59.69 58.92 58.61 57.88 57.73 57.61 57.26 56.67 56.45 56.06 55.25 54.52 54.02 53.48 53.19 52.42 52.56
44.23 44.10 45.17 45.00 48.55 49.69 48.18 47.71 50.46 52.13 52.24 52.07 52.68 53.35 53.94 54.23 54.98 56.33 57.15 58.29 59.16 60.37 61.78 63.43 66.08 67.70 67.82 66.68 64.21 62.92 61.64 61.10 60.42 59.22 58.85 57.50 58.07 57.33 57.47 57.19 56.80 55.39 54.80 54.26 53.92 52.86 52.82 52.38 51.85
46.17 44.54 43.95 46.86 49.70 48.21 47.32 47.97 50.11 52.57 53.02 53.08 53.62 53.73 53.97 54.31 56.35 57.22 58.03 58.02 58.15 59.64 60.45 62.05 63.33 66.00 67.45 65.50 63.02 61.54 60.08 60.30 59.84 59.81 58.61 58.23 57.40 57.08 57.46 57.06 56.10 56.06 55.00 54.15 54.21 52.89 52.26 51.77 51.90
45.96 45.13 45.80 48.92 50.39 49.03 48.26 47.88 50.78 52.58 53.52 53.89 53.29 53.11 53.85 54.91 55.73 56.27 56.85 57.75 58.03 58.82 59.70 60.26 61.39 63.56 66.52 65.94 64.42 62.84 60.96 60.70 60.09 60.34 59.31 58.93 57.84 56.99 55.93 56.12 55.97 55.38 55.09 54.50 53.56 54.14 51.70 51.44 51.35
46.95 45.80 46.01 45.42 47.73 49.25 48.62 47.25 49.67 52.18 53.76 53.35 53.67 54.04 54.07 53.92 53.78 54.28 55.36 56.08 57.53 57.49 58.14 59.20 59.97 61.28 63.79 66.54 65.17 63.34 62.11 61.30 59.38 58.60 57.83 57.67 57.49 56.90 55.96 55.75 55.12 54.83 55.09 54.05 54.16 53.72 53.61 50.65 51.03
44.46 47.89 46.86 45.67 44.77 41.63 48.22 39.75 47.12 49.75 50.55 50.92 51.62 51.70 50.58 50.67 51.97 52.51 53.24 53.89 54.80 55.96 57.71 58.74 58.51 59.48 61.26 64.71 64.85 62.74 60.37 58.53 58.53 58.08 57.53 56.62 56.92 56.21 55.50 55.00 54.98 54.60 54.67 53.60 53.78 53.23 52.46 52.19 49.60
44.66 47.89 46.33 46.14 44.64 44.41 45.02 42.52 46.79 49.48 47.99 49.13 49.41 48.93 48.62 48.68 49.21 49.89 50.92 52.73 53.74 54.89 55.75 57.24 58.04 57.89 59.88 60.37 64.03 62.77 60.61 60.52 59.89 58.26 56.33 56.19 56.07 56.08 55.15 54.46 54.30 54.16 54.29 53.55 53.20 52.39 51.07 51.43 50.25
48.54 47.41 47.58 47.40 45.84 38.98 44.58 43.59 44.34 46.44 47.47 47.77 48.88 49.63 49.77 48.03 47.99 49.75 50.93 51.55 51.91 54.36 55.77 57.44 56.48 56.86 58.35 60.41 61.33 62.86 60.69 59.85 58.49 56.85 55.77 55.50 54.96 54.82 54.60 54.18 54.12 54.18 53.86 53.42 53.26 52.70 51.84 50.81 50.12
47.88 43.97 38.13 38.38 38.63 39.26 45.26 41.63 44.35 48.46 48.18 47.13 45.59 46.61 46.70 46.87 47.36 48.19 48.96 50.57 51.64 53.59 54.65 55.44 56.36 56.76 56.46 57.36 59.33 60.70 60.96 60.14 59.29 58.24 56.22 55.02 53.88 53.35 53.69 53.74 53.26 53.20 53.90 53.69 53.52 52.46 51.82 50.79 50.50
44.23 43.10 37.66 31.97 35.30 37.71 42.69 37.64 43.09 49.53 48.79 47.48 45.70 44.91 44.90 45.98 47.47 48.45 48.96 50.99 51.40 52.12 53.17 53.87 54.36 55.21 55.81 55.65 57.10 58.53 60.35 59.51 58.81 59.25 57.72 55.61 54.44 53.58 54.29 53.70 53.38 53.03 53.12 52.99 52.74 52.15 51.84 51.30 50.69
43.07 39.53 42.99 38.13 39.31 35.26 38.77 42.36 46.08 47.49 44.33 42.72 41.99 42.58 43.18 45.01 46.42 47.35 48.73 49.77 50.56 51.18 51.89 53.04 53.87 55.12 55.67 54.82 55.37 56.34 57.29 58.47 57.77 58.53 59.65 56.37 55.68 54.85 54.19 53.55 52.96 52.75 52.51 52.28 51.97 50.99 50.06 50.09 49.95
43.39 41.50 34.06 37.04 28.89 29.23 35.46 36.21 36.89 39.81 38.67 39.97 40.29 41.35 43.17 45.45 46.14 47.27 48.11 48.97 50.15 51.24 51.82 52.61 53.44 54.30 55.47 54.99 54.18 54.50 55.66 56.66 57.25 57.80 58.25 56.45 56.15 55.41 53.91 53.22 52.73 52.50 51.99 51.70 51.42 50.48 50.13 49.52 49.77
37.89 36.34 37.36 37.24 35.35 29.54 27.84 32.42 41.56 38.37 38.84 39.03 40.41 41.43 42.73 44.92 45.47 46.31 47.30 48.35 49.70 50.77 51.41 51.10 51.30 53.24 54.48 54.85 53.92 53.14 53.95 54.78 54.94 56.20 57.03 56.84 56.33 55.11 53.64 52.78 52.22 51.69 51.03 50.83 49.99 49.20 49.18 48.86 48.93
38.33 36.83 35.98 30.32 28.72 31.84 29.76 28.83 40.40 40.16 40.33 40.78 40.54 42.06 44.29 45.33 45.59 46.48 47.08 47.72 48.36 49.69 49.46 48.61 49.44 51.48 53.17 54.05 54.14 52.62 52.89 53.33 53.42 54.31 55.64 56.51 55.45 54.87 53.37 52.39 51.48 50.94 50.51 50.32 49.29 48.59 48.40 47.99 47.90

GFSSGP_sfc_wetblb_024.txt.gz
Wetbulb
73.06 72.73 72.45 72.01 62.41 60.71 55.41 55.66 61.65 60.17 61.25 62.54 63.83 61.42 59.08 60.74 58.67 58.24 70.67 70.87 70.34 71.43 73.70 75.15 76.82 76.24 76.13 76.08 75.55 75.21 74.17 73.85 73.75 73.56 73.48 73.64 73.65 73.57 73.71 74.21 75.03 75.26 75.68 75.38 75.37 75.57 75.22 75.40 75.82
70.34 70.88 71.89 68.05 58.68 53.56 53.59 58.79 59.14 61.11 62.40 63.41 63.44 61.89 60.49 58.25 65.88 68.08 68.45 70.55 70.84 72.40 72.38 75.16 76.60 77.17 76.10 76.29 75.53 74.55 73.41 72.70 72.30 72.27 72.13 72.08 72.48 72.55 72.59 73.26 73.79 73.89 74.04 75.01 75.25 75.10 74.98 74.90 74.89
69.63 70.52 65.94 62.30 58.56 53.35 53.89 57.72 60.83 62.76 63.44 63.40 61.81 62.69 60.49 60.67 63.90 68.73 71.07 70.92 70.66 71.29 73.61 75.76 77.31 76.98 76.38 75.57 74.81 74.05 72.66 72.24 71.46 71.38 71.47 71.44 71.82 71.88 71.85 72.39 72.25 71.70 73.17 73.78 74.31 74.69 75.23 74.83 74.70
68.49 68.10 64.31 57.71 55.28 58.49 56.03 60.16 62.30 63.28 63.76 64.42 62.30 58.82 62.15 65.02 64.20 67.94 72.06 71.88 69.83 70.94 74.31 77.09 77.48 77.30 75.93 75.16 74.38 73.43 72.65 72.36 71.81 71.23 71.24 70.88 70.45 70.38 69.93 70.97 70.48 70.09 71.11 71.84 72.25 73.01 73.50 74.61 74.61
67.51 65.21 58.83 56.53 56.88 58.96 60.76 61.83 62.42 61.12 62.73 62.78 62.18 59.39 60.22 64.32 68.91 70.77 70.73 71.62 70.85 71.44 73.44 75.12 77.44 76.47 75.41 74.61 73.83 73.33 72.58 72.69 71.94 70.22 70.29 70.21 69.80 69.69 69.19 69.00 69.37 68.80 69.00 70.32 70.80 71.19 72.02 74.29 74.96
61.37 61.84 53.94 51.10 53.49 56.18 58.08 62.12 60.96 60.82 61.65 62.51 60.39 59.45 60.15 64.80 66.99 69.27 70.61 70.17 71.51 71.45 72.85 73.95 76.87 75.97 75.23 74.28 73.36 73.14 72.31 71.43 70.87 70.31 70.05 70.05 69.31 68.59 68.12 67.85 68.00 67.84 67.68 67.84 68.60 69.66 70.71 71.90 74.19
61.37 57.00 52.98 52.81 52.84 54.27 56.41 60.54 59.34 58.96 58.93 59.84 62.58 58.34 59.78 62.35 66.04 69.64 69.50 69.92 70.87 71.26 70.76 72.62 74.30 74.61 75.41 74.39 73.72 73.36 72.46 71.17 70.48 70.00 69.40 69.53 68.78 68.03 67.23 67.11 66.88 66.64 66.44 66.25 66.88 67.43 68.48 69.85 71.06
61.58 58.91 53.02 52.76 51.70 52.98 57.50 58.42 61.52 58.05 57.06 61.29 63.03 57.82 55.16 61.58 65.87 69.02 68.91 68.46 69.04 68.16 68.47 70.47 72.45 72.94 71.75 70.75 74.35 73.30 72.09 70.76 70.09 69.09 68.68 68.60 67.73 66.76 66.48 66.02 65.58 65.14 64.83 64.36 63.87 64.59 65.57 66.51 67.12
65.79 52.50 48.10 49.67 51.58 54.01 56.92 54.55 57.42 59.50 58.25 58.52 58.41 60.23 60.71 64.07 65.31 66.48 66.37 66.57 66.49 66.42 66.12 65.80 71.14 71.39 71.10 69.78 71.39 72.16 71.44 70.22 68.84 67.77 67.80 66.55 62.24 62.17 61.71 64.19 64.08 63.50 62.79 62.01 61.39 60.43 59.51 62.42 64.09
56.37 51.52 51.60 54.27 54.00 52.79 54.52 53.82 54.90 53.87 54.52 54.42 54.92 58.65 61.15 63.08 62.87 63.95 64.34 64.39 64.45 64.44 65.05 65.89 69.32 70.47 70.25 70.40 68.85 67.30 67.23 64.54 62.80 62.46 61.71 61.37 59.47 60.57 61.31 61.65 62.47 61.46 59.92 59.07 58.07 57.28 58.54 59.89 56.72
55.95 51.00 54.59 53.46 54.97 54.63 53.70 53.00 54.52 52.13 50.97 54.81 54.07 54.66 58.25 59.62 61.51 63.11 64.12 64.59 64.32 64.73 65.17 65.51 65.17 69.77 69.40 68.46 67.57 66.25 64.54 62.71 60.92 58.70 57.66 56.90 58.41 57.57 56.96 55.50 54.90 52.72 57.26 54.00 55.48 53.26 52.13 51.67 52.73
52.07 53.77 53.24 54.90 55.06 54.20 52.44 54.07 51.86 52.30 52.71 55.57 54.95 55.72 56.33 58.84 59.52 62.15 63.22 63.92 63.78 64.26 65.00 65.64 65.60 65.22 67.36 68.01 66.65 65.14 63.02 61.78 58.62 56.21 55.22 55.32 55.01 54.43 54.41 53.97 53.28 51.96 51.72 49.98 49.95 49.87 50.57 50.32 49.17
50.96 52.16 53.91 55.01 54.43 53.69 54.16 52.12 52.03 52.41 54.72 55.33 55.60 55.65 54.87 56.37 56.27 59.74 62.97 64.54 63.97 63.08 64.58 65.70 65.56 65.01 65.35 66.17 64.79 64.49 61.16 58.64 55.12 53.85 54.16 54.70 53.79 52.50 52.33 51.81 51.71 51.37 50.56 49.87 49.31 49.09 48.87 47.51 47.59
53.07 52.55 52.13 52.23 52.16 52.61 51.36 51.64 52.30 52.79 54.69 54.06 54.22 53.61 53.79 54.02 56.55 56.32 58.42 59.41 62.00 62.42 63.62 66.12 66.54 66.45 64.72 64.19 63.78 63.41 60.06 55.42 54.20 54.24 53.87 54.53 54.08 52.78 52.18 51.57 51.37 50.73 50.37 49.92 49.53 48.48 47.99 47.40 46.84
53.70 48.58 50.22 51.17 51.53 51.93 52.67 48.44 49.17 52.93 54.16 53.13 52.64 51.61 53.10 53.94 55.11 55.76 56.88 57.45 59.01 62.19 62.78 64.63 65.97 66.98 66.24 64.00 63.74 62.70 59.92 56.75 54.36 54.31 54.09 53.80 54.26 53.01 52.52 51.38 50.78 50.51 50.15 49.43 48.41 46.81 47.21 47.25 48.17
48.60 48.74 44.65 51.29 52.25 52.80 50.62 43.62 51.11 52.14 51.10 50.56 50.66 49.91 51.14 51.73 51.96 52.16 54.61 57.03 57.71 58.00 60.26 62.10 66.32 67.11 66.78 64.76 62.46 61.71 59.32 56.04 54.36 53.83 53.49 53.65 54.67 54.02 52.26 51.66 51.05 51.14 50.20 49.21 48.79 48.17 47.33 46.72 46.48
48.20 42.23 45.11 47.30 51.34 51.52 49.12 44.65 50.06 52.03 50.78 49.62 49.37 49.46 50.12 50.25 51.61 52.21 54.10 53.81 55.89 56.99 57.15 59.06 62.77 65.88 66.26 66.00 62.33 60.83 59.27 56.53 54.83 53.85 53.59 53.33 54.17 54.37 52.46 51.93 51.50 51.00 49.94 49.06 49.15 48.10 47.76 46.71 46.70
41.99 41.74 43.25 42.48 46.97 48.25 46.72 46.12 48.94 50.44 50.63 49.98 49.64 49.30 50.08 50.60 52.78 54.60 54.98 55.90 56.41 56.19 55.55 55.89 58.15 64.27 65.97 65.82 63.47 59.68 58.42 56.48 55.70 54.10 53.55 53.42 53.28 53.43 52.06 51.89 51.13 50.62 49.96 48.87 48.47 47.25 47.27 46.64 46.41
44.21 42.61 42.00 45.50 49.54 48.02 46.72 46.74 48.34 50.52 50.67 50.30 50.68 50.78 50.71 51.26 52.57 53.34 53.73 53.99 55.13 55.78 55.95 55.71 56.78 58.07 62.94 64.31 62.89 58.22 55.59 55.01 54.73 54.29 54.00 52.96 52.91 52.92 51.80 51.42 51.00 50.28 49.22 48.62 48.05 46.92 46.17 45.19 45.49
45.66 43.88 43.62 47.10 49.70 46.74 45.52 45.13 48.19 50.24 50.47 50.16 49.40 48.16 48.37 48.66 49.29 50.29 51.63 51.96 52.70 52.93 53.88 54.67 56.04 56.26 56.75 62.66 63.37 62.25 57.99 55.78 55.25 54.71 54.12 53.78 53.34 53.04 52.24 51.26 50.42 49.89 49.39 48.64 47.97 46.88 45.44 45.86 45.88
45.46 43.92 44.02 43.34 46.38 47.15 45.51 43.68 46.79 48.94 49.67 48.92 47.44 46.82 46.29 45.68 46.20 47.70 48.37 49.61 50.75 51.29 52.31 53.24 54.30 55.41 55.82 56.18 61.38 59.34 57.61 55.70 54.23 54.62 54.98 54.12 53.38 53.13 52.66 51.13 50.44 49.51 49.24 48.05 47.59 47.34 46.45 43.74 44.35
41.64 47.23 45.51 44.50 42.08 37.04 45.09 34.56 42.87 46.36 45.92 45.90 45.16 45.19 45.19 45.00 45.98 47.25 47.78 48.25 48.70 49.56 51.55 52.47 53.54 54.28 55.64 55.40 54.84 58.71 59.04 56.23 56.12 55.16 55.01 53.26 53.20 52.73 52.52 51.64 50.52 49.98 49.00 48.31 48.20 49.01 46.86 46.05 43.72
43.18 47.55 45.24 44.72 42.05 40.81 42.09 38.00 42.20 46.33 43.50 44.16 45.42 45.65 43.65 44.46 45.72 46.16 47.07 48.23 49.33 50.16 50.65 51.71 52.34 52.50 53.91 54.37 54.22 53.90 57.67 59.07 57.13 56.03 53.60 53.95 53.15 52.86 52.44 51.49 50.60 49.73 49.87 48.17 48.22 46.85 46.68 45.88 44.14
48.29 46.09 44.33 42.99 40.95 34.86 41.12 40.60 40.14 42.30 42.70 41.61 42.07 42.27 42.22 43.22 44.65 45.85 47.23 48.29 48.51 49.60 50.12 49.96 50.80 51.41 52.93 52.82 52.57 52.78 53.32 57.68 57.54 55.33 54.07 53.05 52.35 52.57 52.03 51.57 51.04 50.00 49.78 48.41 48.32 46.69 45.93 45.40 44.52
46.24 40.71 33.53 33.38 33.60 34.42 41.87 38.06 39.38 42.47 41.84 40.04 39.61 40.30 41.54 42.24 43.56 44.45 45.00 46.20 47.31 48.19 49.19 49.92 50.05 50.23 52.07 52.52 51.82 51.89 52.37 54.29 57.97 57.25 55.05 51.79 51.78 51.40 51.31 50.97 50.03 49.91 49.10 48.16 47.67 46.38 45.45 45.08 43.68
40.68 39.94 33.87 27.64 30.11 33.23 40.16 33.76 39.57 42.69 41.15 41.10 41.45 41.33 41.31 41.52 42.81 43.68 44.60 45.50 46.47 47.43 48.21 49.15 48.72 48.82 50.87 52.18 51.69 51.35 51.77 53.34 55.36 57.96 56.87 53.62 52.60 51.85 51.72 50.99 50.28 49.86 48.84 48.53 47.47 46.16 45.50 44.96 44.48
40.89 36.66 38.91 34.44 36.48 31.88 35.09 39.17 42.71 40.74 39.19 39.57 39.88 40.52 40.21 41.25 42.68 43.46 44.16 44.80 45.43 46.37 47.15 48.30 48.69 48.23 48.96 50.49 52.65 51.32 51.85 51.53 52.45 56.20 57.39 55.89 53.84 53.13 51.24 50.84 49.79 49.34 49.08 48.36 46.83 46.15 45.28 44.58 44.04
41.42 41.67 32.26 32.91 25.09 24.06 31.00 31.72 32.77 34.32 35.80 38.16 38.32 38.93 39.79 41.56 42.89 43.60 44.37 45.00 45.62 46.56 46.99 48.97 46.67 46.22 47.55 48.94 52.29 52.38 51.96 51.16 51.31 52.59 55.46 55.53 54.29 52.75 51.09 50.28 49.80 48.73 48.60 48.13 46.73 45.28 45.19 43.83 43.67
36.44 34.49 35.49 34.39 31.78 24.33 23.60 28.59 37.14 35.56 36.94 37.15 38.53 39.20 39.71 40.68 42.14 43.04 43.67 44.28 45.12 46.24 46.83 46.02 46.18 46.27 45.99 48.03 50.87 50.96 51.36 51.50 50.74 50.89 51.93 54.32 54.57 53.30 50.88 50.41 49.62 48.68 48.12 48.06 46.81 45.83 44.72 43.93 43.32
37.85 34.65 34.84 28.28 26.52 28.13 24.57 25.53 38.83 37.87 38.70 39.43 39.15 39.53 40.22 41.85 42.44 43.26 43.52 43.51 43.86 44.76 45.00 45.13 45.74 46.28 46.36 47.43 48.59 49.81 50.99 51.78 50.57 49.40 49.59 50.27 52.95 54.09 52.16 50.40 49.52 48.89 48.19 47.80 46.62 45.45 45.93 44.10 43.04

GFSSGP_sfc_wetblb_027.txt.gz
Wetbulb
72.47 69.66 69.98 67.05 57.52 56.44 52.61 54.85 59.51 55.94 56.93 58.51 60.53 58.72 56.59 57.83 59.15 54.85 67.83 68.69 73.06 73.09 74.68 75.98 76.85 76.64 75.29 75.83 75.62 75.05 74.81 74.46 74.15 73.99 74.06 73.96 73.90 73.83 74.44 75.29 75.07 75.55 75.55 75.44 75.56 75.31 75.36 75.51 75.61
70.29 69.55 67.44 62.58 53.92 49.79 51.73 57.98 57.65 57.16 59.73 60.28 60.72 58.51 56.75 58.25 66.72 66.07 66.09 68.84 72.05 73.23 74.10 75.17 76.50 77.33 76.37 75.81 75.31 74.30 73.81 73.45 73.19 72.83 72.66 72.65 72.99 72.99 73.69 73.49 72.97 73.84 75.44 75.03 75.39 75.05 74.87 75.09 75.48
69.74 69.32 60.31 56.79 53.49 51.62 51.26 57.80 57.93 59.60 60.96 60.38 58.61 59.13 56.95 58.36 66.90 66.09 68.30 68.48 72.16 71.79 74.17 75.24 77.45 77.12 76.55 75.93 74.87 73.79 73.07 72.30 72.03 71.76 71.56 71.79 71.72 71.81 72.23 71.78 71.89 73.04 73.10 73.94 74.54 74.91 74.97 74.70 75.27
64.03 63.39 59.57 52.17 50.62 54.67 56.55 58.12 59.28 59.81 60.98 61.55 59.51 56.66 59.49 61.79 66.82 68.12 69.25 68.51 68.82 71.06 74.23 76.66 77.48 76.78 76.05 75.52 74.73 73.30 72.62 71.60 71.59 71.73 71.24 70.86 70.69 70.53 71.09 70.59 69.94 70.81 71.45 71.98 72.47 72.72 73.90 74.49 75.11
62.06 59.57 53.30 51.54 52.63 55.79 57.73 60.18 58.75 58.17 59.29 60.56 59.63 56.69 57.75 62.94 68.29 69.84 69.50 68.24 69.92 72.53 74.40 75.80 77.32 76.65 75.96 75.29 74.36 73.26 72.68 72.29 71.04 70.62 70.51 70.34 69.97 69.63 69.50 69.49 68.97 68.90 69.79 70.46 70.72 71.27 72.86 74.92 74.53
55.63 55.94 47.68 45.02 48.36 52.13 51.82 57.03 57.22 55.80 56.60 59.44 57.92 56.50 57.00 62.94 66.63 68.02 69.13 68.35 71.90 72.66 74.67 75.46 77.45 76.80 75.86 75.07 74.16 73.47 72.58 72.41 70.49 70.55 70.38 70.00 69.27 68.75 68.59 68.45 68.05 67.75 67.89 68.45 69.18 70.29 71.45 73.81 73.99
53.24 51.02 46.85 47.35 48.32 49.59 52.95 55.02 53.99 54.00 54.01 55.15 59.06 54.63 56.19 59.84 65.26 67.64 67.73 67.86 70.82 72.16 73.05 74.43 74.71 75.07 75.86 75.22 73.97 73.22 72.68 71.52 70.61 70.24 70.09 69.41 68.86 67.89 67.59 67.67 67.27 66.96 66.85 67.20 67.40 67.98 69.55 71.19 71.16
54.98 52.40 46.73 45.20 46.93 47.86 53.42 53.77 56.34 54.16 53.64 57.32 58.22 54.18 53.29 59.58 65.23 67.13 66.98 66.90 67.48 70.77 72.01 73.28 72.93 73.10 72.32 72.07 74.74 73.49 72.36 71.34 70.45 69.83 69.66 69.04 68.11 67.01 67.04 66.53 66.13 65.85 65.33 65.29 65.54 65.75 66.43 67.46 68.21
56.47 44.81 42.19 44.05 46.39 49.02 52.36 50.37 53.43 53.84 53.29 55.39 54.98 56.56 58.77 62.04 64.93 64.92 63.93 63.91 65.16 67.34 70.21 72.15 72.12 71.66 70.77 69.95 71.97 73.33 72.72 71.19 70.28 68.72 69.18 67.22 61.52 62.16 62.78 64.54 64.85 64.56 63.95 63.48 62.80 62.05 62.00 63.34 64.29
49.77 44.22 45.12 49.96 48.96 47.52 50.71 50.47 50.89 49.96 49.04 50.05 51.70 53.83 58.89 61.27 61.31 62.65 62.35 62.77 62.54 62.23 63.30 70.49 71.42 71.07 69.85 70.65 70.37 68.65 68.41 66.10 64.00 63.76 62.81 61.72 59.79 59.08 61.05 62.57 63.63 62.70 61.57 60.92 60.42 59.30 58.96 59.30 56.17
49.18 44.64 49.88 51.04 51.27 52.97 50.38 50.16 52.44 48.67 46.73 48.65 50.17 53.08 56.65 57.82 58.80 61.53 61.96 62.42 62.49 62.56 62.58 66.24 70.37 70.19 69.49 69.09 69.09 67.65 65.86 63.05 61.84 61.27 60.59 58.99 59.24 59.43 57.19 55.86 56.25 53.09 58.17 52.53 54.03 51.48 50.15 49.57 50.80
46.40 50.86 51.06 51.61 53.27 52.07 49.74 51.69 49.33 49.76 49.89 51.57 51.89 51.33 53.41 56.52 58.44 59.19 60.80 61.70 61.93 61.77 63.18 63.65 69.19 69.24 68.99 67.76 67.61 66.36 65.00 63.02 60.70 59.23 58.76 54.14 54.15 54.20 53.09 52.69 51.54 49.37 50.10 50.27 48.55 47.71 48.37 48.14 46.86
46.12 48.12 51.70 51.99 51.54 50.54 51.08 49.16 49.12 49.66 51.60 52.43 52.99 53.24 51.66 51.39 55.59 57.46 60.44 61.93 61.59 60.75 62.05 63.09 63.30 68.52 67.88 66.34 66.27 64.45 63.00 62.58 59.98 57.38 56.11 54.21 52.58 52.06 52.47 50.97 50.98 49.39 48.30 47.07 46.75 46.80 46.67 45.24 45.44
48.71 49.58 49.49 50.04 49.64 49.51 48.83 48.27 49.21 50.12 51.24 51.47 51.15 50.82 50.60 51.14 52.33 53.74 54.41 59.23 60.47 60.92 61.34 63.87 63.97 63.46 64.81 65.03 65.02 63.56 60.57 61.10 56.25 54.05 53.90 53.52 52.33 50.92 49.87 48.98 48.85 48.37 47.43 47.30 47.02 46.39 45.71 45.02 44.79
49.53 46.16 46.53 47.46 48.64 48.17 49.59 45.43 46.22 49.35 49.59 48.78 48.24 44.87 46.38 48.47 51.16 51.52 52.96 53.17 56.15 58.71 60.34 63.64 64.43 64.55 62.46 63.39 63.43 62.76 59.61 57.15 53.11 52.19 52.03 52.70 52.16 50.39 49.58 48.64 48.02 47.76 47.62 47.50 46.27 45.02 45.13 44.88 45.66
43.79 42.92 38.56 46.22 48.71 50.02 46.89 40.17 47.52 49.92 47.61 47.30 47.24 46.32 47.89 48.91 51.15 51.35 53.03 53.24 53.49 53.38 55.03 59.08 65.63 65.25 64.84 61.02 63.09 63.02 59.98 55.70 53.60 52.27 51.39 51.75 52.71 51.49 49.59 48.74 48.33 48.45 47.60 46.55 45.48 44.62 44.28 44.15 44.10
41.50 35.78 38.51 41.25 46.34 48.70 45.42 41.19 46.09 48.78 48.14 46.36 45.23 45.43 49.09 48.86 49.78 50.26 51.43 51.90 52.28 52.67 53.33 54.74 56.02 58.61 64.33 63.47 60.64 62.20 60.77 56.17 53.73 52.54 51.72 51.19 52.49 52.61 49.97 49.20 48.79 48.72 47.16 46.18 46.75 45.42 44.85 43.77 43.96
35.06 35.16 37.79 37.13 43.15 45.56 43.65 42.71 46.17 47.18 47.49 46.11 46.77 46.92 46.40 46.59 47.21 49.29 49.80 50.68 51.45 51.68 52.20 52.62 54.39 54.93 56.27 60.73 59.87 57.93 57.21 54.53 53.32 52.75 52.73 51.78 51.58 52.24 50.25 49.47 49.16 48.01 46.82 46.13 45.68 45.03 44.59 44.75 44.52
40.64 38.47 38.12 41.54 46.13 43.48 41.94 42.49 45.30 47.58 45.68 43.27 42.75 42.40 42.86 44.11 46.33 48.15 48.74 48.96 49.52 51.04 51.30 51.21 52.07 52.91 54.10 54.19 54.50 56.58 56.58 56.26 53.31 52.97 53.67 52.83 52.28 51.82 50.24 49.56 48.56 47.90 47.67 46.55 45.90 44.52 43.96 43.19 43.02
42.13 39.58 38.44 42.60 46.63 44.06 41.82 42.03 44.18 43.80 42.99 42.66 41.80 41.47 42.30 43.66 44.75 46.00 47.35 48.02 48.44 48.89 50.57 50.57 50.80 51.77 51.81 52.77 53.13 54.85 57.87 55.48 57.01 54.89 53.16 53.26 52.74 52.21 50.85 50.15 48.86 47.69 46.78 46.06 45.54 44.62 43.08 43.15 43.05
41.26 39.33 39.07 39.31 43.01 43.13 40.83 38.35 41.63 43.05 43.45 44.03 42.78 42.24 42.90 42.86 43.31 44.46 45.38 46.43 47.63 47.62 48.47 49.79 50.05 50.61 52.00 51.72 51.68 53.77 54.34 56.06 53.61 52.07 51.83 52.07 52.61 52.26 52.41 50.60 49.73 48.31 47.99 47.28 45.45 44.55 43.84 42.26 42.76
37.23 44.27 43.55 42.00 38.33 32.60 41.21 30.41 37.98 39.91 40.63 41.68 39.37 38.62 40.10 41.76 43.43 44.56 45.15 45.54 46.18 47.39 48.69 48.76 48.97 49.84 52.33 52.26 51.47 48.59 48.60 50.28 54.64 54.55 55.26 53.40 52.42 52.23 52.51 51.46 50.50 49.48 48.71 46.76 47.51 46.57 44.13 42.83 41.55
40.40 45.03 42.54 41.77 37.44 35.32 37.47 33.13 34.58 40.29 36.28 35.88 36.98 38.62 38.64 41.00 42.29 42.42 43.25 44.60 45.48 46.22 47.32 48.55 48.04 48.92 49.65 50.08 50.67 50.21 47.98 48.99 52.15 55.51 53.93 53.70 50.97 52.03 52.21 51.43 50.49 49.63 48.72 48.93 47.05 45.89 44.81 44.15 42.65
46.12 42.80 39.70 37.72 35.32 29.18 35.89 36.04 33.79 34.81 33.74 34.96 36.07 37.73 38.47 39.36 41.27 42.05 43.11 44.25 44.32 45.18 45.73 46.62 47.08 47.94 48.60 48.47 48.84 49.89 49.69 48.54 48.38 50.44 52.80 52.39 53.36 51.14 51.52 51.39 51.03 50.54 49.65 47.81 47.91 46.81 45.24 44.38 42.96
40.57 34.02 27.38 27.98 28.23 28.81 37.50 34.00 31.12 33.95 35.94 36.52 36.57 37.01 38.10 38.66 39.59 41.14 41.66 42.19 43.37 43.50 44.62 45.87 46.00 45.90 47.04 46.55 47.02 48.60 49.77 47.56 48.34 49.22 51.12 52.04 51.54 51.94 49.50 50.90 49.92 49.31 49.58 49.10 48.21 46.08 45.83 44.97 44.41
36.45 34.73 28.50 23.67 24.44 28.55 36.46 29.59 32.22 36.50 37.56 37.54 37.98 37.62 38.11 38.35 39.75 40.45 41.26 41.84 41.87 42.90 43.60 44.32 45.95 44.64 45.33 45.32 45.52 46.68 48.68 49.65 50.26 49.90 49.63 50.86 53.39 52.78 52.79 50.84 50.93 50.41 49.33 48.92 48.08 47.68 46.37 44.65 43.97
36.37 31.17 35.07 29.33 30.50 25.67 30.16 32.99 34.23 36.32 35.65 36.49 36.56 37.37 36.85 37.86 39.32 39.58 40.77 40.98 41.17 41.19 42.27 43.06 44.08 43.84 45.17 43.76 44.28 45.29 47.74 47.97 49.31 50.04 50.25 50.08 52.22 53.81 52.13 50.64 50.50 49.70 48.51 48.82 48.06 47.40 45.79 45.61 43.60
36.64 38.26 29.26 27.25 20.56 18.41 24.93 27.55 29.45 31.00 32.76 36.12 36.82 37.41 36.88 37.59 38.60 39.62 40.30 41.03 42.10 43.22 43.43 43.05 42.82 42.66 43.28 44.43 45.05 46.78 46.76 47.30 48.46 50.09 49.84 49.42 50.08 52.18 52.02 51.20 50.20 49.17 48.45 48.54 47.37 46.93 45.68 44.52 43.13
32.20 30.14 30.92 29.50 26.55 19.54 17.74 23.41 31.64 30.67 34.81 35.73 37.42 38.57 38.45 38.17 39.23 39.78 40.59 40.72 41.18 41.07 41.41 41.77 42.21 42.49 43.45 45.39 44.27 45.28 45.48 46.69 47.91 49.31 50.21 49.52 48.83 51.11 52.86 51.48 50.23 48.79 47.87 48.00 47.13 46.49 45.46 44.54 43.28
34.69 30.68 30.43 21.02 22.69 23.46 18.25 22.76 34.38 35.61 37.32 37.86 37.64 38.66 37.89 38.93 39.46 39.53 39.60 40.02 39.43 39.59 40.36 41.08 41.72 42.77 43.23 43.73 44.43 45.40 46.45 46.98 46.72 47.81 48.73 49.33 48.92 49.90 52.13 51.09 50.41 49.05 48.61 47.92 47.11 45.63 46.15 44.40 42.95

GFSSGP_sfc_wetblb_030.txt.gz
Wetbulb
71.66 69.43 68.75 66.37 56.04 55.98 51.31 55.21 57.43 55.12 55.67 57.79 59.21 57.87 56.02 57.30 56.69 49.43 66.26 71.42 72.62 73.15 74.55 75.93 76.92 75.89 75.94 75.92 75.72 75.15 74.92 74.75 74.65 74.67 74.42 74.15 73.96 74.72 74.77 75.04 75.47 75.34 75.34 75.35 75.01 75.26 75.24 75.51 75.07
70.50 69.38 65.92 61.14 52.16 48.94 49.07 54.81 55.06 56.17 58.69 59.07 59.53 56.94 55.73 56.65 65.48 64.95 64.67 70.39 72.83 73.27 74.63 74.98 76.81 76.30 75.78 75.65 75.21 74.66 74.29 73.98 73.59 73.40 73.30 73.31 73.18 73.72 73.86 73.35 74.10 75.01 75.24 74.96 74.87 74.61 74.98 75.24 74.68
67.62 68.68 59.30 55.76 52.42 48.36 50.77 56.26 56.27 58.90 59.42 59.20 57.94 58.04 56.78 57.35 66.00 65.22 66.70 72.02 72.58 72.65 74.34 74.40 77.27 76.82 76.48 75.49 74.74 74.05 73.56 73.28 72.47 71.86 71.73 71.80 72.22 72.60 72.09 72.36 72.84 73.24 73.56 74.34 74.84 74.75 74.37 75.01 74.74
62.43 62.23 58.86 51.28 49.00 52.62 53.96 55.99 58.70 58.73 59.69 60.18 57.94 55.44 58.11 62.89 65.63 66.52 68.09 71.39 71.23 71.51 73.73 75.93 77.43 76.60 76.59 75.71 74.43 73.61 72.74 72.10 71.54 71.35 71.23 70.86 71.23 71.36 70.67 70.79 71.98 71.62 71.70 71.97 72.38 73.34 74.20 74.88 74.34
61.11 58.18 51.52 49.25 49.28 52.38 54.29 57.81 57.84 55.88 56.82 59.02 58.04 55.29 56.36 63.49 65.81 67.60 67.37 70.96 69.16 71.54 73.44 75.73 77.07 76.40 76.13 75.51 74.46 73.43 72.15 71.74 71.73 71.12 70.68 70.43 70.04 70.34 70.09 69.30 69.85 70.60 70.94 71.09 70.99 71.70 73.04 74.92 73.88
53.90 53.70 46.31 43.73 46.95 50.73 50.67 52.19 55.25 53.81 53.87 57.60 56.90 55.07 56.35 62.67 66.46 66.32 66.77 68.85 70.93 72.45 73.96 75.00 76.90 76.93 76.09 75.44 74.65 73.42 72.80 71.60 71.00 70.59 70.18 70.00 69.40 69.24 69.10 68.64 68.28 68.69 69.32 69.94 70.09 71.33 73.33 74.05 73.55
52.28 49.32 45.22 44.97 46.53 47.42 51.59 51.78 51.39 50.69 51.15 52.46 57.60 53.07 55.68 61.29 66.05 67.65 65.98 69.41 71.84 73.04 73.50 74.14 74.99 75.69 76.48 75.99 74.75 73.60 72.87 71.89 70.63 70.44 70.19 69.84 68.90 68.40 68.36 68.01 67.65 67.52 67.69 67.99 68.72 70.31 71.58 72.02 71.80
54.75 50.50 45.38 43.59 44.47 44.40 51.24 51.37 53.57 50.44 50.58 56.13 56.47 52.31 53.71 60.01 64.66 66.35 66.18 68.30 70.28 72.42 73.34 73.90 74.23 73.96 73.30 72.98 74.99 73.58 72.97 71.91 70.75 70.30 70.07 69.47 68.58 67.66 67.85 67.30 66.92 66.60 66.76 66.99 66.85 67.77 69.69 70.14 69.78
53.80 42.44 41.01 42.82 44.12 46.19 49.93 48.65 51.60 51.88 48.54 50.17 53.52 52.36 57.06 59.86 64.28 63.95 63.33 63.67 68.70 70.33 71.61 72.92 72.43 72.05 71.65 70.98 72.32 73.79 72.75 71.60 70.76 69.87 69.96 67.92 62.00 62.80 63.59 64.37 65.82 65.54 65.35 65.09 64.66 64.67 64.94 65.03 65.70
48.69 41.84 42.35 47.46 47.44 46.13 48.98 48.63 49.32 48.67 47.39 46.69 48.45 51.92 58.57 60.46 62.17 62.76 61.87 61.43 63.96 67.80 69.63 71.69 71.28 71.00 70.28 71.55 70.54 69.87 69.68 67.54 65.98 65.27 64.29 61.87 59.76 60.00 61.76 63.10 64.56 64.28 63.82 63.32 62.59 61.38 60.09 60.11 55.00
48.34 43.27 47.11 49.81 50.40 51.22 49.05 48.50 51.11 47.49 45.31 46.74 47.13 50.95 51.81 56.68 58.62 61.74 61.78 61.79 62.44 65.83 68.38 71.05 70.66 70.60 69.75 69.83 69.30 68.23 66.82 65.30 63.68 63.07 61.80 60.56 59.32 59.12 59.02 56.79 57.21 53.25 58.71 52.18 53.53 51.97 49.33 50.21 50.59
44.88 49.40 49.81 50.69 51.99 50.54 48.40 50.11 47.76 48.30 48.51 50.37 50.27 49.90 50.94 56.10 57.89 59.92 60.75 61.63 61.59 60.97 64.07 69.49 70.74 70.18 69.24 68.92 69.02 68.48 66.63 64.62 62.42 61.75 60.97 58.68 56.52 56.81 55.01 54.07 52.87 50.08 50.77 48.67 47.90 46.16 46.71 46.22 47.07
44.80 46.71 49.93 50.74 50.36 49.32 49.65 47.63 47.07 48.24 50.35 50.51 50.97 50.89 49.21 49.09 50.91 52.44 52.60 56.33 60.03 60.89 62.10 64.34 70.03 69.55 68.93 67.56 68.14 67.18 66.35 65.01 63.56 60.54 59.20 56.49 54.69 54.50 52.81 51.16 50.13 48.24 47.21 47.24 46.00 45.10 45.83 43.69 43.59
46.93 48.13 48.30 48.89 48.34 48.30 47.35 46.65 47.51 48.84 49.25 48.63 49.20 47.73 47.44 48.35 49.30 50.00 50.65 50.18 50.26 54.19 56.19 60.94 67.52 68.93 68.61 66.86 67.00 65.99 65.52 64.70 62.15 60.14 58.57 55.86 55.33 54.19 51.94 49.84 49.75 48.67 46.87 45.80 45.28 44.86 44.09 43.15 42.90
47.92 43.59 44.64 45.77 47.41 47.13 47.80 44.14 45.30 49.08 48.04 46.74 45.42 45.81 47.50 47.78 48.76 48.26 49.39 49.44 50.12 51.44 53.41 53.79 60.18 64.77 66.75 66.53 66.42 65.33 64.15 63.21 60.26 58.65 57.46 55.46 54.63 53.21 52.01 50.02 48.08 47.57 46.31 46.13 44.87 43.91 43.36 42.80 44.00
42.69 41.29 37.66 44.30 45.38 48.35 45.54 38.93 45.68 47.75 46.19 45.06 45.10 44.20 46.12 46.33 46.54 46.17 48.74 49.78 50.04 50.38 51.09 52.95 55.16 54.42 59.90 61.50 63.09 64.03 62.65 61.48 59.70 56.96 55.46 54.50 53.99 52.99 49.90 49.22 48.01 47.65 46.34 45.61 44.32 43.17 42.78 42.49 42.22
38.72 34.05 36.33 39.86 44.39 45.65 44.02 40.32 45.04 47.06 46.24 43.61 42.47 42.61 44.52 44.59 45.48 45.87 47.30 47.61 49.33 49.53 49.81 50.85 52.64 53.22 53.65 57.68 58.82 59.16 59.73 56.25 56.38 53.63 53.31 53.06 53.61 52.91 50.73 49.61 49.19 47.78 46.29 44.87 44.51 43.27 42.79 42.20 42.23
33.93 33.48 36.16 35.83 42.15 44.75 42.35 40.02 41.67 44.06 43.48 41.51 39.60 39.52 42.34 43.07 43.60 45.39 46.60 46.39 48.14 47.99 48.74 49.51 50.77 51.48 53.27 53.80 53.80 55.87 56.73 56.61 53.73 52.50 52.64 51.99 52.88 52.59 50.97 49.56 48.75 47.62 46.01 44.74 43.81 43.47 43.08 42.72 42.67
38.80 36.83 36.70 39.50 44.53 42.10 40.08 38.94 39.59 40.97 40.56 39.45 38.45 38.90 40.08 41.41 43.60 44.92 46.01 46.39 46.90 47.61 46.99 46.53 48.85 48.75 51.27 52.26 51.95 52.14 52.14 56.72 56.17 54.18 53.23 52.25 51.71 52.31 50.63 49.76 48.44 47.60 47.33 46.29 44.50 43.44 43.01 42.36 41.94
40.61 37.43 36.67 40.79 44.70 41.95 39.86 37.25 39.64 40.25 39.65 39.70 39.00 38.57 39.60 40.58 41.39 42.77 44.10 44.74 45.44 44.99 45.92 46.91 46.77 48.36 48.80 49.48 49.15 49.04 49.28 52.95 54.85 55.50 53.17 53.36 52.47 51.21 51.38 50.57 49.60 48.38 46.58 44.68 44.42 43.72 41.82 41.76 41.53
38.94 37.33 36.97 37.91 41.35 40.68 38.79 35.41 37.36 40.42 39.71 39.73 39.20 39.70 40.17 40.13 40.63 40.95 41.35 42.75 43.80 43.83 44.31 46.17 46.60 47.68 48.18 48.48 48.82 49.71 50.06 50.52 50.72 52.19 54.03 53.60 51.74 52.66 52.77 50.67 50.30 48.82 48.45 47.14 45.66 44.08 43.09 41.67 41.34
35.70 42.55 42.06 40.62 37.34 31.20 39.65 27.86 35.03 37.02 34.93 35.74 35.27 35.52 37.79 39.28 40.59 41.57 42.00 42.27 42.04 43.38 44.52 45.29 46.14 46.57 48.93 47.56 46.95 46.18 46.17 46.25 47.49 48.88 51.90 53.67 52.55 50.98 51.98 52.00 51.56 50.06 48.91 47.52 46.96 46.23 43.69 42.36 41.25
39.73 43.50 41.39 40.37 36.21 33.70 34.75 31.25 32.13 35.02 32.20 33.46 34.87 36.23 36.28 38.32 39.18 40.07 41.24 42.41 42.78 43.25 43.06 43.82 44.85 45.83 46.68 45.71 45.42 44.92 44.07 46.30 47.12 47.30 47.59 48.99 52.20 52.08 52.79 52.42 50.68 50.66 50.22 49.03 47.96 45.97 43.49 42.92 41.64
43.67 39.61 36.87 35.89 33.69 27.02 32.80 33.31 31.25 29.89 31.24 32.73 34.54 36.34 37.27 37.17 38.91 39.60 41.07 42.15 42.13 42.53 42.60 43.15 43.66 44.21 45.68 44.86 44.75 43.99 43.19 44.95 45.19 45.60 45.81 47.60 49.01 51.17 50.85 51.19 51.19 50.91 50.00 50.18 47.70 47.80 46.35 45.50 42.30
38.74 32.76 26.33 26.89 26.33 26.94 35.25 31.07 27.87 32.23 33.72 34.04 34.88 36.04 36.81 36.91 38.63 39.67 39.90 40.37 41.42 41.69 42.10 43.46 42.58 42.79 43.65 42.61 42.92 43.17 43.29 44.81 45.95 45.90 45.69 45.32 47.46 48.89 49.78 50.04 50.56 50.97 50.96 49.79 48.97 47.53 46.93 46.00 44.76
34.83 32.96 26.67 22.51 22.84 26.23 33.82 26.75 28.52 34.79 36.26 35.46 36.18 36.80 36.99 36.60 37.94 39.16 40.22 40.06 40.08 41.37 41.04 41.30 41.91 41.43 42.12 41.98 42.24 42.68 42.65 45.13 46.23 46.26 45.73 46.08 46.54 48.14 49.43 51.10 51.03 51.60 51.56 51.05 50.22 47.96 47.61 46.67 46.09
33.93 29.70 34.02 28.09 26.83 23.86 27.53 27.99 32.72 34.23 33.83 33.87 35.11 36.10 36.09 36.54 38.16 38.75 39.73 39.84 39.71 40.09 40.19 40.86 41.77 41.52 41.77 41.97 43.01 41.48 41.44 45.04 45.47 45.73 46.19 47.04 47.42 49.19 49.04 49.05 51.07 51.53 51.61 51.14 50.01 49.14 46.73 46.56 45.98
34.62 36.60 28.98 26.36 20.69 19.03 22.86 24.28 26.47 29.29 30.88 33.57 34.69 34.14 35.53 36.85 37.70 38.47 39.02 39.46 39.47 39.46 39.75 40.31 40.66 40.50 41.05 41.68 41.74 44.44 43.18 44.88 45.28 45.78 45.86 46.88 47.36 46.38 47.44 47.84 49.48 50.79 51.19 50.68 49.76 49.25 47.42 45.81 45.32
31.25 29.27 29.70 28.27 24.73 19.64 16.67 22.60 30.37 30.36 31.59 33.36 34.99 36.98 37.55 34.93 36.99 37.44 38.11 39.32 39.78 39.64 39.28 40.08 40.59 41.27 42.07 41.79 41.80 41.98 44.08 44.66 44.11 44.96 46.38 47.26 46.77 46.66 47.55 48.40 48.57 50.07 50.52 49.39 49.53 49.04 47.69 45.28 44.87
32.63 29.22 28.08 20.94 21.04 21.71 17.21 20.64 34.24 32.15 35.59 36.34 36.07 36.82 35.96 37.10 37.97 38.37 38.64 38.25 38.09 38.59 38.88 39.01 39.77 39.97 40.36 41.34 41.58 42.07 43.79 44.26 42.64 44.09 45.70 47.18 46.11 46.62 47.17 47.83 48.68 50.20 50.99 50.22 48.92 48.24 47.81 44.96 44.31

GFSSGP_sfc_wetblb_033.txt.gz
Wetbulb
71.51 68.96 67.90 66.10 54.84 53.19 49.50 51.77 55.87 54.53 54.43 56.88 57.61 56.50 55.15 55.69 53.95 47.73 64.22 70.42 71.44 72.23 74.50 75.40 76.40 75.71 76.07 76.00 75.84 75.67 75.47 75.17 75.09 74.84 74.45 74.19 74.34 74.64 74.88 74.92 74.25 74.63 75.24 74.83 75.17 75.23 75.24 74.77 74.80
69.24 68.64 64.78 59.75 51.67 46.83 47.51 53.51 54.15 55.57 57.50 57.83 57.17 56.83 55.14 54.25 64.04 63.60 65.77 70.88 72.12 73.34 74.19 74.64 76.40 75.78 75.82 75.68 75.33 74.91 74.73 74.47 74.39 74.15 73.77 73.26 73.43 73.57 73.37 74.00 74.59 74.53 74.70 74.59 74.44 74.87 75.11 74.57 74.92
66.42 67.07 58.92 54.77 51.13 46.73 48.04 53.29 55.15 57.92 58.17 57.87 56.80 56.37 56.08 56.28 64.77 64.07 65.61 71.31 72.18 72.53 74.49 74.65 76.71 75.95 76.03 75.42 75.00 74.47 74.15 73.76 73.29 72.74 72.64 72.07 72.75 72.95 72.22 73.37 72.83 73.20 74.74 74.90 74.35 74.12 74.72 74.62 74.78
61.49 61.39 57.88 50.86 47.78 50.83 52.27 54.17 57.43 57.68 58.94 59.25 56.68 54.28 56.99 60.86 64.47 65.50 68.40 71.71 71.13 72.17 73.47 74.99 76.59 75.61 75.29 74.37 74.66 73.94 73.55 73.06 71.90 71.07 70.86 70.72 71.44 71.38 70.78 71.93 72.48 71.90 71.23 71.84 72.88 73.79 74.49 74.32 74.53
59.95 56.13 49.12 46.05 47.04 50.37 50.04 53.06 55.62 54.73 54.98 56.15 56.52 53.76 55.44 61.12 65.25 66.49 70.28 71.34 70.15 71.33 72.96 74.53 76.57 76.35 76.25 75.01 74.55 73.62 72.55 71.75 71.14 71.07 70.28 70.16 70.45 70.24 69.46 69.94 70.63 70.74 70.78 70.80 70.55 71.62 73.92 73.96 74.06
53.36 52.20 44.33 41.39 45.26 49.44 49.57 49.58 52.64 50.59 52.34 55.79 55.37 53.92 55.69 60.16 64.85 65.17 69.78 69.57 70.51 71.37 72.62 74.64 76.97 77.07 76.57 75.24 74.28 73.66 72.03 71.54 71.26 70.78 70.15 69.62 69.32 69.35 68.73 68.25 68.96 69.56 69.76 69.70 69.83 70.63 73.00 73.64 73.57
51.83 47.87 43.92 44.42 44.48 44.63 49.43 49.92 47.86 47.91 47.96 50.80 55.28 51.19 55.60 60.61 64.06 64.64 66.51 67.83 69.70 71.88 72.78 74.01 74.68 75.61 76.68 76.05 75.07 73.85 72.86 71.57 70.95 70.38 69.89 69.41 68.66 68.37 67.96 67.57 67.12 67.43 67.88 68.40 69.19 70.22 71.86 73.57 72.54
53.98 49.07 44.04 42.86 43.01 42.16 49.14 49.43 51.43 47.87 47.12 51.78 53.81 49.93 51.66 58.48 64.86 64.75 67.53 69.06 69.40 71.37 72.40 72.66 73.54 74.22 73.85 73.69 75.56 73.94 73.04 72.37 70.80 70.51 69.96 69.48 68.41 67.73 67.58 67.04 66.46 66.26 66.51 66.57 67.32 69.13 70.51 70.77 70.13
51.91 41.78 39.84 41.91 42.76 44.12 48.14 47.29 49.71 50.21 46.79 47.98 48.64 48.90 53.74 57.91 64.61 63.64 63.15 67.06 68.62 70.97 70.90 72.27 73.22 72.99 72.36 71.66 73.18 74.19 73.11 72.68 71.22 70.58 70.28 68.16 62.80 62.07 63.39 64.65 65.78 65.46 65.40 65.53 65.31 66.08 67.09 66.63 65.87
47.07 39.10 40.22 45.35 45.91 44.65 47.59 46.92 47.96 47.61 45.97 44.67 46.45 48.57 51.26 59.59 61.40 62.78 61.58 63.42 66.55 68.46 70.07 72.75 72.86 71.90 70.80 71.93 70.83 70.14 69.54 68.02 66.99 66.56 64.79 62.60 60.44 60.13 61.92 62.93 65.02 64.68 64.41 64.08 63.38 62.65 61.61 60.18 54.49
47.18 42.43 45.76 48.36 49.51 49.76 48.06 47.26 49.36 46.63 44.63 45.85 46.16 47.98 49.41 56.15 59.62 60.80 60.45 60.36 62.64 66.64 69.22 71.78 71.35 71.20 70.54 70.55 69.94 69.86 67.69 66.91 65.51 64.51 63.06 61.33 59.72 59.00 59.93 57.81 56.93 53.81 58.52 52.15 53.34 50.84 48.97 50.29 50.80
43.96 48.06 48.26 49.67 50.59 49.06 46.86 48.75 46.75 46.54 47.63 48.60 47.79 47.30 47.66 47.09 47.71 48.62 49.04 49.50 50.56 59.64 64.37 69.02 70.76 70.21 69.87 69.97 69.49 69.45 67.58 66.83 64.95 64.06 62.32 60.67 57.69 57.18 56.71 55.41 54.38 51.30 50.39 48.13 47.36 45.63 45.95 45.62 46.98
43.32 45.40 48.52 49.46 49.26 48.37 48.24 45.78 45.47 46.75 47.15 47.75 48.09 47.44 46.53 46.72 46.85 48.03 48.87 49.62 50.32 50.91 52.18 58.15 69.09 69.29 68.84 68.39 68.35 68.63 67.92 67.12 65.78 63.42 62.25 61.09 58.43 57.14 55.90 53.77 51.99 49.22 47.44 47.66 46.01 44.43 44.47 42.83 42.43
45.65 46.32 46.45 46.46 46.68 46.75 46.02 45.35 45.87 46.83 46.06 46.09 45.78 44.79 45.12 45.60 46.31 47.50 47.92 47.72 47.28 48.94 50.89 53.12 58.46 69.38 68.79 67.86 66.45 66.48 66.62 66.12 64.54 62.90 61.89 60.19 58.41 56.65 55.66 52.42 50.23 48.46 46.67 45.98 44.77 44.22 43.14 42.00 41.39
46.57 42.15 43.43 43.86 44.94 45.90 46.27 42.40 44.22 45.33 45.88 43.91 43.00 42.87 43.96 44.46 45.23 44.31 46.58 47.59 45.59 47.78 49.59 51.90 53.66 56.97 64.67 66.16 65.67 65.64 64.44 64.60 62.65 61.31 59.29 58.31 56.81 55.68 55.53 52.75 48.86 48.70 47.50 46.23 44.06 43.07 42.43 41.54 42.60
41.51 39.60 36.19 42.59 44.27 45.70 44.72 37.49 42.04 44.65 43.92 41.37 41.22 39.98 42.44 43.24 43.43 42.71 45.73 47.06 47.18 46.60 46.99 50.22 52.97 52.69 52.75 55.56 61.54 64.23 63.13 61.58 60.85 58.50 56.61 56.24 56.15 54.78 53.50 52.60 50.72 48.92 47.03 45.47 44.00 43.00 42.31 41.54 40.68
37.39 33.44 34.52 38.97 43.58 44.77 43.28 36.75 40.30 43.76 42.15 39.83 38.10 39.01 41.61 41.87 43.63 43.33 44.94 44.77 46.84 45.96 45.44 48.10 49.60 50.25 50.75 50.67 52.47 55.30 57.19 58.66 58.04 55.99 54.13 55.44 55.45 53.83 52.76 52.11 51.24 48.41 46.44 44.64 44.33 42.09 42.36 41.40 41.19
32.81 32.37 34.57 34.73 41.23 43.14 38.07 36.01 38.27 39.79 39.59 37.48 37.06 37.38 39.13 40.62 41.62 43.41 44.62 44.42 45.17 45.55 45.60 46.06 48.04 48.19 49.35 50.23 50.54 51.26 52.14 53.89 52.88 51.63 52.87 53.26 53.19 53.76 52.33 49.73 48.76 47.84 46.17 44.62 43.03 42.47 41.34 41.60 41.63
37.32 35.40 34.96 37.91 42.64 40.16 36.08 35.49 37.00 38.55 38.05 37.19 36.97 37.39 38.58 39.89 41.78 42.89 43.71 43.84 43.90 44.31 43.93 44.78 47.16 46.88 48.02 49.16 48.00 48.38 47.97 50.49 52.17 52.92 52.73 52.00 50.73 52.27 50.12 50.26 48.95 47.31 47.41 46.97 44.57 42.63 42.03 41.04 40.80
39.05 36.03 35.14 39.08 42.95 40.17 35.60 34.62 36.91 38.02 37.52 37.67 37.46 37.12 38.19 38.90 39.67 40.93 42.25 42.62 42.82 42.06 42.69 43.33 44.63 45.99 46.87 46.90 46.80 46.88 46.76 49.17 51.97 53.40 54.43 54.37 53.08 50.53 50.14 49.61 49.16 49.28 47.16 45.59 44.19 43.28 41.17 41.41 40.99
37.57 35.67 35.32 36.55 39.71 39.38 35.95 32.85 34.07 36.49 36.54 37.37 37.30 37.80 38.23 37.93 38.65 39.11 39.25 40.73 41.55 41.27 41.35 43.26 43.68 44.66 46.15 45.72 46.45 46.38 46.19 46.80 47.40 48.17 51.01 51.93 53.72 53.14 51.59 50.40 50.07 49.04 49.51 48.50 46.29 45.49 43.37 41.65 40.12
34.30 40.94 40.57 39.28 36.21 30.55 37.25 27.06 31.51 33.04 32.87 34.04 33.36 33.82 36.34 37.50 38.81 40.00 40.30 40.12 40.19 41.37 41.76 42.38 43.31 43.74 46.63 44.53 43.89 43.10 42.98 43.08 45.38 45.71 47.16 47.96 49.94 51.02 52.88 51.36 50.35 50.28 48.42 48.91 48.51 47.89 47.24 43.55 41.37
38.74 42.37 39.85 38.64 34.47 31.83 32.49 30.01 29.53 32.04 30.55 31.52 33.50 35.29 35.35 37.44 39.29 39.82 40.35 40.85 41.17 41.64 41.10 41.52 42.51 43.19 44.04 43.09 42.12 41.52 40.93 42.89 45.16 45.52 45.56 46.18 47.17 48.71 50.29 50.06 48.90 50.28 48.78 49.09 49.81 48.00 45.86 46.93 42.94
41.29 37.57 35.52 34.31 32.02 26.18 29.97 31.39 28.68 29.73 30.91 31.36 32.76 35.78 36.03 36.12 37.56 39.66 40.45 40.69 40.97 41.38 41.08 41.36 41.83 42.44 42.66 42.45 41.81 40.77 39.72 40.05 41.84 43.93 44.03 45.04 45.67 46.57 48.01 49.43 48.46 48.47 48.65 48.59 48.75 48.24 46.68 47.01 46.74
38.01 30.82 24.99 25.28 25.37 25.77 32.80 30.05 27.13 31.36 32.79 33.73 33.20 34.79 35.75 36.18 35.31 38.35 38.71 39.02 39.87 40.65 40.94 41.39 41.44 41.07 41.39 40.86 40.83 40.70 40.58 39.85 40.45 44.13 44.27 43.64 43.97 45.13 46.23 46.48 47.20 47.73 48.41 49.03 49.17 48.23 47.72 47.79 46.28
33.47 31.31 25.17 22.57 21.89 24.05 31.32 25.66 27.81 33.25 35.00 34.97 35.27 35.19 35.53 36.24 35.67 37.41 38.86 38.80 38.67 39.54 39.71 39.59 40.17 40.07 40.78 40.36 40.46 40.47 40.64 40.63 43.24 44.59 44.20 43.56 44.44 45.48 46.74 46.18 46.02 47.03 48.60 49.63 49.29 49.29 48.51 48.78 47.56
31.93 28.45 32.22 26.96 24.43 21.72 25.46 28.25 29.68 32.58 32.47 32.63 33.88 34.55 34.95 35.81 35.72 37.82 38.51 38.47 38.38 38.62 39.19 39.36 39.57 40.37 40.77 40.80 40.36 40.00 40.00 39.89 42.41 43.31 43.74 43.79 44.76 47.36 47.03 45.93 45.44 46.10 47.56 49.02 49.29 49.02 48.27 48.28 47.93
33.09 35.32 27.68 25.04 20.97 19.22 21.36 22.64 26.09 28.29 29.64 32.27 32.08 32.79 34.22 35.44 35.55 36.96 37.65 38.19 38.71 38.29 38.42 38.52 39.17 39.38 40.01 40.03 39.80 41.36 39.95 40.45 41.42 41.43 41.90 43.33 44.59 46.01 45.65 45.39 45.54 45.74 46.57 47.81 48.82 48.57 48.90 47.92 46.98
29.90 27.94 28.20 27.33 23.75 19.91 16.64 21.99 29.31 29.60 31.57 30.87 32.10 33.81 34.49 34.15 35.52 36.36 36.65 37.45 38.66 39.37 39.39 39.50 39.22 39.47 40.07 40.31 39.80 39.65 40.41 41.70 40.95 41.70 42.71 43.22 43.55 45.44 45.49 45.74 45.76 45.68 46.22 47.60 47.90 48.14 48.82 48.76 47.77
31.10 27.70 27.08 21.54 20.79 20.21 16.49 19.96 32.29 32.05 32.85 33.31 33.06 34.12 34.84 36.22 37.04 37.43 37.90 38.56 38.67 39.87 39.40 39.53 40.06 39.35 40.61 40.47 39.63 40.25 41.29 41.71 40.29 41.28 41.77 42.66 42.79 45.57 45.78 45.71 45.71 45.70 46.27 46.24 47.00 47.07 48.18 48.29 47.03

GFSSGP_sfc_wetblb_036.txt.gz
Wetbulb
71.26 68.09 67.18 64.72 53.92 51.29 47.84 50.63 54.81 53.71 53.75 55.80 56.38 55.02 53.50 54.11 52.12 46.30 63.27 69.23 70.69 71.13 73.96 74.38 75.53 75.85 75.50 75.49 75.26 74.81 74.68 74.72 74.58 73.98 73.34 73.70 73.78 74.80 74.72 73.94 73.90 75.26 74.75 75.09 75.21 75.05 74.54 74.72 74.93
67.85 67.59 63.54 58.28 50.33 45.13 47.14 51.78 53.24 55.04 56.47 56.02 56.40 55.91 54.81 53.04 62.72 62.62 65.07 70.05 71.34 72.66 73.94 73.99 75.70 76.23 75.46 75.11 74.76 74.54 74.61 74.62 74.51 73.59 73.15 72.79 72.73 72.85 72.49 73.99 74.45 73.88 74.72 74.41 74.83 75.01 74.39 74.87 74.87
65.18 65.37 57.72 53.26 49.48 44.82 46.29 52.11 54.26 56.99 57.07 56.95 55.56 55.21 54.64 55.15 63.72 62.87 65.64 70.87 71.95 72.67 73.82 74.06 75.38 75.62 75.85 74.64 74.17 74.30 74.16 73.94 73.64 73.19 72.54 71.59 72.01 72.19 71.64 72.75 72.20 73.20 74.46 74.30 74.16 74.51 74.31 74.70 74.46
60.95 60.08 56.08 49.25 46.21 48.79 50.34 50.72 55.19 56.62 57.90 58.14 55.72 53.09 55.91 59.32 63.08 64.26 69.60 71.29 71.07 71.87 72.97 74.82 76.14 75.81 75.22 74.49 73.79 74.17 73.82 73.24 72.47 71.31 70.67 70.37 70.94 70.95 70.84 71.76 70.95 71.26 71.68 72.39 72.70 73.80 74.47 74.32 74.53
58.20 54.20 45.80 44.24 44.97 47.80 48.72 50.94 51.13 51.66 52.92 54.47 55.34 52.62 54.40 60.71 65.02 67.52 70.21 70.86 70.17 71.39 72.60 74.37 75.95 75.76 75.46 75.40 74.10 74.00 73.36 72.56 71.01 70.39 69.71 69.55 69.85 69.60 68.65 69.98 70.50 70.38 70.15 70.28 70.44 71.81 73.77 73.79 74.07
52.92 50.54 42.05 39.53 43.27 47.70 48.09 47.89 50.38 47.57 49.15 51.47 53.23 52.91 54.11 58.50 63.80 67.42 70.04 69.31 70.73 71.50 72.58 73.80 76.13 76.05 75.97 74.78 74.22 74.01 72.98 71.82 71.09 70.72 69.65 69.02 69.16 68.99 68.11 67.69 68.67 69.04 69.31 69.73 69.94 70.97 72.50 73.50 73.12
51.02 46.15 42.52 42.84 42.79 43.30 47.53 48.43 46.15 45.81 44.88 49.42 49.71 49.43 53.52 58.77 63.47 66.60 68.09 68.10 69.79 71.35 71.64 72.81 74.15 75.65 76.89 75.89 74.17 74.04 72.90 71.82 71.55 70.74 69.99 69.00 68.25 68.09 67.61 67.07 66.67 67.13 67.53 68.01 68.82 69.63 72.54 73.27 72.71
52.43 47.73 43.21 42.69 41.81 40.71 47.53 48.10 49.71 46.43 44.63 49.28 50.16 48.55 48.90 53.20 62.50 65.08 67.47 67.06 68.29 69.98 71.54 71.85 72.81 73.83 73.62 73.25 75.42 74.43 73.47 72.00 71.55 70.71 69.93 69.46 68.21 67.50 67.14 66.56 66.05 65.84 66.02 66.02 66.73 68.46 70.93 71.14 70.99
50.02 41.16 38.78 40.56 41.77 42.70 46.61 46.23 48.40 48.93 45.54 46.21 47.30 47.85 49.19 53.38 62.73 63.45 65.34 66.83 67.81 69.82 69.38 70.46 71.72 72.19 72.40 72.11 73.32 74.65 73.94 73.10 71.63 70.93 70.59 68.59 63.06 61.74 62.46 65.41 65.44 65.25 64.94 65.18 65.06 65.79 67.94 66.89 64.39
45.34 38.16 39.31 43.99 44.28 43.51 46.91 45.50 46.60 46.36 45.04 44.64 44.66 47.73 48.77 52.76 57.78 58.38 58.22 60.24 63.99 66.53 69.79 70.30 71.59 72.37 70.81 72.95 71.14 70.91 70.12 69.53 67.92 67.12 66.13 63.34 61.59 60.58 62.26 63.34 64.80 64.89 64.25 64.09 63.70 63.05 62.10 58.82 54.04
46.02 41.47 44.51 47.28 48.36 48.26 46.75 46.48 48.17 45.40 42.82 42.30 42.24 44.26 46.00 46.67 47.70 48.46 48.55 47.84 48.43 56.79 67.18 70.99 71.92 72.08 71.63 71.42 69.09 68.79 67.98 66.90 66.02 65.13 63.58 62.12 60.89 60.42 60.99 58.44 57.43 55.19 57.85 53.02 52.25 50.26 48.31 48.77 50.63
43.41 46.93 47.29 48.66 49.33 47.78 45.78 47.43 43.37 42.21 41.90 45.34 44.93 44.70 45.31 44.73 45.22 46.00 46.28 47.20 48.33 49.57 50.64 55.37 69.53 71.52 71.16 70.68 68.78 68.28 67.01 65.94 64.57 63.65 62.26 60.31 58.43 57.17 57.58 56.98 55.46 53.26 50.62 48.93 47.59 45.82 44.97 45.17 46.13
42.00 43.94 47.31 47.98 47.15 46.35 47.16 44.90 42.49 41.98 44.53 44.38 45.28 44.83 43.97 44.51 44.68 45.93 46.67 47.17 46.74 47.73 49.84 51.55 53.11 68.60 70.88 69.94 67.68 67.96 68.17 66.38 64.85 63.22 62.22 60.70 58.29 56.47 55.99 55.66 54.03 52.28 48.86 47.95 45.86 44.68 43.78 43.21 41.99
44.32 44.96 45.03 44.75 45.48 46.14 45.02 44.41 43.88 42.91 43.99 42.85 42.81 41.96 42.33 43.01 43.54 45.50 45.90 45.84 44.68 46.01 48.26 50.93 52.48 61.15 69.48 68.30 66.54 66.67 67.76 66.84 65.07 62.93 62.16 61.00 59.35 56.73 55.89 54.85 52.67 50.34 46.96 46.80 46.13 44.47 43.02 42.32 40.56
45.12 41.29 42.04 42.37 43.16 44.24 44.58 40.30 38.44 42.37 42.47 40.51 39.26 39.18 41.78 42.17 43.41 42.00 44.23 45.42 43.40 45.05 46.37 49.43 52.05 51.82 53.43 61.84 66.87 66.66 65.31 65.42 63.93 62.79 61.74 60.80 59.23 57.22 56.41 54.95 52.12 49.55 47.16 45.76 43.88 42.42 41.63 41.26 41.68
40.09 38.49 35.10 40.87 44.39 44.78 43.30 34.39 38.85 41.94 40.17 38.10 38.36 37.83 39.93 41.53 41.87 41.14 43.52 44.18 44.62 44.00 44.32 47.95 50.29 50.15 49.95 49.77 53.68 62.22 64.50 63.92 62.85 61.70 60.30 60.56 60.42 58.69 57.20 55.46 55.33 51.16 48.05 46.25 43.89 42.65 41.88 41.27 40.60
36.27 32.43 33.17 38.02 43.35 43.11 40.33 34.04 37.91 40.19 39.62 37.47 36.22 37.11 39.61 40.01 41.61 41.64 43.28 42.85 43.69 43.44 43.65 45.83 46.95 47.96 48.42 48.54 49.84 50.69 52.46 54.48 56.47 57.30 56.82 57.91 58.58 58.32 57.37 55.23 54.44 51.93 50.22 46.65 44.65 42.78 42.17 41.13 40.52
31.87 32.63 33.46 33.92 39.95 39.00 35.00 33.37 36.38 37.99 37.57 36.15 35.56 35.98 37.89 39.15 40.37 41.88 43.00 42.67 43.03 42.65 42.87 43.83 45.50 45.74 46.98 47.09 47.81 49.01 49.64 50.63 51.33 51.48 51.11 52.41 54.40 55.97 53.24 53.02 51.41 51.11 48.14 46.08 44.00 43.62 41.53 41.69 41.47
36.25 34.20 33.51 36.62 41.04 36.31 33.48 33.47 35.07 36.94 36.10 35.79 35.47 35.94 37.09 38.42 40.44 41.29 42.10 41.96 41.67 41.67 41.59 41.56 44.32 44.53 45.05 45.28 44.96 45.37 46.02 47.88 49.26 50.48 52.22 51.94 51.02 50.64 52.66 51.94 49.39 47.91 48.43 49.04 46.31 42.54 42.20 40.99 40.53
37.65 34.49 33.55 37.60 41.45 36.57 33.51 32.41 35.16 36.24 36.07 36.24 35.85 35.12 36.34 37.53 38.71 39.69 40.72 41.01 40.76 40.07 40.43 41.27 42.48 44.45 44.23 44.56 44.41 44.23 44.01 46.26 47.87 48.26 49.61 50.94 52.85 53.05 51.30 51.59 52.04 48.55 47.35 45.87 44.72 44.88 42.99 41.55 41.51
36.23 33.91 33.69 35.28 38.46 36.17 33.54 30.53 32.33 34.79 35.31 36.60 36.21 36.75 37.79 37.53 38.13 38.69 38.61 39.74 40.30 39.86 39.46 41.20 42.16 43.57 43.99 43.43 43.93 44.04 43.51 43.67 44.61 45.48 46.67 47.49 48.61 49.89 51.03 51.30 50.73 50.25 47.17 47.00 44.70 44.22 43.46 45.31 42.00
33.38 39.35 39.36 37.99 34.67 28.79 35.09 26.46 29.46 31.61 31.79 32.74 33.21 33.12 34.72 37.27 38.39 39.31 39.56 39.49 39.58 40.55 40.33 40.91 41.81 42.25 44.47 42.47 41.60 40.05 40.04 39.64 42.39 43.39 45.26 45.72 47.00 47.09 47.95 48.84 48.54 47.85 48.21 46.08 46.96 46.32 45.71 43.59 43.33
37.75 39.73 37.50 37.01 33.39 29.69 30.78 29.52 29.45 30.63 29.48 30.68 32.48 34.04 34.42 35.10 36.27 38.64 39.25 39.69 40.51 40.62 39.99 39.96 40.84 41.64 41.90 41.17 40.34 39.73 38.90 39.45 41.23 42.54 43.22 44.67 45.20 45.83 46.96 47.46 47.26 46.92 46.66 46.96 49.08 46.46 45.20 45.40 45.93
40.00 36.14 33.98 32.85 30.68 25.43 27.85 29.58 27.85 27.13 29.80 30.79 31.77 34.38 35.01 35.63 35.91 36.25 39.28 39.44 39.44 39.91 40.11 40.25 39.96 40.97 41.16 40.40 40.03 39.16 38.26 38.55 39.16 40.45 42.84 44.06 44.06 44.65 45.83 46.88 46.29 46.01 45.96 45.95 46.74 47.32 45.04 46.47 45.96
36.62 28.96 24.73 25.20 24.98 25.49 31.04 28.81 29.37 31.35 31.74 33.13 32.32 32.62 35.19 35.22 35.30 35.24 36.89 38.04 38.66 38.99 39.38 40.19 40.23 39.62 40.44 39.70 39.67 39.69 39.17 38.44 38.36 40.35 42.40 42.47 42.35 42.86 43.97 45.16 45.55 44.81 45.60 46.11 46.12 45.93 46.07 45.31 45.40
32.25 30.10 25.04 22.86 21.61 22.88 29.45 25.47 29.15 32.21 33.65 34.43 33.82 33.42 34.38 34.90 35.15 34.90 36.38 37.52 37.49 38.34 38.61 39.02 39.07 38.52 39.88 39.66 39.69 39.62 39.10 39.02 39.47 40.98 41.94 41.35 41.77 42.70 44.06 45.13 45.92 45.05 45.13 45.19 45.91 45.99 46.78 46.62 46.55
30.35 27.65 31.17 25.75 22.85 20.75 23.90 27.91 29.48 30.82 31.45 32.50 31.86 33.16 33.54 34.55 34.86 35.24 37.16 37.31 37.36 37.79 38.29 38.56 39.02 39.40 39.58 40.26 40.12 39.16 38.87 38.70 39.06 40.03 40.75 41.09 41.69 44.22 44.27 45.21 45.26 44.98 44.92 44.91 44.52 45.37 46.25 47.14 47.05
32.03 34.19 26.59 24.16 20.73 19.43 20.52 21.97 25.65 27.29 28.94 31.10 30.86 31.55 33.03 34.42 34.73 35.37 36.35 37.30 38.03 38.32 38.91 38.08 38.73 38.58 39.83 40.06 39.81 40.51 39.15 39.18 39.62 39.80 39.24 40.08 41.64 42.62 43.46 44.11 44.71 44.80 44.91 44.50 43.90 44.60 46.33 46.24 46.97
29.23 27.47 27.37 26.33 23.30 20.12 16.89 22.34 28.11 30.81 31.17 30.47 31.23 32.50 33.58 33.77 34.74 35.71 36.30 37.29 38.57 38.50 38.30 40.20 40.20 39.76 40.31 40.37 40.58 39.93 40.05 39.84 39.49 38.68 39.35 39.71 40.83 41.11 42.39 44.25 44.97 44.76 44.75 44.42 44.07 44.18 45.02 45.43 46.26
29.69 26.85 27.08 21.76 20.84 18.91 16.00 20.34 30.96 30.39 32.04 32.50 32.25 33.50 33.47 34.65 36.14 36.37 37.49 38.83 38.44 39.14 39.93 40.31 40.71 40.08 40.76 41.13 40.55 41.18 41.07 40.79 38.89 38.20 38.91 39.24 39.23 40.34 41.71 43.83 44.30 44.73 45.03 44.56 43.92 43.50 44.61 44.33 44.89

GFSSGP_sfc_wetblb_039.txt.gz
Wetbulb
72.34 69.10 70.44 67.85 59.51 57.67 53.22 55.36 59.33 58.48 58.02 60.16 60.27 58.89 58.56 58.87 54.82 52.95 68.42 71.54 71.88 72.60 74.89 75.19 75.72 75.87 75.41 75.23 75.41 75.20 74.38 74.37 73.50 72.98 72.34 73.41 74.00 74.70 73.68 73.52 74.34 75.23 74.96 75.55 75.40 74.65 74.26 74.47 74.43
68.42 68.09 67.29 62.76 54.62 51.77 52.87 56.11 56.51 58.69 59.90 59.97 60.34 60.05 59.14 57.54 65.16 65.85 68.38 71.62 72.71 73.04 74.83 74.81 75.46 75.62 75.37 75.45 75.12 74.33 74.00 74.10 74.39 72.64 71.95 72.67 72.55 72.89 72.53 74.11 73.59 74.07 74.75 74.62 75.11 74.74 74.61 75.07 74.82
67.18 66.11 63.31 57.97 53.43 49.23 50.70 54.60 55.91 59.88 60.83 60.52 59.97 60.30 59.58 59.25 66.37 66.28 69.66 72.28 73.03 73.47 75.10 75.13 74.88 75.78 75.16 75.03 74.33 73.77 74.03 73.88 73.77 73.01 72.54 71.58 71.73 71.28 71.72 73.17 72.02 73.74 74.26 74.10 74.23 74.54 74.19 74.89 74.39
65.22 64.69 59.13 54.04 50.37 53.84 54.65 55.64 54.38 57.59 59.54 60.20 59.84 58.25 60.96 64.52 66.47 68.06 71.51 72.81 73.01 73.80 75.22 75.71 75.24 75.17 75.52 75.03 74.24 73.50 73.93 73.42 72.83 71.68 70.60 70.40 71.05 71.18 71.36 71.97 70.78 71.58 72.01 72.54 73.06 73.75 73.96 74.53 74.40
61.69 58.45 51.55 50.49 49.38 52.50 54.08 53.02 53.36 53.58 54.34 55.70 59.52 58.19 59.24 64.16 68.66 70.52 71.95 72.68 72.49 73.53 74.79 75.08 76.27 75.57 75.63 75.57 74.08 73.53 73.77 73.13 71.90 70.37 69.64 69.41 69.80 69.75 69.11 69.30 70.21 70.29 70.37 70.19 71.62 72.07 73.70 74.18 74.00
59.14 55.43 48.89 46.61 48.28 51.31 52.49 52.13 53.22 50.70 50.38 54.09 53.68 57.35 59.48 64.59 66.28 70.39 72.10 72.22 73.06 73.14 74.18 74.86 76.29 76.41 76.06 74.96 74.67 73.76 73.53 72.65 71.12 70.64 69.67 69.09 69.23 69.05 68.13 67.73 68.80 69.25 68.50 69.27 70.01 71.14 72.07 73.31 73.11
56.70 52.74 48.67 48.18 48.07 48.05 50.96 51.83 51.40 50.47 49.92 51.24 52.45 54.38 57.31 57.06 58.97 70.28 71.38 71.67 72.44 73.03 73.56 74.40 75.01 75.61 76.35 75.80 75.10 73.99 73.88 72.55 71.65 71.09 70.30 69.40 68.69 68.44 67.79 67.14 66.65 67.02 67.32 67.24 68.49 69.44 72.56 73.11 73.18
56.32 54.02 49.12 48.51 46.51 46.26 50.81 51.39 52.50 51.27 50.61 52.50 52.98 48.88 52.94 53.15 64.06 69.82 70.40 70.53 71.46 72.33 72.87 73.56 75.23 75.53 75.78 75.37 75.53 74.89 73.96 72.67 72.13 71.41 70.63 69.91 68.80 68.27 67.75 67.11 66.40 66.02 66.04 65.91 66.35 67.90 70.39 70.01 69.81
53.44 49.29 45.63 46.49 46.66 47.51 50.38 50.18 52.21 52.31 50.66 50.34 49.91 48.97 50.03 53.52 65.06 65.07 67.79 68.69 70.23 71.54 72.58 73.50 74.01 75.32 75.42 75.40 74.74 74.96 74.28 73.16 72.50 71.79 71.21 70.02 68.93 68.26 67.86 67.09 66.38 65.86 65.40 65.36 65.11 65.66 67.49 65.73 65.62
50.76 47.13 45.13 47.98 48.91 49.03 50.28 50.00 50.18 50.61 47.80 47.86 48.30 49.77 50.41 52.36 54.04 53.86 53.88 54.85 55.89 57.98 68.52 72.92 73.53 74.08 74.66 74.35 74.77 74.63 74.18 73.47 72.66 70.99 70.54 70.01 68.54 67.56 66.53 66.50 66.02 65.67 65.05 64.72 64.25 63.46 61.61 61.02 64.57
50.03 47.71 48.25 50.10 51.01 50.89 49.58 47.61 47.66 47.52 45.13 45.14 44.33 46.25 48.18 49.67 50.25 50.55 50.93 51.19 51.98 53.95 56.04 57.42 65.87 73.71 73.13 73.24 73.76 74.14 73.87 73.04 72.38 71.24 69.95 69.16 67.47 66.97 66.88 65.99 65.36 65.29 63.34 63.83 62.10 60.83 59.57 57.39 60.56
48.78 49.61 50.02 51.46 50.66 49.26 48.29 47.67 44.78 44.82 44.38 46.51 46.52 47.05 47.87 48.03 48.28 48.83 49.34 49.90 51.01 52.95 54.00 55.84 57.65 58.66 71.73 72.51 72.07 73.27 72.96 72.38 71.46 70.79 69.51 68.22 67.00 65.89 64.95 64.40 63.69 62.83 61.99 60.81 59.94 58.94 56.72 55.65 55.59
47.53 47.68 49.29 49.60 48.78 47.99 47.57 44.80 44.04 43.25 45.32 45.99 46.49 46.57 46.41 47.30 48.18 49.22 50.02 50.35 50.94 51.31 52.98 54.56 57.15 63.35 67.40 71.32 71.37 70.89 72.27 72.01 71.23 70.29 69.22 68.01 66.93 65.91 64.76 63.58 63.11 61.83 60.24 58.50 57.06 56.51 54.87 54.28 53.19
48.05 47.86 47.29 47.22 47.10 47.81 44.69 43.17 45.50 44.47 45.19 44.50 44.94 45.08 45.77 46.37 46.92 48.80 49.22 49.41 49.88 51.03 51.44 53.82 54.84 56.20 62.09 67.71 69.35 68.96 69.92 69.77 68.88 69.77 69.44 67.85 66.64 65.75 64.61 63.38 62.20 61.36 59.29 57.56 56.30 55.05 54.32 53.48 52.49
47.79 45.35 46.12 45.49 46.81 46.81 46.49 42.06 40.16 44.16 43.71 43.06 43.16 44.20 45.19 45.69 46.72 46.45 47.61 48.28 48.98 50.58 51.69 52.11 53.51 54.74 55.68 57.02 60.89 67.10 67.61 67.94 67.30 67.60 68.75 68.58 67.59 66.26 62.94 61.60 61.94 61.02 59.45 56.37 54.87 54.17 53.03 52.33 51.35
43.63 43.43 41.69 43.98 46.85 46.73 46.55 38.92 41.03 43.47 42.50 41.70 42.53 43.36 44.43 44.96 45.52 46.42 47.34 48.02 48.72 49.68 50.34 51.70 52.28 52.68 53.49 55.07 56.25 56.92 57.30 60.14 61.42 63.71 64.16 63.90 64.21 64.41 63.86 63.46 61.41 61.29 58.96 56.28 53.94 53.48 52.63 52.27 51.56
41.30 39.40 39.56 41.59 44.70 44.97 44.21 38.41 40.25 42.36 41.67 41.11 41.59 42.55 43.70 44.64 45.60 46.21 46.76 47.21 47.88 48.38 49.51 50.63 51.58 51.48 52.12 52.82 53.94 54.79 55.46 55.69 56.57 57.09 57.49 59.20 61.54 62.56 61.74 62.48 63.40 61.63 59.59 57.34 54.39 53.14 52.36 52.22 51.89
37.84 38.91 39.34 39.10 43.06 42.25 39.37 36.97 39.51 40.79 40.61 40.43 40.96 41.72 42.65 43.61 44.30 45.90 46.60 46.85 47.24 47.52 48.59 50.11 50.87 50.73 51.74 52.48 52.66 53.22 53.17 54.11 55.07 55.36 55.91 56.25 56.68 57.00 59.46 60.76 60.73 60.29 58.88 57.68 55.16 53.56 51.32 52.09 52.42
41.12 39.70 38.92 40.77 43.05 40.20 37.32 37.16 38.69 40.29 39.92 40.11 40.78 41.41 42.18 42.94 44.66 45.68 46.51 46.76 46.58 46.71 47.37 48.39 49.97 50.12 50.52 50.84 50.68 50.86 50.66 51.55 53.17 53.79 54.53 54.86 54.91 55.11 55.80 56.36 57.29 57.48 56.96 57.82 56.66 54.12 51.85 51.18 50.50
41.67 39.64 39.01 40.91 42.50 40.82 36.45 36.36 38.68 39.79 39.83 40.70 40.93 41.27 42.10 42.94 43.92 44.95 45.60 46.53 46.43 46.00 46.44 47.38 48.65 49.36 49.54 50.10 50.43 50.71 50.04 51.66 51.65 52.78 52.70 54.02 53.66 53.83 53.84 54.64 55.30 55.28 55.18 55.32 55.11 53.89 52.71 51.60 50.02
40.44 39.02 38.42 39.34 40.39 38.23 36.42 35.61 36.11 39.00 40.23 40.76 41.57 41.93 42.44 42.70 43.26 44.63 45.33 45.65 46.48 46.53 46.06 46.12 47.26 47.96 48.98 48.66 49.30 49.69 50.08 49.98 50.38 50.75 51.38 52.23 52.66 52.96 53.16 53.69 54.15 54.22 53.89 53.63 54.09 53.43 52.88 52.46 50.55
38.39 41.78 41.46 40.27 38.90 35.66 38.13 33.30 34.11 35.55 36.47 37.65 39.25 39.05 39.63 40.46 42.56 44.21 44.93 45.54 45.91 46.52 46.61 46.51 46.71 47.22 48.18 48.27 47.82 46.94 46.20 45.92 48.32 48.54 50.06 50.62 52.44 51.98 52.18 52.70 53.57 53.61 53.46 53.04 53.08 52.77 52.04 49.92 50.85
40.64 41.17 39.65 39.97 38.02 36.25 35.22 34.52 37.17 34.64 33.37 35.84 38.07 38.98 39.76 40.70 40.69 40.96 42.14 44.69 45.87 45.70 45.73 45.84 46.18 46.86 47.77 47.44 46.88 46.11 45.86 46.77 47.21 47.57 48.60 50.87 52.13 51.95 51.41 51.48 52.13 52.85 52.71 52.57 52.56 52.54 51.82 51.50 50.76
41.33 38.63 36.96 36.50 35.32 31.34 33.51 34.79 36.73 32.15 34.46 35.71 38.22 38.97 39.85 40.57 41.24 41.86 42.61 42.91 44.93 45.85 46.04 46.49 46.21 46.46 47.45 47.23 47.00 46.28 45.68 45.81 45.58 46.67 46.85 48.92 49.92 49.76 49.78 50.65 50.82 51.47 52.23 51.76 52.14 52.31 52.21 50.27 50.90
39.12 34.25 31.99 31.34 30.90 31.88 34.58 33.18 37.84 36.09 35.58 37.86 37.84 38.93 40.10 40.40 40.79 41.23 41.75 42.28 44.21 44.74 45.41 45.88 46.50 45.73 46.62 46.33 46.21 46.49 46.35 46.16 45.46 45.64 46.03 46.90 47.72 47.63 48.14 49.23 49.68 49.77 51.50 51.99 51.76 51.46 51.25 51.48 50.86
36.17 34.69 32.01 28.67 28.37 29.33 31.72 31.76 36.80 36.78 37.61 38.73 39.12 39.10 39.05 39.72 40.59 41.15 41.60 42.16 43.13 43.87 44.80 45.51 45.45 44.88 45.62 45.46 45.46 46.13 46.20 46.60 46.33 46.35 46.44 46.63 47.14 47.27 48.34 48.25 49.44 49.50 50.35 51.49 51.39 51.04 50.94 51.21 51.05
35.12 33.05 35.83 29.67 28.17 27.84 30.47 33.24 36.22 35.09 35.07 35.97 37.53 37.85 38.47 39.17 40.34 40.62 41.41 42.65 43.35 44.11 44.58 44.60 44.10 44.34 44.70 45.04 45.22 45.23 45.64 45.37 45.56 45.89 46.23 46.44 46.94 46.71 47.49 48.19 48.34 48.80 49.28 51.25 51.28 50.49 50.15 50.82 50.96
36.47 36.69 31.09 30.42 27.33 25.14 28.40 27.98 32.47 31.71 33.52 35.17 36.05 37.14 38.00 38.97 39.51 40.79 41.91 42.69 43.64 43.80 43.98 44.23 44.04 43.48 44.15 44.73 44.81 44.92 45.09 45.07 45.20 45.53 44.86 45.33 46.02 46.23 46.78 47.10 47.35 47.68 48.38 49.84 50.42 50.43 50.41 50.11 50.38
33.35 32.15 30.35 31.14 29.70 27.44 25.01 30.03 34.46 34.72 35.83 35.44 36.31 37.55 37.96 38.64 38.96 40.35 41.96 42.75 42.80 43.08 43.25 43.49 43.67 43.60 44.04 44.62 44.91 44.66 45.25 44.71 45.23 44.50 45.04 45.43 45.39 45.37 45.62 46.04 46.26 46.54 47.41 48.64 49.28 49.18 49.31 49.16 49.39
33.90 32.09 32.10 30.50 26.79 25.01 24.51 27.23 35.60 35.29 35.75 36.18 36.93 37.20 38.18 38.35 39.40 40.71 41.38 41.55 41.82 42.14 42.47 42.60 42.67 42.37 43.42 44.18 43.89 44.38 45.07 44.52 44.33 44.22 44.59 45.13 43.82 44.78 45.00 45.23 45.18 45.78 47.03 47.18 47.24 47.46 48.36 48.72 48.24

GFSSGP_sfc_wetblb_042.txt.gz
Wetbulb
73.91 71.24 74.63 71.89 62.75 61.96 57.03 58.15 62.58 59.98 59.73 63.29 63.16 61.62 60.16 61.30 58.30 55.49 72.25 73.42 72.50 73.24 74.46 75.89 75.88 75.54 75.17 74.99 76.15 74.49 74.58 74.38 73.28 72.29 72.32 73.70 74.20 73.93 73.83 74.13 74.93 74.98 75.12 75.64 74.61 74.53 74.20 74.50 74.38
70.56 70.49 71.80 68.31 59.96 55.79 55.77 59.84 59.40 61.41 62.75 63.73 62.99 62.39 60.95 60.34 65.61 67.26 69.41 72.99 73.17 73.39 74.31 75.31 75.57 76.16 75.52 75.10 74.68 74.37 73.03 73.19 74.07 72.76 71.69 72.72 72.94 72.75 72.81 73.62 73.30 74.58 74.56 74.91 74.65 74.30 74.81 75.23 74.66
69.20 69.17 66.67 61.86 58.33 54.07 54.97 59.05 60.77 62.35 62.97 62.46 60.59 63.63 62.41 62.64 67.80 67.76 72.20 73.37 73.52 73.76 74.53 75.38 75.94 74.72 75.43 74.91 74.76 73.60 73.69 73.85 73.89 73.01 72.75 71.45 71.57 71.17 72.49 73.13 72.07 73.18 74.04 73.91 73.94 74.60 74.51 74.58 74.21
69.31 69.01 65.22 57.58 53.63 56.76 56.86 57.49 57.80 60.29 59.70 62.57 62.39 59.32 64.83 67.29 68.96 70.84 72.95 73.28 73.37 74.05 74.91 75.60 75.88 75.32 75.07 74.58 73.69 73.14 73.67 73.38 72.98 72.14 70.56 70.65 71.35 70.97 71.54 71.47 71.25 71.90 72.34 71.98 72.82 73.32 74.39 74.41 74.04
68.53 64.58 57.08 54.39 53.56 55.45 55.65 56.21 55.30 53.90 54.14 56.02 60.29 58.46 61.71 61.95 68.56 72.94 72.87 72.85 72.27 73.38 74.04 75.20 75.48 75.31 75.21 74.90 73.86 73.28 73.88 73.37 72.55 70.74 69.78 70.11 70.35 69.41 69.45 69.43 69.70 70.00 70.06 70.51 71.58 72.35 73.10 74.00 74.12
63.91 61.79 54.20 51.11 51.38 54.29 54.46 55.22 54.19 52.97 53.65 53.89 55.01 57.70 59.95 62.84 66.47 72.39 73.18 72.82 73.03 73.05 73.57 73.94 75.73 75.46 75.62 74.53 74.06 73.39 73.51 73.07 71.54 70.48 69.72 69.67 69.96 69.40 68.16 68.21 69.00 69.31 68.58 68.58 69.68 70.92 73.31 73.08 73.39
60.24 59.18 53.71 52.71 51.35 52.07 51.99 54.70 53.45 53.14 52.65 52.48 55.37 54.27 59.99 58.42 66.43 72.82 73.06 73.31 73.31 73.20 73.48 74.09 74.83 75.86 75.74 75.40 74.54 73.55 73.24 72.99 71.41 70.71 69.85 68.97 68.83 68.81 68.02 67.40 67.16 67.67 67.76 67.34 68.43 69.03 72.02 72.52 73.06
62.81 60.08 53.50 53.22 50.38 49.62 52.80 53.29 54.75 53.87 52.04 55.20 55.50 52.10 54.83 57.09 66.20 72.36 72.50 72.53 72.95 73.39 74.11 74.66 75.47 75.65 74.77 74.37 75.62 74.20 73.56 73.40 72.24 71.25 70.55 69.68 68.44 68.14 67.74 67.10 66.74 66.42 66.50 66.36 66.76 67.66 69.60 69.35 69.85
58.04 56.07 52.36 49.66 49.16 50.95 53.59 51.94 55.03 55.08 53.21 52.71 53.21 53.13 55.06 59.82 65.38 68.89 70.49 70.76 71.26 72.47 74.13 74.27 74.08 74.87 75.77 75.58 75.77 74.82 74.50 73.71 72.43 72.06 71.26 70.61 70.17 69.26 68.36 68.22 66.36 66.28 66.21 66.04 65.70 66.45 67.08 65.54 67.18
56.70 54.75 49.40 51.72 53.12 52.19 52.77 52.39 52.83 52.72 52.44 51.64 52.41 54.48 56.62 59.61 61.51 61.61 62.16 62.76 63.17 63.79 66.17 69.86 74.23 74.38 75.09 75.23 75.28 75.30 74.94 74.42 73.78 72.97 72.13 71.62 70.57 69.13 67.62 67.04 66.56 66.17 65.99 65.63 65.31 64.87 63.84 64.47 69.61
55.07 52.47 52.35 53.07 54.22 53.44 51.99 50.91 51.56 52.02 50.39 49.34 48.96 51.12 54.49 56.69 57.83 58.06 58.30 58.70 59.16 60.57 61.58 62.34 64.86 69.00 70.13 74.27 74.36 74.85 74.68 74.70 74.19 73.23 72.77 71.86 70.86 69.79 68.58 67.34 66.98 66.74 65.73 65.86 64.74 64.41 63.38 62.32 64.41
52.18 53.11 52.95 53.31 52.05 51.70 51.02 51.58 48.80 50.07 48.53 49.83 50.34 51.68 53.23 53.68 53.62 54.40 54.73 55.82 57.45 58.68 59.80 61.21 63.74 66.83 68.13 72.02 73.16 73.01 73.91 74.15 73.86 73.52 72.67 72.18 71.16 69.93 68.67 67.12 65.66 65.29 64.91 63.52 63.21 62.52 61.98 61.15 60.87
51.33 51.54 52.21 51.71 51.75 51.67 51.71 49.31 48.12 47.19 48.61 50.21 50.72 51.39 51.73 52.48 53.15 53.81 54.25 54.79 55.73 56.08 57.95 59.39 61.36 64.08 68.83 70.48 72.22 72.11 71.62 71.84 73.55 73.07 72.90 72.16 70.82 70.66 69.97 68.15 66.69 65.16 64.45 62.92 60.93 60.39 59.78 59.10 58.41
51.71 50.83 50.18 51.50 51.48 51.08 49.58 48.00 48.98 47.06 48.85 49.01 49.55 50.02 50.87 51.01 51.35 51.83 51.82 52.44 53.46 54.49 55.10 56.62 58.30 60.72 63.18 65.62 69.50 69.09 69.65 69.44 69.60 69.70 70.86 71.80 71.96 71.20 69.95 69.35 67.80 65.99 64.63 63.46 60.89 59.09 58.39 57.60 57.18
50.99 48.16 49.77 50.23 50.62 48.94 50.96 46.93 45.48 47.32 48.22 47.81 48.20 49.05 49.02 49.13 49.85 49.47 50.22 50.49 52.14 52.90 53.29 53.45 54.29 55.91 58.34 60.12 61.42 62.53 64.02 65.34 64.99 66.30 66.47 66.23 65.98 67.54 68.16 68.20 68.29 67.71 65.84 63.46 61.54 59.34 58.17 57.56 56.90
48.33 48.49 46.30 48.29 50.05 49.22 49.66 45.52 45.86 47.42 47.40 46.69 47.20 47.85 48.02 47.69 48.27 49.42 50.03 50.37 51.61 52.17 52.12 52.92 52.77 52.95 53.41 54.56 56.45 57.85 58.96 60.11 60.77 61.40 62.40 63.23 64.23 64.81 64.78 65.36 65.98 67.21 64.80 63.51 61.86 59.84 58.11 57.34 56.78
47.58 44.22 44.74 45.66 48.82 48.72 48.29 46.01 46.46 47.23 46.71 46.10 46.94 47.11 47.19 47.29 48.03 49.21 49.62 50.10 50.54 51.71 52.10 52.43 52.93 52.44 52.93 53.54 53.87 54.49 55.00 55.42 56.29 57.28 58.12 58.78 59.66 60.02 62.14 64.45 64.88 65.12 64.59 65.05 62.41 61.15 58.99 57.54 57.05
43.03 43.74 44.47 45.00 47.34 47.62 46.08 44.72 45.27 45.98 46.25 46.32 46.33 46.57 46.70 46.70 46.96 48.85 49.21 49.97 50.21 50.77 51.63 52.30 52.55 52.56 52.82 53.47 53.43 53.58 53.53 53.93 54.53 54.68 54.87 55.74 56.45 56.79 57.74 59.27 60.89 62.81 62.70 61.98 63.87 62.35 60.84 58.38 57.74
46.03 45.03 44.29 45.86 46.67 45.65 44.50 44.60 44.82 45.07 45.24 45.39 45.94 45.90 45.97 46.14 47.88 49.12 49.74 49.88 49.95 50.37 50.54 51.14 51.35 52.02 52.30 52.10 51.62 51.58 51.27 52.13 52.45 53.45 53.85 54.06 55.31 55.72 55.99 56.17 57.09 58.67 59.56 60.91 61.11 61.90 60.37 58.87 58.13
45.92 44.62 44.64 45.05 45.88 45.74 45.49 44.68 45.31 44.79 44.87 45.73 45.75 45.81 45.82 46.24 46.86 48.22 49.06 50.03 49.05 49.63 50.27 50.35 50.90 51.41 51.94 52.43 52.15 51.95 51.30 52.02 52.61 53.66 53.50 53.83 54.10 54.82 54.89 55.03 55.13 55.85 56.28 57.59 58.62 57.60 58.65 59.04 58.57
45.49 44.12 43.60 43.20 44.98 44.30 43.41 43.81 42.75 44.07 44.87 45.10 45.68 46.41 46.22 46.50 46.47 47.51 48.55 49.20 49.95 49.95 50.54 50.31 50.54 50.90 51.35 52.07 52.17 51.94 51.85 51.76 51.05 51.50 51.84 52.61 53.28 53.90 54.56 54.49 54.26 54.53 55.07 54.92 56.06 57.50 55.68 53.11 56.26
43.08 45.05 44.36 43.29 42.95 41.04 43.28 38.84 42.19 43.43 42.13 43.40 44.57 45.17 45.71 45.99 46.62 47.18 47.77 48.94 50.15 50.38 51.03 50.76 50.59 50.70 51.07 51.80 50.90 50.31 49.32 48.53 50.12 50.80 51.59 52.02 52.64 53.01 54.13 53.73 53.50 53.43 53.85 53.86 54.31 55.20 55.80 54.98 52.35
44.32 44.75 43.48 43.11 42.39 41.22 40.97 39.15 43.73 42.97 40.23 42.17 43.80 44.42 45.10 45.71 45.82 46.01 46.74 47.92 48.66 50.64 50.68 51.13 51.08 50.67 51.06 50.55 50.66 50.12 49.58 49.89 50.60 50.92 50.66 51.08 51.88 52.34 52.48 52.05 51.53 51.54 51.93 52.45 53.50 53.59 53.70 54.73 53.32
44.56 42.89 42.28 42.90 41.93 37.63 40.72 40.12 43.81 40.69 42.00 43.11 43.86 43.90 44.68 45.14 45.74 46.54 47.42 48.15 48.70 50.53 51.23 51.30 50.55 49.67 50.22 50.03 49.49 49.37 48.39 48.70 49.12 49.62 49.88 49.78 50.54 51.15 51.90 51.74 51.47 51.31 51.35 51.53 52.21 53.45 53.51 53.28 53.75
43.85 41.55 38.75 37.35 37.43 38.33 40.55 39.16 43.31 44.48 42.93 44.41 42.94 43.46 44.81 45.33 45.25 45.52 46.19 47.14 47.94 49.19 49.54 49.25 48.77 47.84 48.25 48.27 48.32 48.43 48.66 48.45 48.16 48.61 48.82 49.16 49.14 49.72 50.45 51.24 50.64 50.33 50.46 51.44 51.94 52.55 53.13 52.77 52.44
41.21 40.56 38.25 33.38 35.94 37.74 38.26 36.76 42.94 41.95 43.59 44.59 44.61 44.75 44.73 44.67 45.25 45.48 46.25 46.97 47.53 47.84 47.99 48.01 47.32 46.75 47.44 47.61 47.53 47.82 47.97 48.00 48.28 48.70 49.06 48.60 48.65 49.26 50.44 50.65 50.37 50.07 49.87 49.90 50.91 51.49 53.02 53.16 52.11
40.33 39.33 41.26 36.81 35.92 34.71 39.67 40.04 42.62 40.71 41.26 42.20 42.67 43.49 43.78 43.85 44.76 45.49 46.32 46.97 47.22 47.24 47.04 46.98 46.66 46.62 46.93 46.94 46.94 46.67 46.93 46.96 47.62 47.78 48.22 48.83 48.57 48.72 49.04 49.15 49.21 49.41 49.68 49.48 49.77 50.00 51.86 52.41 51.75
40.82 41.88 37.33 38.72 32.99 32.28 37.09 36.68 39.44 38.65 39.71 41.01 41.72 42.70 43.91 43.74 44.30 45.34 45.98 46.74 47.00 47.13 47.06 46.93 46.42 45.79 46.13 46.23 46.01 45.82 46.26 46.70 47.00 47.16 46.88 47.52 47.96 48.26 48.33 48.02 48.20 48.62 48.96 48.89 48.94 49.56 51.94 51.40 51.39
38.70 38.71 38.05 38.02 37.15 34.54 33.79 38.23 42.60 41.71 42.52 42.35 43.10 44.06 44.37 43.96 44.06 44.73 45.64 46.22 46.50 46.66 46.38 45.76 45.34 45.12 44.71 45.08 45.49 45.46 45.69 46.12 46.72 46.48 46.87 47.29 47.24 46.80 46.92 47.21 47.61 47.84 47.69 48.26 48.10 48.37 49.53 49.41 49.94
38.59 37.88 39.22 36.24 35.20 35.75 33.86 35.70 41.91 41.87 42.17 42.61 43.84 44.50 44.79 44.22 44.40 44.89 45.20 45.44 45.43 45.30 44.88 44.25 44.12 43.83 44.62 45.04 44.71 44.65 45.09 45.36 45.25 45.45 45.96 46.54 46.25 46.84 47.09 46.62 46.56 46.95 47.24 47.67 47.27 47.62 47.94 48.04 48.12

GFSSGP_sfc_wetblb_045.txt.gz
Wetbulb
74.65 72.93 74.17 72.95 64.28 63.03 56.49 57.25 61.40 59.36 59.27 62.21 62.95 61.27 60.64 61.76 58.38 56.66 72.15 72.17 72.26 72.25 74.47 75.46 75.64 75.07 74.88 75.62 75.63 74.45 75.04 74.04 73.03 72.57 73.03 73.35 73.89 73.48 74.62 74.35 74.63 74.80 75.22 75.29 74.49 74.58 74.99 74.07 75.23
70.84 71.72 72.57 68.98 59.96 52.90 55.39 60.14 58.90 60.84 61.77 62.57 61.73 62.26 62.15 61.66 65.48 67.96 69.49 72.08 72.52 72.17 73.91 75.43 75.53 76.01 75.06 75.81 75.20 74.38 72.29 73.01 73.39 71.80 72.28 72.42 72.83 72.36 73.36 72.91 74.67 74.84 74.46 74.76 74.91 74.82 75.05 74.88 75.09
70.22 70.92 67.29 61.44 58.22 54.01 55.15 59.68 60.01 61.51 61.44 60.63 60.40 62.56 63.96 63.33 67.79 68.35 71.56 72.04 72.31 72.15 73.57 75.67 76.00 75.90 75.61 75.15 74.51 72.60 72.43 73.51 73.82 71.88 72.33 71.00 71.34 71.19 72.63 72.66 73.03 73.20 73.50 73.60 73.76 74.53 74.55 74.48 74.44
68.93 70.15 66.00 58.13 55.18 57.27 57.35 58.05 58.97 60.65 59.22 60.44 60.99 60.62 64.07 66.17 69.32 70.62 71.79 72.01 71.97 72.41 73.52 75.35 75.56 75.42 74.07 73.38 72.81 72.48 73.61 73.35 73.10 72.21 70.32 70.57 71.24 70.65 71.63 71.11 71.35 71.17 72.11 71.91 72.80 73.33 74.15 74.34 74.02
68.92 64.86 57.64 55.82 54.82 55.86 57.61 58.07 56.60 55.36 56.01 55.87 58.60 59.45 59.34 64.97 71.27 71.98 71.86 71.69 71.35 72.29 73.37 74.05 74.69 74.14 73.88 73.61 73.08 72.67 72.96 73.20 72.37 70.66 69.45 69.82 70.19 69.23 70.15 70.30 70.08 70.38 70.18 70.58 71.32 72.41 73.07 73.59 73.81
64.30 62.64 54.30 51.96 53.08 54.57 55.24 56.42 55.57 54.65 54.49 54.43 54.39 58.11 58.43 64.22 71.10 72.50 72.36 71.96 72.01 72.06 72.49 74.31 74.92 74.71 74.66 74.01 73.37 72.97 73.04 73.13 71.80 70.24 69.49 69.41 69.70 69.22 68.24 68.49 69.61 69.88 69.51 69.29 70.01 70.98 73.52 73.12 73.07
62.03 59.93 54.23 52.56 52.47 52.85 52.85 55.47 53.79 53.37 53.62 53.50 56.25 54.95 59.76 59.38 68.16 73.28 72.60 72.88 72.74 72.76 72.77 73.09 74.52 75.66 75.78 75.20 74.44 73.43 73.42 73.51 71.86 70.79 70.16 69.40 69.10 68.90 68.22 67.56 67.27 67.75 68.28 68.30 68.55 69.34 71.60 72.40 73.19
62.91 60.50 54.91 54.32 51.66 50.88 53.46 53.99 54.90 53.99 53.10 56.67 56.91 53.53 55.94 59.00 66.77 72.79 72.67 72.29 72.68 73.14 73.31 73.02 73.02 73.82 75.63 75.24 75.84 74.68 73.78 73.94 72.76 71.93 71.28 70.37 69.42 68.96 68.59 68.04 67.32 66.48 66.92 66.91 66.88 68.25 69.40 69.62 70.30
60.68 57.44 54.51 51.80 51.16 52.07 54.08 52.52 55.52 55.99 54.63 54.72 55.38 55.77 58.18 62.37 66.28 70.14 70.78 70.98 71.28 71.84 72.98 73.27 72.55 72.73 74.60 74.75 75.35 75.20 74.38 74.44 73.52 72.53 72.06 71.07 70.41 70.18 69.51 69.48 67.56 66.35 66.56 66.54 66.51 66.41 67.61 66.71 68.62
58.28 56.32 52.13 53.49 54.11 53.32 53.75 53.23 53.59 53.64 53.60 53.46 54.09 56.69 59.82 62.27 63.49 63.71 64.45 64.77 64.65 64.74 65.92 66.76 68.16 70.66 73.51 73.70 74.28 73.62 74.26 74.22 74.19 73.27 72.88 72.37 70.87 70.49 68.52 67.91 67.43 67.04 66.99 66.51 66.29 65.88 65.90 66.20 67.64
56.63 54.14 54.44 54.11 55.16 54.19 52.62 52.50 53.70 53.54 51.60 51.20 51.20 53.74 56.88 58.54 59.79 59.97 60.40 61.28 61.74 62.46 63.11 63.63 65.65 67.68 68.96 73.29 74.14 75.78 74.44 74.78 73.14 72.94 72.75 72.33 71.65 70.62 69.69 68.33 67.88 67.65 66.95 66.15 66.20 65.42 64.03 62.85 63.63
54.61 54.52 54.36 54.28 53.22 52.86 52.40 53.82 50.95 53.14 51.23 52.33 52.89 54.19 55.07 55.45 55.70 56.10 56.42 57.41 58.25 59.25 60.18 61.40 63.28 65.53 69.36 70.18 73.63 73.12 72.38 72.79 73.24 72.81 72.24 71.70 71.81 71.36 70.27 68.85 67.95 66.55 65.54 64.37 63.86 62.84 63.08 62.45 61.33
53.09 53.12 52.73 53.22 53.52 53.66 53.49 51.81 50.71 49.51 51.32 52.78 53.05 53.60 53.54 53.99 54.37 54.76 55.43 55.78 56.16 55.93 57.09 58.22 60.27 62.37 65.25 68.24 70.84 70.98 70.08 70.36 70.59 70.64 70.84 70.50 71.51 70.98 70.65 70.64 69.21 67.66 66.17 64.50 63.11 61.89 60.85 60.58 59.65
53.42 51.97 51.67 53.06 52.58 53.05 51.36 50.44 51.29 49.75 51.73 51.53 51.94 51.98 52.29 51.98 52.29 52.69 52.96 53.59 53.84 53.96 54.07 54.62 54.88 57.02 60.04 61.22 63.09 64.79 66.70 68.64 68.51 68.05 67.96 67.69 67.54 68.48 69.34 69.98 70.22 69.69 68.04 65.86 64.17 61.85 60.11 59.24 58.58
51.92 49.68 50.81 51.46 52.32 50.99 52.88 48.96 49.53 50.79 51.38 50.49 50.88 51.00 50.76 50.76 51.30 50.78 51.41 51.95 52.86 53.01 53.32 52.81 53.41 54.23 54.34 55.08 56.68 58.21 59.33 61.01 61.94 62.91 64.37 64.25 65.91 65.91 66.04 66.75 67.59 68.28 68.63 67.89 65.46 62.96 61.04 59.50 58.79
49.62 49.53 47.36 51.10 51.82 51.14 50.43 46.42 49.72 50.54 50.40 49.97 50.15 50.26 49.83 49.49 49.91 50.64 51.00 51.38 52.75 52.99 52.79 53.54 53.80 53.81 53.95 54.30 54.92 55.03 55.52 55.90 56.56 57.27 58.84 59.21 60.09 60.56 62.28 65.39 65.73 66.75 66.40 66.39 65.36 63.07 61.44 60.08 59.11
49.44 44.50 47.41 48.01 50.97 50.86 49.78 47.93 50.35 50.52 50.01 49.54 49.88 49.83 49.35 48.97 49.55 50.28 50.59 50.99 51.53 52.41 52.70 53.10 53.73 53.20 53.67 54.21 54.29 54.34 54.54 54.63 54.64 55.17 55.36 55.25 56.33 56.96 57.17 58.83 61.13 64.70 65.42 64.09 63.77 64.52 63.18 60.32 59.87
45.56 45.77 46.55 46.43 49.69 49.50 48.98 48.72 49.89 49.52 49.12 49.34 49.52 49.50 49.33 48.82 48.83 50.03 50.24 51.03 51.24 51.70 52.13 52.79 52.99 52.91 53.23 53.69 53.62 53.73 53.62 53.65 53.98 53.67 54.02 53.99 54.59 55.49 56.05 56.55 57.22 58.34 59.75 62.72 63.04 61.72 62.22 62.80 60.05
47.51 46.49 46.00 48.56 49.59 47.05 47.27 47.99 48.82 48.83 48.58 48.79 48.81 48.81 48.80 48.85 49.88 50.32 50.67 51.18 51.19 50.92 51.45 51.81 51.72 52.08 52.35 52.38 51.68 51.37 51.21 51.86 52.69 53.53 53.88 53.66 53.98 54.06 54.95 55.51 55.40 56.61 56.54 57.13 59.07 60.51 60.72 58.94 62.60
47.94 46.88 47.00 48.50 48.22 47.10 48.12 48.04 50.06 49.15 47.80 48.86 48.66 48.53 48.55 48.77 48.80 49.86 50.27 50.65 50.41 51.07 51.39 51.42 51.37 51.62 51.72 52.10 51.96 51.75 51.28 51.62 52.59 54.46 53.49 53.56 53.21 53.15 52.95 53.77 54.79 54.89 55.47 55.66 56.24 57.39 57.00 57.92 58.43
47.90 46.47 46.09 45.25 47.77 49.12 47.02 46.12 47.82 49.03 48.21 48.58 49.10 49.60 49.19 48.69 48.57 49.41 50.15 50.71 51.23 51.18 51.57 51.40 51.38 51.33 51.87 51.92 51.96 51.64 52.04 52.46 52.35 52.62 53.00 53.61 52.75 52.92 53.00 52.95 53.44 53.60 54.52 54.21 55.48 55.84 56.41 55.31 58.07
44.95 47.60 46.04 45.44 44.99 42.38 46.48 39.51 46.81 47.00 45.47 46.36 47.16 47.89 48.33 48.64 49.21 49.34 49.43 49.65 50.34 51.29 52.30 51.75 51.60 51.36 51.71 51.76 51.04 50.01 49.61 48.92 50.64 51.43 52.73 52.46 52.40 52.17 52.25 52.20 53.12 53.06 53.02 52.37 53.17 53.50 54.49 55.18 53.52
46.06 47.23 46.16 46.16 44.53 43.66 44.24 40.78 45.91 47.22 43.77 45.01 46.41 47.57 48.17 48.76 48.55 48.16 48.35 49.01 49.71 50.63 51.40 51.83 51.84 51.48 51.06 50.42 50.70 50.73 48.92 50.13 51.02 50.84 50.37 51.34 52.23 52.66 52.72 52.00 52.29 52.66 52.15 51.82 51.96 51.97 51.84 53.32 52.48
47.63 45.79 45.76 45.18 43.63 38.33 43.94 42.45 44.82 44.35 45.43 46.61 47.50 47.65 47.93 47.66 47.99 48.31 49.20 49.64 49.89 50.88 51.61 51.86 50.67 49.79 50.25 50.19 49.22 50.16 49.81 48.27 48.35 48.88 48.85 50.21 51.44 52.32 51.60 52.02 52.21 52.86 52.59 51.90 51.80 52.23 52.15 52.05 52.44
46.17 44.34 39.65 39.02 38.63 39.89 43.52 41.10 44.12 47.79 46.52 47.39 47.38 47.30 47.26 47.60 47.48 47.80 48.17 48.49 49.04 49.69 50.13 49.97 49.52 48.74 49.01 48.72 48.43 48.40 49.77 48.80 47.81 47.86 48.67 48.45 49.51 50.18 51.04 51.51 51.46 51.39 52.62 52.72 52.02 51.26 51.61 51.46 51.58
44.28 43.70 39.60 34.60 37.10 39.56 41.94 38.79 43.82 45.60 46.83 47.13 48.18 47.51 47.24 47.16 47.75 47.78 48.28 48.50 48.85 49.15 49.40 49.24 48.54 47.90 48.20 47.74 47.58 47.87 48.45 48.74 48.40 48.41 47.92 48.16 48.76 49.71 50.86 50.51 50.72 50.53 50.90 51.27 51.36 50.62 50.90 51.69 51.48
43.36 40.22 44.17 39.59 41.34 37.58 41.37 43.44 44.39 44.02 44.10 45.34 45.76 46.32 46.40 46.91 47.52 47.56 48.25 48.38 48.78 48.95 48.67 48.38 47.99 47.61 47.26 46.88 46.95 46.63 46.79 47.24 47.52 47.87 48.53 48.63 48.87 49.17 49.07 49.75 49.71 50.07 50.05 49.98 50.13 49.70 49.64 49.93 50.34
42.73 44.30 39.71 40.53 34.61 34.81 39.96 40.90 41.09 41.75 42.53 43.93 44.36 45.12 46.15 47.26 47.02 47.35 47.67 47.94 48.57 48.55 48.39 48.25 47.81 46.52 46.31 46.20 46.10 46.23 46.35 46.63 47.44 47.92 47.57 48.06 48.66 49.06 49.08 49.44 48.98 49.03 49.13 48.81 49.10 49.06 49.69 48.60 49.10
40.86 40.59 40.16 40.30 39.91 35.66 34.94 39.54 44.39 43.73 44.60 44.45 44.95 46.04 46.56 47.09 47.06 47.08 47.30 48.03 48.19 48.06 47.77 47.29 46.25 45.27 44.99 45.54 45.86 45.75 45.76 45.85 46.04 46.13 46.50 46.97 47.61 48.00 47.84 47.94 47.65 47.60 48.00 47.90 47.99 48.37 48.60 48.02 48.10
41.62 41.16 41.63 37.93 37.88 39.43 37.48 37.69 46.24 44.65 44.34 44.50 44.97 46.08 47.01 47.53 47.52 47.02 47.25 47.43 46.99 46.90 46.99 45.55 44.89 44.57 45.00 45.34 45.17 44.97 45.16 45.13 44.67 44.54 44.75 45.12 45.36 46.40 46.22 46.74 46.99 47.34 47.30 47.25 47.11 47.14 47.50 47.17 47.07

GFSSGP_sfc_wetblb_048.txt.gz
Wetbulb
72.97 71.59 73.64 72.67 63.69 58.11 54.08 55.99 59.31 57.39 57.55 60.02 61.75 61.39 59.89 59.05 57.23 54.35 69.61 69.35 70.82 71.67 73.72 74.85 76.46 76.11 74.95 75.70 75.45 74.39 74.81 73.93 73.26 72.56 73.13 72.76 73.74 73.39 74.19 74.78 75.07 74.94 75.45 75.15 75.13 75.52 75.40 75.19 75.37
70.40 70.19 72.44 68.53 54.83 50.45 52.78 58.19 57.55 58.37 60.93 60.67 60.13 63.00 61.91 60.10 65.88 66.54 66.64 70.21 70.52 72.50 72.47 73.83 76.25 76.16 75.94 76.06 75.81 74.76 74.10 74.60 74.18 72.97 73.11 71.74 72.31 72.36 73.70 73.53 74.34 74.56 74.45 74.68 74.97 75.07 75.16 75.06 75.23
70.24 69.84 66.65 63.54 53.90 51.15 52.55 57.07 59.15 58.89 58.80 58.69 59.04 62.50 60.73 60.82 66.42 65.96 68.48 70.06 70.00 70.64 73.90 74.41 76.36 75.47 75.84 75.55 75.03 74.26 73.10 74.07 73.98 73.29 72.13 70.89 71.65 71.70 73.05 72.64 72.86 73.10 73.17 73.59 73.93 74.37 74.68 74.57 74.92
67.68 69.57 66.70 56.97 52.78 55.29 54.95 55.44 56.60 57.40 56.38 56.58 60.56 57.25 60.94 66.41 67.95 67.73 69.63 70.17 69.53 70.84 73.74 75.68 76.07 75.42 75.30 74.87 73.88 73.28 72.96 73.49 73.23 72.25 70.37 70.61 71.32 70.48 71.89 71.82 71.57 71.13 71.79 71.82 72.64 73.26 73.78 74.33 74.32
68.04 65.50 57.22 54.20 53.24 54.48 56.27 56.92 56.23 54.46 55.44 53.35 56.64 55.98 57.55 65.17 70.71 69.80 69.05 69.79 69.17 71.36 72.63 73.76 75.68 75.11 74.25 73.80 73.40 72.76 72.20 73.42 72.44 70.76 69.75 69.84 69.98 69.73 69.65 70.39 70.65 70.75 70.35 70.77 71.07 72.32 74.08 73.11 73.41
63.92 62.71 54.11 50.86 51.77 53.17 53.79 54.65 54.48 52.82 52.74 52.65 53.31 55.33 55.14 62.95 69.44 69.78 70.05 68.91 70.05 69.31 72.45 72.67 75.56 75.72 75.21 74.51 73.67 73.66 73.28 73.42 72.07 70.40 69.61 69.19 69.56 69.25 68.51 67.88 68.70 69.18 69.62 69.33 69.38 70.81 72.48 73.18 72.83
63.38 59.31 54.74 52.50 51.99 52.01 52.75 54.05 51.60 52.68 51.63 51.53 53.55 53.81 54.54 57.57 64.29 71.25 68.81 69.90 69.97 70.17 70.08 72.17 72.47 74.49 76.45 75.95 75.23 74.39 73.46 73.67 72.33 70.80 70.32 69.51 68.99 68.98 68.57 67.60 66.84 66.83 67.14 67.47 67.51 69.07 70.88 71.95 73.08
62.62 59.97 56.84 53.28 51.39 51.34 54.70 54.95 54.88 52.27 50.77 55.52 55.41 50.08 50.55 57.12 63.19 70.19 69.00 69.10 69.71 69.88 69.67 69.73 73.17 73.45 73.23 73.58 75.91 75.53 74.47 73.75 73.06 72.37 71.76 71.11 70.17 69.71 69.34 68.72 67.82 66.56 66.46 66.74 66.50 67.55 68.92 69.35 70.37
66.38 56.36 51.46 52.24 53.52 52.13 55.51 53.24 54.52 55.40 52.66 53.15 54.08 54.38 56.88 60.79 64.38 66.81 67.30 66.92 66.57 65.76 65.06 64.82 65.45 68.04 71.40 72.33 74.41 74.32 74.97 74.69 74.67 73.51 73.28 71.98 68.09 67.83 68.36 69.19 69.27 67.28 66.47 66.80 66.72 66.35 67.70 67.99 68.61
59.01 55.64 53.31 54.82 54.34 53.45 54.38 53.34 53.13 53.30 52.32 51.56 52.00 55.35 58.26 60.06 60.33 60.10 60.06 59.97 60.18 60.05 61.05 61.71 62.61 64.26 65.92 72.65 72.53 72.03 73.28 71.86 71.61 71.55 71.09 69.90 68.88 66.96 67.34 68.57 68.61 67.52 66.93 67.31 67.02 66.78 66.31 66.72 64.04
58.28 53.70 54.81 55.27 55.67 54.47 54.21 52.50 53.93 53.08 49.38 49.84 49.44 52.03 54.81 55.93 56.06 56.29 56.74 57.12 56.61 57.10 57.83 59.32 60.44 63.14 66.63 67.83 72.31 72.13 71.53 71.40 71.52 71.79 70.67 70.38 70.78 68.07 65.51 65.06 64.92 64.06 66.78 63.46 64.98 63.79 61.72 58.82 59.95
54.18 54.83 56.26 57.16 55.25 54.06 53.24 53.82 50.34 50.77 49.74 51.99 52.06 52.13 52.83 52.17 52.08 52.44 52.38 53.17 53.27 54.00 54.50 55.96 58.09 60.83 64.33 68.31 69.67 69.55 69.50 70.22 69.96 69.76 69.83 69.00 68.82 68.88 69.33 68.40 64.55 63.86 62.86 62.53 60.20 60.19 60.12 59.43 57.85
54.65 53.30 53.41 54.10 54.93 53.67 54.50 51.84 49.79 48.59 50.77 51.79 52.80 53.13 50.95 50.79 50.33 50.76 51.66 51.90 50.90 50.34 50.63 50.99 51.93 54.69 57.08 59.33 62.57 65.70 67.92 68.22 68.83 68.37 68.14 67.80 67.09 67.41 67.97 67.94 68.53 67.81 62.72 60.77 59.40 58.21 56.95 56.07 56.10
54.97 53.48 52.11 52.99 52.45 52.96 50.94 50.23 50.58 49.51 51.08 50.83 51.39 50.16 49.02 49.19 49.22 48.65 49.33 49.05 48.17 48.24 48.56 49.67 50.30 50.01 50.78 51.23 53.77 55.54 55.57 59.60 64.60 64.61 64.84 66.29 66.04 65.77 66.00 66.03 66.76 66.87 66.98 66.66 63.37 59.42 57.12 55.12 54.50
53.05 49.02 50.10 51.15 51.72 51.37 52.70 48.16 47.39 49.71 50.77 49.46 49.25 47.58 48.30 48.20 48.46 46.81 48.06 47.91 47.96 48.09 49.27 49.36 50.31 50.52 49.61 49.99 51.19 51.65 51.83 53.02 52.74 53.87 55.02 54.81 57.43 58.69 62.14 63.65 64.64 65.99 66.10 65.55 65.45 63.93 60.47 56.15 55.51
48.59 47.99 44.71 50.06 51.27 51.23 49.83 43.66 49.63 49.62 48.89 48.06 48.23 46.51 46.96 47.09 47.42 46.26 47.53 47.94 48.34 48.14 48.38 49.79 52.05 50.08 49.59 49.24 49.88 50.19 50.30 50.68 50.64 51.13 51.44 51.62 52.14 52.57 52.17 53.23 58.71 63.85 63.88 63.66 64.07 63.95 62.72 59.88 55.33
47.76 41.85 44.61 47.39 51.61 50.37 47.84 45.52 48.95 49.31 48.79 47.94 46.40 46.29 46.44 45.70 46.20 45.87 46.89 46.32 47.29 47.84 47.97 48.51 49.06 48.85 49.50 49.34 49.30 49.46 49.70 49.45 49.37 49.23 49.51 49.86 51.45 52.05 50.55 51.03 51.47 52.91 59.77 61.21 61.16 61.64 61.67 61.43 60.44
43.26 43.73 45.20 44.99 48.03 48.74 46.89 45.61 48.13 48.35 47.86 47.19 46.57 45.98 45.74 45.51 46.01 46.69 46.73 46.11 46.91 47.32 47.64 47.92 48.36 47.81 48.14 48.58 48.60 48.53 48.49 48.52 48.76 48.70 48.90 49.70 49.52 49.89 49.66 50.22 50.51 50.60 50.90 53.00 58.86 58.55 59.19 60.57 60.36
46.23 44.40 43.84 46.46 49.33 47.71 45.97 45.98 47.68 47.91 46.90 46.08 46.16 45.44 45.47 45.68 46.89 47.48 46.91 45.31 44.79 47.10 46.89 46.68 47.35 46.95 46.91 46.80 45.82 45.57 45.50 46.43 47.07 48.06 49.25 49.27 49.34 49.67 48.10 48.15 49.43 49.80 49.39 49.60 50.76 51.98 55.28 55.62 56.87
46.82 44.72 44.28 48.09 48.77 46.31 44.96 44.76 48.07 47.55 46.23 46.61 46.51 45.31 45.42 45.60 45.31 45.83 47.13 46.05 47.09 47.06 46.99 46.86 46.85 47.25 46.92 46.99 46.38 45.87 45.32 46.11 46.94 48.23 48.77 49.45 49.04 49.00 48.85 46.86 47.40 48.61 48.00 48.13 48.45 48.97 49.66 52.38 54.47
46.39 44.80 44.68 43.63 47.45 47.57 45.24 43.14 45.69 48.12 47.34 47.23 47.24 47.01 46.46 45.62 44.83 45.04 45.20 46.14 47.36 46.74 46.72 47.32 47.25 47.29 47.28 47.42 46.93 46.62 46.11 46.13 45.50 46.29 46.93 47.86 48.76 48.65 48.40 47.50 46.94 46.46 46.99 46.86 47.11 47.33 47.59 47.11 51.40
43.54 47.41 46.63 45.43 43.04 38.05 44.81 34.73 42.35 44.82 43.74 44.74 44.95 44.93 45.18 45.23 45.75 45.48 44.66 43.64 46.63 45.91 47.52 47.49 47.30 47.13 48.25 46.56 45.43 44.03 43.05 42.30 43.65 44.47 45.49 46.53 47.06 47.17 47.96 47.66 46.91 46.34 46.55 45.46 45.30 47.47 45.27 45.65 45.87
45.06 48.29 46.12 45.48 42.03 39.93 40.64 36.24 39.90 44.40 41.33 42.34 43.60 44.63 44.99 45.31 45.55 45.57 45.62 44.51 43.98 45.99 46.09 47.43 47.76 47.71 46.58 45.85 45.23 44.08 43.01 43.54 43.94 44.22 44.22 44.86 45.86 46.42 47.23 47.83 47.43 45.81 45.80 46.10 45.53 44.87 44.35 44.34 43.49
48.12 45.36 45.08 43.95 40.34 32.59 39.13 38.72 38.77 40.61 42.99 43.38 44.33 44.88 45.50 45.59 45.11 44.76 44.49 44.85 45.08 46.57 47.13 47.44 46.72 46.24 46.11 45.62 44.76 43.48 42.38 42.35 42.80 42.72 43.42 43.83 44.17 44.95 46.26 47.05 46.10 45.75 45.73 45.99 45.94 45.54 44.53 44.31 44.38
46.05 41.40 34.78 33.17 32.99 33.91 42.22 38.84 38.52 42.87 43.44 43.60 44.65 44.33 45.01 44.91 44.07 43.96 43.54 44.46 44.70 44.66 46.31 47.08 45.99 45.08 45.08 44.11 43.78 43.13 42.65 42.28 41.54 41.87 42.43 41.94 43.32 43.51 43.83 44.86 44.84 45.42 45.82 46.08 46.44 45.52 44.21 43.63 43.83
44.10 41.20 34.68 29.34 30.87 33.79 41.17 34.60 39.17 43.58 44.37 43.52 45.09 45.16 44.85 44.05 43.84 43.98 44.51 44.64 44.40 45.29 45.79 45.80 44.78 43.96 44.39 43.63 42.74 42.50 42.09 41.64 41.94 41.85 42.91 43.32 43.52 44.24 44.27 45.37 45.09 45.40 45.80 46.11 45.71 45.37 44.71 44.26 44.45
42.21 37.13 41.75 35.78 37.02 32.82 36.84 39.57 40.83 41.70 41.30 41.53 42.08 43.28 42.95 43.45 43.87 43.98 44.47 44.84 44.55 44.80 45.09 44.46 43.84 43.69 43.54 42.47 41.46 40.77 41.20 41.39 42.02 42.43 43.37 43.75 43.96 45.40 45.54 44.94 45.09 45.37 45.67 45.58 45.05 44.61 43.59 44.35 45.05
41.09 42.98 35.70 35.52 29.13 27.55 34.74 35.82 35.04 37.10 38.72 40.36 40.47 40.69 42.57 43.60 43.32 43.60 43.96 44.45 44.50 44.12 44.31 44.15 43.86 42.79 41.70 41.14 40.83 42.10 41.06 41.69 42.46 42.73 42.12 42.53 43.04 43.32 43.26 43.45 43.93 44.53 45.13 44.42 43.67 43.69 44.30 44.09 44.82
38.68 37.09 37.85 36.80 34.78 28.74 27.60 32.63 38.34 40.59 41.20 40.67 41.04 42.55 43.31 43.62 43.97 43.72 43.64 43.60 44.38 44.48 43.56 43.19 42.41 41.10 40.55 40.95 40.85 40.50 41.09 41.95 42.42 42.17 42.08 42.25 42.48 42.52 42.44 42.66 42.74 42.85 43.15 44.05 44.14 43.98 44.26 43.16 44.09
40.48 39.09 38.90 32.64 32.04 34.26 30.60 32.12 41.47 40.93 41.59 42.02 41.51 43.26 43.13 43.55 44.12 44.11 43.46 43.25 43.32 42.56 42.73 41.82 40.89 39.94 40.19 40.54 40.54 40.99 41.80 41.87 41.25 41.59 42.07 42.48 41.93 42.56 42.23 41.98 41.56 41.54 41.83 42.32 42.70 43.30 43.74 42.88 43.30

GFSSGP_sfc_wetblb_051.txt.gz
Wetbulb
72.94 69.27 68.94 68.82 56.04 53.09 48.48 53.18 53.38 53.76 54.62 59.92 62.32 60.15 58.11 58.26 57.18 51.41 66.03 70.79 71.75 72.79 74.41 74.93 76.84 75.66 75.57 75.40 74.59 74.33 74.08 73.56 72.89 72.85 71.98 72.42 73.14 73.93 74.39 74.95 74.98 75.21 75.27 75.34 75.54 74.80 75.21 75.11 75.64
70.96 68.69 68.96 64.92 53.74 49.31 50.20 53.49 51.97 53.41 55.05 62.30 62.42 61.96 59.99 58.95 64.74 64.22 63.95 69.98 72.27 72.97 73.90 74.03 76.06 75.61 76.14 74.93 74.07 73.14 73.92 74.54 73.18 73.18 71.44 70.95 71.88 73.13 73.20 73.60 74.10 74.05 74.39 74.66 74.87 74.86 74.81 74.98 74.91
70.08 68.57 63.63 56.41 53.50 50.19 47.09 52.14 52.54 54.05 53.11 56.06 57.85 58.46 58.09 59.16 64.17 63.97 66.21 69.06 71.36 71.52 73.20 74.47 76.62 75.51 75.87 75.62 74.25 73.95 73.15 73.89 73.62 72.85 70.45 70.76 71.29 71.87 72.45 72.52 72.26 72.72 73.05 73.39 73.89 74.25 74.66 74.61 74.56
63.24 64.30 61.96 52.67 47.78 52.67 48.87 48.72 53.20 53.11 51.74 56.63 57.64 55.31 59.38 62.61 64.87 65.49 67.98 69.67 71.88 71.68 73.20 75.83 76.08 75.80 75.93 75.39 73.73 73.37 73.14 73.45 72.67 71.40 70.02 70.11 70.34 69.86 71.63 71.70 71.52 71.08 71.43 71.78 72.32 73.06 73.79 74.18 73.81
62.44 59.63 51.26 46.96 47.69 50.11 50.49 51.47 51.17 48.62 49.53 53.70 55.44 53.32 54.90 60.80 67.30 67.71 67.22 70.44 71.42 71.54 73.15 73.71 75.95 75.31 74.94 74.39 73.87 73.12 73.44 73.39 72.31 70.47 69.56 69.61 69.66 69.09 68.78 69.25 69.88 69.91 70.05 70.31 70.66 71.91 73.80 73.06 73.33
57.49 56.78 48.83 43.96 45.42 48.24 47.20 48.49 49.98 48.59 48.88 49.94 50.78 51.23 52.22 57.89 61.59 67.74 67.54 68.51 71.35 70.64 72.12 73.61 76.04 76.15 76.02 74.99 74.30 73.80 73.63 73.85 72.38 70.55 69.59 69.04 69.24 68.92 68.09 67.47 67.36 67.86 68.44 68.49 68.31 70.39 71.75 73.36 73.01
56.63 52.21 48.35 45.68 45.75 46.18 48.54 49.95 47.10 47.78 47.33 48.41 50.62 49.12 50.53 55.35 58.99 63.68 68.47 68.08 68.65 70.44 70.48 71.78 73.31 74.78 76.39 76.00 75.61 74.84 73.13 73.66 72.39 70.85 70.43 69.69 68.92 68.86 68.55 67.46 66.53 66.30 66.41 66.47 66.47 68.64 70.51 71.64 72.79
55.79 53.53 49.20 45.81 46.89 45.98 50.16 51.47 51.79 49.10 47.31 52.10 52.42 47.24 46.49 54.82 59.42 63.80 67.90 66.68 63.87 63.15 62.56 70.36 71.96 73.09 73.35 72.44 74.74 75.19 74.14 73.86 72.95 72.16 71.70 71.59 70.84 70.06 69.63 69.12 68.09 67.06 66.21 66.25 66.11 66.61 68.67 69.03 70.32
57.00 49.62 44.49 46.02 48.32 47.47 50.81 49.91 51.76 52.14 49.61 50.76 51.55 51.30 54.20 57.96 60.14 61.40 61.04 59.92 59.92 60.73 59.84 58.54 61.09 68.19 71.70 72.42 73.35 74.10 74.27 74.27 74.54 73.45 73.48 72.70 69.05 67.43 68.27 69.00 69.58 69.28 67.40 66.47 66.34 66.34 66.91 68.65 68.60
51.72 46.44 47.93 51.28 50.63 48.93 51.40 50.40 50.48 49.44 48.29 47.45 49.07 52.35 55.45 55.56 55.51 55.75 55.42 55.08 54.84 54.74 56.24 56.91 58.57 66.87 67.65 72.43 71.00 70.63 71.51 70.75 70.67 70.64 69.89 70.18 69.69 67.99 68.82 69.12 70.78 69.48 68.04 67.51 67.49 67.17 66.97 66.15 63.49
52.32 47.55 51.11 53.29 53.19 51.66 51.19 49.80 51.63 48.64 45.57 46.68 47.10 49.21 51.69 51.85 51.60 51.92 52.12 51.84 51.00 51.24 51.72 53.65 56.90 61.54 69.32 69.80 69.14 69.35 69.29 69.22 69.60 69.31 68.83 69.46 69.56 69.68 67.62 64.47 64.88 63.66 66.92 63.00 64.65 64.26 63.13 60.19 58.97
48.69 51.74 53.69 54.19 53.16 52.18 50.31 50.90 47.52 47.20 46.67 49.75 49.34 49.15 49.61 48.67 49.08 49.49 49.39 49.21 49.20 48.19 47.79 49.21 51.69 54.88 57.32 65.17 66.95 66.49 66.61 66.38 66.54 67.92 66.78 66.42 66.20 66.88 66.79 66.90 67.69 64.09 62.56 62.06 60.87 60.70 60.80 59.65 58.06
49.04 50.04 51.72 51.76 51.99 50.92 51.39 48.53 46.75 45.94 48.26 49.52 50.57 49.96 47.94 47.27 47.08 47.81 48.36 47.66 46.24 46.12 46.49 47.27 47.53 47.33 49.32 52.29 52.56 53.12 62.57 63.76 63.38 63.79 64.65 64.17 64.04 63.52 64.82 64.69 66.41 66.92 67.23 64.50 62.15 58.37 56.46 55.07 55.71
50.62 50.56 49.82 50.68 50.25 50.44 48.68 47.35 47.86 46.77 48.43 48.47 49.08 46.80 45.84 46.58 46.61 45.66 46.27 45.23 44.61 45.00 46.27 47.15 48.30 47.00 47.46 47.44 48.55 48.53 48.97 50.02 52.00 56.54 58.10 55.73 57.51 58.19 59.83 61.58 63.81 65.46 66.48 65.79 65.36 63.95 61.29 57.30 53.10
49.48 45.65 46.91 47.68 48.72 48.45 49.35 44.88 45.28 47.52 48.03 46.92 46.02 43.98 45.52 45.93 45.59 44.63 45.64 44.75 44.86 45.27 47.09 47.71 48.90 48.20 46.59 46.67 47.15 47.25 47.98 49.09 47.66 48.57 48.73 48.65 49.56 49.97 49.75 51.37 54.90 58.98 62.81 63.80 63.63 63.55 63.93 62.67 59.96
44.68 43.15 39.00 45.69 48.40 49.00 46.71 39.26 46.04 46.70 46.20 44.99 44.19 42.83 44.39 44.70 44.98 43.57 45.74 46.00 44.89 45.07 45.90 46.96 49.52 47.77 46.78 46.12 46.48 46.92 47.11 46.70 46.78 46.91 47.35 48.32 49.37 48.56 47.94 48.35 48.80 50.10 56.64 60.78 59.67 59.63 59.86 60.68 61.44
41.15 35.91 38.89 43.74 48.55 47.63 44.43 40.49 45.08 46.29 46.17 44.57 42.15 42.21 43.27 42.67 42.20 43.06 44.88 44.59 45.13 45.14 44.99 45.73 45.65 45.93 46.87 46.07 46.42 46.16 46.53 45.87 45.59 45.92 46.29 47.06 48.47 48.62 46.89 47.02 47.58 48.37 48.47 51.35 57.98 58.18 57.33 57.20 58.41
37.15 37.22 39.94 40.70 45.86 45.72 43.23 42.09 44.45 45.40 45.11 44.38 42.06 41.80 42.51 42.31 43.16 44.35 45.38 44.61 45.47 44.65 44.57 44.49 45.11 45.01 45.39 45.19 45.24 45.11 45.18 45.39 45.03 44.85 45.71 46.96 46.88 47.52 46.10 46.03 46.10 47.08 47.28 47.56 48.16 53.10 55.55 55.59 56.40
41.94 39.83 38.68 41.49 47.18 44.11 42.03 42.35 44.18 44.72 43.83 42.90 42.66 41.29 41.68 42.75 43.79 44.83 45.35 44.95 44.29 44.16 44.02 43.72 45.14 43.67 44.24 43.62 42.70 42.13 42.51 43.21 44.37 45.23 47.00 47.07 47.12 47.34 45.92 45.38 45.47 45.62 45.38 46.05 46.49 47.17 48.89 51.41 53.60
43.46 40.45 39.80 43.65 46.91 43.28 42.13 42.35 44.14 45.05 44.66 44.79 43.63 41.64 41.88 41.74 42.04 43.03 44.97 44.92 45.62 45.02 44.27 43.48 44.75 44.83 43.96 44.08 43.47 42.89 41.95 43.01 44.04 45.29 45.87 46.89 46.59 46.61 46.85 45.25 44.82 44.92 44.66 44.82 45.11 45.01 45.02 47.76 51.29
42.47 40.28 40.36 39.98 44.19 44.04 41.35 39.42 41.38 43.54 43.52 44.74 44.68 44.03 43.01 42.19 41.98 42.01 42.27 43.65 43.91 44.66 43.96 44.67 44.96 44.93 44.71 44.32 44.02 43.47 42.63 42.37 42.39 42.82 44.06 45.22 45.80 46.00 45.27 44.74 44.39 43.95 43.26 43.55 43.83 44.41 43.31 42.73 45.03
39.05 45.23 44.97 43.55 39.18 33.53 40.64 30.38 36.92 39.45 40.13 42.40 42.76 41.94 42.92 41.84 41.90 42.40 41.80 42.08 42.96 43.48 44.58 44.61 45.12 45.20 46.46 43.88 42.50 40.89 40.01 39.64 40.79 41.45 42.62 43.27 44.43 44.57 45.00 44.92 44.34 43.60 43.45 42.98 43.30 45.68 43.27 42.50 41.86
42.30 45.99 43.23 42.40 37.17 33.99 35.51 32.19 34.46 39.29 37.57 39.44 40.68 42.06 42.51 42.42 43.33 43.52 43.76 43.52 43.71 43.49 43.99 44.83 45.28 45.45 44.54 43.41 42.52 41.11 40.16 40.54 41.16 41.21 40.96 41.20 42.30 43.35 44.23 44.44 43.95 43.34 42.70 42.76 42.96 42.84 42.10 42.01 41.02
46.16 42.13 40.64 39.16 35.52 28.27 33.88 34.26 33.23 36.79 39.47 39.67 40.15 41.97 43.23 42.79 43.09 43.35 42.98 43.72 43.55 44.18 44.76 45.05 44.54 44.60 44.28 43.15 42.20 40.98 39.31 39.00 39.16 39.09 38.68 39.78 40.47 41.62 42.63 43.73 43.13 43.11 43.02 42.66 43.17 43.20 42.35 42.20 41.91
42.27 35.77 29.11 28.54 28.11 28.50 37.75 34.50 35.41 39.56 40.12 41.44 41.58 41.17 42.36 42.68 42.18 41.60 41.91 42.09 42.65 43.32 44.27 45.02 44.35 43.40 43.15 42.15 41.57 40.95 39.61 38.21 37.79 38.14 38.30 38.54 39.14 39.80 40.55 41.50 41.62 42.51 44.02 43.76 42.62 42.31 42.57 42.33 41.00
39.37 36.49 29.75 25.63 26.37 29.25 37.28 31.20 34.79 38.28 40.36 40.95 42.46 42.02 42.06 41.64 40.79 41.18 42.22 42.19 42.95 43.94 43.82 43.77 43.05 41.95 42.46 41.73 40.83 39.46 38.71 38.40 38.69 38.80 38.94 38.85 39.19 40.24 41.16 41.45 41.57 41.89 42.63 43.28 42.85 43.32 42.86 41.62 42.55
37.35 32.94 36.72 31.37 30.02 26.80 31.11 33.67 37.09 38.69 38.77 39.82 39.72 40.12 39.92 40.69 40.94 42.06 42.58 42.63 42.40 42.45 42.89 42.83 42.11 41.54 41.28 39.95 38.58 37.99 38.23 38.57 38.48 38.69 38.76 39.15 39.66 42.35 42.94 41.13 40.87 41.81 42.02 42.50 42.77 43.25 43.22 42.18 42.31
37.01 39.09 32.02 30.65 24.68 23.11 28.90 29.47 32.26 34.43 35.73 37.79 38.12 38.84 40.22 41.47 41.56 41.97 42.40 42.56 42.12 41.70 42.13 41.68 41.13 40.33 39.31 38.65 38.13 39.32 37.86 38.46 38.95 38.77 38.57 38.86 39.34 40.82 41.15 40.95 40.79 40.56 41.08 41.21 40.69 41.03 42.09 42.35 42.60
34.97 32.64 33.54 32.35 29.81 24.53 22.54 28.36 35.90 35.84 36.73 36.72 36.02 38.86 40.76 41.56 41.62 41.52 41.57 41.27 41.90 41.98 40.87 40.53 39.71 38.82 38.13 38.21 37.94 37.58 37.90 38.69 38.62 38.23 38.47 39.90 40.08 39.40 40.01 40.72 40.64 40.61 40.70 40.76 39.89 39.89 40.38 40.94 42.37
36.32 34.38 34.16 28.07 27.74 27.94 24.43 27.69 36.54 37.43 38.40 39.12 38.53 40.25 39.93 41.54 41.96 41.99 40.78 40.98 40.39 39.73 39.52 38.78 38.09 37.07 37.42 37.85 37.84 37.90 38.10 38.00 37.16 37.61 39.28 38.81 39.50 40.17 40.20 40.16 39.94 39.94 40.47 40.47 39.55 39.11 39.63 39.46 40.18

GFSSGP_sfc_wetblb_054.txt.gz
Wetbulb
72.48 69.58 66.64 68.59 54.15 50.60 46.67 49.76 51.65 50.74 55.48 59.16 61.16 58.90 56.01 57.52 54.00 48.23 65.98 70.51 71.85 72.85 74.15 75.38 76.14 75.11 75.76 74.90 74.35 73.77 73.94 72.99 72.59 71.33 70.99 72.34 73.63 73.75 74.09 74.92 74.71 74.76 74.82 75.05 74.95 75.23 74.90 75.27 75.05
70.70 68.80 68.09 62.18 50.94 44.86 46.74 51.01 49.51 54.73 59.36 61.09 60.67 59.97 58.19 57.78 63.27 62.67 65.73 70.92 72.45 73.28 73.60 73.86 75.50 75.29 75.65 74.69 73.14 73.23 74.19 72.87 73.17 71.36 69.91 71.16 72.20 73.05 72.95 73.43 73.47 73.29 74.19 74.53 74.70 74.72 74.43 74.21 74.54
67.63 68.37 61.51 54.72 50.58 47.24 44.43 48.89 50.09 51.90 58.25 56.96 56.19 57.83 57.73 58.66 63.47 63.19 65.49 71.18 72.38 72.37 73.07 73.64 75.75 76.29 75.85 74.20 73.25 72.79 73.57 73.54 72.98 70.69 69.95 70.66 70.46 72.28 72.27 72.10 71.89 72.29 72.71 73.26 73.64 74.05 74.34 74.19 74.18
61.72 63.68 58.21 49.88 46.26 48.82 47.38 46.37 51.28 50.37 53.18 55.51 56.98 54.80 59.70 60.15 62.99 64.59 69.38 70.99 70.65 71.32 72.13 75.27 75.99 76.03 76.06 74.51 73.63 72.97 73.50 73.15 71.72 70.15 69.82 69.95 69.08 71.01 71.23 71.04 71.06 70.26 71.09 71.47 72.02 73.43 73.36 73.86 73.60
61.59 57.75 48.84 45.45 46.67 47.50 45.53 48.34 48.84 47.67 50.62 52.87 54.39 53.01 55.17 59.21 60.11 66.27 70.82 71.25 70.65 70.92 72.53 73.91 75.23 75.07 74.99 74.22 73.86 73.02 73.49 73.25 71.80 70.38 69.48 69.47 69.31 68.11 68.51 68.59 68.87 68.87 69.32 69.64 70.08 71.23 73.24 72.77 73.24
56.98 54.55 45.98 42.16 44.70 47.06 44.86 47.68 48.27 47.06 47.53 48.57 51.47 50.74 52.05 56.49 59.38 60.79 71.09 70.55 71.08 70.57 72.43 72.24 75.66 75.63 75.06 74.15 73.64 72.69 72.12 73.36 72.20 70.65 69.58 68.96 69.10 68.56 67.45 66.70 66.79 66.84 67.45 67.32 67.12 69.85 70.95 73.08 73.06
55.42 50.62 46.72 43.34 43.41 45.38 47.86 48.05 46.52 46.66 45.67 47.48 49.40 47.73 50.47 56.47 58.74 60.84 68.42 68.21 64.51 67.15 70.50 71.93 74.01 74.19 75.16 74.15 74.55 73.71 73.28 73.30 72.16 71.01 70.47 69.74 69.01 68.79 68.51 67.43 66.52 66.52 66.21 66.01 65.89 68.40 70.10 71.21 71.93
54.89 52.23 46.30 43.68 44.91 44.24 48.58 49.99 49.99 47.84 46.07 50.76 51.30 46.98 48.15 54.49 58.76 62.16 61.54 59.77 58.41 58.07 63.47 63.63 71.42 72.46 71.94 71.53 73.53 74.03 73.53 73.24 72.50 71.91 71.60 71.43 70.87 70.42 69.94 69.88 68.74 67.92 67.11 66.56 66.16 66.20 68.73 69.38 70.20
56.13 45.82 42.91 44.81 45.74 46.15 50.09 48.27 50.48 50.69 48.83 49.80 50.50 50.55 53.19 56.22 58.38 57.50 56.09 56.12 55.87 57.30 57.78 59.01 62.77 65.83 71.00 71.78 72.76 72.65 73.49 73.50 73.10 71.99 72.20 71.32 70.08 68.21 68.31 69.23 70.05 69.96 68.84 67.55 67.12 66.74 66.70 68.73 69.25
51.22 45.21 45.93 50.07 49.19 47.21 50.78 48.83 49.03 48.12 46.75 46.90 48.22 51.30 52.72 53.02 53.77 53.64 52.38 50.95 51.06 50.24 55.81 56.42 66.07 69.67 68.81 70.31 69.32 69.04 69.83 69.41 69.12 69.19 68.40 68.55 68.43 68.56 68.84 68.56 70.11 70.45 69.90 68.73 68.25 67.90 67.50 66.49 63.32
50.79 47.04 49.82 51.89 50.81 51.35 49.90 48.75 50.78 47.11 44.42 45.97 47.32 48.80 50.17 49.68 50.06 50.47 49.68 48.44 46.74 45.73 48.83 52.26 56.18 65.73 66.06 66.59 66.82 66.77 65.75 67.09 67.36 66.39 66.49 66.43 67.00 67.59 67.51 66.92 66.47 63.85 65.45 63.89 62.85 62.11 63.18 61.93 59.77
48.00 51.38 52.05 52.56 52.14 50.47 48.51 49.61 46.42 46.74 46.25 48.93 48.53 48.97 47.87 47.56 47.75 47.87 47.08 45.92 45.31 45.39 45.43 47.11 48.66 52.07 55.03 56.76 60.00 63.07 63.03 62.53 63.35 65.15 63.06 61.47 63.08 63.46 64.41 65.12 66.15 66.74 65.23 62.69 61.06 58.27 59.00 59.36 59.39
48.43 49.29 51.42 50.89 50.83 49.64 49.93 47.34 46.16 45.01 47.21 48.47 48.90 48.27 46.31 45.77 45.60 45.36 45.22 44.61 44.18 44.88 45.31 46.16 46.01 45.33 46.38 47.86 47.02 47.21 49.87 52.15 56.45 56.34 53.31 55.37 56.04 55.95 59.86 60.59 63.00 64.13 66.00 65.66 64.95 63.99 62.43 59.15 55.56
49.90 49.53 48.93 49.76 49.14 49.29 47.54 45.90 46.36 45.73 47.08 47.55 46.89 45.00 44.47 45.39 44.98 43.61 43.92 43.47 43.59 43.97 45.15 46.12 46.58 45.02 45.66 45.39 45.42 45.54 46.39 46.18 46.86 47.24 47.26 48.85 48.62 47.99 49.05 50.21 52.30 54.43 58.05 64.34 63.72 63.21 63.18 62.59 60.48
48.89 45.61 46.00 46.46 47.26 47.14 48.02 43.84 44.18 46.12 46.56 45.97 44.52 42.63 43.57 44.08 44.49 43.63 43.97 43.50 43.66 43.83 44.95 46.35 46.94 46.10 44.91 44.91 45.40 45.17 45.94 46.57 45.29 45.68 46.08 46.41 47.10 46.04 46.75 46.99 47.51 47.94 50.55 56.98 59.26 58.83 60.36 60.25 61.27
43.94 42.43 38.11 43.63 47.04 47.50 45.76 39.77 44.56 45.78 45.01 43.84 43.27 41.55 43.28 42.96 43.82 42.71 44.39 44.56 43.60 44.05 44.18 45.02 48.93 46.42 45.11 44.67 44.62 45.10 44.92 44.38 44.34 44.39 44.63 46.01 46.88 46.11 45.05 45.20 45.22 46.52 47.29 50.63 53.04 56.23 56.44 55.92 56.14
40.20 35.12 37.12 41.00 47.06 46.46 43.69 40.12 44.75 44.65 45.02 43.21 41.10 40.75 42.27 41.17 40.69 41.73 43.40 43.78 44.08 43.96 43.46 43.73 44.65 45.30 45.39 44.50 44.69 44.39 44.46 43.95 43.44 43.53 43.90 45.14 46.59 47.06 44.48 44.57 44.57 45.08 45.64 45.89 47.56 52.11 53.19 54.24 53.85
36.24 36.08 38.41 38.68 44.24 44.76 41.87 41.02 42.78 43.99 43.63 43.35 40.66 39.91 40.62 40.77 41.88 42.84 43.97 43.70 43.76 43.06 43.13 43.11 43.63 43.94 43.79 43.01 42.95 43.04 43.21 43.53 43.55 43.29 44.08 45.36 45.47 46.01 43.86 43.55 43.80 44.04 43.96 44.04 44.77 44.76 47.64 51.67 51.88
40.86 38.93 38.08 40.31 45.57 43.24 41.09 41.21 42.80 43.93 42.02 41.61 40.09 39.75 40.15 40.91 42.68 43.08 43.86 44.13 42.93 42.22 41.77 42.40 43.72 42.81 43.05 42.44 41.40 40.79 41.11 41.57 42.53 43.60 45.07 45.02 45.65 45.55 43.99 43.88 43.70 43.63 42.82 42.90 43.72 44.36 45.12 46.03 48.90
42.15 39.07 37.89 42.58 45.77 42.93 41.51 41.55 43.87 43.62 43.80 44.10 42.57 40.75 40.65 40.23 40.22 41.38 43.18 43.13 43.67 43.26 42.32 42.08 43.31 43.36 42.63 42.27 41.64 41.32 40.39 41.16 42.02 43.23 43.78 44.80 44.67 44.70 45.08 43.32 42.74 42.65 42.05 42.38 42.31 41.83 42.09 44.02 46.93
41.28 38.92 38.37 39.16 42.51 42.16 40.20 38.45 39.97 42.55 42.57 43.36 42.80 42.55 41.54 41.07 40.94 40.50 40.90 42.26 42.48 42.43 42.12 42.73 43.13 43.75 43.41 42.85 42.23 41.76 41.00 40.98 41.28 41.39 42.10 43.25 43.49 43.66 43.27 42.54 41.84 41.53 41.07 41.01 41.22 41.45 41.11 41.36 41.85
37.38 43.81 43.63 42.33 37.72 33.07 39.41 29.56 36.51 37.94 38.23 40.81 41.58 40.67 40.67 40.26 41.61 41.59 41.17 41.13 41.41 42.46 42.78 43.18 43.82 44.07 44.70 42.53 41.34 39.49 39.01 38.55 39.45 39.39 40.70 41.03 41.86 41.88 42.61 42.60 42.12 41.36 40.95 40.15 40.45 43.87 41.09 39.97 39.82
40.81 44.54 41.84 40.64 35.33 33.08 33.47 31.01 34.48 36.73 36.25 38.51 40.23 41.03 40.92 40.16 41.22 41.02 41.14 42.11 42.28 42.29 42.75 43.33 43.91 44.59 43.91 42.32 41.08 40.12 39.07 38.81 39.09 39.07 38.67 39.08 40.10 41.24 42.11 41.99 41.23 40.74 40.69 40.37 40.15 40.50 40.34 39.93 39.02
45.01 40.52 38.70 36.50 33.50 27.45 32.09 32.11 31.69 35.02 38.02 37.55 38.98 40.86 41.67 40.91 40.88 41.67 41.55 41.72 41.67 41.49 42.74 43.40 43.70 43.90 43.31 42.44 41.40 39.63 38.03 37.40 37.14 37.04 36.82 38.01 38.62 39.66 40.63 41.38 40.37 40.24 40.06 40.21 40.71 40.99 39.89 40.49 39.77
40.48 33.95 27.51 27.23 27.42 27.84 34.67 31.83 32.77 36.89 37.82 39.50 40.91 40.53 41.21 41.25 40.84 40.88 40.40 40.58 41.20 42.02 42.94 43.73 43.19 42.74 42.36 41.17 40.19 39.33 37.85 36.40 36.07 36.53 36.61 36.80 37.40 38.07 38.98 39.57 39.68 39.54 40.15 40.44 40.34 39.61 39.24 39.52 39.99
37.46 34.99 28.51 25.64 25.67 28.76 33.68 29.81 34.50 37.21 39.39 38.86 40.43 40.95 41.02 40.74 40.43 40.42 40.58 40.51 40.99 42.23 42.16 42.54 42.12 41.67 41.02 39.99 39.15 37.73 37.15 36.97 37.19 37.09 37.25 37.02 37.34 38.25 39.44 39.75 39.92 40.00 40.79 40.93 40.23 39.85 39.97 40.14 40.76
35.84 32.47 34.94 30.31 27.65 25.20 28.81 33.10 37.11 37.00 37.87 38.21 38.02 39.54 40.26 40.56 39.89 39.95 40.48 40.85 40.78 41.34 41.91 41.87 41.33 40.05 39.60 38.01 36.95 36.56 36.59 36.74 36.82 37.27 37.23 37.54 37.97 40.44 41.29 39.95 38.93 39.16 39.25 39.66 39.39 39.72 39.37 39.19 39.50
35.82 37.80 31.07 28.94 23.78 22.53 26.80 27.91 30.72 33.89 33.81 35.76 35.99 36.56 38.65 39.89 39.55 39.94 40.53 41.10 40.67 39.77 40.38 39.87 39.62 38.42 37.44 37.04 36.60 37.77 36.45 36.93 37.23 36.82 36.54 37.07 37.69 38.02 38.47 38.74 39.07 39.35 39.71 39.98 39.65 39.36 39.70 38.67 39.57
33.80 31.84 31.90 30.97 28.37 23.84 22.17 26.88 33.26 33.60 35.63 35.24 35.44 38.24 39.12 39.62 39.17 39.23 39.26 39.61 40.26 39.66 38.98 38.58 37.57 36.81 36.57 36.82 36.72 36.33 36.34 36.68 36.40 36.39 36.97 37.13 37.48 37.70 38.57 39.15 39.24 39.11 38.97 39.05 38.68 38.81 38.95 38.11 38.26
35.24 32.62 32.01 26.92 26.13 24.98 22.25 26.90 36.05 34.17 37.79 38.43 37.52 38.91 38.80 39.43 40.46 40.68 39.77 39.12 38.32 37.91 37.67 36.45 35.72 35.77 36.23 36.80 36.33 36.11 36.12 36.39 35.70 35.45 35.91 36.82 37.37 38.49 38.24 38.55 38.59 38.67 38.89 39.10 38.42 38.38 39.29 38.64 38.08

GFSSGP_sfc_wetblb_057.txt.gz
Wetbulb
73.02 69.25 67.67 65.58 52.60 49.35 45.36 47.89 50.69 51.21 55.09 58.67 59.71 56.55 55.49 56.81 52.69 46.54 65.64 70.69 71.57 72.60 73.72 75.23 75.46 75.53 75.61 74.91 73.80 73.72 72.70 72.18 70.78 70.04 71.56 73.07 72.86 73.23 74.47 74.38 74.43 74.22 74.76 75.02 75.02 74.94 74.90 74.82 74.74
71.09 68.06 66.62 59.17 48.61 43.41 45.21 49.33 50.77 54.34 58.61 59.35 58.32 58.50 57.50 56.42 61.77 64.12 65.64 70.74 72.31 72.81 73.62 74.44 75.21 75.72 75.15 74.13 72.97 73.34 72.91 72.87 71.78 69.32 70.43 71.04 72.60 72.42 72.43 73.21 72.42 72.69 73.72 74.46 74.69 74.59 74.20 74.10 74.26
65.71 67.37 59.28 53.97 49.08 44.65 43.11 47.67 50.16 56.46 56.37 55.92 55.51 57.62 57.57 58.06 62.50 65.06 65.90 70.95 72.38 72.17 73.08 72.84 75.09 75.40 75.41 73.46 72.80 73.02 73.38 73.04 71.40 69.45 69.91 69.41 71.29 71.43 71.63 71.49 71.38 71.66 72.17 72.90 73.38 73.96 74.21 73.99 73.90
60.59 61.29 54.31 49.26 45.57 46.72 45.70 45.53 53.10 49.50 53.09 56.12 56.60 56.00 58.77 58.80 59.77 62.50 70.00 71.71 70.88 71.05 71.38 73.39 75.41 75.02 74.12 73.32 72.71 72.59 72.93 72.03 70.69 69.45 69.54 68.94 69.14 70.65 70.64 70.38 70.38 69.66 70.76 71.25 71.72 73.38 73.32 73.59 73.58
60.84 55.17 46.65 44.54 44.92 44.38 44.49 47.52 48.00 48.36 50.27 50.13 53.97 54.75 56.52 57.61 60.63 67.59 69.93 70.82 70.09 69.96 71.72 73.62 74.81 74.49 74.12 73.63 73.22 72.62 73.14 72.39 70.77 69.46 69.25 69.21 68.54 67.62 68.08 68.08 68.17 68.17 68.98 69.32 69.89 71.10 73.00 72.99 73.16
56.82 52.63 44.71 41.98 43.40 45.05 44.03 46.87 46.89 45.90 46.27 47.38 53.57 52.46 53.67 55.05 57.63 63.58 70.08 69.40 70.71 70.86 72.40 72.59 74.46 75.15 74.40 73.89 73.39 72.01 72.21 72.55 71.39 70.18 69.14 68.81 68.86 68.31 67.28 66.48 66.48 66.44 66.82 66.96 66.69 69.42 70.97 72.59 73.08
53.68 49.62 44.40 42.54 42.32 44.20 45.78 46.90 44.63 45.29 44.57 46.68 49.70 47.66 51.20 56.14 58.45 67.77 66.69 59.77 64.85 70.82 70.95 71.13 72.35 72.87 74.08 73.29 72.90 72.44 73.03 72.76 71.59 70.82 70.41 69.86 69.24 68.73 68.58 67.87 66.78 66.43 66.32 65.97 65.82 67.85 69.68 71.22 71.85
54.03 50.58 43.45 42.07 43.13 43.03 47.49 48.91 48.91 46.52 44.94 49.98 50.38 46.39 51.76 52.41 58.49 58.79 57.29 55.77 56.04 58.17 59.17 63.61 71.37 71.54 71.15 70.82 73.69 73.06 72.73 72.78 72.96 73.00 72.26 71.72 71.07 70.87 70.41 69.92 69.10 68.85 68.35 67.61 66.93 66.30 68.19 69.61 70.26
54.78 45.23 42.31 44.27 44.50 45.54 48.36 47.20 49.43 49.71 48.39 49.04 49.46 49.63 51.79 55.63 56.25 54.38 51.81 51.75 56.66 60.80 61.13 66.92 67.16 69.71 70.98 70.90 71.40 71.70 72.57 72.57 71.66 70.45 70.92 69.88 68.92 68.16 68.42 69.32 70.42 70.34 70.70 69.55 68.41 67.87 67.25 67.63 69.09
50.22 44.61 45.26 48.43 48.09 45.86 49.12 47.79 48.17 47.43 46.36 46.85 48.15 50.24 51.36 53.48 52.73 51.28 49.95 48.14 49.63 50.87 58.24 64.00 65.67 65.97 66.89 67.64 66.98 67.03 67.81 66.94 65.67 65.49 65.20 66.69 65.98 66.49 67.45 68.24 69.97 69.87 70.02 70.15 69.19 68.86 68.74 67.34 61.87
49.90 47.80 48.81 50.60 49.99 50.47 49.08 47.63 49.54 46.27 43.86 46.34 47.96 48.52 48.55 49.46 49.11 48.00 46.11 44.84 43.93 45.67 50.13 54.08 59.53 62.70 63.95 64.33 63.95 63.51 63.81 63.86 63.62 61.90 61.43 62.81 62.47 62.40 63.07 64.00 65.32 66.26 67.36 63.28 62.92 60.92 60.06 60.60 60.73
47.83 49.90 50.46 51.80 51.64 49.15 47.94 48.56 46.04 45.95 45.32 48.16 49.27 48.47 47.13 47.09 46.89 45.43 44.15 44.53 44.49 44.79 45.01 47.12 48.61 49.08 48.22 49.51 51.50 54.19 57.48 56.91 53.63 51.47 54.06 55.37 54.81 56.26 58.85 59.55 59.72 59.12 63.47 64.78 64.32 63.27 62.51 59.01 57.15
47.74 48.72 50.58 50.01 49.93 48.62 49.09 46.29 45.33 44.93 46.19 46.92 48.15 47.35 45.52 45.10 44.50 43.94 43.73 43.86 43.84 44.59 44.37 44.72 44.91 44.46 44.94 45.50 45.16 45.54 46.15 46.85 47.66 46.97 47.77 48.63 47.96 47.99 50.35 50.83 53.14 54.28 55.53 60.74 62.57 62.46 62.85 62.25 61.59
48.85 48.41 47.80 48.80 48.30 48.33 46.75 44.92 45.30 44.80 46.19 45.63 46.06 44.49 43.61 44.37 43.67 42.15 42.25 42.74 42.66 42.89 43.81 44.50 44.90 43.67 44.36 43.80 44.00 44.17 44.46 44.41 44.59 44.49 44.89 46.70 45.53 44.66 45.90 45.92 46.47 47.04 48.81 52.53 56.58 57.37 58.49 59.94 60.81
48.29 45.15 45.06 45.56 46.59 45.91 46.94 42.06 43.28 45.22 45.58 44.55 43.03 41.75 42.75 43.06 43.51 42.41 43.14 42.77 42.60 42.72 43.90 44.66 44.97 44.45 43.77 43.62 44.05 43.92 44.70 44.78 43.39 43.48 43.75 44.66 45.05 43.75 43.98 44.06 44.24 44.31 45.68 48.45 49.41 51.49 54.32 54.45 56.15
42.93 41.61 37.88 42.59 45.83 46.00 44.18 38.58 43.33 44.63 44.18 43.09 41.89 39.86 41.39 41.82 42.83 41.79 43.25 43.56 42.67 43.11 43.76 45.26 48.26 45.00 43.67 43.41 43.27 43.45 43.48 43.01 42.82 42.65 42.89 44.57 45.73 44.71 43.35 43.19 43.08 43.71 44.69 46.20 45.68 47.33 50.11 49.96 51.89
39.51 34.98 36.58 40.08 45.75 45.16 42.47 39.71 42.87 43.69 43.80 42.54 40.95 39.99 40.75 40.10 39.76 40.56 42.87 43.34 43.32 42.74 42.71 43.53 43.95 44.60 44.30 42.90 42.90 42.48 42.65 42.61 42.09 41.93 42.55 43.69 45.45 45.65 42.42 42.12 42.35 43.07 43.11 42.90 43.64 45.13 46.49 48.37 48.75
36.08 36.02 37.15 36.88 41.85 43.08 40.37 40.58 41.10 42.47 42.63 42.44 40.81 39.59 39.95 39.98 40.88 41.59 42.76 42.95 43.25 42.39 42.12 42.66 43.16 43.09 42.55 41.86 41.65 41.61 41.97 42.04 41.83 41.92 43.12 43.83 44.36 44.09 42.24 42.23 42.31 42.08 41.46 41.29 41.66 41.83 43.26 45.73 47.28
39.97 38.02 37.30 38.93 43.33 42.15 40.20 40.97 42.39 43.07 41.37 40.70 39.82 39.15 39.29 39.72 41.14 41.39 42.17 41.95 41.72 41.41 40.88 41.22 42.34 41.90 41.81 41.38 40.89 39.95 40.35 40.25 41.14 42.15 43.47 43.32 43.60 43.63 42.49 42.31 41.75 41.58 40.72 40.23 40.68 40.83 42.13 42.46 45.13
41.35 38.08 37.29 40.85 44.57 42.29 40.07 40.55 42.91 42.42 42.28 43.04 42.20 39.89 40.01 39.14 40.04 40.56 41.51 40.90 41.31 41.33 41.11 40.77 41.76 41.95 41.82 41.43 40.76 40.27 39.44 40.06 40.52 41.79 42.04 42.87 42.70 42.65 43.26 40.78 40.67 40.39 39.90 39.96 39.74 39.22 38.94 40.90 43.25
40.13 37.91 37.51 38.49 41.65 40.97 39.48 37.75 38.96 41.44 41.61 43.02 42.67 42.25 41.42 40.44 40.03 39.53 39.62 40.76 40.93 40.43 40.66 41.41 41.62 42.27 42.38 42.11 41.15 40.35 39.41 39.37 40.08 40.04 40.53 41.62 41.48 41.61 41.24 40.77 40.20 39.79 39.13 38.90 38.54 38.75 38.42 38.03 39.44
36.36 42.39 42.38 41.24 37.43 32.79 38.50 30.13 36.11 36.62 38.58 39.24 39.59 39.19 40.01 39.60 39.92 40.45 39.82 39.95 40.24 41.14 41.15 41.71 42.30 42.15 43.39 41.53 40.44 39.27 38.61 37.82 38.29 38.16 39.33 39.41 40.08 40.26 40.94 40.89 40.15 39.24 38.94 38.11 38.25 41.95 38.73 37.71 37.30
39.98 43.64 40.53 39.59 34.63 32.81 32.76 29.72 33.91 37.18 37.36 38.10 38.01 38.99 39.48 39.64 40.98 40.48 40.64 41.06 41.14 40.66 41.23 41.61 42.11 43.08 43.12 41.15 40.48 39.43 38.16 37.76 37.89 37.53 37.46 37.70 38.58 39.58 40.36 40.20 39.51 38.96 38.68 38.44 38.32 38.17 37.80 37.72 36.94
43.78 39.62 37.20 35.63 32.66 27.00 30.67 30.54 32.09 34.54 36.22 37.98 37.51 40.06 40.84 40.03 39.74 40.14 40.81 39.58 40.70 40.84 41.52 41.82 42.35 42.99 41.99 41.50 40.07 38.77 37.34 36.67 35.87 35.79 35.70 36.75 37.25 38.27 39.30 40.05 38.97 38.77 38.45 38.52 38.78 38.42 37.56 37.62 37.52
39.52 33.53 27.56 26.18 26.72 26.33 32.88 30.29 32.83 35.81 36.40 37.01 38.97 40.30 40.60 40.00 39.07 39.69 40.15 39.56 40.18 40.36 41.02 42.61 42.08 41.71 41.15 39.87 39.16 37.96 36.50 35.13 34.82 35.43 35.49 35.73 36.16 36.89 37.63 38.09 38.15 38.31 38.68 38.83 38.73 37.82 37.32 37.31 36.56
36.04 33.74 27.69 24.96 25.18 28.30 32.61 28.74 33.82 35.86 37.24 37.49 38.66 39.49 39.86 40.13 39.23 39.36 39.94 39.53 39.57 40.81 41.06 41.35 41.07 40.34 39.55 38.34 37.00 36.11 36.03 35.88 36.08 36.07 36.25 35.60 35.73 36.54 37.85 38.36 38.29 38.34 38.48 38.52 38.17 37.33 37.60 37.53 37.72
34.55 32.08 34.25 29.01 25.50 24.17 27.62 31.30 35.28 36.60 37.03 37.51 38.03 39.14 38.80 39.65 39.70 39.79 39.50 39.28 38.86 39.23 39.75 40.22 40.32 38.89 37.21 36.23 36.08 35.79 35.88 36.06 36.08 36.04 35.48 35.79 36.51 39.10 39.54 38.12 37.58 38.13 38.59 39.63 39.36 38.73 38.33 38.45 38.49
35.17 37.24 29.88 27.83 23.41 21.74 25.22 25.75 29.91 32.46 34.37 36.75 37.57 37.97 38.63 39.69 39.16 38.40 38.27 38.90 39.06 38.32 38.56 38.05 37.56 36.21 35.70 36.13 35.78 37.14 35.66 35.79 35.88 35.31 35.44 35.94 36.58 36.62 37.03 37.84 38.16 38.27 38.52 38.71 38.30 37.86 38.21 37.65 38.11
33.29 31.17 30.54 29.66 27.02 23.51 21.52 25.93 32.12 31.97 34.63 34.14 35.46 36.93 37.68 38.07 38.43 38.60 38.21 38.53 38.69 37.70 37.10 36.02 35.46 35.74 35.78 36.15 36.00 35.58 35.35 35.37 35.27 35.14 35.36 35.57 36.02 37.27 37.43 37.65 37.65 37.52 37.66 38.11 37.62 37.33 37.54 37.16 37.53
33.44 31.42 30.97 25.72 24.64 23.30 21.11 26.16 34.88 32.55 34.94 36.15 35.29 37.49 37.51 38.35 38.87 38.83 38.89 37.41 36.46 35.84 35.13 34.32 34.79 35.05 35.54 35.79 35.23 34.69 34.78 34.93 34.13 34.18 34.82 35.89 36.38 37.19 37.11 37.41 37.26 37.25 37.57 37.94 37.94 37.16 37.87 37.36 37.00

GFSSGP_sfc_wetblb_063.txt.gz
Wetbulb
73.95 69.76 70.35 65.53 58.03 55.17 49.60 50.90 53.86 55.87 57.09 60.60 61.21 58.90 58.03 59.37 53.80 51.84 68.63 70.72 71.84 73.07 74.95 74.70 74.90 75.33 74.71 73.71 73.22 72.57 71.67 70.58 69.43 70.69 72.70 72.84 72.51 73.42 73.48 73.08 73.33 74.08 74.61 74.65 74.90 74.55 74.49 74.97 74.83
73.26 68.68 66.55 59.66 53.57 48.56 49.29 52.69 53.66 57.21 60.37 60.80 60.90 60.62 59.54 57.84 63.63 65.87 67.98 71.96 72.66 73.33 75.05 74.52 74.94 74.51 74.33 73.32 73.10 72.75 72.88 71.40 69.48 69.98 70.26 71.77 71.53 71.47 71.85 72.10 71.79 72.28 73.18 73.44 73.97 74.15 74.15 74.16 74.04
67.04 67.26 61.14 57.53 51.89 49.32 48.86 51.99 56.69 58.78 59.40 58.15 59.78 61.36 60.86 60.17 64.86 66.72 69.65 72.27 72.63 73.24 75.20 74.79 74.94 74.46 73.87 73.14 73.04 73.14 72.68 70.96 69.79 69.93 69.16 70.30 70.96 70.70 70.33 70.29 70.11 69.98 71.78 72.21 72.79 73.68 73.60 73.74 73.76
65.11 62.93 57.77 53.58 49.06 50.93 50.51 54.70 58.97 56.82 55.39 59.54 61.05 58.56 60.33 61.57 62.56 66.57 71.77 71.87 71.59 73.23 75.03 74.71 74.95 74.58 73.53 72.67 72.79 72.77 71.91 70.77 69.57 69.63 69.45 68.49 69.38 69.45 68.75 68.39 68.16 68.11 69.10 69.30 70.37 71.82 72.96 73.45 73.65
62.39 58.15 52.33 48.84 46.80 48.09 49.30 55.72 57.49 53.38 54.24 55.90 58.94 58.09 59.23 59.59 67.18 67.48 71.32 71.35 71.01 72.82 73.87 73.84 75.37 74.45 73.61 72.94 72.55 73.20 72.70 71.57 70.34 69.53 69.36 69.22 68.46 67.95 67.22 67.23 67.36 67.56 67.53 67.26 67.17 68.49 71.14 72.19 72.85
61.04 56.40 50.42 47.21 46.46 48.24 49.46 53.22 51.63 51.52 51.16 54.45 59.24 59.20 58.89 60.92 67.30 70.31 71.44 70.98 71.71 72.21 72.91 74.21 74.50 74.50 73.63 73.25 72.69 72.59 73.14 72.12 71.12 70.36 69.73 69.46 69.19 69.14 69.21 68.29 67.90 68.69 69.00 68.89 67.88 67.32 68.64 70.28 71.74
58.91 54.48 49.96 47.78 47.12 47.21 49.61 51.00 49.86 50.12 50.10 53.58 58.67 57.03 57.55 61.82 65.95 69.69 70.46 72.34 72.15 72.27 72.92 73.65 73.88 73.87 73.63 73.48 72.63 72.48 72.72 72.91 72.76 72.59 71.85 71.91 72.00 70.46 70.47 70.73 70.55 70.33 70.28 70.18 69.34 68.97 67.93 67.95 69.29
57.64 53.57 47.78 47.35 46.35 47.97 49.51 50.45 50.67 50.20 50.28 53.76 54.08 56.19 57.35 61.57 59.96 62.91 67.50 68.27 67.83 68.37 69.17 72.59 73.09 72.79 73.07 72.77 72.72 72.79 72.59 70.89 71.44 70.73 70.78 70.14 69.95 70.92 71.56 71.11 71.50 71.88 71.89 71.49 70.73 70.14 70.01 69.55 68.98
56.40 51.96 47.99 48.70 47.23 50.06 50.04 49.82 51.07 52.18 52.05 52.49 52.89 54.66 56.93 57.40 58.82 63.18 64.40 64.92 66.83 67.40 69.32 71.49 71.52 71.08 71.98 71.03 67.78 67.21 66.18 65.53 65.02 64.85 64.52 63.70 65.15 64.67 64.47 66.82 69.24 70.19 69.42 69.44 69.00 68.75 67.76 66.62 66.16
54.88 52.12 51.26 51.98 51.39 50.30 50.20 50.62 50.89 51.09 51.29 51.51 52.25 54.04 55.74 55.67 59.85 63.84 64.03 63.39 64.05 65.79 66.36 68.90 68.74 68.01 68.33 65.76 63.35 61.01 56.46 56.13 56.22 57.30 58.32 58.17 57.83 58.55 58.13 58.94 59.73 62.25 65.00 65.78 65.63 65.93 65.27 65.34 65.48
53.44 53.16 52.12 51.62 52.08 51.86 50.62 49.89 50.76 50.28 48.99 52.41 52.86 53.74 53.41 53.47 56.15 60.20 60.65 62.74 61.64 60.23 61.24 61.35 63.19 63.97 62.82 58.64 56.23 54.94 54.23 54.01 54.12 54.17 54.48 54.58 54.57 54.81 54.82 54.75 54.78 55.56 58.18 57.96 58.68 59.88 61.13 61.94 63.15
52.06 51.37 52.23 52.56 52.51 51.42 50.26 51.14 49.64 49.74 50.64 50.98 54.72 54.65 52.10 52.60 54.97 56.46 56.64 56.70 55.63 55.51 55.17 55.71 56.43 57.29 55.49 54.79 53.58 52.90 52.06 52.15 52.05 52.72 53.04 53.37 52.88 52.70 52.56 52.52 53.23 53.49 54.10 54.38 54.82 55.38 56.82 57.36 57.49
51.28 51.13 50.72 50.94 50.82 50.03 50.57 48.92 49.23 49.35 49.43 51.83 52.49 52.40 50.49 50.57 51.00 51.47 53.81 52.43 51.64 51.37 51.07 50.91 51.70 52.13 51.72 51.26 51.14 51.06 50.72 50.59 51.11 51.88 52.24 52.60 52.04 51.20 51.58 51.38 51.86 52.03 52.81 52.63 52.43 53.16 53.91 54.73 54.90
50.59 50.15 49.61 50.36 50.18 50.08 49.17 47.84 48.78 48.82 48.89 49.63 50.95 51.12 49.03 48.87 49.54 48.27 49.32 49.42 50.12 49.73 49.63 49.64 49.89 50.63 51.01 50.55 50.82 50.40 50.52 50.37 50.62 50.88 51.62 51.47 50.90 50.69 50.82 50.74 50.84 51.05 51.51 51.51 51.07 51.14 52.26 52.69 53.05
49.78 48.26 48.28 48.61 49.22 48.64 49.47 45.98 46.72 48.21 48.48 48.45 48.76 49.62 48.06 47.47 47.10 49.14 49.30 49.15 49.42 49.66 48.94 49.30 49.34 49.71 50.29 50.29 50.64 50.95 50.58 50.24 50.17 50.06 50.88 51.30 50.86 50.16 50.15 50.06 49.89 49.90 50.44 50.60 50.89 50.90 51.44 51.27 51.58
46.47 46.10 45.59 46.45 48.20 47.96 47.54 44.73 46.48 47.20 47.48 47.48 47.28 46.97 47.31 46.33 46.85 47.58 47.93 48.63 48.50 48.91 49.07 49.54 49.88 49.17 49.43 49.72 50.00 50.04 49.68 49.90 49.89 50.14 50.70 50.78 50.47 50.19 50.22 49.97 49.53 49.59 50.00 50.08 50.06 49.80 49.45 49.75 49.97
43.46 43.39 42.17 44.86 47.43 47.41 46.17 44.77 46.23 46.29 46.60 46.54 46.52 46.02 45.93 46.02 45.53 46.41 47.41 48.15 48.12 49.02 49.01 49.38 49.41 48.82 48.64 48.77 49.17 49.45 49.16 49.64 49.70 50.24 50.51 50.06 49.95 49.35 49.83 49.64 49.34 49.17 49.18 48.62 48.22 48.16 48.46 47.71 48.25
42.53 40.71 40.42 41.74 44.71 45.95 44.10 44.56 46.15 46.06 45.69 46.81 46.09 45.40 44.91 45.32 45.69 46.50 47.06 47.84 47.98 48.08 48.81 49.09 48.71 48.45 48.50 48.38 48.41 49.12 49.37 49.25 49.59 49.99 50.14 49.31 49.97 49.14 49.75 49.53 48.79 48.55 48.11 47.71 47.27 46.72 47.64 47.37 47.51
43.40 41.66 41.17 42.37 44.62 44.79 43.51 43.23 45.85 46.38 44.74 45.18 45.46 44.84 44.40 44.69 46.61 46.49 46.76 47.26 46.98 46.96 47.41 47.91 47.80 47.80 48.14 48.55 48.70 48.74 49.43 48.97 49.21 49.69 48.50 48.94 48.91 48.73 49.13 49.09 48.25 48.14 47.28 46.74 46.81 46.26 45.73 46.15 47.57
43.51 41.37 41.12 42.96 45.06 44.59 42.65 42.93 45.85 44.94 44.80 45.14 45.85 44.97 44.50 44.17 44.72 45.36 45.77 46.27 46.25 46.78 47.00 47.02 48.01 47.91 48.22 48.70 48.84 49.09 48.94 48.67 48.51 49.00 48.48 48.53 47.94 47.89 47.80 47.48 47.52 47.36 46.64 46.55 46.24 45.72 44.71 45.31 46.66
42.70 40.95 40.65 41.22 42.96 43.00 41.29 41.04 42.35 43.51 44.38 45.14 45.71 46.13 46.04 45.07 44.84 44.71 45.01 45.74 46.54 46.38 46.60 46.94 47.36 47.69 48.02 48.23 47.80 47.62 47.41 47.48 47.64 47.73 47.99 47.93 46.57 46.66 46.59 46.76 46.59 46.52 46.33 45.50 45.65 45.52 44.89 43.04 44.99
40.08 44.14 43.53 42.15 40.48 37.07 40.94 34.71 39.56 40.29 43.21 43.05 43.67 43.53 44.52 44.88 45.20 45.15 45.01 44.86 45.34 46.25 46.56 46.64 46.71 46.88 47.19 47.85 47.67 47.65 47.74 46.89 47.16 46.53 46.54 46.01 45.28 45.63 45.71 45.70 45.77 45.63 45.69 44.98 45.26 45.56 45.18 44.18 42.05
41.75 43.99 42.00 40.43 37.99 37.70 36.97 35.78 38.58 40.47 41.10 41.97 42.17 43.29 43.20 43.96 45.39 44.69 44.75 45.76 45.50 45.26 45.82 46.26 46.01 46.45 47.41 47.39 47.27 47.18 46.05 46.05 45.98 44.80 44.06 44.81 45.34 45.54 45.22 45.18 45.03 44.91 45.11 45.03 44.67 44.43 44.26 44.25 42.85
43.26 40.13 38.51 37.79 36.39 32.21 34.61 34.63 36.38 37.78 38.96 40.28 41.64 42.19 43.71 43.49 43.83 44.43 44.02 44.33 45.06 45.72 46.05 45.87 45.62 46.41 47.34 47.22 46.44 46.06 45.35 44.46 43.58 43.67 43.45 44.18 44.19 44.51 44.75 44.74 44.78 44.73 44.34 44.00 44.01 44.15 43.75 43.34 43.24
41.21 38.87 33.67 31.58 31.46 30.92 35.20 33.50 37.39 39.42 39.95 39.20 39.68 41.53 43.78 43.94 43.67 43.87 44.05 43.85 44.48 45.31 45.48 45.58 46.07 46.46 46.66 45.96 44.74 43.94 43.14 42.31 42.52 43.01 42.74 42.26 42.48 43.02 43.70 44.03 43.57 43.43 43.72 43.65 43.42 42.83 42.60 42.51 41.79
38.65 39.07 33.57 28.96 29.16 31.42 34.38 32.46 36.99 39.67 40.00 40.52 41.14 42.44 43.56 43.34 43.15 43.16 43.37 44.12 44.24 45.15 45.54 45.59 46.07 45.92 44.54 43.15 42.24 42.47 42.42 43.56 42.95 42.40 42.05 41.89 41.95 42.51 43.14 42.78 42.99 42.75 42.69 42.37 42.21 41.90 41.86 41.93 41.55
38.07 36.36 37.62 31.69 29.50 29.53 32.26 34.82 39.48 39.28 39.19 39.05 39.12 40.55 40.38 41.45 42.25 42.72 43.20 43.16 43.36 43.95 44.55 45.32 45.19 43.33 41.85 41.75 42.43 42.57 42.59 41.86 41.68 41.87 41.94 41.96 42.10 41.83 42.42 42.42 41.79 41.74 41.47 41.32 41.26 40.86 40.80 41.26 41.13
40.14 39.13 34.41 32.84 28.89 26.89 30.30 31.08 35.18 36.99 37.67 37.59 38.19 38.61 39.69 41.03 41.62 41.74 41.93 42.36 42.41 42.36 41.83 41.86 42.11 41.43 41.33 41.53 42.20 42.28 41.57 41.36 41.52 41.62 41.27 41.14 41.33 41.49 41.12 40.61 40.66 40.52 40.54 40.60 40.65 40.26 40.69 40.24 40.59
36.33 34.92 32.74 33.64 31.36 30.13 28.57 32.19 36.12 36.92 36.94 36.82 37.45 38.59 39.47 40.34 40.78 41.21 41.25 41.03 40.86 40.62 40.56 40.13 40.76 40.97 41.34 41.33 41.28 41.13 41.13 41.23 41.19 40.49 40.41 40.50 40.53 40.12 39.59 39.70 39.73 39.52 39.56 40.16 40.00 39.96 39.99 39.48 39.79
37.47 35.43 34.64 32.60 29.38 27.73 28.77 32.34 38.06 37.14 37.08 37.90 37.52 38.53 39.82 40.69 40.89 40.81 40.69 40.60 40.76 40.30 39.78 40.07 40.28 40.58 40.53 40.37 40.32 40.24 40.34 40.39 39.56 39.54 39.66 39.58 38.97 39.63 39.25 39.26 38.97 39.05 39.26 39.79 39.47 39.06 39.65 39.20 38.94

GFSSGP_sfc_wetblb_066.txt.gz
Wetbulb
73.75 72.29 74.51 70.62 61.22 59.87 53.91 54.78 59.20 58.98 59.43 62.51 62.47 60.82 59.48 61.04 56.68 54.85 71.59 72.72 73.25 72.71 73.89 74.56 74.71 75.21 74.24 73.46 73.01 72.25 71.58 69.71 70.34 71.73 72.59 72.38 72.30 72.67 73.05 72.70 73.27 74.16 74.32 74.72 74.79 74.62 74.48 74.61 74.63
72.75 71.63 72.35 66.71 59.14 55.15 53.12 57.01 57.54 60.31 62.08 63.23 62.36 61.37 59.36 57.90 63.65 64.40 66.46 72.15 72.80 72.40 73.53 73.25 74.65 74.85 73.70 73.31 73.03 73.17 72.30 70.01 70.18 69.85 71.39 71.52 71.40 71.28 71.55 70.95 70.88 72.22 72.98 73.35 74.01 73.94 74.24 74.05 73.82
70.44 70.06 65.38 63.25 60.07 56.18 53.06 57.47 60.29 61.59 62.42 61.72 61.40 63.82 61.56 60.81 65.79 65.67 69.80 71.47 71.44 72.37 73.41 74.31 74.80 74.58 73.47 73.15 73.09 72.96 71.89 70.21 70.36 69.93 69.61 70.97 70.71 70.08 69.44 68.83 68.64 69.50 70.72 71.13 72.12 73.38 73.64 73.75 73.95
68.51 66.57 63.68 59.06 55.61 55.97 56.00 59.51 61.45 61.04 60.47 62.41 63.34 60.25 63.53 66.26 66.81 68.35 70.82 71.03 71.11 72.59 73.58 74.51 74.69 74.44 73.15 72.74 73.00 72.53 71.92 70.57 70.14 70.11 69.65 68.84 68.81 68.27 68.03 67.89 67.80 67.81 67.71 67.75 68.35 70.55 72.10 73.22 73.32
69.08 64.21 59.28 56.75 54.27 54.70 56.04 61.63 62.64 58.90 58.44 61.64 62.99 60.37 61.91 64.98 69.40 70.37 71.09 70.95 71.27 72.48 73.19 73.50 74.81 74.13 73.24 72.77 72.69 73.01 72.41 71.51 70.52 70.06 69.90 69.74 69.53 69.39 68.37 68.04 68.93 69.39 69.42 68.36 67.63 68.11 69.63 71.23 72.22
64.86 62.39 56.85 54.22 53.63 53.26 56.27 62.49 61.20 58.26 58.19 60.00 61.46 61.36 62.48 66.06 69.75 71.38 71.36 71.24 72.04 72.25 72.74 73.62 74.54 73.98 73.27 73.10 72.43 72.92 72.68 72.09 71.56 71.05 71.03 71.04 69.96 69.90 70.32 70.21 70.04 70.22 70.40 69.99 69.52 68.68 67.92 69.10 70.58
63.23 60.00 56.17 56.06 53.91 52.16 55.13 62.15 56.29 56.01 56.44 58.08 63.17 59.09 62.66 65.97 71.19 72.48 71.84 72.12 72.19 72.15 73.03 73.93 73.63 73.89 73.42 73.01 72.79 72.92 72.92 72.64 72.82 72.83 72.49 71.82 72.21 72.05 71.84 71.28 71.59 71.86 71.96 71.29 70.68 70.42 70.03 69.29 68.68
64.30 61.37 55.59 55.77 53.04 53.30 55.85 59.03 55.32 54.70 53.89 59.26 61.40 59.13 60.19 66.49 71.18 72.32 73.07 72.71 72.26 72.18 72.48 73.69 73.11 73.26 73.26 73.41 72.38 72.63 71.52 71.45 70.08 69.84 69.44 69.84 70.42 70.38 68.87 71.05 71.03 70.54 70.67 70.62 69.78 69.26 68.65 67.97 68.14
61.36 57.55 55.02 55.28 53.89 54.78 54.61 54.83 54.35 55.39 55.41 58.56 59.76 60.22 63.56 67.26 68.79 70.06 70.52 70.03 70.60 70.59 71.67 73.22 72.59 73.16 73.25 70.87 69.26 67.40 65.40 64.58 64.45 64.10 64.05 65.71 66.52 65.14 63.13 62.39 65.16 66.49 67.31 67.01 67.10 66.96 66.64 67.10 65.89
59.75 57.39 56.53 58.27 57.51 55.44 54.16 54.62 54.55 54.17 54.96 56.94 57.14 58.81 63.75 64.72 67.49 67.98 68.50 68.15 69.20 69.84 71.09 72.73 72.73 72.57 71.78 67.19 60.37 57.20 57.72 58.98 60.20 60.54 60.88 60.66 60.38 59.34 58.91 58.57 59.17 60.22 61.01 61.05 62.17 63.01 63.90 67.15 67.50
59.12 57.22 57.72 55.98 56.44 56.47 54.61 53.80 55.66 54.28 53.81 56.15 56.18 59.07 62.34 64.04 66.81 67.94 68.44 68.43 68.90 69.78 70.06 70.77 70.43 70.16 68.60 63.14 61.49 60.53 59.82 59.01 57.99 57.48 57.46 57.52 57.38 57.45 57.26 57.33 57.27 57.59 58.13 57.79 58.81 59.66 60.32 61.19 62.24
56.04 55.46 55.98 56.06 56.04 54.89 54.13 55.63 53.45 55.01 55.49 55.95 58.25 61.29 62.32 62.83 64.90 66.83 66.87 66.44 66.31 67.06 67.11 66.97 67.30 65.26 62.13 60.33 58.72 57.18 56.00 55.61 55.33 55.46 55.64 55.76 55.33 54.94 54.77 55.11 55.46 55.72 55.89 55.37 55.67 55.86 56.55 57.02 57.39
55.72 55.12 54.70 54.77 54.30 54.97 55.23 53.97 53.97 54.18 55.03 55.70 58.70 60.63 61.22 62.65 64.61 65.80 65.29 64.15 64.44 63.32 62.60 62.14 61.55 59.57 58.46 56.66 55.85 55.10 54.10 53.81 54.62 54.97 54.94 54.45 54.16 53.57 54.02 53.88 54.21 54.28 54.56 54.05 53.84 54.06 54.20 54.76 54.86
54.48 54.97 53.87 53.94 53.75 53.71 53.20 52.43 52.46 54.02 54.81 56.32 57.99 58.71 60.39 61.29 61.92 61.85 61.41 60.59 61.52 60.07 57.98 57.76 57.22 56.87 55.90 55.13 54.73 53.84 53.99 54.19 54.56 54.95 54.17 53.73 53.67 53.05 53.12 52.81 52.82 52.88 53.19 53.05 52.91 52.71 52.93 53.20 53.61
53.19 51.28 52.20 52.97 53.31 52.39 53.38 50.75 51.44 53.62 54.72 55.24 57.30 58.63 58.56 58.99 59.59 59.56 60.26 58.59 57.42 56.47 55.20 54.49 54.72 55.06 54.80 54.40 54.22 54.28 53.77 53.98 53.95 54.04 53.93 53.66 53.92 53.08 52.80 52.41 51.99 51.95 52.35 52.14 52.28 52.18 52.39 52.35 52.53
50.20 51.26 49.18 50.76 51.79 51.09 50.96 52.02 51.32 52.80 53.61 54.01 55.53 57.18 56.91 56.56 56.73 59.17 57.38 56.50 55.58 54.44 54.01 54.01 53.47 54.23 54.30 53.81 53.82 53.31 53.82 54.07 53.92 53.99 54.16 53.20 52.93 53.25 53.19 52.82 52.21 52.15 52.10 51.81 51.34 51.04 51.02 51.12 51.13
48.03 48.76 50.33 50.27 51.18 50.39 49.63 51.63 51.05 52.07 52.38 53.24 54.34 54.96 55.43 55.34 55.11 55.61 54.87 54.59 54.18 54.23 53.84 53.82 54.16 53.15 52.99 53.32 53.53 53.28 53.28 53.89 54.02 54.25 54.39 53.57 53.27 52.79 53.27 52.75 52.45 52.17 51.82 51.38 50.88 50.49 50.33 49.84 50.32
45.32 44.94 47.94 50.26 49.18 49.22 48.71 49.01 51.37 51.14 51.61 52.34 53.26 53.88 53.88 54.13 53.37 53.69 53.44 53.81 53.49 53.77 53.89 53.95 53.54 52.80 53.04 53.53 53.43 53.74 53.57 53.84 54.55 54.54 54.84 53.25 54.17 53.00 53.04 52.80 52.21 51.93 51.31 50.69 50.38 49.54 50.03 49.76 49.78
50.38 47.63 46.90 45.92 47.68 47.70 48.24 48.26 49.99 52.21 51.19 51.34 52.58 52.59 52.38 52.83 54.38 53.43 52.99 53.03 52.84 53.02 53.14 53.27 52.60 52.55 52.87 52.56 52.42 52.81 52.76 53.09 53.27 53.88 52.94 53.03 53.16 52.50 52.15 52.14 51.63 51.54 50.68 50.14 50.11 49.46 48.73 48.63 49.75
46.72 45.47 45.95 45.99 47.50 47.72 48.03 47.74 50.36 50.01 50.07 50.67 51.49 52.40 52.52 52.59 52.38 51.97 51.81 52.20 52.23 52.35 52.83 52.80 52.64 52.79 53.14 53.93 54.07 54.24 53.90 53.97 54.58 54.24 53.17 52.86 51.88 51.44 50.75 50.97 50.65 50.62 49.88 49.85 49.53 49.14 47.88 48.16 49.00
47.68 46.28 45.82 44.09 46.39 47.06 46.13 45.55 46.75 47.88 49.22 49.50 50.38 51.53 52.87 52.53 50.98 51.27 50.95 51.45 52.30 52.17 52.61 52.63 52.73 53.12 53.42 53.68 53.96 53.40 53.32 53.22 52.28 52.45 52.58 52.25 50.76 50.44 50.34 50.36 49.88 49.55 49.46 48.64 48.85 48.71 48.04 46.02 47.89
44.25 46.55 45.84 44.71 44.12 40.96 45.49 38.63 45.36 45.96 47.68 47.65 48.31 49.68 50.72 52.09 52.50 52.03 51.29 51.30 51.78 52.47 53.30 52.85 52.71 52.31 52.73 53.21 52.81 52.76 52.72 52.03 53.46 52.92 52.87 51.37 50.05 49.96 49.87 49.48 49.18 48.93 48.93 48.34 48.42 48.13 47.53 46.96 44.99
45.63 47.62 46.27 44.50 44.11 42.60 42.38 40.57 44.11 46.22 45.64 46.36 47.94 48.44 49.31 50.54 52.04 51.34 51.27 51.87 52.07 52.89 52.58 52.51 52.05 51.65 52.30 52.45 53.09 53.07 52.30 52.52 52.68 51.41 49.57 49.90 50.51 50.37 49.46 48.87 48.57 48.40 48.34 48.07 47.57 47.06 46.70 46.68 45.48
47.65 45.90 44.97 44.60 43.34 38.05 40.63 39.98 41.66 44.01 43.18 45.07 47.65 48.43 48.77 48.92 50.42 51.79 51.58 51.36 51.34 51.82 52.10 52.21 51.39 51.45 52.43 52.71 52.48 52.21 52.03 51.36 50.06 49.52 48.77 49.24 49.44 49.26 48.88 48.69 48.37 48.06 47.56 47.05 46.87 46.74 46.23 45.76 45.59
45.96 44.67 39.56 37.68 37.46 37.07 40.23 38.87 42.71 43.56 43.73 44.54 45.25 47.58 48.53 49.35 49.67 50.04 49.89 49.76 50.44 50.75 51.25 51.13 51.25 51.24 52.10 52.17 51.97 51.10 50.22 48.80 48.09 48.24 48.08 47.53 47.40 47.65 47.69 47.59 46.78 46.52 46.86 46.56 46.36 45.61 45.23 44.99 44.44
44.90 44.50 40.00 33.42 35.70 38.74 39.16 37.46 41.81 43.19 44.74 45.67 46.83 48.09 49.14 49.09 49.62 49.31 49.50 50.40 50.62 50.77 51.27 51.15 50.87 51.28 51.18 50.57 49.44 48.45 47.99 49.36 48.50 47.98 47.39 46.81 46.70 46.69 46.94 46.36 46.19 45.93 45.80 45.58 45.20 44.69 44.56 44.83 44.52
43.10 41.54 43.23 38.57 37.76 37.08 40.90 40.64 43.20 43.78 43.55 44.86 45.62 46.76 46.43 47.22 48.00 48.07 48.51 48.89 49.19 49.66 49.02 49.43 49.81 49.71 48.54 47.77 48.30 48.16 48.27 47.43 47.24 47.22 47.11 46.70 46.50 45.76 45.68 45.55 45.06 44.78 44.62 44.60 44.61 43.96 43.87 44.35 44.44
44.30 44.32 39.73 41.18 34.02 32.69 36.98 37.51 41.15 41.10 41.87 43.34 44.16 44.95 45.59 46.78 47.18 47.61 47.88 48.15 48.41 48.32 48.18 47.72 48.16 47.57 46.90 46.94 48.35 47.51 47.30 46.99 46.86 46.62 45.76 45.43 45.29 45.28 44.61 44.12 43.94 43.92 44.06 44.17 44.14 43.72 44.13 43.74 43.94
41.40 41.57 40.42 40.71 38.96 35.49 34.58 38.05 42.94 43.10 42.60 42.72 43.50 44.64 45.60 46.26 46.80 47.26 47.68 47.87 47.67 47.38 47.22 46.87 46.96 45.96 46.88 47.19 46.95 46.69 46.78 46.40 46.02 45.19 44.90 44.69 44.39 43.84 43.24 43.02 42.95 42.99 43.27 43.88 43.54 43.48 43.61 42.97 42.78
41.94 41.61 42.29 38.40 35.90 38.08 37.20 38.05 42.56 43.13 43.11 43.34 43.21 44.13 45.41 46.14 46.47 46.91 47.11 47.44 47.49 47.13 46.81 46.66 46.67 46.40 46.45 45.88 45.72 45.86 45.65 45.46 44.71 44.34 44.04 43.84 43.09 43.37 42.74 42.54 42.42 42.78 43.08 43.51 43.10 42.71 42.81 41.69 40.55

GFSSGP_sfc_wetblb_069.txt.gz
Wetbulb
74.88 74.37 75.31 73.23 62.41 59.77 54.66 55.69 60.05 58.73 59.47 62.45 62.56 60.37 58.67 60.54 57.87 56.69 70.24 71.42 71.38 71.51 72.87 74.76 75.24 74.68 73.85 73.17 72.45 72.39 70.27 70.34 70.80 72.00 72.21 72.18 71.96 72.43 71.86 71.66 73.07 73.86 74.03 74.55 74.58 74.56 74.38 74.45 74.34
73.15 72.47 73.68 69.22 58.43 54.10 54.10 58.05 57.70 60.05 62.06 63.01 61.97 61.33 59.29 58.04 62.26 64.95 66.78 70.56 71.06 71.49 72.21 73.23 74.67 74.01 73.47 73.22 73.33 72.62 70.45 70.53 70.04 70.39 71.45 71.40 70.62 70.15 69.61 69.60 69.96 71.99 72.20 72.73 73.66 74.03 74.09 74.18 73.84
71.89 71.89 67.62 63.47 59.48 53.86 54.57 58.08 60.03 61.48 62.51 61.79 61.44 63.31 61.34 60.69 65.03 65.53 68.82 69.80 70.20 71.39 72.34 74.20 74.60 73.92 73.29 72.98 73.09 72.14 70.56 70.51 70.43 69.57 69.95 70.19 69.41 68.67 68.43 68.29 68.48 68.57 68.75 69.46 71.06 72.64 73.61 73.64 73.65
69.43 69.09 65.94 59.40 56.31 58.47 58.09 59.82 61.05 60.62 61.24 62.58 62.08 60.02 63.92 68.08 66.01 67.14 68.74 69.55 70.43 71.50 73.16 74.49 74.92 73.76 73.15 73.20 72.67 72.40 71.79 70.91 70.62 70.57 69.83 69.25 68.75 68.09 67.98 69.24 69.96 69.65 68.54 67.95 68.39 69.99 71.34 72.78 73.11
68.81 67.01 60.21 57.90 57.08 58.58 59.63 61.26 61.59 58.83 59.05 60.49 61.36 60.13 61.75 65.99 68.83 68.98 69.30 70.27 70.56 71.47 72.38 72.98 74.97 73.83 73.10 72.72 73.15 72.75 72.03 71.41 70.90 70.72 70.45 70.07 70.55 69.97 69.68 69.94 70.36 70.65 70.39 69.82 69.08 68.14 68.97 70.77 71.60
64.82 64.64 57.45 54.72 56.45 57.91 59.41 61.50 60.70 58.28 58.53 60.60 60.21 60.65 62.36 68.05 68.42 69.86 70.21 70.77 71.63 71.72 72.58 72.91 74.55 73.84 73.28 72.70 73.22 73.22 72.92 72.68 72.05 71.81 72.49 71.88 70.55 71.11 71.61 71.44 71.44 71.70 71.45 71.09 70.75 70.35 69.00 68.72 69.41
63.28 61.29 56.66 56.76 56.48 55.93 57.50 62.04 59.01 57.03 57.52 58.18 61.96 59.06 63.61 66.51 69.61 70.81 70.54 71.25 71.80 72.15 72.07 71.73 72.63 73.34 73.83 73.20 73.03 73.32 73.10 73.06 72.95 72.62 71.96 72.17 72.16 72.17 72.03 72.02 71.45 71.62 71.98 71.45 70.54 69.91 69.43 69.65 68.94
65.20 62.49 57.56 57.49 55.66 55.60 58.42 60.75 58.79 56.54 55.89 62.49 62.92 59.41 60.48 66.67 70.93 71.20 70.75 70.82 71.21 71.49 71.73 71.48 73.14 71.79 73.01 72.99 72.81 72.28 71.31 69.89 69.87 69.63 69.70 70.45 69.57 68.20 67.78 68.84 68.55 69.34 68.87 68.80 68.29 68.05 68.01 68.18 66.50
64.40 58.26 55.61 56.71 56.35 57.09 58.98 58.59 57.35 57.55 56.70 58.07 61.58 61.60 65.70 69.32 71.12 70.31 69.75 69.94 70.18 70.24 70.62 72.22 71.95 71.89 72.76 71.10 69.24 67.32 66.40 65.57 65.48 65.86 65.87 67.57 66.08 65.07 63.10 61.36 62.35 63.01 63.29 63.31 64.00 64.76 65.71 67.52 68.20
59.96 57.77 57.80 60.20 59.84 58.21 57.39 58.26 56.44 54.88 55.40 57.37 59.03 61.53 66.06 68.50 68.98 68.35 68.04 68.03 68.29 68.87 69.91 71.13 71.38 71.78 71.22 68.46 64.47 60.84 61.31 62.42 62.66 62.62 62.59 62.09 60.96 59.12 60.11 60.87 60.96 60.36 60.71 61.22 62.36 62.84 66.00 66.81 64.15
60.21 57.72 60.46 59.30 59.93 59.67 57.08 56.14 57.39 55.32 55.65 57.94 58.30 59.64 63.66 65.82 67.36 67.45 67.53 67.87 68.06 68.89 70.17 70.96 71.37 71.03 69.34 65.14 63.83 64.03 63.32 61.71 59.62 58.34 58.42 57.70 57.15 56.92 56.78 56.96 57.00 57.23 60.71 56.11 57.74 57.53 56.92 57.36 58.58
57.07 60.46 59.80 58.72 57.48 57.79 56.18 57.36 55.48 56.53 58.20 58.51 59.23 60.76 62.93 64.48 66.04 66.75 66.64 67.26 68.27 69.22 69.44 70.05 70.42 69.77 66.31 64.21 63.02 60.91 58.21 56.77 55.85 55.73 55.36 55.55 55.12 54.77 54.72 54.90 55.64 55.96 55.36 54.76 55.05 54.74 55.18 55.43 55.25
56.84 58.28 57.31 57.95 56.84 57.20 57.60 56.20 56.23 56.31 58.36 57.72 58.58 60.79 61.96 63.11 65.01 66.82 67.30 67.31 67.81 67.62 67.32 67.35 66.70 64.84 63.41 60.54 58.47 56.40 55.13 54.87 55.33 55.24 54.84 55.23 55.25 54.31 54.68 54.19 54.24 54.21 54.37 53.55 53.38 53.51 53.27 53.43 53.74
57.00 57.14 55.85 55.72 55.71 56.04 55.52 55.39 54.57 57.73 58.17 56.84 58.11 59.66 61.21 62.21 64.26 65.87 66.34 65.70 66.13 65.17 64.07 64.63 63.24 60.99 58.88 56.77 55.72 54.77 54.71 55.25 55.85 55.54 54.86 54.54 54.56 53.92 54.21 53.69 53.54 53.26 53.33 52.97 52.76 52.35 52.41 52.45 52.87
55.66 53.33 54.21 54.75 55.22 54.69 55.95 53.20 53.36 57.70 56.65 56.19 57.35 58.74 60.12 61.69 63.81 63.85 64.92 64.18 64.87 62.70 60.41 58.82 57.67 56.90 55.86 55.21 54.94 55.05 54.91 55.00 55.15 55.08 54.66 54.60 55.07 54.37 54.13 53.97 53.50 53.15 53.31 52.59 52.55 52.01 52.41 52.30 52.45
53.20 54.47 50.35 53.28 53.14 53.51 52.69 52.78 55.76 55.83 54.77 55.02 56.78 58.11 59.06 59.90 61.57 62.69 63.72 62.82 61.47 58.51 56.63 55.98 55.26 55.44 55.27 54.80 54.43 54.10 54.72 54.96 54.87 54.96 55.01 54.31 54.19 54.65 54.40 54.02 53.49 53.53 53.49 53.17 52.29 51.58 51.29 51.32 51.27
51.82 50.52 51.23 52.71 53.88 53.29 50.99 52.34 52.63 54.14 53.86 54.34 55.45 56.57 57.99 58.16 59.41 60.79 61.17 60.31 58.33 56.47 55.41 54.72 55.09 54.60 54.21 53.66 53.77 53.95 54.27 54.55 54.66 54.84 54.78 54.29 53.69 53.56 54.02 53.70 53.50 53.41 53.18 52.73 52.06 51.48 50.96 50.27 50.81
50.22 50.25 52.30 51.40 54.55 51.18 50.95 51.10 54.28 53.20 53.06 53.22 54.18 55.20 55.97 56.71 57.20 59.23 58.14 57.98 56.29 55.48 55.05 54.89 54.63 53.64 53.42 53.89 53.65 54.02 54.15 54.43 54.77 54.49 54.62 53.34 53.90 53.26 53.63 53.57 53.32 52.97 52.66 52.32 51.93 50.87 51.05 50.48 50.36
53.55 52.59 51.07 51.68 48.68 47.92 49.52 51.26 52.34 53.38 53.33 52.62 53.28 53.76 54.43 55.13 57.29 57.34 56.55 56.16 54.87 54.60 54.24 54.27 53.58 53.36 53.47 53.35 53.04 53.24 53.13 53.73 53.91 54.36 53.39 53.20 53.29 52.76 52.91 52.95 52.64 52.65 51.69 51.31 51.52 50.69 49.68 49.85 50.43
52.37 51.16 50.89 51.22 48.43 47.73 50.32 50.00 51.52 52.15 52.15 52.36 52.58 53.47 54.19 54.72 55.51 55.52 55.09 54.74 53.96 53.76 54.13 54.12 53.69 53.56 53.65 54.31 54.52 54.64 54.29 54.61 54.63 55.36 54.07 53.73 53.02 52.44 52.01 51.85 51.69 51.60 51.34 50.77 50.63 51.04 49.03 48.99 49.99
50.93 50.00 49.19 47.77 48.41 48.78 46.77 45.32 48.55 50.12 51.04 51.08 51.79 53.04 53.80 54.70 54.16 54.45 53.92 53.86 54.23 53.64 53.87 53.86 53.77 53.75 53.97 54.75 55.04 54.90 54.54 54.69 53.52 53.36 53.45 53.72 52.97 51.96 51.55 51.45 51.03 50.57 50.71 50.14 50.54 50.48 50.20 46.93 48.26
49.43 51.76 48.82 47.51 44.51 40.83 47.22 39.57 46.49 48.30 48.95 49.25 50.50 51.59 52.55 53.87 55.06 54.47 53.75 53.46 53.55 53.98 54.61 54.20 54.09 53.76 54.13 54.81 54.09 53.70 52.91 52.41 54.21 54.34 54.25 53.38 52.71 51.49 51.35 51.04 50.66 50.05 49.91 49.45 50.02 49.35 48.55 48.22 45.51
49.50 49.54 48.05 47.40 45.56 44.53 44.22 41.34 44.37 47.55 46.95 47.41 49.44 50.68 51.59 52.89 54.53 53.91 53.47 53.73 53.92 54.46 54.20 54.27 53.92 53.59 54.00 53.55 54.34 54.31 53.56 54.00 54.35 53.68 52.52 52.08 51.95 51.93 51.57 50.84 50.11 49.58 49.54 49.05 48.23 47.62 47.03 47.67 46.21
50.21 48.14 47.59 47.09 45.37 39.10 43.17 42.39 43.03 45.01 44.89 46.16 49.05 50.01 50.73 51.13 53.11 54.12 53.82 54.02 53.65 54.56 54.62 54.44 53.57 53.14 53.74 53.91 53.70 53.76 53.45 53.21 52.85 52.33 51.07 50.97 51.38 51.17 50.74 50.50 50.03 49.48 48.69 47.83 48.00 47.68 46.82 46.27 46.02
48.17 46.05 40.48 39.37 39.04 38.24 43.27 41.24 44.02 45.39 45.79 46.95 48.04 49.05 50.14 51.20 51.77 52.20 51.59 51.70 52.18 52.63 53.25 53.50 53.47 52.75 53.21 53.20 53.33 53.44 53.35 52.76 51.40 50.49 49.99 49.57 49.18 49.33 49.57 49.48 48.38 48.07 48.64 48.31 48.05 47.24 46.52 45.74 45.23
45.99 45.96 40.80 34.70 36.81 40.32 42.88 39.25 43.18 45.69 47.45 48.72 49.56 49.91 50.44 50.47 51.19 51.65 52.08 52.46 52.61 52.62 53.07 53.13 52.47 52.01 52.90 53.09 52.72 52.72 51.43 50.67 50.21 49.92 49.38 48.69 48.49 48.54 49.03 47.97 47.33 46.72 46.52 46.81 46.47 46.00 45.83 45.65 45.25
45.37 41.85 46.12 41.91 42.34 38.70 41.36 43.35 44.51 45.70 45.99 47.59 48.09 48.52 48.37 49.26 49.82 49.99 50.43 50.93 51.30 51.54 51.69 51.69 51.74 51.96 52.03 51.39 50.91 50.13 49.73 49.43 49.09 49.02 49.04 48.63 48.48 47.81 47.32 46.75 45.99 45.66 45.30 45.14 45.45 45.24 44.49 44.93 44.84
46.17 46.94 41.02 42.19 35.18 34.91 39.83 39.98 41.34 42.44 43.63 45.48 46.02 46.56 47.38 48.48 48.76 49.11 49.35 49.61 49.93 50.09 50.22 50.21 50.09 49.65 49.37 49.09 49.29 49.01 49.09 49.01 48.82 48.61 47.75 47.49 47.07 46.81 46.02 45.57 44.87 44.91 44.23 44.27 44.63 44.61 44.82 44.39 44.85
43.56 43.13 43.26 43.14 41.62 36.62 35.79 39.42 45.78 45.00 45.17 44.99 45.87 46.87 47.38 47.74 47.92 48.34 48.79 49.40 49.58 49.51 49.05 48.67 48.73 48.00 48.26 48.48 48.75 48.46 48.33 48.28 48.06 47.46 47.16 46.76 46.30 45.26 44.47 44.18 44.18 43.58 43.40 43.39 43.61 43.60 44.09 43.86 43.82
44.87 44.55 44.79 39.92 38.49 40.00 39.10 38.95 45.44 46.40 45.80 46.24 45.87 46.58 47.42 47.84 47.97 48.20 48.41 48.79 48.88 48.97 49.07 48.36 48.27 47.88 48.09 48.04 47.36 47.27 47.64 47.61 46.98 46.65 46.36 45.66 44.31 44.41 43.64 43.24 42.69 42.45 42.95 43.20 43.06 42.83 43.39 42.91 41.74

GFSSGP_sfc_wetblb_072.txt.gz
Wetbulb
73.51 74.01 72.96 73.39 62.36 59.30 53.31 54.73 58.78 57.60 58.17 60.54 60.02 57.84 55.90 56.95 57.15 55.58 67.78 68.93 69.99 71.15 73.20 74.22 75.00 74.11 73.35 72.92 72.74 70.64 70.59 70.35 71.46 71.78 71.83 71.15 70.96 70.76 70.44 71.14 72.89 73.33 73.52 74.20 74.49 74.50 74.40 74.27 74.28
71.13 72.10 73.30 69.07 58.07 51.99 52.57 56.55 56.86 58.60 60.14 60.41 60.93 59.73 57.61 55.75 62.24 63.81 65.45 68.88 69.78 70.62 72.43 73.23 74.58 73.77 73.56 73.45 72.83 70.86 70.81 70.27 70.17 71.14 70.78 70.16 69.50 69.05 68.84 69.27 69.98 70.24 70.92 71.94 73.25 74.04 74.05 73.91 73.80
70.09 71.69 67.28 63.15 58.82 51.74 52.05 57.60 57.92 59.70 60.73 61.00 59.82 60.79 59.69 59.57 63.32 63.96 66.75 68.32 69.18 71.84 72.57 73.61 74.25 73.58 73.17 73.28 72.36 71.28 71.04 70.93 70.29 69.68 69.57 69.13 68.61 68.47 69.07 69.40 69.14 68.57 68.58 69.17 70.38 71.94 73.01 73.54 73.74
69.09 69.06 65.95 57.97 55.39 54.95 57.15 58.08 59.48 59.22 60.51 61.27 60.84 57.53 62.69 65.09 63.33 64.46 66.91 67.69 68.39 70.88 72.02 74.75 74.25 73.75 73.35 72.88 72.67 72.23 71.43 71.14 71.02 70.69 70.58 70.86 69.32 69.43 70.52 70.89 71.07 70.42 69.83 69.06 68.26 68.86 70.83 71.87 71.89
67.60 65.84 59.53 56.50 56.32 58.34 59.10 60.02 60.08 57.94 58.52 59.31 59.97 57.57 59.67 64.77 65.62 65.88 66.31 68.55 67.98 69.93 71.53 73.70 74.20 73.45 73.26 73.36 72.90 72.21 71.83 71.54 71.54 71.30 70.90 71.02 71.31 71.51 71.62 71.56 71.68 71.77 71.47 71.24 70.85 69.19 68.85 69.36 70.55
62.82 64.44 55.85 53.54 54.45 58.83 58.90 59.57 59.27 56.98 57.58 58.65 58.39 59.54 59.74 65.12 65.41 66.07 67.54 67.55 69.12 69.22 71.33 72.84 74.33 73.84 73.35 73.66 73.53 73.53 73.35 72.86 72.59 72.86 72.73 71.91 72.00 72.35 72.19 72.47 72.52 72.46 72.21 71.46 71.00 70.56 70.17 69.73 68.70
61.30 60.01 56.03 54.97 54.44 56.19 58.57 60.26 57.29 56.75 55.61 57.08 59.67 58.18 61.08 63.70 66.79 67.24 67.33 68.01 68.85 70.04 70.55 70.96 71.65 72.95 74.42 73.48 73.71 73.41 72.97 72.96 72.65 72.04 72.35 72.47 71.67 71.47 71.38 70.95 70.81 70.27 70.40 69.82 69.18 68.96 69.05 68.74 68.43
63.85 61.78 56.94 56.66 53.10 54.58 58.60 60.02 58.70 57.07 56.42 61.16 60.72 56.87 57.37 64.01 67.47 67.80 67.50 67.64 68.19 69.00 70.42 70.83 70.87 71.59 71.17 71.75 72.87 72.07 71.21 71.34 70.83 70.69 71.17 70.03 68.04 66.67 66.16 65.30 65.94 65.86 65.80 65.33 65.43 65.73 66.94 67.71 68.21
65.92 56.87 53.62 55.26 56.24 56.43 58.81 57.54 58.94 57.06 55.73 57.02 58.55 61.84 63.66 67.52 68.27 66.93 65.76 66.14 67.35 68.28 70.24 70.08 69.92 70.69 70.52 69.77 69.30 69.25 68.87 67.49 67.56 67.12 68.34 69.11 59.68 59.70 58.37 61.08 62.01 62.02 62.23 61.93 62.43 63.70 66.11 67.86 69.28
58.91 55.57 56.30 59.78 58.79 57.71 58.25 58.18 55.04 53.67 53.33 54.76 57.55 61.23 66.25 67.22 66.67 65.27 64.41 63.74 64.96 66.20 69.09 69.41 69.68 70.09 69.46 67.74 62.83 59.18 59.90 59.12 59.07 58.81 57.57 57.08 55.49 54.64 57.64 60.45 63.89 63.13 62.91 64.61 64.52 64.96 64.18 60.63 55.13
59.79 54.81 59.57 60.35 60.85 60.79 57.35 57.75 56.71 53.72 52.84 55.52 55.98 57.86 62.75 64.59 64.79 64.79 64.45 64.51 64.09 66.09 68.30 69.31 69.60 69.43 65.75 62.10 59.02 58.52 58.78 56.25 52.94 52.14 52.55 51.92 52.53 51.59 51.68 51.50 52.05 51.52 57.64 51.54 53.16 51.88 51.81 50.79 50.90
55.95 59.10 60.05 61.24 58.82 58.99 56.38 57.45 54.65 54.86 56.19 56.64 57.55 59.46 61.42 61.71 63.27 63.91 63.60 64.64 65.99 66.82 66.18 68.71 69.07 67.66 63.05 60.79 58.77 55.99 52.49 51.46 50.45 50.40 51.00 50.12 50.07 49.63 49.39 49.75 50.23 49.82 49.79 48.39 48.97 49.12 48.84 48.92 49.27
56.70 58.13 59.00 58.62 57.98 57.78 57.89 55.55 55.86 54.66 56.89 56.12 57.94 59.99 59.39 60.46 62.18 63.59 64.47 65.36 66.18 65.41 65.65 66.12 64.70 61.51 60.05 56.41 53.25 51.26 50.21 50.08 50.66 50.13 50.26 50.28 49.93 48.53 49.05 48.33 48.73 48.43 48.59 47.81 47.65 47.42 47.67 47.43 48.28
56.85 58.38 57.53 56.49 57.37 56.88 56.20 55.50 54.81 56.25 57.09 55.57 55.60 56.69 58.43 59.25 60.95 62.20 62.53 62.84 63.76 63.96 63.26 62.15 61.85 58.64 55.48 52.19 50.58 49.62 50.26 51.02 50.94 50.17 49.48 50.40 49.50 48.47 48.97 48.46 48.55 48.04 47.94 47.45 47.11 46.17 46.65 47.03 47.51
56.56 54.06 54.65 55.18 55.87 54.19 54.73 53.05 51.89 56.54 55.91 54.37 54.24 54.94 56.91 58.53 60.67 61.16 62.76 62.08 62.58 61.64 61.25 60.01 56.04 54.43 51.27 50.26 50.49 50.41 50.48 51.71 50.25 49.95 49.82 50.20 50.62 49.30 49.32 48.75 48.07 47.83 48.34 48.43 47.87 47.19 47.55 46.94 48.02
53.26 54.30 48.70 53.20 54.09 53.35 52.70 49.66 53.55 55.15 53.35 52.70 53.74 53.68 55.61 57.52 59.52 60.24 62.03 61.60 61.35 57.55 55.23 53.23 54.15 51.67 50.66 50.05 49.79 49.78 50.42 50.35 50.04 49.81 49.52 50.01 50.42 49.99 49.28 48.87 48.04 48.12 48.54 48.27 47.31 46.71 46.16 45.69 45.34
51.32 46.60 49.24 50.28 55.47 53.15 50.77 49.13 52.25 53.19 52.98 52.04 51.56 52.52 55.26 55.27 57.07 58.10 60.71 59.34 56.78 54.37 51.65 50.81 50.85 51.08 50.78 49.25 49.16 49.37 49.51 49.43 49.49 49.62 49.73 49.88 50.16 50.20 49.19 48.67 48.19 48.55 48.35 47.86 47.48 46.57 45.50 44.42 44.54
47.37 47.25 49.89 50.05 54.21 53.59 50.34 47.94 52.16 55.16 51.62 50.80 49.92 50.80 52.47 54.37 55.25 56.26 58.05 56.45 53.97 52.21 51.16 50.82 50.65 49.82 49.00 48.71 48.32 48.59 48.59 48.73 49.34 49.22 49.63 49.71 49.69 49.53 48.56 48.76 48.21 48.11 47.23 47.09 46.32 44.70 45.17 44.54 44.40
52.73 50.76 49.46 49.44 51.47 51.69 50.49 49.96 52.19 54.35 51.05 50.47 49.23 49.68 50.06 53.04 55.34 55.82 54.91 53.69 51.66 50.75 50.14 49.84 49.45 48.24 48.48 47.49 47.56 47.31 47.30 48.15 48.41 49.36 49.25 48.93 48.76 48.99 47.44 47.55 47.07 47.09 45.97 45.21 45.93 44.89 43.86 43.22 44.16
52.60 50.62 49.63 50.15 48.82 48.13 48.84 49.07 52.51 53.61 50.98 49.81 49.34 48.75 49.87 50.05 52.67 52.71 52.79 51.61 50.23 49.66 49.67 49.51 49.31 48.75 49.20 48.98 48.92 49.00 48.49 49.19 49.39 50.32 49.26 49.28 48.80 48.54 47.94 46.26 46.26 46.04 44.94 44.73 44.70 44.17 43.05 42.76 43.38
51.42 48.93 49.30 47.94 47.79 49.93 47.90 43.70 46.73 48.98 49.71 50.27 49.43 49.67 50.20 50.27 50.67 51.42 50.59 50.12 49.85 48.99 49.25 49.34 49.04 49.16 49.46 49.85 49.71 49.38 49.47 48.96 48.28 48.22 48.59 49.53 49.32 48.27 47.09 46.30 45.19 44.61 44.30 43.64 43.80 43.59 42.80 40.67 41.50
47.25 52.18 51.46 49.65 45.06 40.94 45.29 35.53 43.20 45.89 46.78 47.48 47.81 48.44 49.12 50.06 51.24 51.90 50.72 49.56 49.32 49.60 50.06 50.07 49.88 49.31 49.91 50.24 49.08 48.21 47.59 46.42 48.34 48.76 49.33 49.09 48.63 47.64 47.18 46.57 45.69 44.50 44.03 43.25 43.02 44.83 41.49 40.37 38.67
48.40 50.75 49.34 49.16 44.30 41.67 41.64 36.86 40.11 44.96 44.43 44.44 46.33 47.67 47.72 49.63 50.81 50.52 49.97 50.25 50.33 50.40 49.88 49.91 49.50 49.20 49.35 49.16 49.38 48.69 48.04 48.66 49.25 48.32 47.35 47.05 47.23 47.39 47.21 46.44 45.17 44.24 43.79 43.20 42.41 41.80 40.97 40.36 38.90
49.99 47.65 46.80 45.76 42.09 34.40 40.62 39.09 37.86 40.15 41.13 43.56 45.70 46.37 47.33 47.66 49.01 50.22 50.43 50.59 50.08 50.72 50.72 50.11 49.28 49.01 49.18 48.97 48.58 48.41 47.65 47.70 47.22 47.43 45.97 45.92 45.86 45.92 46.10 46.31 44.63 44.08 43.19 42.46 42.05 41.47 40.74 40.12 39.60
47.93 43.27 36.44 34.44 33.42 33.54 41.37 38.50 37.93 41.59 43.65 44.82 44.78 44.90 46.26 47.00 48.27 48.12 48.16 48.13 48.85 49.00 49.32 50.09 49.52 48.84 48.78 48.07 48.30 48.07 48.23 47.53 46.05 45.35 44.24 43.77 43.44 43.52 44.05 44.21 43.25 42.30 42.29 42.41 41.95 40.90 40.22 39.73 38.81
44.33 43.07 36.77 30.96 32.48 35.41 41.66 34.92 36.30 43.50 45.59 46.31 46.67 46.10 46.50 46.74 47.54 47.73 47.81 47.53 47.32 48.54 48.77 49.20 48.53 47.97 48.52 48.01 47.63 47.58 46.94 45.54 44.84 44.03 43.60 42.91 42.68 43.02 43.89 43.28 42.67 42.08 41.93 41.37 40.67 39.51 39.33 39.21 38.66
44.01 39.41 44.45 38.46 38.21 33.52 37.55 38.06 40.50 43.52 43.99 44.99 44.63 45.11 44.98 45.66 45.85 46.16 46.67 46.74 46.70 46.46 46.56 46.94 47.32 47.51 47.28 46.80 46.39 45.09 44.23 44.13 43.60 43.34 42.90 42.92 43.27 44.82 43.01 42.43 41.68 41.23 40.88 40.48 39.58 38.57 38.32 38.84 38.75
44.86 45.57 38.23 38.17 30.85 29.12 35.99 35.79 35.47 38.85 40.76 43.16 42.59 42.36 43.77 44.97 44.79 44.90 45.03 45.28 45.18 45.30 45.30 45.42 45.58 45.03 45.11 44.71 44.14 44.22 43.62 43.83 43.38 42.71 42.20 42.23 42.21 42.32 41.90 41.17 40.40 40.04 39.89 39.42 38.53 37.73 38.58 38.65 39.30
41.54 40.51 40.84 39.62 37.91 30.97 29.43 32.13 40.67 40.68 41.75 41.51 41.95 43.28 43.83 44.01 43.93 43.88 44.03 44.78 45.24 45.08 44.44 44.13 44.09 43.98 43.74 44.03 43.60 42.79 42.71 42.87 42.47 41.95 42.09 41.90 41.46 40.80 40.10 39.98 39.49 38.96 38.39 38.26 37.59 37.49 38.32 38.67 38.85
43.15 42.13 41.93 34.98 33.68 35.35 32.50 31.56 42.47 42.45 43.06 43.46 42.81 44.39 44.18 44.67 44.53 44.32 44.42 44.25 44.18 44.20 44.25 43.61 43.37 42.90 43.24 43.47 42.42 42.10 42.41 42.28 41.25 41.06 40.96 40.87 39.31 39.51 39.29 38.95 38.52 38.40 38.41 37.89 37.49 37.81 38.97 38.84 38.76

GFSSGP_sfc_wetblb_075.txt.gz
Wetbulb
72.94 70.14 70.23 68.41 57.20 54.07 48.07 51.37 54.02 53.79 54.61 55.34 56.85 55.91 54.46 55.47 57.42 54.14 65.24 70.42 71.85 72.13 73.68 73.68 74.43 73.24 73.11 72.22 70.81 70.57 70.18 71.06 71.56 70.94 70.20 70.02 69.78 69.68 70.71 71.54 71.86 72.38 73.26 74.19 74.10 73.99 74.12 73.89 74.17
70.95 69.66 68.76 64.35 53.56 49.87 47.29 52.29 53.01 54.83 56.52 57.66 58.39 56.72 55.50 55.23 61.51 63.12 62.94 70.16 71.67 72.67 73.36 73.09 73.87 73.62 73.26 72.40 71.12 70.91 70.13 70.16 70.73 70.37 69.55 69.05 68.86 68.97 69.17 69.42 69.57 70.11 70.96 72.01 72.92 73.72 73.78 73.91 74.00
69.85 69.97 62.22 58.82 56.55 49.06 49.28 53.21 54.43 56.58 57.72 57.80 56.65 58.07 57.95 57.11 63.03 63.23 64.84 69.17 71.55 71.58 72.79 72.49 73.74 73.41 73.80 72.28 71.57 71.40 71.14 70.46 69.86 69.97 69.17 68.83 69.54 70.64 70.90 70.56 69.45 68.89 68.76 68.78 69.60 71.53 72.38 72.40 73.31
64.56 64.11 61.44 53.92 53.93 54.99 53.72 53.73 56.41 56.60 57.77 58.80 58.72 56.86 61.06 61.78 61.75 63.77 66.22 70.96 70.66 71.54 72.27 74.02 73.69 73.36 72.89 72.81 72.50 71.89 71.57 71.43 71.02 71.04 71.48 69.86 70.79 71.36 71.56 71.68 71.74 71.32 71.19 70.32 68.96 68.83 69.33 70.92 70.80
62.39 60.66 55.35 52.05 54.76 56.06 55.38 57.36 56.88 55.12 56.06 56.86 57.95 56.05 57.83 61.15 63.57 64.18 65.39 70.42 70.11 71.53 72.54 72.16 73.71 73.54 73.36 72.93 72.44 72.17 71.99 72.16 71.88 71.35 71.48 71.89 72.05 71.87 72.45 72.81 72.62 72.39 71.76 71.45 71.12 70.69 70.00 68.89 68.54
56.43 59.16 51.12 48.65 52.24 55.83 55.96 57.34 57.15 54.71 55.68 56.13 57.85 56.58 57.19 61.49 62.60 63.39 65.83 68.90 70.84 71.51 72.67 71.93 73.61 73.70 74.03 73.56 73.46 73.53 73.24 73.06 72.94 72.72 72.21 72.24 72.39 72.54 72.07 71.86 71.50 71.38 70.85 70.44 70.03 69.89 69.67 69.34 69.20
55.01 54.79 52.16 52.32 51.74 54.53 56.33 57.11 54.33 53.20 54.32 53.69 58.96 55.65 57.93 60.40 63.05 64.75 65.37 68.63 69.00 71.73 71.81 71.34 71.84 73.14 74.39 74.03 73.73 73.23 73.02 72.78 72.71 72.58 72.31 71.49 71.04 70.20 69.66 69.62 68.71 68.30 66.87 66.87 66.33 67.32 67.82 68.06 68.76
59.15 57.16 52.95 52.15 51.62 52.08 56.51 56.64 54.87 53.65 53.91 57.63 59.75 55.07 55.31 60.38 64.17 65.08 65.19 67.42 69.52 69.97 70.64 69.95 70.81 70.86 71.30 71.37 72.83 72.57 72.14 71.94 71.92 71.65 70.00 68.44 66.79 64.87 64.34 63.65 63.98 63.78 63.69 63.75 64.56 66.28 67.14 66.32 69.06
61.17 52.03 49.93 52.04 53.37 54.29 56.53 53.56 54.55 54.40 54.48 55.05 56.86 58.82 60.99 63.65 64.70 63.62 62.66 63.80 67.76 68.71 68.86 69.84 70.04 70.18 69.62 69.20 70.64 70.07 69.84 69.14 69.51 69.82 70.17 62.08 57.65 56.85 57.05 63.89 65.03 62.91 62.91 63.98 64.72 64.46 64.65 62.28 61.02
54.79 50.46 52.27 57.41 56.47 55.74 57.05 53.84 52.33 50.62 50.95 53.04 56.03 62.20 63.98 64.82 63.66 62.36 61.93 63.39 66.08 67.10 68.16 69.20 69.06 68.39 67.78 67.85 63.78 61.51 62.16 59.54 58.60 56.47 58.88 53.34 52.16 53.88 56.83 60.46 61.35 60.94 60.78 60.89 60.93 60.98 59.57 55.16 49.12
55.64 51.25 56.71 58.81 60.37 58.96 56.84 54.08 53.80 50.01 48.28 53.04 54.20 60.46 63.55 62.88 62.78 62.52 62.20 64.19 66.04 66.75 67.86 68.16 68.42 68.10 63.95 61.29 58.38 55.40 54.77 49.97 49.16 48.97 49.39 48.86 49.34 48.70 48.51 48.79 48.73 47.78 54.51 48.07 49.82 48.29 47.71 46.65 46.98
53.06 57.07 58.55 58.01 59.39 57.04 56.18 55.08 51.54 51.35 52.39 54.53 56.20 60.14 61.82 61.70 62.21 62.39 61.74 62.23 65.69 66.29 67.78 68.76 68.23 62.29 60.20 59.09 56.39 53.68 49.12 47.87 47.23 47.81 48.62 47.68 46.87 46.46 46.35 46.48 46.65 46.32 45.89 45.49 45.33 45.32 46.00 46.30 46.93
53.96 55.63 58.35 56.32 56.78 56.80 56.24 53.37 52.45 52.00 53.30 55.03 57.32 59.46 59.71 59.90 61.15 62.10 62.63 65.27 65.47 64.48 65.10 66.49 62.75 59.49 56.79 50.80 48.77 48.20 47.76 47.33 47.43 47.14 48.26 47.64 46.52 45.97 45.85 45.48 45.81 45.52 45.55 44.99 44.76 44.49 45.20 45.24 46.07
55.56 56.27 56.29 55.48 55.41 55.62 53.11 52.95 54.14 53.63 53.41 53.18 56.16 56.59 57.13 58.58 59.75 60.87 62.91 63.53 63.18 61.50 60.34 60.70 59.85 54.43 51.05 48.44 47.60 47.46 47.84 47.76 47.65 46.97 47.47 48.37 46.35 46.10 46.13 45.98 45.83 45.58 45.38 45.44 45.17 44.45 44.94 44.99 45.17
53.75 50.89 52.00 53.11 54.89 52.83 54.65 51.84 50.98 54.12 53.46 52.34 52.07 52.85 55.65 57.25 58.31 59.57 60.71 61.98 61.20 59.47 59.25 57.71 54.19 50.49 48.04 47.75 47.90 47.73 48.72 49.22 47.55 47.23 47.97 48.40 47.85 46.98 46.52 45.76 45.18 44.97 45.83 46.51 45.73 45.76 45.46 45.05 45.98
50.14 49.69 44.64 50.94 52.59 51.95 52.42 47.65 51.23 52.08 52.40 51.49 52.04 50.67 53.45 55.52 57.30 59.45 60.42 60.52 60.05 57.74 53.90 52.36 52.70 49.25 47.86 47.77 47.54 47.87 48.58 48.21 47.11 46.64 46.75 48.20 48.56 47.70 46.81 46.20 45.49 45.80 46.55 46.30 45.12 44.78 44.44 43.88 43.35
46.98 42.04 45.09 46.48 52.80 51.63 50.98 46.50 51.32 55.39 53.14 49.19 49.41 50.06 53.06 54.22 56.74 58.57 59.37 57.93 55.58 51.55 49.69 49.27 48.65 48.68 48.40 47.50 47.55 47.36 47.36 46.87 46.68 46.76 46.82 47.64 48.34 48.55 46.76 46.10 45.76 46.39 46.13 45.68 45.03 44.27 43.11 42.35 42.77
41.31 42.89 45.97 45.87 51.47 51.47 48.27 48.92 52.78 55.32 55.04 52.56 49.96 48.34 50.98 53.23 55.30 56.89 55.68 53.99 51.55 50.10 49.50 49.27 48.29 47.22 46.92 45.90 45.35 45.56 45.84 46.02 46.20 46.64 47.14 47.76 47.75 48.00 46.77 46.46 45.89 45.82 45.04 44.33 43.93 42.90 43.31 42.44 42.23
48.26 45.71 45.43 47.72 53.48 51.15 50.09 49.89 51.00 51.97 50.71 49.75 49.13 47.85 46.19 50.58 53.63 55.39 52.73 51.13 49.58 48.86 48.13 48.17 47.02 45.41 45.74 44.79 44.81 44.67 45.31 45.58 45.88 46.82 47.22 47.31 47.25 47.47 45.91 45.74 45.16 45.10 44.27 43.54 43.67 42.73 42.05 41.48 41.56
49.55 46.70 45.44 46.71 48.53 46.10 47.15 46.73 49.85 51.83 51.32 49.16 48.84 48.30 47.88 45.74 49.89 51.48 50.85 48.84 48.39 47.01 47.59 47.42 47.03 46.01 46.41 46.52 46.01 45.90 45.16 45.96 46.29 47.25 46.95 47.67 47.14 47.06 46.27 45.04 44.71 43.90 43.25 42.54 42.14 41.78 40.64 40.79 40.98
48.66 45.73 44.81 45.39 46.82 46.85 46.02 42.87 45.03 48.26 47.58 48.41 48.14 49.04 48.76 48.70 48.27 47.82 47.69 47.52 46.95 45.91 46.23 47.27 46.94 46.16 47.23 47.68 47.08 46.68 46.83 46.46 46.22 46.13 46.44 47.23 47.54 47.15 46.08 44.89 44.04 43.12 42.17 41.62 41.16 41.02 40.19 38.56 39.35
45.06 50.01 49.21 44.66 41.84 37.13 44.33 33.03 38.44 42.87 43.34 44.40 44.94 45.18 46.33 47.77 47.86 48.86 47.66 46.84 46.56 46.61 47.01 47.11 47.08 46.72 48.00 47.66 47.20 46.22 45.52 44.43 45.31 45.67 46.79 47.17 47.51 46.26 45.95 44.86 43.89 42.94 42.04 41.16 40.83 43.34 39.67 38.03 36.86
46.62 49.49 47.63 45.61 41.26 37.36 37.87 33.56 35.79 40.97 39.45 40.75 42.49 44.78 45.69 46.63 47.45 48.08 47.67 47.53 47.38 47.26 47.12 47.28 46.78 46.51 47.02 46.86 47.07 46.34 45.42 45.78 46.52 46.20 45.73 45.07 45.56 45.94 45.28 44.22 43.39 42.15 41.35 41.10 40.41 39.74 38.91 38.21 37.24
48.70 45.19 43.68 40.87 37.55 30.60 36.56 35.56 33.13 36.65 38.43 39.89 41.41 43.34 45.24 46.19 46.34 46.61 47.15 47.37 47.03 46.93 47.09 46.99 47.05 46.74 46.29 45.98 46.54 46.22 45.36 45.08 44.92 44.80 43.76 43.70 43.39 43.59 44.01 44.32 42.39 41.68 40.94 40.57 40.38 39.63 38.47 38.09 37.35
44.82 39.16 31.54 30.36 28.76 28.67 37.36 34.73 34.30 38.29 40.63 41.47 41.51 42.05 43.92 44.09 43.96 44.78 45.08 45.57 46.48 46.59 47.00 47.95 47.29 46.83 46.77 45.60 45.21 45.23 45.46 44.68 44.49 43.34 41.79 41.23 41.21 41.28 41.82 41.84 41.19 40.42 40.29 40.23 39.63 38.73 38.05 37.73 36.95
41.18 38.37 32.48 28.31 27.77 31.62 38.11 30.97 34.40 40.71 42.46 42.92 43.26 43.09 43.57 43.62 43.65 44.08 44.58 44.27 44.73 45.79 45.62 46.59 46.39 46.13 46.08 45.12 45.08 45.04 44.81 43.93 43.25 42.38 41.37 40.58 40.62 40.86 41.95 41.51 40.89 40.55 40.43 39.95 38.99 37.48 37.33 36.88 36.59
40.72 36.53 41.25 34.44 34.02 29.52 32.84 33.34 37.63 40.82 41.74 41.49 41.44 42.28 42.23 42.67 42.45 42.60 42.96 42.89 42.79 43.08 43.23 44.00 44.59 44.47 43.74 42.53 42.00 41.21 41.29 41.79 41.47 41.29 40.64 40.74 40.84 43.26 41.95 40.95 40.28 40.08 39.65 38.94 38.05 36.74 36.23 36.43 36.17
40.74 42.59 34.54 33.37 26.80 25.14 31.26 29.64 31.46 36.05 38.51 40.22 39.69 39.65 40.98 41.88 41.68 41.73 41.92 42.33 42.41 42.43 42.23 42.76 42.82 42.25 42.09 42.00 41.47 41.53 40.84 40.82 40.32 39.91 39.75 40.01 40.01 40.25 39.89 39.53 38.70 38.20 38.07 37.80 36.65 35.52 35.95 35.61 36.30
37.84 36.93 37.09 36.18 33.90 28.03 25.62 29.02 36.75 37.54 39.86 39.20 39.20 40.48 41.12 41.07 40.98 41.05 41.53 42.03 42.42 42.15 41.86 41.74 41.92 42.08 41.70 42.01 41.01 40.42 40.26 40.42 39.98 39.50 39.35 39.04 38.55 37.95 37.83 37.97 37.55 37.10 36.62 36.34 35.30 34.88 35.27 35.04 35.68
39.08 38.07 37.44 30.96 30.67 31.50 28.27 28.98 38.88 39.89 40.76 41.28 39.73 41.50 41.05 41.56 41.36 41.34 41.03 40.58 40.77 40.75 41.02 40.90 41.08 40.87 41.42 41.44 40.51 39.80 39.64 39.42 38.67 38.33 37.97 37.80 36.93 37.21 37.12 37.06 36.70 36.55 36.79 36.39 35.50 35.29 36.42 35.83 36.89

GFSSGP_sfc_wetblb_078.txt.gz
Wetbulb
71.50 69.27 69.46 67.56 55.33 52.48 46.34 49.30 52.26 52.05 51.84 53.40 55.16 54.76 53.55 55.60 57.37 52.08 65.49 70.14 71.82 72.28 73.11 73.24 73.35 72.88 71.49 70.83 70.35 70.64 71.04 71.20 70.38 69.81 69.46 69.47 69.69 70.21 71.20 71.66 72.09 72.58 72.89 74.05 73.75 73.82 73.89 73.83 73.94
69.53 70.14 68.23 63.13 51.86 48.43 45.94 50.69 51.91 54.00 54.87 54.88 56.30 55.43 55.09 54.56 61.44 64.05 66.41 71.01 72.14 72.55 72.69 71.82 73.26 72.93 71.71 71.06 70.41 70.06 70.61 70.51 69.95 69.23 68.95 68.93 69.23 69.20 69.27 69.40 69.78 70.22 71.02 71.87 72.96 73.18 73.22 73.55 73.59
67.69 69.22 61.08 57.52 55.13 49.60 46.75 51.77 52.77 55.08 56.02 56.61 55.12 57.26 56.04 57.08 62.78 64.50 68.15 71.19 72.11 72.04 72.27 71.57 73.43 73.27 71.87 71.35 71.22 70.63 70.03 69.91 69.99 69.31 69.04 70.52 71.01 71.13 70.72 69.93 69.58 69.00 68.58 68.54 69.18 70.61 71.15 70.83 72.32
63.28 62.70 60.11 53.56 50.78 53.55 53.18 53.16 54.96 55.13 55.91 58.44 58.19 55.89 58.62 61.55 63.03 64.21 70.01 71.51 71.11 71.22 70.60 73.09 73.37 73.13 72.44 72.13 71.87 71.66 71.50 71.09 71.52 71.00 70.05 71.20 71.50 71.53 71.87 72.13 71.61 71.39 71.36 70.78 70.06 69.27 68.75 68.78 68.72
60.98 59.98 54.11 50.94 51.94 54.07 53.52 55.32 55.40 53.97 54.59 55.85 57.67 55.42 55.51 60.18 63.99 68.53 69.70 70.82 70.39 70.72 71.40 71.39 73.33 73.07 72.74 72.44 72.10 71.93 72.04 71.76 71.47 71.80 71.96 71.77 72.05 72.49 72.85 72.18 72.06 71.10 71.29 70.94 70.56 70.24 69.97 69.78 69.69
54.82 57.72 50.02 48.22 51.57 55.70 53.43 56.10 55.57 54.09 54.08 56.64 56.87 55.68 55.63 60.17 63.88 68.61 69.85 70.10 71.45 71.01 71.10 71.33 73.36 73.50 73.08 72.60 72.67 73.04 73.26 72.88 72.63 72.20 72.04 72.24 72.21 72.28 71.70 71.12 70.50 69.68 68.94 68.61 68.86 68.70 68.34 69.04 69.83
54.02 53.42 50.67 50.48 51.33 52.56 55.14 56.14 53.67 53.04 52.84 53.89 58.39 54.32 55.42 57.90 62.16 68.53 68.90 69.97 71.29 71.27 70.32 70.55 71.57 73.52 74.06 73.80 73.42 73.04 72.80 72.76 72.49 72.16 71.87 71.24 70.22 69.67 68.65 67.73 65.90 65.07 64.97 64.94 65.78 65.40 65.13 67.81 67.96
56.92 55.66 51.95 52.16 51.10 51.18 56.74 55.66 56.62 54.68 52.36 56.99 60.10 54.24 53.51 59.25 61.68 66.52 67.97 68.39 70.20 70.47 70.21 69.46 70.51 71.24 71.30 71.51 73.15 72.79 72.37 72.26 71.77 70.45 68.99 67.32 64.72 64.72 64.10 63.58 64.23 63.63 63.90 63.72 63.36 63.20 62.80 62.67 63.07
59.24 50.63 49.05 51.57 52.85 53.83 55.87 52.00 53.20 54.59 54.04 54.50 56.97 58.09 60.00 62.49 62.36 64.41 64.37 66.88 68.43 69.37 69.00 69.67 69.85 70.42 69.72 69.61 70.98 71.02 70.46 70.83 70.85 67.95 66.80 61.19 54.94 55.65 57.43 63.77 63.39 62.33 62.27 62.19 61.83 61.30 60.83 58.70 58.46
53.51 49.02 50.49 55.96 57.13 54.54 55.26 52.91 52.07 51.76 52.06 53.01 56.88 59.13 62.27 62.33 61.50 61.83 63.00 64.68 66.13 66.44 68.15 68.72 69.37 68.37 68.43 69.81 66.44 62.77 62.02 59.81 57.66 62.54 52.33 51.29 52.13 53.60 55.68 58.29 60.35 60.44 59.35 59.85 59.66 59.24 57.57 52.81 46.28
54.05 50.12 54.75 56.68 57.59 58.85 55.24 52.28 52.73 50.27 48.24 52.88 56.99 58.57 61.34 61.12 60.98 61.17 62.43 64.84 65.54 66.49 68.13 68.57 68.17 67.42 65.63 64.08 58.83 55.10 49.75 47.96 47.90 49.19 47.99 47.99 48.74 47.23 46.76 46.25 45.78 45.76 52.64 45.83 47.53 46.29 46.06 45.29 45.56
52.33 56.19 57.41 57.63 56.94 56.01 54.94 55.25 50.18 50.26 50.42 54.10 60.10 61.35 61.46 61.04 61.12 60.88 60.42 64.15 65.20 66.26 67.47 68.21 67.42 63.53 60.01 58.67 54.91 53.52 47.01 46.39 45.99 46.53 46.90 45.67 44.75 44.42 44.34 44.90 44.92 44.79 44.22 43.79 43.66 43.93 44.59 44.96 45.34
52.31 55.02 57.46 57.31 55.65 54.40 54.95 52.52 51.61 51.47 52.60 54.34 60.19 61.82 61.46 61.71 61.00 61.44 61.25 64.37 65.69 65.55 66.75 67.30 64.13 58.96 57.26 53.41 49.16 47.61 47.14 45.82 45.79 46.08 46.70 45.72 45.17 44.38 45.00 44.50 44.65 43.95 44.24 43.79 43.46 43.62 43.84 43.87 44.56
54.77 55.57 56.39 54.62 54.26 55.03 52.05 53.27 54.44 52.17 52.96 54.45 59.01 59.21 59.58 60.46 60.96 60.00 62.14 63.92 63.73 65.33 65.63 63.85 60.48 54.11 49.22 47.24 46.59 46.34 46.34 45.74 45.76 45.51 46.08 46.48 45.77 45.25 45.22 44.50 44.44 44.18 44.10 43.75 43.69 43.49 43.32 43.11 43.31
53.30 50.71 50.58 51.54 52.67 52.25 54.76 49.57 49.85 51.55 52.02 53.37 54.42 55.22 57.26 58.47 59.54 59.36 62.42 61.68 61.16 62.86 60.08 59.21 53.57 49.33 46.97 46.68 47.08 46.92 47.04 46.98 45.82 46.25 47.14 47.13 46.65 45.51 44.65 44.16 43.97 43.55 44.52 44.75 44.41 44.26 43.86 43.75 44.65
49.66 48.56 43.75 49.68 50.76 50.86 53.14 46.11 52.25 55.22 52.18 49.98 50.95 52.20 54.24 55.79 57.22 58.37 62.46 60.58 59.52 58.93 57.76 55.31 52.75 48.25 47.07 46.84 46.75 47.09 47.25 46.52 45.88 45.58 46.12 47.24 47.37 46.44 45.10 44.80 44.08 44.39 45.07 44.75 43.88 43.33 42.93 42.64 42.19
46.59 40.75 43.02 45.38 51.19 50.87 50.28 46.56 51.23 55.03 53.28 50.20 48.72 48.81 51.74 53.73 56.03 57.96 60.93 59.87 58.80 55.20 50.53 48.53 48.10 47.62 47.10 46.10 46.04 46.36 46.36 45.71 45.09 44.90 45.65 46.59 47.89 47.38 45.37 44.73 44.62 45.21 44.68 44.07 43.55 43.14 42.39 41.85 42.05
40.08 41.98 43.98 42.66 48.56 49.44 47.06 46.83 51.76 54.77 55.77 54.62 52.51 49.71 50.14 53.75 56.42 57.62 59.34 57.71 53.94 50.22 48.70 47.77 47.20 46.25 45.61 44.82 44.35 44.53 45.24 45.02 44.98 45.10 45.65 46.76 46.91 47.21 45.76 45.22 44.88 44.34 43.74 43.15 42.50 42.07 42.15 41.55 41.30
46.29 44.77 44.09 46.24 51.24 48.72 46.10 48.22 51.05 53.26 52.41 51.86 50.86 47.29 47.09 50.85 52.92 55.17 56.14 51.50 49.35 48.23 48.23 47.13 46.32 45.10 45.60 44.01 43.64 43.23 43.80 43.97 44.38 45.48 47.02 46.38 46.20 46.39 45.13 44.87 44.20 43.93 43.29 42.41 42.45 41.80 41.17 40.89 40.36
47.56 44.24 42.99 44.47 51.74 48.36 48.35 48.55 51.79 52.28 51.04 51.17 48.65 47.29 45.73 46.01 51.13 50.24 51.82 47.91 49.42 47.77 47.76 45.89 46.42 44.96 44.89 45.17 44.24 44.29 43.61 43.90 44.57 45.47 45.22 46.10 45.91 45.90 45.25 44.22 44.06 43.17 42.69 41.52 41.22 40.62 39.56 39.75 39.38
46.93 44.60 43.30 43.03 45.98 45.27 43.96 41.97 44.30 48.00 47.44 47.38 47.76 46.87 46.76 45.98 49.07 47.26 47.64 47.91 45.96 45.92 46.02 45.73 45.17 45.06 45.12 45.43 45.35 45.30 45.46 45.08 44.85 44.93 44.78 45.38 45.80 45.65 45.28 43.98 43.35 42.50 41.48 41.26 40.29 39.98 39.18 37.78 38.07
44.39 49.07 48.18 45.91 42.52 38.92 43.81 34.80 36.74 41.01 42.06 44.11 43.68 43.47 44.35 44.57 47.76 47.42 46.21 45.08 46.03 46.09 46.76 46.64 45.87 45.54 46.11 45.74 45.81 45.23 44.62 43.61 44.04 44.42 45.13 45.83 45.85 45.39 45.20 44.15 42.81 41.62 40.89 40.23 39.70 41.59 38.73 37.28 35.99
46.32 48.87 47.71 46.22 41.04 36.96 37.02 33.51 35.53 38.65 38.04 40.17 40.47 41.77 42.30 43.56 46.12 46.76 45.29 45.58 45.42 45.14 45.10 45.31 44.93 44.79 45.54 45.01 45.96 45.12 43.83 44.22 44.81 45.17 44.80 44.18 44.30 44.01 44.06 42.80 41.76 41.08 40.26 39.70 39.56 38.71 37.64 37.09 36.40
48.54 43.88 42.64 40.98 37.16 31.46 36.29 35.30 33.34 35.89 37.74 38.48 39.50 41.29 42.57 43.55 43.94 45.85 45.24 45.20 44.92 44.51 44.60 44.65 44.56 44.76 45.10 45.00 44.69 44.70 44.28 44.39 44.17 43.29 43.19 42.57 42.35 42.30 42.42 42.97 41.38 40.82 40.05 39.52 39.32 38.40 37.30 36.93 35.94
44.62 40.95 32.38 30.25 28.65 29.11 35.40 33.60 36.16 36.44 38.96 40.48 40.81 40.03 41.45 40.75 42.03 43.41 43.89 43.85 44.49 44.73 44.93 45.59 45.41 45.14 44.41 44.05 44.19 44.02 43.52 42.33 42.59 42.56 41.02 40.32 40.29 40.37 40.75 40.89 40.28 39.55 39.55 39.39 38.64 37.63 36.93 36.38 35.40
41.86 41.81 32.55 27.20 26.33 30.17 35.67 30.69 34.21 38.09 40.45 41.41 41.84 41.50 41.37 41.36 41.24 41.92 42.51 42.60 43.21 44.09 44.35 45.06 44.73 43.98 43.88 43.62 42.80 42.94 43.68 42.90 41.86 40.76 40.05 39.69 39.75 39.73 40.61 40.38 39.74 39.64 39.42 39.00 38.11 36.47 36.32 35.60 35.15
39.72 37.18 39.72 33.21 30.83 28.61 31.23 31.98 36.44 38.86 39.03 39.54 39.86 40.60 40.29 40.19 40.33 40.88 41.32 41.43 41.34 41.61 42.04 43.45 43.28 42.01 41.45 40.83 40.56 39.78 40.12 40.52 40.25 39.61 38.97 39.12 39.17 41.84 40.40 39.33 38.78 38.56 38.17 37.59 36.58 35.41 35.00 35.00 34.53
40.99 43.27 34.72 32.70 26.41 23.87 27.99 28.01 30.97 35.08 36.69 38.38 38.47 38.61 39.28 39.60 39.60 39.93 40.62 41.07 40.81 40.86 40.65 41.10 41.52 41.29 40.56 40.51 40.15 39.90 38.99 39.22 39.13 38.77 38.32 38.30 38.20 38.14 37.48 37.25 36.87 36.68 36.42 35.99 35.01 34.13 34.47 33.74 34.13
39.36 38.13 37.78 36.41 31.67 26.61 24.22 28.75 34.80 37.09 38.65 37.92 38.18 39.14 39.62 39.71 39.67 39.78 40.08 40.40 40.57 40.36 40.43 40.55 40.78 40.93 40.79 40.67 39.59 38.91 38.47 38.63 38.03 37.62 37.27 37.03 36.61 36.28 36.47 36.57 36.12 35.76 35.43 35.11 33.91 33.41 33.60 33.42 33.53
39.01 37.14 35.92 30.84 29.56 28.40 25.91 28.15 36.60 38.10 40.39 40.46 38.74 40.05 40.03 40.57 40.71 40.53 39.67 39.35 39.31 39.08 39.28 39.03 39.41 39.28 39.44 39.57 38.56 38.48 38.70 38.21 37.00 36.92 36.54 36.25 35.72 35.93 35.85 35.80 35.44 35.18 35.11 34.77 33.97 34.23 35.00 34.19 34.20

GFSSGP_sfc_wetblb_081.txt.gz
Wetbulb
70.39 68.26 68.68 67.01 55.02 50.70 45.30 48.26 50.54 50.62 50.37 52.17 54.26 53.74 53.15 55.64 55.92 49.89 64.71 69.19 71.54 72.11 72.73 71.29 72.23 71.14 70.70 70.96 71.11 70.98 70.80 70.27 69.64 69.29 69.43 69.73 70.25 71.00 71.65 72.05 72.18 72.56 73.06 73.61 73.42 73.65 73.68 73.73 73.81
68.65 69.25 67.77 62.07 50.87 46.54 45.45 49.36 50.55 52.83 53.17 54.41 55.46 54.89 53.81 54.84 61.56 64.74 66.18 70.36 72.11 72.23 72.14 70.63 72.88 71.48 70.81 70.17 70.38 70.68 70.41 69.72 69.12 68.89 68.98 69.15 69.12 69.27 69.48 69.70 69.83 70.12 70.61 71.72 72.23 71.60 71.71 72.59 72.61
66.17 68.74 60.29 56.53 52.51 48.63 45.75 50.59 52.19 53.58 54.32 54.59 54.57 56.16 55.23 56.25 63.79 65.42 67.65 71.25 72.15 71.47 71.09 70.57 72.75 71.67 71.25 70.59 70.06 70.26 70.05 69.52 69.12 69.27 70.19 70.64 70.68 70.12 69.44 69.64 69.36 68.96 68.80 68.57 68.75 68.78 68.83 69.17 68.98
62.59 62.35 59.25 53.02 51.87 54.92 52.62 51.94 53.66 53.16 54.25 57.32 56.71 54.47 56.82 61.09 64.91 65.02 70.36 71.48 70.96 70.83 69.76 72.59 73.02 71.91 71.51 71.49 71.24 70.66 70.64 71.05 69.85 70.03 70.85 71.14 71.31 71.69 72.02 71.66 70.81 71.00 71.21 70.89 70.44 70.05 70.01 70.29 70.54
60.86 59.18 53.22 50.08 51.77 53.65 53.37 54.72 54.20 53.12 53.68 55.53 56.31 54.11 53.99 59.70 64.72 69.36 69.78 71.13 70.28 69.50 70.33 71.04 73.42 72.42 72.17 72.05 71.90 71.67 71.40 71.60 71.52 71.39 71.29 71.75 72.09 71.98 72.01 71.93 71.18 70.47 70.51 70.43 70.18 69.82 69.97 70.43 70.32
54.25 56.77 49.85 47.82 50.68 54.66 53.07 54.86 54.26 52.65 53.22 55.27 55.47 53.95 54.86 62.46 67.02 68.54 70.06 69.92 70.70 70.06 70.31 70.68 72.70 72.75 72.49 72.27 72.36 72.50 72.06 72.05 71.90 71.90 71.76 72.08 72.04 71.69 71.12 69.87 68.86 67.23 67.56 67.67 66.96 67.39 69.13 68.19 66.49
52.79 53.08 49.86 49.65 50.32 51.76 53.83 55.25 52.21 52.46 53.07 54.29 57.35 52.95 54.15 60.02 66.56 68.87 69.36 69.88 70.42 70.55 69.93 69.86 70.80 71.94 72.81 72.97 73.26 72.98 72.74 72.45 72.47 72.16 71.53 70.89 70.48 68.89 67.75 65.80 65.29 65.19 65.65 64.74 64.80 64.44 64.53 64.64 64.25
54.67 54.16 50.83 51.10 50.51 50.70 55.36 55.52 56.07 53.85 51.97 57.48 58.79 52.51 52.56 57.68 67.08 68.31 69.09 69.52 69.37 69.31 69.34 68.90 70.81 71.50 71.12 71.40 73.10 72.78 72.77 72.56 71.58 70.41 68.91 66.17 65.72 64.67 64.02 64.34 64.50 63.84 63.73 63.33 62.87 62.30 61.88 62.24 62.38
58.52 50.34 48.70 50.78 51.81 53.35 55.20 52.43 52.97 54.69 54.01 54.24 58.15 56.72 58.31 60.32 66.90 66.18 65.90 68.26 68.91 68.49 67.97 68.75 69.43 70.20 69.95 70.13 71.41 71.85 72.11 71.11 69.48 66.57 64.21 59.19 54.04 55.04 56.45 63.93 63.00 62.55 62.24 61.79 61.37 60.89 60.02 57.41 58.00
52.97 48.32 50.28 55.08 55.48 53.43 55.00 51.94 51.00 52.66 52.84 53.45 56.25 58.53 60.36 61.34 64.84 63.65 64.38 65.52 66.91 66.92 67.79 68.26 68.87 68.33 68.53 70.11 66.22 62.44 63.97 63.12 63.37 56.57 52.35 51.27 51.84 53.41 55.11 58.43 60.44 59.97 59.63 59.63 59.40 58.49 56.68 51.52 45.08
52.50 49.45 53.63 55.22 56.58 57.33 54.66 50.98 51.40 51.46 49.49 54.26 56.31 57.03 59.50 60.04 62.96 63.05 64.13 65.66 66.19 66.72 68.12 68.21 68.05 67.78 67.18 65.73 60.11 53.85 49.67 49.26 55.02 50.08 49.10 50.02 46.71 45.43 44.60 44.31 44.51 44.51 51.86 44.97 46.52 45.17 44.94 43.94 44.31
50.98 54.42 55.66 56.30 55.22 54.77 53.85 52.71 48.94 52.16 51.76 54.92 58.38 59.43 59.49 58.83 60.65 62.25 63.13 64.96 64.80 65.40 67.47 68.43 67.83 66.31 62.16 59.58 53.96 49.08 46.23 45.99 45.78 45.78 45.81 44.51 43.43 43.22 43.22 43.46 43.47 43.45 43.37 43.08 43.08 42.93 43.40 43.73 44.00
51.08 54.04 56.95 56.68 55.14 53.78 53.64 51.26 49.94 49.46 51.93 55.28 59.67 59.81 59.64 59.72 59.87 61.82 63.06 64.72 65.06 65.59 66.76 67.84 66.32 61.75 58.21 54.91 51.98 46.46 46.46 45.09 45.11 45.04 45.24 44.29 43.61 43.11 43.60 43.19 43.56 43.34 43.39 42.91 42.64 42.69 42.86 42.79 43.33
52.72 54.10 55.01 55.61 53.58 54.37 51.74 51.30 51.74 50.94 52.14 57.91 59.16 58.72 59.21 59.67 59.83 59.10 59.93 63.49 64.62 65.84 66.41 66.22 63.37 58.38 54.37 52.20 49.17 45.67 45.22 44.67 44.46 44.23 44.54 45.26 44.66 43.99 43.98 43.73 43.75 43.59 42.96 42.76 42.90 42.49 42.30 42.02 42.16
53.64 50.92 50.61 51.14 52.05 51.65 54.25 48.82 48.01 51.44 52.06 55.56 56.99 56.67 58.39 59.47 60.11 59.80 60.94 63.71 64.79 65.85 65.03 62.86 58.57 54.88 53.01 49.44 46.82 45.62 45.49 45.86 44.86 44.86 45.14 45.64 45.31 44.72 43.89 43.43 43.09 42.72 43.60 43.84 43.53 43.27 42.92 42.73 43.45
48.70 47.55 44.00 49.17 50.32 49.97 51.32 44.86 49.96 53.76 51.81 51.78 54.49 55.08 56.79 57.96 59.54 59.25 62.12 63.75 64.93 64.03 61.97 58.82 57.61 50.85 48.18 48.47 46.36 45.99 45.50 45.00 44.58 45.11 45.64 46.82 46.49 45.20 43.98 43.70 43.55 43.73 44.17 43.66 42.73 42.51 42.24 41.83 41.33
44.27 39.88 41.66 45.02 51.16 49.86 49.11 45.01 49.39 54.00 51.74 50.11 49.49 51.58 53.72 54.61 53.30 57.57 61.58 61.40 62.58 62.04 57.00 53.50 49.22 49.22 47.72 45.57 45.67 45.20 45.09 44.53 44.05 44.13 44.79 46.15 46.97 46.20 44.48 43.98 43.54 43.93 43.54 42.69 42.61 41.93 41.34 40.83 41.16
38.84 40.72 41.51 41.78 47.58 49.91 46.87 46.73 50.26 53.62 54.44 50.06 48.98 49.93 52.16 52.89 54.20 59.13 60.40 60.06 60.98 57.21 56.10 49.58 48.02 46.13 45.08 44.36 43.63 43.39 43.82 43.48 43.58 43.78 44.41 45.74 46.39 46.12 44.53 43.92 43.75 43.38 42.90 42.02 41.53 40.82 40.88 40.36 39.74
44.63 43.77 42.37 44.50 48.95 46.82 46.17 46.89 48.77 52.89 52.88 52.39 52.21 49.88 47.74 49.56 53.79 57.91 57.85 53.13 49.19 48.20 47.25 47.09 45.86 44.11 44.62 42.49 42.33 41.88 42.64 42.44 42.93 43.81 45.34 44.99 45.41 45.80 44.40 43.84 43.20 43.34 42.38 41.67 41.43 40.79 40.07 39.65 39.52
45.85 45.20 42.47 43.89 50.24 46.32 45.33 45.55 49.60 51.45 51.10 50.43 51.17 48.63 46.06 48.19 51.96 54.09 51.95 48.09 50.05 47.68 47.45 45.57 46.27 44.20 44.07 43.62 42.51 42.77 42.39 42.46 43.31 44.44 44.92 45.06 44.81 44.94 44.56 43.94 43.35 42.61 42.04 40.69 40.32 39.86 38.71 38.86 38.31
45.07 42.95 41.92 43.41 45.92 44.45 44.99 42.72 45.15 47.67 49.36 47.16 46.02 45.64 45.45 46.44 50.19 49.72 47.84 46.70 45.41 45.15 46.16 46.35 44.61 44.44 44.12 44.31 44.55 44.21 45.38 44.09 43.94 43.75 44.02 44.28 44.89 44.56 44.09 43.25 42.60 41.78 40.86 40.45 39.44 38.95 38.52 37.37 37.02
42.36 48.03 46.46 44.75 42.28 38.46 43.03 35.90 38.62 40.34 43.12 42.77 42.18 42.45 43.00 44.37 47.60 47.32 46.91 45.35 45.12 45.22 45.29 45.33 44.65 44.09 44.61 44.53 44.79 44.45 43.97 43.01 43.40 43.79 43.93 44.28 44.22 43.77 44.10 43.16 41.66 40.75 40.00 39.37 38.82 40.34 38.20 36.97 35.85
44.88 48.73 46.94 44.92 40.81 38.09 37.13 35.09 37.45 37.17 38.25 39.94 40.07 41.07 41.74 43.01 45.05 44.62 44.28 46.71 44.37 44.60 44.54 43.90 43.43 43.50 43.74 43.69 44.13 43.73 42.78 42.50 42.70 43.80 44.23 43.98 43.62 43.87 43.75 42.54 41.02 40.11 39.38 38.69 38.78 37.95 36.90 36.29 35.73
47.59 43.22 41.90 40.49 38.36 32.15 37.31 37.45 36.16 35.81 38.31 38.12 38.59 40.21 41.68 42.59 42.63 43.57 43.15 43.88 43.60 43.22 43.35 43.03 42.95 42.58 43.05 43.01 43.32 43.34 42.60 42.53 43.10 42.64 42.42 41.62 41.43 41.34 41.44 41.83 40.41 39.94 39.45 38.96 38.69 37.81 36.82 36.35 35.19
43.99 39.77 31.22 30.67 32.74 31.57 35.65 34.75 38.70 37.28 37.92 39.47 40.20 38.18 39.29 39.69 40.58 41.89 42.07 42.28 42.94 42.91 43.37 43.60 43.36 43.00 42.90 42.91 43.04 42.90 42.51 41.37 41.47 41.51 41.12 40.02 39.61 39.54 39.69 39.91 39.49 38.91 38.78 38.62 37.78 36.63 35.84 35.41 34.46
40.64 40.36 31.79 27.31 25.99 29.98 35.15 30.57 35.36 37.22 39.15 39.87 40.61 39.45 39.28 39.11 39.58 40.93 42.01 42.27 42.49 43.13 43.37 43.62 43.26 42.91 42.58 42.17 41.68 41.86 42.75 42.23 41.14 40.31 39.16 38.71 38.73 38.68 39.42 39.27 38.58 38.38 38.21 37.72 36.79 35.56 35.42 34.74 34.18
39.97 37.18 42.51 32.65 29.72 28.30 30.40 32.05 35.44 37.49 37.90 38.32 38.74 38.97 38.33 38.68 39.16 39.97 40.40 40.59 40.82 41.41 42.20 42.74 41.44 40.34 40.43 39.80 39.67 39.02 39.43 39.71 39.21 38.34 38.12 38.13 38.09 40.80 38.69 37.67 36.88 36.30 36.06 35.80 34.85 34.02 33.56 33.56 33.13
41.06 45.19 35.73 33.78 26.94 24.81 27.08 27.55 31.19 33.92 35.83 37.22 37.15 36.75 37.41 38.10 38.48 38.99 39.67 39.79 39.41 39.63 39.85 40.77 40.88 40.21 39.70 39.46 38.79 38.67 37.95 38.18 37.93 37.65 37.41 37.42 36.95 36.69 36.18 36.11 35.61 35.50 35.21 34.76 33.59 32.73 33.02 32.32 32.49
38.22 35.76 35.45 34.51 30.77 26.26 24.34 28.99 34.45 36.05 37.36 37.09 37.13 37.50 37.89 38.03 38.52 38.74 38.61 38.74 38.89 38.83 39.11 38.98 39.47 39.61 39.05 38.91 37.86 37.23 37.14 37.32 37.11 37.15 36.71 36.24 35.66 35.39 35.47 35.52 35.10 34.76 34.38 34.05 32.81 32.39 32.65 32.33 32.44
39.64 36.17 36.78 31.66 29.74 26.98 25.77 28.92 34.97 35.65 38.74 38.95 37.69 38.59 38.32 39.20 39.50 38.92 38.22 37.93 38.11 38.01 38.01 37.95 38.19 38.55 38.52 38.64 37.63 37.44 37.43 36.91 36.18 35.98 35.36 35.04 34.46 34.72 34.62 34.60 34.34 34.01 33.92 33.51 32.74 32.50 33.24 32.62 32.68

GFSSGP_sfc_wetblb_084.txt.gz
Wetbulb
70.21 67.99 68.33 65.84 54.87 49.82 45.27 47.59 49.38 49.26 49.07 51.09 53.23 53.66 53.30 54.85 54.99 48.72 64.42 69.07 71.18 71.72 71.69 70.13 71.69 71.10 71.50 71.53 71.16 70.88 70.40 69.67 69.18 69.48 69.93 70.61 71.14 71.76 72.02 71.90 72.10 72.86 73.31 73.29 72.94 72.74 72.79 72.67 73.12
67.85 69.01 66.95 60.90 50.42 46.14 46.48 48.49 49.62 51.32 52.35 54.44 54.77 54.32 52.28 53.75 61.62 63.91 65.42 70.06 71.91 71.95 70.82 69.27 71.85 71.09 70.91 70.89 70.70 70.27 69.54 68.98 68.71 68.85 68.90 69.03 69.43 69.95 70.14 70.00 69.80 69.98 70.29 70.43 69.82 70.07 70.29 70.11 70.35
65.84 67.96 60.06 55.70 50.24 46.83 46.23 49.32 51.37 53.03 53.94 53.43 54.33 55.24 53.93 55.36 63.58 64.55 66.64 71.09 71.78 70.98 69.74 70.23 71.96 71.28 70.57 70.51 70.63 70.34 69.56 69.11 69.11 69.77 70.09 70.07 69.44 69.43 69.62 69.70 69.60 69.56 69.49 69.08 69.04 69.31 70.09 70.48 70.05
63.11 61.79 58.53 52.69 50.04 53.29 51.41 50.83 53.00 52.01 53.14 56.02 55.68 53.18 55.95 61.00 64.58 66.10 70.21 71.49 70.30 69.58 68.97 72.16 72.11 71.61 70.89 70.41 70.38 70.16 69.98 69.55 69.76 70.49 70.82 71.18 71.65 71.36 71.63 70.89 71.04 71.00 71.05 70.97 70.77 70.81 70.90 70.49 70.43
60.62 58.46 52.37 49.18 50.60 52.99 53.19 54.17 52.80 51.73 52.68 55.03 55.13 53.15 53.17 60.03 65.80 69.03 70.31 70.85 69.87 68.56 69.30 70.29 72.58 71.84 71.74 71.60 71.33 71.20 71.37 70.64 70.57 71.10 70.90 71.86 72.12 72.00 72.01 71.28 70.58 70.32 69.95 68.64 69.55 70.29 69.15 67.76 67.60
53.80 55.97 49.55 47.48 49.87 53.73 53.25 54.18 53.58 52.46 52.34 54.52 54.44 53.63 54.37 62.08 67.20 68.51 70.18 69.83 70.46 68.99 69.83 70.75 72.33 72.20 72.26 72.18 72.02 71.86 71.82 71.96 72.10 71.51 71.71 72.07 71.97 71.25 69.79 68.65 67.57 67.65 67.20 66.62 66.59 66.83 66.51 65.59 65.13
51.21 52.60 49.23 48.79 49.23 51.28 53.64 54.07 52.02 51.71 52.42 53.87 56.24 52.22 53.35 61.00 66.76 68.62 69.09 69.27 69.64 69.74 69.06 69.00 69.70 71.44 72.64 72.33 73.03 72.54 72.49 72.33 72.33 72.10 71.59 71.12 69.88 68.25 66.65 66.02 66.18 65.51 65.57 65.03 64.51 64.87 64.67 64.33 63.71
53.99 53.54 49.49 49.56 49.97 50.35 54.24 54.57 55.31 53.01 52.07 56.72 57.46 52.06 51.55 60.04 67.10 68.19 68.81 68.56 68.26 68.45 68.81 68.33 69.37 69.34 69.63 71.06 73.37 73.21 72.73 72.74 71.77 70.74 68.37 67.07 65.48 65.18 65.65 64.83 64.84 64.62 63.91 63.51 62.87 62.10 61.99 62.39 62.13
57.64 50.06 47.74 50.70 51.20 52.64 54.46 53.04 53.29 54.18 54.53 55.15 57.32 55.58 56.82 64.16 67.14 67.31 67.62 68.11 67.86 67.77 67.01 68.25 69.73 69.81 69.99 70.26 71.56 72.43 72.83 71.23 68.69 65.31 64.56 58.55 53.63 54.65 57.57 63.61 63.41 62.94 62.50 61.97 61.37 60.56 58.89 56.82 57.98
52.91 48.31 49.89 54.60 55.15 52.90 54.60 52.22 51.24 52.66 52.57 52.59 54.99 56.95 61.24 65.84 66.00 65.43 65.36 65.24 65.82 66.57 67.01 67.85 69.12 68.69 68.96 70.57 65.95 65.31 67.10 62.47 59.55 53.22 50.68 51.06 51.52 54.52 57.06 59.22 60.93 60.72 60.50 59.94 59.32 57.89 55.79 50.38 44.16
51.33 48.74 52.61 55.35 56.14 56.42 54.65 51.76 52.84 51.96 49.71 53.28 55.24 55.45 61.68 64.21 64.57 64.77 65.37 65.22 65.05 66.51 67.61 68.78 68.83 67.54 67.70 65.54 60.01 56.95 55.97 58.90 52.62 50.14 50.16 46.14 45.10 43.90 43.51 43.34 43.75 44.04 51.19 43.98 45.51 44.26 44.11 43.22 43.72
48.93 53.07 54.58 55.77 54.95 54.44 52.84 52.54 48.91 52.57 53.20 54.37 57.58 57.70 60.03 62.88 63.16 63.78 64.41 64.96 64.71 65.87 67.33 68.87 67.75 66.54 64.93 61.87 56.69 51.44 48.34 51.83 47.31 47.24 46.05 43.60 42.53 42.42 42.28 42.47 42.42 42.43 42.27 42.27 42.46 42.37 42.76 42.87 43.09
50.32 52.42 55.25 55.34 54.48 53.15 53.55 50.93 49.86 50.71 52.41 53.89 57.77 58.23 58.62 61.80 62.83 63.61 64.77 65.50 65.11 65.31 66.79 67.71 67.40 63.84 61.72 56.67 50.46 46.95 47.23 46.97 44.82 44.46 44.47 43.44 42.90 42.14 42.49 41.98 42.26 42.29 42.53 42.58 42.24 42.24 42.12 41.89 42.47
50.51 52.98 54.67 55.13 52.79 53.72 50.84 50.40 49.87 49.41 51.70 56.01 56.69 56.92 57.58 59.29 61.13 60.52 62.85 63.91 64.31 65.35 66.61 67.66 65.94 60.88 57.39 52.93 49.21 47.84 44.97 44.46 44.04 43.58 43.66 43.85 43.37 42.88 43.02 42.93 42.82 42.68 42.51 42.51 42.44 41.82 41.91 41.64 41.78
51.52 49.32 50.38 52.09 51.28 51.45 52.47 48.24 47.97 51.71 51.67 55.45 54.83 54.95 56.55 57.81 58.95 60.03 61.97 63.55 64.81 65.71 66.73 66.00 63.38 59.27 57.82 53.93 47.41 46.75 44.89 44.89 43.57 43.73 43.84 44.30 44.11 43.91 42.93 42.92 42.75 42.85 42.82 43.21 42.74 42.14 42.13 41.98 42.71
48.49 48.38 43.95 49.13 50.04 49.81 50.64 44.60 49.13 52.45 52.02 53.93 54.83 54.98 56.51 57.89 59.32 59.52 61.04 64.25 65.38 65.86 65.01 63.68 63.01 58.44 53.61 51.02 48.23 45.22 45.12 44.35 43.92 43.64 43.95 45.14 45.16 44.46 43.39 43.43 43.28 43.39 43.35 42.76 42.26 41.79 41.74 41.18 40.98
43.21 39.39 41.09 44.40 49.23 49.11 48.58 44.28 48.60 52.78 52.04 51.88 53.59 54.61 56.70 57.42 57.36 58.87 61.31 63.75 64.96 65.60 63.60 60.72 56.78 53.74 51.17 47.48 46.46 44.82 44.38 43.90 43.72 43.82 44.59 45.64 46.07 45.25 43.81 43.32 43.12 43.59 43.12 42.13 42.49 41.17 41.06 40.12 40.28
37.37 39.15 40.19 41.37 46.52 47.95 45.82 45.63 49.58 52.26 51.60 50.64 50.85 52.18 54.79 57.06 58.44 57.33 61.44 62.79 64.71 63.28 60.59 55.08 52.86 50.33 47.75 44.68 43.68 42.99 43.03 42.36 42.27 43.08 44.20 45.57 45.78 45.10 43.78 43.27 43.15 42.79 42.12 41.06 40.66 39.87 39.79 39.34 39.15
43.02 42.41 40.95 42.92 47.50 46.70 45.81 46.20 48.53 51.66 52.45 51.66 49.24 48.75 49.11 50.92 53.42 58.01 58.72 60.06 59.69 56.68 52.04 50.27 49.34 47.85 45.62 43.23 42.48 41.67 41.69 41.45 41.88 42.44 44.19 44.45 44.93 44.77 43.64 42.97 42.48 42.32 41.84 41.01 40.75 40.01 38.89 38.46 38.24
44.98 44.11 42.52 43.50 48.26 45.12 44.59 45.45 48.54 49.99 51.43 51.99 52.31 51.66 50.70 46.87 51.33 55.82 53.23 50.02 54.32 53.25 51.37 49.22 48.04 44.93 44.42 43.85 41.90 42.16 41.38 41.55 42.33 43.20 43.45 43.81 43.88 44.50 43.98 43.42 42.49 41.91 41.21 40.06 39.61 39.26 38.14 38.14 37.66
45.51 43.68 43.45 42.81 44.80 43.78 44.39 42.17 44.47 48.51 50.00 49.88 47.23 49.31 48.02 46.83 49.55 52.16 48.80 47.65 48.02 49.53 49.03 48.07 46.46 44.65 43.71 43.22 42.94 42.79 43.42 42.59 42.45 42.54 43.08 43.85 44.05 43.90 43.40 42.65 41.99 41.16 40.38 39.80 38.57 38.45 38.26 37.07 36.53
40.49 46.71 45.46 44.81 42.16 38.16 42.37 35.22 39.92 41.86 44.50 43.41 42.30 42.81 43.89 44.42 47.72 50.11 48.09 45.17 45.72 47.96 47.16 45.01 44.58 43.62 43.85 43.56 43.67 42.96 42.90 42.23 42.45 42.66 43.04 43.28 42.87 42.86 43.02 42.53 41.32 40.53 39.57 38.71 38.29 39.49 37.85 37.04 36.05
42.82 47.64 45.04 44.07 39.39 37.39 36.46 35.92 38.52 36.69 38.87 40.73 40.73 42.26 42.05 42.26 43.86 46.83 46.65 45.60 43.83 44.07 44.17 43.95 43.17 42.84 42.83 42.47 42.90 42.49 41.65 41.58 41.65 42.12 42.37 42.57 42.75 42.84 42.75 41.85 40.29 39.40 38.84 38.41 38.30 37.72 36.71 36.25 35.73
46.38 43.20 42.08 39.31 37.28 32.25 37.95 37.58 37.58 36.24 38.03 37.37 38.83 41.18 41.16 41.44 41.98 42.65 42.90 43.25 42.67 43.05 42.92 42.21 42.26 41.65 41.88 42.02 42.15 42.14 41.34 41.30 41.95 41.89 41.98 41.33 40.76 40.47 40.42 40.77 39.37 38.96 38.63 38.45 38.12 37.04 36.00 35.39 34.75
43.74 39.84 31.66 30.77 30.72 31.58 34.37 35.04 41.38 37.45 37.10 38.61 40.07 39.75 38.08 38.16 40.26 40.25 40.81 41.38 42.00 42.38 42.40 42.39 41.82 41.49 41.55 41.53 41.87 41.98 41.67 41.00 41.42 41.21 40.79 39.80 38.92 38.69 38.78 38.98 38.60 38.03 37.88 37.78 37.07 36.04 35.23 34.75 33.95
40.36 39.55 32.60 28.24 27.49 31.13 35.01 32.33 37.47 38.64 38.80 39.00 39.70 38.12 37.96 38.42 39.21 39.69 40.58 41.27 41.78 42.13 42.29 42.52 41.85 41.34 41.30 41.39 41.12 41.16 41.59 41.57 40.72 40.21 38.90 38.33 38.28 38.06 38.51 38.22 37.57 37.32 37.25 36.76 35.69 34.89 34.69 33.92 33.44
38.84 36.92 39.11 30.66 27.53 27.82 30.43 32.65 35.17 37.58 37.73 38.09 37.46 37.96 37.70 38.09 38.88 39.74 40.35 40.85 41.02 41.44 41.65 41.73 40.99 40.25 39.82 39.24 39.23 39.01 39.41 39.54 38.99 37.69 37.60 37.59 37.41 39.98 37.14 36.29 35.70 35.38 35.22 34.84 33.82 33.12 32.69 32.38 32.00
40.21 42.80 37.90 34.94 25.64 23.12 25.69 27.30 32.35 34.01 35.87 36.58 35.89 36.40 36.67 37.03 37.59 38.06 38.58 38.97 38.90 39.80 39.96 39.75 40.01 39.59 38.88 38.75 38.38 38.21 37.28 37.33 37.14 36.90 36.65 36.62 36.04 35.78 35.46 35.22 34.69 34.56 34.34 33.85 32.58 31.73 31.93 31.22 31.47
36.77 35.18 35.45 37.85 33.53 28.29 26.34 29.29 34.76 34.78 37.12 36.59 36.70 36.93 37.10 37.16 37.32 37.23 37.22 37.39 37.69 37.83 38.23 38.10 38.49 38.90 38.70 38.46 37.18 36.79 36.59 36.60 36.47 36.40 35.89 35.59 34.92 34.54 34.71 34.69 34.37 34.08 33.69 33.29 31.93 31.58 31.85 31.59 31.43
39.91 37.23 36.96 31.91 29.02 27.20 28.02 29.89 34.43 34.81 37.16 38.37 37.38 37.70 37.27 38.00 37.96 37.40 36.82 36.67 37.21 37.19 37.49 37.46 37.55 37.81 37.73 37.40 36.40 36.34 36.55 36.06 35.46 35.11 34.57 34.30 33.83 33.94 33.92 33.87 33.63 33.32 33.17 32.71 31.93 31.66 32.36 31.54 31.54

GFSSGP_sfc_wetblb_090.txt.gz
Wetbulb
70.67 74.30 75.62 72.58 61.77 60.06 54.89 56.36 60.54 57.98 57.39 60.03 60.70 60.01 59.21 61.55 58.72 57.43 71.54 71.91 72.55 72.61 72.88 73.44 72.25 73.06 73.17 72.87 72.23 71.74 70.52 70.67 71.49 71.86 71.68 71.84 72.28 72.04 71.79 72.22 72.52 71.91 71.32 71.48 71.38 71.46 71.55 72.02 73.56
71.45 71.95 72.32 69.35 58.09 52.92 53.79 58.99 58.31 60.08 60.10 61.09 61.23 61.19 60.50 59.85 65.93 67.56 69.21 72.23 72.84 72.83 72.29 73.20 72.26 72.46 72.22 71.86 71.22 70.31 69.41 69.40 69.65 70.02 70.56 71.01 71.27 70.87 70.40 70.04 69.64 69.36 69.54 70.55 71.10 71.25 71.40 72.07 73.69
70.77 71.84 67.94 62.09 58.00 53.76 54.36 59.69 60.50 59.99 60.81 60.41 59.64 61.56 59.20 61.17 66.64 68.25 71.48 72.59 72.98 72.64 72.47 72.34 72.38 72.21 71.69 71.11 70.18 69.62 69.32 69.58 69.80 69.68 69.58 69.93 69.93 69.85 70.07 70.31 70.36 70.44 70.56 70.70 70.73 70.53 71.05 71.87 73.28
69.10 69.21 66.99 58.71 55.33 58.87 59.57 61.38 60.75 59.29 59.80 61.05 61.47 58.09 62.63 66.62 67.80 69.60 72.36 72.41 71.98 71.53 72.43 72.25 72.17 71.66 71.40 71.02 70.45 69.97 69.89 70.41 70.93 71.09 70.56 70.66 71.15 71.58 71.32 71.15 71.14 70.49 71.07 70.82 69.13 68.87 70.05 71.59 72.83
68.90 66.52 58.65 56.81 56.72 59.77 62.64 63.07 61.52 59.37 59.83 60.55 61.26 57.99 60.91 67.39 70.30 71.71 71.95 71.73 70.37 70.98 71.74 71.75 71.58 71.28 71.27 71.18 70.74 70.42 70.39 71.01 71.07 71.12 71.99 71.72 72.00 72.07 71.50 70.59 69.49 70.23 69.90 68.80 67.90 67.76 69.87 71.06 71.56
61.54 63.38 56.03 53.96 56.58 60.09 62.32 63.53 61.61 60.56 60.73 61.35 59.47 59.75 62.30 69.34 69.94 70.91 71.59 71.01 70.72 70.98 71.00 71.10 71.53 71.29 71.29 71.20 71.36 71.33 70.94 71.48 72.35 72.12 72.16 72.14 71.67 70.03 69.47 68.73 68.21 68.45 68.26 67.55 66.82 66.51 67.65 69.62 70.28
59.53 58.94 55.79 56.51 56.95 58.59 60.78 63.70 61.37 61.23 60.48 60.46 62.57 59.13 63.52 67.44 70.11 70.97 70.87 71.03 70.83 71.27 70.89 70.68 71.08 71.98 71.89 71.84 72.00 72.11 72.16 72.28 72.41 72.13 71.93 69.90 68.97 68.50 67.87 67.58 67.03 66.60 66.28 66.03 65.61 65.25 64.97 65.44 65.61
60.00 59.78 56.07 56.98 56.00 56.85 61.60 61.68 62.19 62.28 60.68 63.68 64.27 59.46 61.01 67.15 70.33 70.92 71.11 70.63 70.33 70.33 70.35 70.45 70.68 71.15 71.91 72.63 72.63 72.38 72.48 72.35 72.22 71.02 69.71 68.45 67.87 67.59 66.91 66.26 65.70 65.17 64.24 63.36 62.79 62.97 63.17 62.73 62.02
62.09 55.14 53.52 55.68 56.48 58.44 61.29 60.00 60.81 62.81 61.12 62.47 63.45 63.25 65.10 69.28 70.31 70.04 69.71 69.40 68.97 69.23 70.61 70.62 70.34 71.15 72.30 73.00 72.78 72.18 71.83 71.85 69.73 67.69 66.09 66.46 67.23 66.03 66.03 64.79 64.18 63.69 62.72 61.84 60.93 59.90 58.51 58.93 59.25
57.41 54.06 54.92 59.50 60.47 60.02 61.33 60.91 60.41 59.48 60.20 60.48 62.25 63.92 67.46 69.05 68.83 68.30 67.87 67.48 67.50 68.14 69.54 70.39 70.68 71.16 72.28 72.13 72.62 72.45 71.55 70.39 68.25 65.86 64.17 64.39 64.68 64.57 63.79 63.55 62.78 62.03 60.83 59.69 58.68 57.58 57.12 59.32 55.20
55.39 52.53 57.29 58.87 60.83 62.07 60.97 59.92 60.92 59.69 58.34 60.73 60.63 63.74 67.15 67.79 67.79 67.81 67.96 68.11 67.78 68.47 69.47 70.26 70.58 71.55 71.99 71.99 72.29 71.21 70.39 66.63 63.40 62.57 62.31 62.52 62.46 62.01 60.27 58.75 57.22 56.76 56.05 55.40 55.92 55.45 54.88 54.74 54.62
51.22 54.32 55.95 58.66 60.65 60.44 59.75 61.19 59.20 60.36 61.40 62.36 62.58 65.86 67.05 66.93 66.84 67.39 67.70 68.26 68.13 68.18 69.17 70.60 70.89 71.81 72.33 72.20 71.49 70.94 68.69 64.35 61.22 60.16 58.40 58.12 57.16 55.66 55.52 55.63 56.15 56.16 56.18 55.60 55.69 55.30 55.34 54.97 54.42
50.39 51.82 54.61 57.62 58.93 60.29 60.72 59.29 59.62 58.78 62.61 60.53 60.47 65.23 66.31 67.00 67.22 67.89 68.67 69.36 68.86 68.00 69.00 70.52 71.44 71.99 71.96 71.38 70.93 69.94 67.72 64.22 61.27 58.95 56.98 56.78 56.10 55.15 55.50 55.35 55.58 55.77 56.07 55.74 55.39 55.22 54.92 54.77 54.39
50.72 52.70 52.38 54.78 57.96 59.14 57.06 58.52 56.28 59.34 60.92 59.93 61.72 63.60 66.08 66.60 67.02 67.44 68.15 68.56 68.90 68.72 68.75 70.60 70.48 71.50 71.66 70.04 69.10 68.58 67.74 65.07 61.17 58.77 56.91 55.87 55.99 55.26 55.38 55.23 55.45 55.55 55.89 55.73 55.18 54.73 54.62 54.24 54.36
50.39 46.65 50.62 54.00 53.15 56.66 58.60 55.80 54.65 60.15 58.21 59.47 60.60 63.11 64.86 66.08 66.61 66.44 68.20 68.58 69.36 69.26 69.19 69.91 70.26 70.57 70.79 68.52 65.44 60.37 65.28 63.94 60.53 58.51 56.38 55.82 56.12 55.50 55.43 55.17 54.96 55.02 55.28 54.62 55.37 54.88 55.46 55.14 54.83
46.79 49.16 42.90 48.99 54.52 55.44 56.47 51.30 58.64 59.06 57.65 58.30 60.05 61.71 62.01 64.63 66.67 68.14 68.70 69.02 69.77 69.55 67.89 68.90 69.31 70.12 69.96 65.03 60.71 57.91 60.11 61.72 58.94 57.17 55.98 55.54 55.69 55.86 55.59 55.43 55.46 55.63 55.87 56.14 56.24 56.20 55.78 55.36 54.74
44.24 39.79 44.25 45.39 54.53 54.74 54.59 51.57 58.14 58.59 57.81 58.23 59.97 60.54 61.25 62.70 65.84 67.49 68.05 69.08 69.46 69.81 69.70 69.34 68.63 69.07 66.94 60.20 55.19 55.80 56.40 57.45 56.51 56.16 55.80 55.31 55.15 55.39 55.82 55.84 56.02 55.85 55.74 55.94 55.96 55.84 55.28 54.82 54.67
38.89 39.87 42.64 44.72 49.71 54.04 52.73 53.23 55.28 56.74 56.88 58.47 60.03 60.88 61.58 61.96 62.58 65.84 66.31 67.58 68.29 68.11 68.95 69.32 68.88 67.52 61.91 56.70 55.41 54.37 54.91 55.27 55.54 55.34 55.39 55.08 55.60 55.28 55.76 56.00 55.76 55.71 55.62 55.55 55.71 55.04 55.16 54.09 53.39
42.63 40.91 41.33 46.37 50.31 51.58 51.75 52.65 53.58 55.23 55.49 56.80 59.17 60.21 60.97 61.18 62.24 62.82 63.39 65.92 65.93 68.00 68.12 68.92 67.44 65.80 61.64 59.26 55.01 54.08 54.16 54.33 54.78 55.46 55.14 55.14 55.45 55.38 55.90 55.80 55.52 55.65 55.14 55.40 54.80 54.65 53.16 54.17 53.90
42.84 40.75 42.06 46.80 50.13 51.21 50.68 51.94 55.36 54.72 55.46 56.64 56.89 58.57 59.89 61.03 62.71 63.20 63.67 65.40 65.58 66.78 68.30 68.24 66.46 64.77 60.98 59.20 57.16 57.27 56.23 55.21 55.32 55.70 55.57 55.82 55.86 55.64 55.38 55.56 55.16 55.16 54.87 54.45 54.04 53.63 53.15 52.87 52.86
42.67 41.40 41.43 43.75 49.73 51.93 49.92 48.26 52.20 54.94 55.57 56.72 57.57 58.46 58.30 58.80 60.13 62.31 63.72 64.77 66.10 66.76 67.62 67.51 65.66 62.36 61.14 59.28 56.80 55.75 55.14 54.70 54.10 54.37 54.80 55.11 55.29 55.46 55.17 55.16 55.19 55.06 54.81 54.09 54.21 53.64 52.92 51.33 52.76
39.37 45.31 43.94 45.43 45.34 41.74 50.97 40.34 48.96 53.48 53.79 54.85 56.72 57.56 57.71 57.01 57.89 58.61 61.75 62.64 65.41 66.55 67.03 66.17 65.02 62.77 60.29 58.92 56.20 55.03 54.16 52.93 53.77 54.36 54.93 55.15 54.97 54.76 54.76 54.75 54.69 54.47 54.36 53.58 53.60 53.13 52.43 51.88 50.17
42.44 46.45 44.25 44.59 45.52 45.92 45.99 43.61 48.19 51.51 51.77 54.16 55.85 57.53 57.48 58.26 57.72 57.20 59.15 60.59 62.00 64.80 64.52 64.49 62.67 61.46 59.19 56.35 55.98 55.62 55.04 55.29 55.35 54.86 54.82 54.95 54.89 54.46 54.49 54.10 54.07 53.62 53.52 53.28 52.90 52.15 51.37 51.31 50.47
48.82 46.49 45.95 45.91 44.93 38.62 44.41 44.71 45.29 48.49 50.94 53.61 54.57 55.03 55.03 54.65 53.87 55.64 58.33 59.03 59.10 60.90 61.19 61.47 62.00 58.99 55.82 54.47 56.01 55.88 55.27 54.14 53.68 54.04 53.87 54.25 54.69 54.47 53.55 53.42 53.77 53.68 53.12 52.41 52.15 51.70 51.02 50.70 49.86
47.81 43.84 36.19 34.63 33.35 35.59 45.09 43.71 47.23 50.42 49.52 49.61 49.07 51.71 52.68 52.08 52.02 53.02 54.96 55.88 56.34 57.62 59.36 59.75 57.40 53.69 53.50 54.80 54.24 54.28 54.52 53.99 53.60 53.97 54.22 53.96 53.64 53.37 52.90 52.53 52.16 52.35 52.18 51.71 51.54 50.41 49.83 49.51 48.56
44.29 43.53 37.51 32.09 34.64 38.11 42.49 40.22 45.38 48.65 47.95 47.76 47.91 50.96 50.55 50.19 51.30 51.61 53.25 55.06 55.60 57.36 57.51 54.45 52.48 50.73 51.86 52.70 52.72 53.29 53.87 53.95 54.13 53.93 54.23 54.07 53.59 52.76 51.52 51.26 51.27 50.13 49.83 50.02 49.45 49.00 48.53 48.24 47.54
43.26 41.50 42.95 36.63 39.02 40.28 42.06 44.74 47.43 45.57 45.87 46.18 47.28 48.46 48.22 48.57 49.80 50.11 51.43 53.88 54.42 54.64 52.04 50.14 48.99 49.41 50.52 51.89 52.24 52.48 53.13 53.33 52.92 52.37 52.34 52.07 51.41 50.42 49.98 49.72 49.22 48.81 48.34 47.59 47.20 46.81 46.42 46.33 45.79
45.23 46.46 37.42 38.32 33.27 33.18 38.45 39.55 43.73 44.71 45.47 45.82 46.13 47.54 46.79 47.28 48.15 49.08 50.31 50.95 51.50 51.32 49.96 49.39 49.65 50.44 51.69 52.17 52.37 51.96 51.49 51.19 50.96 50.80 49.96 49.82 49.60 48.87 48.43 48.20 48.05 47.28 46.60 46.42 46.18 45.68 45.72 44.98 44.97
44.27 41.83 43.88 43.49 40.36 36.77 36.22 38.79 44.23 44.31 44.98 46.30 47.18 47.19 47.07 47.24 47.94 48.87 49.81 50.17 50.02 50.18 49.50 49.39 50.61 50.47 50.37 50.34 49.96 49.68 49.47 49.52 49.50 49.37 48.98 48.89 48.81 48.34 47.50 46.51 45.79 45.62 45.51 45.59 45.12 44.81 44.59 43.72 43.66
42.11 42.20 45.06 40.77 37.33 38.89 39.25 39.98 44.12 44.69 44.73 47.75 46.90 46.22 46.90 46.91 47.00 47.82 48.21 48.59 49.08 49.53 50.17 50.07 49.95 49.41 49.22 49.05 49.17 48.99 48.74 48.53 48.35 48.20 48.27 48.13 47.53 46.74 45.85 45.19 44.67 44.66 44.65 44.83 44.18 43.51 43.67 42.99 42.48

GFSSGP_sfc_wetblb_093.txt.gz
Wetbulb
72.06 73.23 76.59 73.24 62.47 59.77 54.83 56.78 60.74 59.02 58.53 60.85 61.20 60.09 59.33 60.90 60.59 59.64 71.79 70.76 71.18 71.69 72.96 72.16 73.83 74.26 74.00 73.07 72.65 71.51 71.32 72.30 72.50 72.07 72.20 72.81 72.52 72.46 72.61 72.42 71.69 71.17 71.75 71.73 72.09 72.00 72.79 73.75 73.15
71.87 71.96 72.88 68.68 57.28 52.74 54.88 58.83 58.34 61.19 61.89 61.92 61.51 61.16 59.82 61.23 67.20 68.45 69.13 71.50 71.71 71.74 72.18 72.25 72.73 73.61 73.14 72.64 71.93 70.35 70.19 70.36 70.65 70.94 71.35 71.71 71.56 70.87 70.44 70.20 69.96 70.31 71.24 71.53 71.66 71.96 72.53 73.66 72.94
72.42 71.96 67.11 61.95 56.91 52.84 54.71 59.19 60.26 62.39 62.38 61.88 60.53 62.27 59.73 62.43 67.51 68.49 71.23 71.71 71.79 70.95 71.86 72.37 73.03 72.68 72.15 71.30 70.25 69.72 69.71 69.81 69.84 70.07 70.45 70.43 70.24 70.48 70.81 70.89 70.96 70.89 71.13 70.45 69.97 70.94 72.48 73.30 72.78
68.75 69.50 67.19 58.51 54.91 58.59 58.72 60.44 62.05 61.37 61.50 62.39 61.58 57.78 62.75 66.86 67.49 69.58 71.07 71.64 71.43 70.90 72.69 72.38 72.70 72.25 71.54 70.52 70.13 70.02 70.35 70.56 70.48 69.87 70.25 70.80 71.10 71.50 71.48 70.70 71.00 71.70 69.87 69.14 69.47 70.88 72.18 73.00 72.77
67.61 66.70 59.02 55.79 55.66 58.77 61.93 62.94 63.53 61.39 61.25 61.24 61.88 58.18 61.36 67.11 69.85 70.39 70.68 71.10 70.14 70.47 72.01 72.16 72.28 71.89 71.45 70.92 70.53 70.43 70.99 71.30 71.13 71.67 71.59 71.86 72.47 72.24 70.88 70.20 70.51 69.90 68.87 68.39 68.95 71.29 71.76 72.10 72.05
62.09 63.45 56.03 53.25 56.21 60.07 61.90 63.74 63.91 62.50 62.24 62.11 60.56 59.04 62.57 69.03 68.97 69.99 70.64 70.35 69.93 70.39 70.31 70.83 71.50 71.62 71.60 71.35 71.05 70.93 71.41 71.54 71.86 71.71 71.73 71.83 71.19 70.46 69.50 69.00 69.35 68.74 68.05 67.36 67.29 68.61 69.21 70.10 70.20
59.83 59.41 55.82 56.34 56.69 58.41 60.95 64.21 62.99 62.62 62.31 61.74 62.09 57.87 64.73 66.50 69.31 70.16 70.31 69.96 70.28 70.50 69.89 69.31 69.77 71.37 71.85 71.69 71.87 71.68 72.02 72.13 72.45 72.20 71.21 70.27 69.53 69.03 68.43 67.92 67.50 67.14 66.73 66.31 65.93 65.71 66.18 66.23 65.94
61.46 60.00 56.41 57.50 55.84 56.89 62.26 62.91 64.11 63.31 62.61 65.25 63.84 58.69 61.66 66.47 69.05 69.84 70.07 69.35 69.68 69.60 69.08 68.99 69.36 69.91 70.61 71.76 72.76 72.49 72.15 72.25 72.17 71.01 69.55 69.74 69.19 67.88 67.35 66.73 65.88 65.05 64.05 63.43 63.47 63.44 63.18 62.61 62.09
62.81 55.55 53.48 55.91 56.92 58.27 62.49 61.13 64.23 65.24 63.61 63.48 63.36 63.70 66.00 68.68 69.00 68.73 68.46 67.97 68.27 68.11 69.30 69.57 69.30 70.55 71.82 71.99 72.55 72.33 72.47 71.64 69.76 68.51 69.24 68.30 67.10 66.40 65.41 64.84 64.40 63.57 62.53 61.71 60.77 59.51 58.66 60.79 60.37
56.69 53.07 53.94 59.01 60.06 59.39 61.44 62.02 62.47 60.78 61.83 61.95 62.38 65.25 68.04 68.43 68.00 67.35 66.98 66.12 66.54 67.36 69.27 69.39 69.73 70.20 71.33 71.53 71.80 71.99 71.68 70.76 68.62 66.73 66.10 65.76 65.65 65.25 63.94 63.57 62.70 61.59 60.59 59.87 58.91 57.85 58.78 62.61 55.16
54.13 51.58 54.79 56.75 59.88 61.11 61.09 61.68 63.47 60.68 59.71 62.44 61.69 63.61 67.29 67.29 67.42 67.42 67.43 67.32 66.67 68.21 69.19 69.12 69.78 70.56 70.99 70.54 71.20 71.04 70.92 67.98 65.47 63.78 63.39 63.74 63.51 62.99 61.88 59.93 57.78 57.26 59.80 56.08 57.70 57.19 55.76 55.70 55.64
49.52 52.62 53.96 55.19 57.41 59.93 59.44 62.32 61.19 61.65 62.28 64.82 64.57 65.22 67.36 66.65 66.87 67.39 67.31 67.42 66.96 67.89 68.65 69.37 69.89 70.22 70.39 70.70 71.10 70.29 68.20 65.12 62.59 61.95 60.83 60.04 58.36 56.64 56.18 56.34 56.91 57.34 56.69 56.08 56.49 55.94 56.22 55.85 55.18
47.88 49.96 52.60 53.90 55.61 57.44 60.27 59.96 60.44 61.03 63.77 63.69 63.15 64.62 66.64 66.94 67.18 68.04 68.19 68.00 67.75 67.51 68.50 69.44 70.20 70.61 69.88 70.42 69.87 69.81 67.67 64.23 62.31 59.77 58.41 57.47 56.71 55.75 56.37 56.11 56.35 56.53 56.80 56.25 56.00 55.92 55.39 55.27 54.91
49.45 49.96 51.39 51.98 52.76 55.91 55.17 56.79 59.96 61.58 63.82 62.71 62.00 62.40 65.87 66.99 67.19 67.56 67.54 67.37 67.49 67.82 68.58 70.02 70.17 70.85 69.92 69.89 70.27 69.23 67.58 64.75 61.91 59.63 57.95 56.70 56.60 56.15 56.28 56.03 56.20 56.29 56.37 56.13 55.60 55.37 55.33 55.11 55.13
49.66 46.73 48.65 49.39 52.55 51.54 55.80 53.77 55.17 60.95 62.02 61.36 61.74 63.04 64.77 66.64 67.70 67.01 67.81 67.83 68.04 68.13 69.01 69.90 70.60 71.20 70.40 69.92 66.80 66.25 67.05 64.00 61.88 59.61 57.38 56.24 56.72 55.90 55.81 55.94 55.68 55.69 55.76 55.13 55.56 55.31 55.70 55.59 55.59
46.63 46.42 42.78 48.90 48.62 51.85 51.75 48.22 55.44 59.60 60.64 59.44 61.05 62.18 63.64 65.91 67.02 67.89 67.92 68.28 68.89 68.43 68.62 70.27 70.97 70.76 70.44 68.94 63.98 60.64 59.45 61.37 61.98 58.95 57.25 55.95 56.09 56.08 56.07 55.92 55.76 55.87 56.03 56.15 55.67 55.48 55.40 55.47 55.35
45.49 40.57 42.34 44.32 50.59 48.65 51.26 47.94 53.94 56.98 59.92 59.06 60.57 60.95 63.04 64.85 66.19 67.61 67.67 68.50 68.96 69.06 69.04 69.52 70.59 69.86 66.58 61.68 59.55 56.42 57.98 59.35 59.18 58.07 56.84 56.13 56.10 55.96 56.11 56.15 56.46 56.16 56.46 55.70 55.78 54.95 54.76 54.63 54.93
41.05 41.52 42.84 42.42 46.21 49.11 48.37 50.22 53.77 54.93 58.90 58.84 60.29 60.78 61.19 62.86 65.34 65.34 66.63 69.24 69.19 69.58 69.69 69.09 69.10 69.60 64.30 58.48 55.89 56.96 56.14 58.09 57.70 57.01 56.44 55.54 56.00 55.72 56.81 56.58 56.57 55.95 56.13 55.62 55.37 54.54 55.18 54.47 54.23
44.16 42.44 41.41 43.85 46.44 46.52 48.55 50.22 53.02 55.17 58.19 57.97 59.67 60.30 60.43 61.12 65.21 67.33 68.19 68.78 68.79 69.29 67.27 69.01 68.58 66.07 61.86 59.20 56.48 55.69 54.83 55.88 56.20 56.54 55.87 55.51 55.93 55.70 56.21 56.41 56.00 56.23 55.81 55.59 55.73 54.99 54.01 54.22 54.77
43.75 41.27 41.04 43.91 45.77 46.41 47.34 48.42 52.52 55.00 57.10 57.81 59.28 60.18 60.07 60.94 63.11 65.59 67.05 67.62 67.25 65.00 64.78 68.36 68.21 65.99 64.58 61.62 59.82 58.48 56.80 56.94 56.52 58.09 56.23 56.09 56.00 55.89 55.80 56.16 55.85 55.72 55.62 55.63 55.29 55.29 53.93 54.26 54.28
43.37 40.79 41.14 41.24 44.31 46.83 48.06 46.05 49.68 53.45 57.48 58.07 59.20 60.74 60.81 60.67 61.55 63.17 64.40 65.53 65.44 64.98 66.89 68.38 66.99 65.51 64.76 63.24 60.24 59.86 59.10 57.40 56.36 55.73 55.63 55.81 56.08 56.08 55.79 55.63 55.57 55.57 55.94 55.41 55.96 55.50 54.85 52.26 54.06
40.00 45.40 43.78 42.43 41.38 38.78 48.49 39.25 47.14 50.97 54.36 56.47 57.94 58.58 58.73 59.66 60.62 62.77 63.20 63.88 64.78 66.12 67.99 68.31 67.59 65.74 64.57 63.00 60.59 58.51 55.32 54.26 55.29 55.29 55.58 55.51 55.54 55.44 55.57 55.43 55.59 55.53 55.64 54.95 55.18 54.78 54.05 53.88 50.89
42.73 46.61 44.09 43.76 41.02 42.76 43.15 41.82 45.30 49.88 50.58 54.07 57.17 58.48 58.75 58.62 59.23 60.06 62.43 64.46 65.70 67.12 67.32 67.76 67.07 65.36 64.58 62.21 59.73 58.12 57.30 56.03 55.52 55.02 54.85 55.01 55.43 55.46 55.46 55.30 55.18 54.97 55.05 54.64 54.14 53.84 52.99 52.70 51.52
48.97 45.08 44.67 44.67 43.16 34.31 39.12 41.45 42.87 46.44 49.30 52.77 56.52 58.77 59.23 58.95 58.40 58.90 59.88 61.99 63.78 66.36 67.48 66.81 66.02 64.85 62.92 61.55 59.50 58.49 57.29 55.27 54.48 54.85 54.51 54.92 55.34 55.49 55.02 54.94 54.84 54.85 54.54 54.11 53.89 53.50 52.74 52.02 51.56
47.59 42.17 32.87 33.14 34.85 35.50 42.32 39.56 43.32 50.33 53.45 53.46 55.28 57.77 59.33 58.77 57.24 56.32 58.14 59.27 59.92 61.94 63.68 64.60 63.47 61.88 60.46 58.41 57.15 56.74 56.64 55.83 54.64 54.68 54.41 54.76 54.58 54.66 54.55 54.25 53.84 53.87 53.64 52.86 52.43 51.74 51.29 50.76 49.94
44.84 42.64 35.48 29.34 31.90 35.55 44.89 39.79 44.26 50.32 51.42 51.51 52.24 55.24 55.55 54.32 54.80 55.18 57.04 58.05 58.60 60.18 61.56 62.75 62.11 57.79 56.95 56.12 55.26 54.87 56.39 55.47 54.86 55.13 54.95 54.90 54.85 54.57 53.95 53.10 52.70 51.73 51.24 50.93 50.39 49.91 49.68 49.26 48.34
44.05 39.27 42.92 34.33 36.85 34.36 39.68 45.15 48.00 49.54 49.13 50.86 51.14 51.57 51.68 52.27 53.22 53.43 55.77 57.22 58.68 60.18 60.30 59.59 56.46 55.13 54.23 53.10 53.06 53.17 53.98 54.63 54.43 54.53 54.47 53.90 53.35 52.37 51.63 51.03 50.22 49.59 49.14 48.69 48.52 47.73 47.25 47.27 46.77
45.04 46.19 37.48 38.02 34.01 31.62 38.24 39.07 40.19 46.02 47.43 48.53 49.38 50.24 49.81 50.44 50.87 52.25 54.31 55.95 57.83 56.55 55.84 54.96 52.82 51.42 51.80 52.27 52.53 53.46 53.97 53.96 53.46 52.83 51.67 51.37 51.05 50.20 49.68 49.27 48.80 48.31 47.98 47.61 47.23 46.56 46.44 45.46 45.96
43.90 42.47 42.26 43.57 41.03 34.76 33.94 36.99 44.97 44.95 47.74 48.33 49.20 49.47 49.38 49.91 50.43 51.46 52.33 53.43 53.06 52.92 52.30 51.79 51.58 51.43 51.31 52.18 52.59 52.19 51.66 51.42 51.26 50.93 50.48 50.16 49.73 49.08 48.22 47.65 47.09 46.79 46.41 46.27 45.61 45.27 45.06 44.25 44.19
45.61 41.92 43.95 37.46 36.80 41.03 37.85 37.91 47.63 47.48 49.10 49.62 48.33 48.70 49.19 49.55 50.37 51.13 51.16 51.27 50.98 50.56 50.61 50.90 50.95 50.31 51.32 51.67 51.27 50.58 50.39 50.27 49.78 49.29 49.13 48.87 48.14 47.92 47.01 46.68 45.92 45.46 45.24 45.35 44.71 44.04 44.11 43.46 43.04

GFSSGP_sfc_wetblb_096.txt.gz
Wetbulb
71.55 69.71 74.70 72.92 61.19 59.26 52.44 54.66 59.77 58.35 58.71 58.89 59.36 59.05 57.44 61.21 60.67 58.10 69.21 69.77 71.26 68.78 70.19 73.83 75.57 74.91 74.32 73.65 72.59 72.44 73.43 73.22 72.71 72.88 73.36 73.02 73.14 72.98 72.01 71.41 71.33 71.95 72.18 72.37 72.67 73.15 73.85 73.09 72.82
71.54 70.25 72.61 67.32 57.25 50.07 51.91 57.62 57.30 59.78 60.62 59.93 59.48 59.02 57.00 60.44 66.58 66.66 66.52 69.37 70.80 70.62 69.55 72.09 74.71 74.40 73.75 73.24 71.42 71.09 71.21 71.59 71.81 72.00 72.16 71.85 71.04 70.82 70.65 70.58 70.76 71.28 71.47 71.29 71.95 73.08 73.44 73.06 72.86
70.09 70.84 65.97 61.14 55.44 50.62 50.92 57.65 58.97 61.24 61.13 60.74 59.01 59.49 57.61 62.04 66.89 66.65 68.54 68.98 70.11 69.87 70.09 71.22 74.31 73.46 72.90 71.93 70.42 70.12 70.11 70.37 70.60 70.98 70.99 70.83 71.03 71.03 71.14 71.15 71.50 70.65 70.04 70.51 71.85 73.16 73.19 72.86 72.61
66.97 68.02 65.22 56.78 53.54 56.16 56.01 58.33 61.94 60.60 60.98 61.79 60.04 56.55 61.82 66.12 66.35 67.87 69.35 69.53 68.46 69.64 70.20 73.05 73.45 72.55 71.39 70.55 70.25 70.50 70.65 70.38 70.25 70.51 70.76 71.29 71.22 71.44 71.13 72.01 70.89 69.96 69.91 71.17 71.69 72.70 72.82 72.44 71.94
66.08 64.83 56.84 53.90 53.26 56.45 58.58 60.68 62.81 60.19 59.67 60.16 59.94 56.25 58.97 65.32 68.18 68.35 68.60 69.48 67.73 69.82 70.19 71.35 72.73 71.91 70.96 70.64 70.71 71.10 71.56 71.61 71.62 71.56 72.17 72.62 72.39 71.40 70.98 70.92 70.06 69.27 69.08 70.44 71.29 71.53 71.92 71.68 71.12
59.67 62.16 53.81 51.58 54.07 57.35 59.12 60.96 61.04 61.45 60.93 60.68 59.11 59.11 60.00 66.41 66.43 67.49 68.78 68.18 68.33 69.37 69.68 70.26 72.31 71.91 71.27 71.12 71.21 71.64 71.81 72.06 72.08 71.69 71.90 71.95 71.14 70.31 70.17 69.90 69.26 68.52 68.00 68.14 68.94 69.12 69.35 68.89 68.36
57.88 56.53 53.41 53.80 54.24 56.23 58.83 62.50 61.00 61.27 60.75 60.08 61.26 57.74 61.99 64.21 66.76 67.86 67.93 67.45 68.59 68.54 68.30 68.09 69.13 71.05 72.18 71.87 71.58 72.11 72.64 72.71 72.64 72.26 71.05 70.59 69.90 69.27 68.87 68.41 67.96 67.50 66.99 66.54 66.26 66.41 66.32 65.96 65.34
59.56 57.49 52.92 54.56 53.75 54.51 60.31 61.14 62.41 61.59 60.94 64.30 63.23 58.27 58.70 63.98 67.09 67.56 67.31 66.74 67.37 67.10 66.54 66.22 67.57 68.71 69.04 70.12 72.92 72.79 72.67 72.70 71.64 70.78 70.46 69.92 68.78 68.20 67.53 66.61 65.83 64.97 64.51 64.09 63.61 63.06 62.58 62.12 61.62
62.19 52.53 49.85 52.59 54.36 56.25 61.11 59.93 62.06 62.13 61.49 62.46 62.11 61.94 64.61 66.50 67.08 66.11 65.21 65.44 66.03 66.49 65.63 65.99 66.53 67.53 68.95 69.97 71.91 72.30 72.80 71.99 70.59 69.88 70.35 68.80 63.73 62.47 62.29 64.65 64.46 63.58 62.56 61.56 60.37 59.93 61.43 61.97 63.27
54.48 50.67 51.26 56.33 57.53 57.09 59.55 59.73 61.36 59.11 59.89 60.38 59.94 64.43 65.91 65.94 65.38 64.48 63.79 63.23 63.72 64.08 65.39 66.28 66.63 68.01 68.99 70.61 70.12 69.78 69.84 67.75 65.50 64.80 64.82 63.23 61.64 61.30 61.78 62.05 62.42 61.52 61.09 60.27 59.04 57.65 61.23 59.64 50.69
52.60 48.72 53.21 54.28 55.76 57.08 56.97 58.83 61.76 58.77 57.43 60.24 59.61 62.61 64.54 64.41 64.49 64.59 64.17 63.97 63.38 64.58 66.03 66.62 67.41 69.20 68.18 69.82 69.28 69.39 69.24 66.91 62.10 61.85 60.37 60.77 60.15 59.59 57.47 56.16 53.94 53.32 58.50 52.60 53.96 52.03 51.56 50.54 50.62
46.99 50.96 51.73 53.41 54.76 54.37 53.56 59.28 58.92 58.47 59.16 62.18 63.23 64.51 64.80 63.76 64.10 64.69 64.18 64.11 63.93 64.98 65.19 66.31 67.31 67.77 68.26 69.50 68.71 68.74 65.03 60.70 58.43 57.73 57.15 56.51 55.46 53.07 53.41 52.22 51.61 51.39 51.44 51.00 50.87 50.55 50.67 50.10 49.77
46.13 47.92 49.92 51.23 52.32 52.99 54.93 54.52 57.05 58.96 61.53 62.72 64.03 62.28 64.45 64.15 64.56 65.66 65.70 65.34 64.66 64.96 65.12 65.55 66.50 66.71 68.19 69.12 66.80 66.40 60.91 58.73 57.13 54.74 54.30 52.96 51.80 50.33 51.13 50.94 51.16 50.81 51.11 50.46 50.23 49.73 49.72 49.26 49.55
48.50 48.09 48.09 50.00 50.87 51.35 50.73 53.20 54.95 57.39 61.06 61.14 61.92 60.92 64.05 64.73 64.82 65.40 65.16 64.63 64.26 65.34 65.59 66.38 66.41 67.62 68.19 68.06 67.50 65.39 61.90 58.31 56.49 54.63 52.61 52.46 51.79 50.97 51.11 50.90 51.25 50.85 50.93 50.58 50.24 49.85 49.73 49.23 49.47
49.15 45.18 46.90 47.51 48.77 49.91 51.43 47.95 50.76 55.72 58.01 59.69 59.57 60.22 60.86 64.97 65.48 65.33 65.48 64.39 64.54 65.60 66.01 66.51 66.59 68.24 67.98 65.19 64.73 64.54 61.83 59.37 56.27 55.16 52.83 51.95 52.28 50.95 51.41 50.74 50.86 50.65 50.00 50.41 50.90 50.28 50.40 50.31 51.52
45.60 45.13 39.62 45.91 47.82 48.29 48.47 42.47 49.78 55.77 56.02 56.66 59.23 59.37 60.20 63.60 65.26 65.82 66.31 65.66 65.18 65.68 66.06 67.50 68.31 67.38 66.80 63.79 61.48 60.15 60.82 58.60 57.17 55.65 54.11 53.57 53.48 53.03 52.33 51.74 50.72 50.56 50.91 50.91 50.31 49.75 49.90 49.80 49.81
44.45 38.45 40.42 43.20 47.70 47.34 45.32 42.75 50.42 52.96 54.55 55.10 57.63 58.80 59.91 61.36 64.67 66.15 65.96 65.82 65.73 65.24 66.48 68.24 68.08 65.66 62.90 60.99 60.81 59.71 59.36 58.17 56.30 54.16 52.69 53.07 53.59 53.34 52.50 52.21 51.95 51.88 51.21 50.44 50.14 49.28 48.93 48.72 48.88
39.60 39.61 41.40 40.70 45.27 45.79 44.26 43.39 48.32 51.99 52.03 53.18 56.64 58.71 58.74 60.72 63.55 64.77 65.89 66.32 66.01 65.64 66.80 68.94 68.16 63.61 62.07 59.42 57.31 56.82 57.71 56.17 55.14 52.85 52.47 52.17 52.64 52.68 51.98 52.11 51.24 51.36 50.37 49.67 49.25 48.24 48.77 48.12 48.10
44.80 42.17 40.55 42.58 45.73 43.80 42.49 43.49 46.85 50.83 52.76 52.62 54.95 57.73 57.95 60.90 63.85 64.64 65.42 65.46 65.50 65.84 66.93 67.90 66.56 62.21 59.62 57.12 56.88 56.38 53.59 53.59 52.23 52.92 52.38 51.45 51.67 52.12 51.58 51.43 51.25 51.20 50.55 49.69 49.69 48.56 47.61 48.06 48.44
44.55 41.91 40.38 42.55 45.01 43.21 41.97 41.60 45.84 50.84 52.62 53.81 56.08 56.75 57.35 57.77 62.37 63.83 63.70 63.19 64.19 65.85 66.41 66.91 64.77 61.03 59.38 58.06 58.31 57.38 53.38 52.58 52.73 52.64 51.98 51.74 51.69 51.73 51.75 51.20 50.81 50.46 49.61 49.15 49.21 48.66 47.67 48.03 47.88
43.09 41.21 40.76 39.80 42.72 43.90 41.81 39.52 42.53 48.29 52.18 56.13 56.87 57.59 58.61 57.94 58.97 62.49 61.68 63.39 65.49 63.65 62.13 66.64 64.42 61.96 60.61 59.56 58.76 56.70 54.23 53.48 51.77 51.22 50.59 50.91 51.73 51.54 50.89 51.02 50.43 49.60 49.68 49.35 49.81 49.39 48.54 46.39 47.58
39.52 45.21 43.78 41.70 39.57 33.14 41.72 31.93 40.93 46.66 48.53 53.66 55.10 55.72 56.25 57.09 58.85 62.27 62.78 63.50 63.71 62.97 63.37 67.18 65.66 64.33 62.64 61.48 57.72 55.13 52.17 50.56 50.68 51.22 50.94 50.68 51.19 51.04 51.29 50.65 50.01 49.39 49.95 49.23 49.22 50.87 48.35 47.29 45.14
42.26 45.24 43.07 43.06 39.12 37.02 37.60 35.02 40.83 46.24 45.94 51.41 53.58 54.82 56.06 56.95 56.85 59.65 62.27 62.41 63.63 62.89 65.14 66.61 65.02 63.98 63.60 61.65 58.27 54.03 51.63 51.71 51.63 52.58 50.47 50.05 50.06 50.35 51.12 50.60 49.86 49.53 49.26 48.68 47.98 47.34 46.69 46.18 45.27
48.50 44.12 42.59 41.95 39.27 30.87 36.44 37.43 38.00 42.67 45.97 51.15 53.37 55.10 55.37 55.75 56.27 56.75 58.71 62.30 62.51 64.65 65.51 66.16 64.59 63.70 62.79 61.12 56.67 54.38 53.86 50.60 51.14 49.48 50.75 49.13 49.60 49.87 50.18 50.82 49.47 49.24 48.96 48.52 48.00 47.50 46.86 45.59 44.63
46.08 40.51 30.75 29.57 30.84 29.34 40.20 36.49 38.28 45.01 48.30 49.89 51.61 51.86 55.72 55.59 55.00 55.10 55.61 58.01 60.04 62.78 64.30 64.36 63.69 62.29 61.39 57.83 56.02 54.96 52.10 51.76 51.68 51.06 51.19 50.26 49.25 49.23 48.97 48.93 48.62 48.35 47.89 47.43 46.77 45.67 44.76 44.11 43.05
43.35 40.25 33.02 25.06 30.35 33.15 39.68 35.12 40.44 48.39 49.44 51.53 53.23 55.88 56.58 54.87 52.86 53.91 55.80 56.28 58.14 59.62 61.01 61.31 61.44 59.12 59.09 54.82 53.99 53.49 52.05 50.42 50.97 52.08 51.56 51.59 49.20 49.05 48.55 47.79 47.27 46.87 47.00 45.89 44.71 43.59 43.40 42.83 41.73
42.25 38.99 41.66 34.36 35.50 34.00 35.22 40.03 45.20 48.13 48.28 48.89 49.38 49.77 49.87 50.22 50.70 52.53 54.03 54.89 56.30 57.80 59.01 60.09 57.51 55.81 53.39 52.01 51.28 50.12 50.09 51.66 51.44 51.25 51.02 48.73 47.73 48.82 46.66 46.37 45.08 44.49 44.28 43.80 42.61 41.39 40.78 40.59 39.90
44.80 45.17 36.88 36.36 30.21 27.84 34.22 34.83 35.95 42.38 44.60 46.79 46.15 45.77 46.77 47.96 48.78 50.73 52.72 54.80 56.72 57.40 56.87 54.28 52.24 49.85 49.32 49.46 49.15 49.86 51.70 51.84 50.70 49.47 47.03 45.90 45.07 45.17 44.92 44.61 43.91 43.57 43.05 42.31 41.07 40.27 40.57 39.44 39.07
42.36 40.43 41.76 40.21 38.33 33.40 29.31 32.94 42.38 42.76 44.92 44.99 45.04 45.60 46.06 46.73 47.71 48.96 50.35 50.47 50.77 50.44 49.60 48.63 48.67 48.19 48.22 50.54 49.17 49.69 49.62 49.24 48.21 45.87 45.31 44.70 44.25 44.16 43.84 43.60 42.86 42.30 41.63 40.82 39.31 38.88 39.22 38.56 37.95
44.96 41.70 42.76 36.19 34.33 36.70 34.85 32.62 44.07 45.70 46.04 45.72 45.37 48.06 47.24 47.76 48.06 48.04 47.59 47.23 47.67 47.75 48.95 48.78 49.29 49.20 49.32 49.53 47.89 47.70 46.92 45.30 44.31 43.74 43.58 44.07 43.16 43.40 42.76 42.32 41.58 40.93 40.64 39.88 38.91 38.55 38.72 37.93 37.34

GFSSGP_sfc_wetblb_099.txt.gz
Wetbulb
72.39 70.03 70.05 69.12 56.35 55.43 49.43 51.89 54.71 55.69 53.74 54.69 56.94 56.93 58.53 59.97 60.44 52.75 67.73 68.74 68.61 70.98 73.79 74.57 76.23 75.05 74.47 74.24 74.40 74.18 73.53 73.64 73.89 73.75 73.67 73.45 72.90 72.14 71.64 71.67 71.81 72.00 72.28 72.62 73.47 73.41 73.01 72.42 72.48
70.22 69.66 67.01 62.76 53.05 46.50 47.86 54.86 55.41 56.02 56.25 56.57 57.54 56.16 56.72 59.73 65.51 65.24 65.54 67.55 68.00 71.42 73.25 73.85 75.61 74.85 73.39 72.60 72.61 72.93 72.91 72.59 72.68 72.59 71.90 71.24 71.12 70.91 70.80 70.89 71.06 70.86 71.49 72.58 73.63 73.36 73.13 72.58 72.43
69.39 69.15 61.64 56.91 52.83 48.52 48.07 53.19 56.04 58.93 57.65 57.70 56.31 56.58 59.10 61.51 65.47 65.06 67.52 67.91 68.36 69.41 72.33 73.53 75.05 74.08 73.09 71.66 71.18 71.07 71.08 71.20 71.49 71.06 70.92 71.21 71.04 71.12 71.22 71.24 70.40 70.57 71.38 72.67 73.51 73.15 72.84 72.29 71.94
63.64 63.82 61.11 53.98 51.43 53.80 54.02 56.32 59.19 59.41 59.93 59.08 56.96 56.02 58.96 65.84 65.58 65.09 68.67 69.28 67.81 67.64 70.95 74.15 74.22 73.32 71.89 70.71 70.55 70.49 70.53 70.86 70.80 70.79 71.20 71.31 71.63 71.66 72.33 70.95 70.57 71.39 71.88 72.22 72.80 72.70 72.13 71.78 71.43
61.55 60.52 53.72 51.55 52.52 55.19 56.00 57.85 61.18 59.37 58.70 58.88 56.48 55.05 57.17 63.52 66.87 67.09 66.95 68.62 67.51 68.36 70.92 71.81 72.89 71.84 70.85 70.65 71.14 71.18 70.88 70.94 71.29 71.88 72.72 72.47 71.99 71.92 71.29 70.34 69.84 70.33 70.97 71.16 71.43 70.76 71.01 70.14 69.59
55.25 57.64 51.18 49.85 51.37 55.80 56.89 57.90 61.46 59.95 59.64 60.65 57.92 57.24 58.38 64.45 65.94 66.36 67.60 68.32 68.95 69.31 70.26 70.54 71.96 71.43 71.02 71.28 71.88 72.18 72.23 72.45 72.53 72.41 72.48 71.70 71.17 71.22 70.42 69.71 69.07 68.74 69.19 69.46 69.54 69.17 68.74 68.28 67.06
53.24 52.10 50.07 51.39 52.14 54.20 57.10 60.68 57.19 57.93 58.91 59.69 61.46 56.47 59.56 61.83 65.27 66.27 67.45 68.56 68.82 69.25 68.72 68.68 68.94 70.39 72.39 72.17 72.27 72.66 72.87 72.64 72.43 72.23 71.57 70.75 70.25 69.95 69.44 68.83 68.31 67.65 67.25 67.01 66.63 66.42 66.09 65.21 64.57
55.17 52.96 49.09 50.42 51.58 52.57 58.99 60.64 61.78 60.41 59.24 63.64 63.39 57.34 56.66 62.06 65.37 65.46 66.69 67.23 67.55 67.46 67.52 66.01 67.41 68.22 68.51 69.93 73.42 73.20 73.14 72.88 71.97 71.42 70.42 69.67 68.91 68.33 67.62 66.79 66.14 65.61 65.02 64.28 63.82 63.11 62.41 63.25 63.60
58.05 48.33 46.86 49.58 52.07 54.38 59.24 56.99 61.28 61.98 60.49 61.05 61.88 60.95 63.37 65.28 65.51 63.38 64.04 64.54 64.87 65.62 65.56 66.50 66.72 67.51 68.30 69.60 72.08 72.80 72.77 71.51 71.07 70.54 70.42 66.79 60.97 61.53 61.89 64.68 64.40 63.26 62.13 61.69 61.81 62.34 61.71 61.91 63.79
50.84 47.24 48.78 54.39 55.25 54.46 55.53 54.17 59.82 57.54 57.33 58.50 59.75 63.12 65.02 65.19 64.27 62.34 62.55 61.96 62.50 62.85 63.94 65.81 66.15 66.95 68.75 71.19 69.60 69.19 69.83 66.56 64.83 65.27 63.59 61.08 58.96 59.02 60.83 61.97 62.56 61.77 61.33 61.64 61.93 60.40 60.41 54.54 48.52
47.79 46.18 51.29 52.55 53.88 53.92 52.87 52.28 61.38 58.66 56.13 59.55 58.53 60.95 63.67 63.81 63.07 62.12 62.35 62.82 62.34 62.83 64.29 65.12 65.84 67.48 68.96 69.33 69.06 68.84 66.92 64.87 63.28 63.10 60.34 60.26 59.89 57.79 55.36 53.22 53.20 52.58 57.06 50.49 50.96 49.91 48.87 47.63 48.12
42.35 47.74 51.30 52.70 53.74 52.46 50.82 53.11 53.73 58.55 59.24 61.85 62.55 61.53 63.35 62.71 62.62 62.08 61.69 61.81 61.47 62.72 63.99 64.81 66.38 68.14 68.63 68.77 68.51 68.11 67.04 62.81 58.00 57.58 58.87 57.18 55.99 53.56 52.67 51.32 49.46 49.04 49.94 47.76 48.16 47.93 47.66 47.84 47.24
42.52 44.87 48.35 48.97 49.16 49.53 50.34 49.61 51.37 56.52 58.37 60.74 62.02 63.59 62.41 62.40 62.47 63.26 62.52 62.87 62.62 62.91 64.06 65.01 67.54 67.74 68.34 67.74 66.77 66.15 58.76 56.70 53.53 53.10 53.75 52.60 51.68 49.60 50.32 48.53 48.60 48.05 48.08 48.24 47.85 47.48 47.60 47.25 47.27
44.97 45.69 46.03 47.32 47.18 48.39 48.78 48.86 50.26 53.08 59.81 59.66 61.14 61.96 62.39 62.98 63.67 63.29 62.65 62.41 62.78 63.11 63.57 65.51 67.04 67.70 68.16 66.75 63.93 60.40 56.74 54.21 52.51 51.02 50.35 50.40 49.09 48.67 48.31 48.20 48.07 48.33 48.00 47.97 47.52 47.72 47.95 47.46 47.26
47.12 42.12 43.74 44.66 45.99 45.74 48.56 45.14 46.96 52.66 56.31 57.98 58.63 59.24 61.00 62.77 63.73 63.76 64.05 62.82 63.69 64.08 63.54 64.87 66.39 68.00 67.01 65.85 61.99 59.95 56.70 54.48 52.33 51.94 49.86 50.54 49.87 49.52 49.23 48.58 48.21 47.31 47.38 48.70 47.96 47.88 48.00 48.39 49.16
43.28 41.46 35.63 42.62 44.80 46.30 45.37 38.87 46.37 50.36 51.33 52.30 56.53 56.95 58.35 62.44 63.41 64.68 64.56 63.44 64.57 64.67 64.10 64.90 67.35 65.87 65.10 63.06 62.31 59.04 56.48 54.39 53.82 53.63 52.27 52.11 52.24 50.79 51.13 49.55 48.80 48.10 48.61 48.75 48.04 47.51 47.64 47.54 46.98
39.31 33.75 36.22 39.60 45.51 44.27 42.66 40.16 45.21 49.46 50.68 50.76 52.59 56.88 58.50 57.34 61.58 62.16 64.60 63.58 64.40 64.86 64.75 65.76 65.25 63.51 60.90 61.20 60.35 59.22 58.92 55.88 54.40 51.17 50.01 50.83 51.73 52.19 50.26 50.44 49.92 50.58 49.36 48.84 48.42 46.79 46.82 46.59 46.77
37.50 36.70 38.74 37.63 42.81 43.96 40.98 39.62 44.20 47.75 49.81 49.81 50.21 56.55 57.75 58.85 60.65 62.76 64.41 64.29 63.91 64.67 66.24 65.97 64.91 61.76 60.85 59.74 59.12 59.14 59.25 58.62 56.08 50.94 50.41 50.77 50.54 50.75 50.04 50.36 49.15 49.52 47.85 47.53 47.12 46.79 46.87 46.46 46.35
42.35 40.47 38.95 42.01 45.51 41.42 40.13 40.22 41.74 44.66 46.41 47.45 49.00 52.35 57.68 58.57 60.81 63.43 63.62 63.81 63.81 65.36 66.74 65.40 64.02 60.78 59.13 57.49 56.66 56.72 58.17 57.10 52.68 51.58 51.35 50.90 49.87 50.12 49.60 49.35 48.32 48.56 47.80 47.21 47.20 46.91 45.50 45.97 45.99
42.29 39.47 37.95 41.23 44.16 40.98 39.72 39.08 42.17 42.98 45.25 47.94 49.35 50.39 53.57 57.14 60.89 62.40 63.31 63.27 63.71 63.74 66.72 64.76 62.98 60.57 59.41 59.20 58.94 59.72 58.12 53.00 52.07 51.89 50.85 50.80 49.72 49.76 50.17 49.62 48.54 48.04 47.90 47.33 47.29 46.78 45.62 46.03 45.70
41.40 38.88 39.14 38.97 42.08 41.62 38.44 36.44 38.49 42.97 43.72 48.29 51.66 54.37 55.74 57.37 58.36 60.51 61.97 62.63 62.77 64.23 66.44 64.33 61.91 60.46 60.22 59.80 59.50 58.19 55.57 51.47 50.50 49.96 49.46 49.86 50.16 49.94 49.97 49.19 48.76 47.85 47.40 47.17 47.14 47.12 46.32 44.95 45.37
38.38 44.61 43.55 41.43 37.54 30.71 37.28 28.48 35.36 39.20 42.10 45.04 50.19 52.96 55.75 57.25 56.91 59.36 61.49 61.41 60.96 63.56 65.25 63.78 61.80 60.51 60.51 59.40 58.36 55.71 53.68 50.52 50.22 49.56 49.57 49.15 49.94 49.45 49.28 49.53 48.62 47.58 47.63 47.20 47.32 48.75 46.67 45.68 44.22
41.49 46.19 43.04 42.16 37.66 33.73 35.45 29.22 33.14 38.98 41.14 43.54 47.44 51.57 55.18 56.69 56.33 57.62 61.60 61.08 62.17 64.01 65.45 64.09 62.75 61.57 60.68 58.64 58.21 55.78 52.95 52.37 54.10 51.38 48.88 48.74 49.72 49.30 49.47 48.95 48.07 47.28 47.30 47.03 47.14 46.03 45.11 44.59 43.71
46.97 43.92 42.35 40.72 38.10 28.16 33.37 32.34 31.26 38.08 41.20 44.38 48.12 52.19 54.18 54.58 55.51 57.72 60.47 63.03 62.25 62.68 65.68 64.87 63.62 62.71 62.03 60.06 56.88 54.71 52.84 51.69 52.05 48.51 47.88 49.42 47.76 49.37 49.48 48.77 47.36 47.52 47.29 46.76 46.07 45.31 44.81 43.86 43.00
45.55 39.32 29.56 26.08 28.52 28.71 38.23 33.91 34.18 43.00 46.72 47.21 47.85 50.08 52.17 53.55 53.53 55.60 57.77 59.44 60.70 63.48 63.88 64.06 63.22 61.91 61.99 60.21 56.07 55.41 53.39 51.93 50.55 47.99 47.95 48.74 47.58 49.25 48.52 48.64 47.26 46.44 45.81 45.58 44.95 43.89 43.13 42.43 41.23
41.86 39.21 31.69 23.28 27.53 31.27 36.12 31.83 38.73 45.54 48.73 49.54 50.61 52.16 52.15 52.50 52.58 53.73 55.84 57.40 59.54 61.32 63.00 63.21 62.33 61.59 60.38 57.38 56.18 55.51 51.37 50.43 49.33 48.93 50.15 48.54 50.13 49.52 48.02 47.26 46.17 45.97 45.53 44.45 43.13 41.83 41.63 40.26 39.50
40.41 39.02 40.11 32.53 33.80 32.00 33.82 37.89 44.05 46.65 47.24 47.51 48.67 48.35 48.73 49.61 52.10 52.93 54.10 55.79 56.87 58.04 59.41 58.97 60.04 58.74 55.80 52.70 52.39 48.98 48.48 48.94 48.66 49.82 48.69 48.98 47.67 48.31 46.94 44.15 42.88 42.63 42.57 41.95 40.83 39.79 39.34 38.81 37.94
41.91 44.53 36.96 35.63 29.96 23.33 32.52 33.22 35.20 42.59 44.02 44.93 44.85 47.99 48.32 50.13 50.54 51.87 53.38 54.86 55.64 54.66 52.82 54.08 53.71 51.54 50.88 50.67 49.56 49.99 49.77 49.24 49.11 47.51 46.49 45.80 46.03 45.44 43.21 42.67 42.29 41.90 41.35 40.60 39.34 38.45 38.51 37.57 36.88
38.60 37.07 41.05 40.19 36.28 31.84 27.26 31.20 42.16 40.98 42.85 42.35 41.88 44.16 45.98 46.24 46.93 47.47 47.62 47.48 47.01 47.48 48.99 49.23 49.13 48.09 48.36 49.59 49.77 48.93 47.98 47.87 46.63 46.50 45.78 45.13 44.58 42.76 42.41 42.18 41.34 40.92 40.12 39.13 37.66 36.75 37.20 36.41 35.74
40.14 37.27 41.65 34.77 34.16 36.44 34.48 31.51 41.60 42.29 42.69 43.31 42.72 44.16 44.33 45.06 45.36 45.45 45.19 45.06 44.62 44.64 46.21 45.54 47.34 49.04 48.44 48.18 46.66 46.49 46.51 43.83 45.28 44.30 43.07 42.53 41.37 41.65 41.19 40.60 40.16 39.66 39.28 38.15 37.42 36.85 36.65 35.91 35.54

GFSSGP_sfc_wetblb_102.txt.gz
Wetbulb
71.10 69.23 69.22 67.41 53.22 53.25 47.88 50.11 53.12 54.49 54.19 54.23 56.41 57.24 57.17 59.54 57.76 48.73 67.15 68.64 70.05 72.13 73.77 74.69 76.16 75.36 74.59 75.05 75.13 74.69 74.68 74.48 74.35 73.97 73.68 72.84 72.43 72.15 72.04 71.74 71.63 71.92 72.38 73.36 72.88 72.42 72.59 72.89 73.04
69.70 69.34 65.78 60.89 50.98 44.69 45.20 53.02 53.88 56.31 57.40 54.85 59.03 58.77 58.54 59.18 64.71 64.15 64.67 68.91 71.63 72.62 73.46 73.82 75.50 74.73 74.16 74.62 74.15 73.56 73.71 73.73 73.05 72.25 72.09 71.48 71.08 70.91 70.95 70.60 70.95 71.82 72.82 73.32 73.07 72.49 72.37 72.47 72.12
68.10 68.74 61.07 55.96 50.90 45.93 45.75 51.83 54.15 58.03 57.13 57.39 54.60 58.31 60.15 60.76 64.54 65.78 66.29 69.11 72.06 72.21 73.20 73.68 74.73 73.63 72.98 73.13 73.03 72.78 72.65 72.48 71.97 70.92 70.88 70.96 70.82 71.14 70.56 70.61 71.07 71.90 73.36 73.20 72.98 72.27 72.08 70.88 72.08
62.91 62.55 59.91 53.40 50.30 52.54 51.27 51.59 57.36 58.88 60.59 60.33 57.42 55.26 59.97 64.67 64.95 64.92 66.98 69.64 70.69 71.08 72.03 74.47 74.35 72.45 72.03 71.57 71.48 71.04 71.28 71.09 70.69 71.07 71.05 71.23 71.99 71.45 71.20 71.48 71.97 71.74 72.69 72.57 72.32 71.93 71.04 69.99 72.89
60.48 60.08 52.56 50.99 52.28 54.29 55.92 56.99 57.90 58.70 60.56 59.51 58.32 54.85 57.81 63.73 65.69 66.48 66.32 67.93 69.01 69.97 71.84 72.63 73.84 72.27 71.14 70.63 70.67 70.80 70.86 70.69 71.13 71.47 72.43 72.94 72.29 71.46 70.79 70.93 71.26 71.18 71.40 71.34 71.03 70.42 69.87 68.60 69.57
53.43 56.12 49.83 48.77 51.08 54.95 55.35 56.91 59.16 59.77 59.14 59.59 58.99 56.36 57.71 63.28 65.90 66.48 67.29 66.18 69.28 70.34 70.84 71.13 72.28 71.38 70.90 71.08 70.96 70.96 71.19 71.68 72.00 72.76 72.15 71.71 71.68 71.01 70.19 69.76 70.00 70.14 70.12 69.77 69.38 69.01 67.79 66.67 67.98
51.05 51.24 48.55 49.32 51.04 53.16 56.40 59.12 55.37 57.10 59.35 59.06 61.34 56.22 58.59 60.66 64.43 67.08 66.81 67.34 69.07 70.02 69.19 68.46 68.18 69.83 72.36 72.07 72.41 72.54 72.62 72.88 72.77 72.27 71.63 71.13 70.47 70.20 69.53 68.97 68.51 68.13 67.75 67.12 66.56 66.23 65.23 64.74 66.26
54.17 51.40 47.32 48.84 50.16 51.78 58.02 60.33 61.25 60.85 59.48 63.06 63.07 57.17 56.93 62.48 64.66 67.30 67.35 67.64 68.02 68.31 67.85 65.88 66.54 67.82 68.21 70.02 73.33 73.02 72.96 72.78 72.34 71.41 70.64 70.08 69.43 68.83 68.10 67.35 66.96 66.25 65.05 63.97 63.54 64.51 63.70 65.55 64.68
55.71 46.83 44.82 47.62 50.74 53.25 57.72 55.12 60.48 61.36 59.30 60.89 62.36 60.40 62.78 64.63 65.94 66.10 65.61 65.94 66.27 66.73 66.06 66.33 66.13 66.99 67.93 69.84 71.84 73.08 73.02 72.38 71.63 70.19 69.75 66.28 61.25 61.49 61.45 64.65 64.40 63.31 63.09 63.11 62.82 62.48 61.97 63.20 63.30
48.23 45.06 47.02 53.02 53.66 53.00 53.42 52.24 58.28 57.88 56.21 57.46 59.61 62.14 64.09 64.65 63.34 63.98 63.78 63.23 63.81 64.58 65.36 65.99 66.05 66.67 68.16 71.31 69.41 68.55 69.38 67.11 65.74 64.62 60.15 58.72 58.48 58.54 60.00 62.26 63.71 62.50 62.11 62.76 61.55 61.80 59.63 53.60 47.68
44.76 44.52 50.05 51.85 53.31 53.85 51.72 51.17 55.63 56.46 54.82 57.60 57.87 59.79 63.09 64.17 62.54 62.93 63.32 62.99 62.66 63.98 65.47 65.96 66.18 67.44 68.77 69.42 68.86 67.18 65.28 63.77 64.23 61.07 59.10 57.94 58.74 56.58 54.00 52.62 52.11 50.85 55.46 48.04 49.57 47.87 46.89 46.03 46.81
40.31 45.05 45.82 50.47 53.27 52.61 50.51 50.95 53.83 57.72 58.35 61.95 62.76 60.88 62.30 62.40 63.15 62.01 61.96 62.18 61.99 62.56 64.56 65.81 66.59 67.97 68.77 69.04 68.44 66.38 64.72 61.95 61.47 59.81 58.71 57.28 53.64 51.72 50.83 49.03 48.75 48.29 47.79 46.31 46.06 45.39 45.35 45.51 45.30
40.58 43.03 46.08 47.15 47.50 47.78 48.55 47.96 48.69 55.55 59.48 62.24 63.16 62.48 61.96 62.64 62.90 63.20 62.96 63.00 62.16 62.11 63.83 64.97 66.21 67.72 68.10 67.83 67.54 66.33 63.24 60.03 58.73 58.64 57.25 55.79 51.58 49.99 50.01 47.92 47.15 46.39 46.06 46.60 45.80 45.71 45.75 44.79 44.86
43.28 44.96 44.80 45.61 45.72 46.39 46.01 46.98 49.13 51.99 58.88 59.98 61.17 61.17 61.52 61.95 62.66 62.92 62.43 61.84 61.54 62.40 63.21 64.77 65.99 67.73 67.75 67.16 66.67 65.63 57.76 55.19 55.35 56.02 55.43 54.24 50.79 49.41 48.03 46.55 46.43 46.28 46.34 45.86 45.83 45.94 45.95 45.57 44.84
46.07 41.62 43.02 43.96 44.13 43.93 46.46 42.94 44.00 50.19 57.88 56.64 58.35 59.81 61.30 62.10 63.06 62.50 63.07 62.23 62.06 62.80 63.47 64.18 66.42 67.71 66.95 65.71 63.02 58.15 55.57 53.51 51.81 50.81 49.41 51.36 49.29 48.03 47.29 46.88 46.21 45.67 46.03 46.35 46.42 46.27 46.24 46.48 46.80
42.05 40.11 35.03 42.39 43.59 44.62 43.54 35.97 44.02 47.62 47.92 52.97 55.55 59.26 60.93 61.47 62.59 63.85 63.89 63.32 62.90 63.51 63.10 65.10 66.97 67.30 66.55 63.42 59.12 56.21 52.90 52.49 50.65 49.66 49.58 50.77 49.69 48.79 47.72 47.59 47.04 47.71 47.98 47.01 46.45 46.71 46.56 46.22 45.59
38.31 33.05 35.55 38.99 44.92 43.75 41.44 36.88 43.65 45.65 46.34 47.27 47.77 54.75 58.52 60.67 61.79 61.33 64.01 62.94 63.52 63.45 63.89 65.35 66.11 65.50 62.96 60.33 57.70 55.78 53.78 52.64 52.19 49.46 49.05 49.55 49.83 49.75 48.28 47.82 47.15 47.97 47.92 46.77 47.97 46.45 46.91 45.68 45.42
35.04 35.56 37.91 37.48 41.88 43.38 40.56 38.50 41.78 44.21 44.27 45.29 47.18 48.39 55.35 59.46 61.16 62.25 63.39 63.15 64.12 63.98 65.19 65.13 64.39 62.07 61.77 59.44 58.15 57.88 57.81 57.65 53.07 51.11 49.23 49.40 49.60 49.59 48.54 47.36 47.46 47.38 47.35 45.95 46.68 46.00 45.29 45.00 44.88
40.48 38.40 37.16 40.72 44.41 41.42 40.41 39.98 40.56 42.85 41.75 42.02 43.91 46.29 50.44 56.25 61.77 62.61 62.59 62.87 63.67 64.11 64.79 64.10 62.61 61.26 59.56 58.28 56.74 55.75 55.35 56.98 54.07 50.80 49.75 49.72 50.72 49.66 48.30 48.14 47.33 47.14 46.94 46.08 45.88 45.41 45.00 44.90 44.43
41.43 38.30 37.48 40.35 43.37 41.58 40.14 39.07 40.74 41.83 41.96 42.37 43.24 45.14 49.50 53.43 57.00 60.82 61.76 62.22 62.95 63.56 64.33 64.10 63.42 60.31 59.54 58.85 59.03 58.42 58.21 58.08 53.30 51.41 50.06 49.92 49.56 49.86 49.90 48.12 47.56 47.49 47.20 46.60 46.11 45.40 44.62 44.73 44.23
40.58 38.46 38.19 38.53 41.73 41.04 38.02 37.19 37.39 40.89 41.82 42.87 43.90 46.00 49.18 51.72 58.84 61.01 61.03 61.47 62.21 64.01 64.55 64.00 61.23 60.71 60.47 60.36 59.60 58.60 56.07 54.58 53.67 50.83 50.58 49.38 49.62 49.89 49.80 48.74 48.14 47.20 46.63 46.62 46.17 45.91 45.52 44.20 44.60
37.64 43.71 43.06 41.71 38.85 32.68 37.32 28.93 34.04 37.56 38.79 40.86 44.22 45.63 51.51 56.96 60.11 60.81 61.47 61.05 61.99 64.00 65.50 63.46 61.16 60.74 60.58 60.19 60.13 58.52 57.56 54.54 53.49 51.09 50.12 48.49 48.62 48.55 49.66 48.53 48.20 47.54 46.90 46.34 46.70 47.48 45.90 45.03 43.75
41.03 45.98 43.15 42.15 38.83 36.23 36.30 30.67 31.55 36.73 38.27 42.33 44.40 46.83 49.41 56.87 59.99 60.55 61.22 61.65 63.14 63.92 64.18 62.12 61.26 61.09 60.45 60.62 59.94 58.82 56.48 54.11 52.68 52.97 52.40 49.71 47.72 48.39 48.23 48.06 47.04 46.48 46.85 46.31 46.33 45.43 45.06 44.44 43.36
46.75 44.03 41.11 39.25 37.24 29.34 34.62 31.21 29.51 37.09 40.47 43.53 46.85 48.26 48.98 55.00 57.58 60.30 61.56 62.36 62.47 64.04 63.16 61.83 61.32 61.43 60.38 60.10 58.38 57.47 54.89 52.72 52.84 51.87 51.20 49.91 47.57 47.52 49.11 47.79 47.62 47.61 45.86 45.35 44.88 43.99 43.78 43.26 42.33
44.48 38.83 29.92 24.83 28.43 28.59 36.02 32.85 31.58 41.08 44.30 45.55 46.40 47.99 50.31 51.43 54.62 57.95 59.26 59.91 61.30 63.29 62.99 62.25 61.67 61.28 60.56 59.62 57.70 56.57 55.00 53.42 52.93 52.80 51.17 48.35 46.62 46.92 47.01 46.99 48.28 45.96 45.23 45.01 44.29 42.96 42.03 41.35 40.46
40.44 40.03 32.11 21.81 27.01 29.06 36.98 31.34 37.41 42.94 46.16 48.06 47.75 49.15 51.45 52.38 54.13 56.21 59.79 59.92 60.53 63.14 63.53 63.40 62.72 61.68 61.27 58.23 57.19 56.47 56.22 55.30 54.24 52.42 50.52 48.31 47.98 48.30 47.49 48.26 46.18 45.95 44.82 43.77 42.73 41.25 40.68 39.01 38.26
38.88 36.97 39.79 32.83 34.16 28.95 33.92 38.18 41.93 46.38 46.38 47.56 47.96 48.32 49.03 51.20 53.14 54.58 56.91 58.76 60.90 62.08 62.09 61.80 61.26 60.80 59.15 56.95 56.60 55.59 53.97 51.67 51.03 50.55 50.39 48.94 48.57 47.83 46.23 46.09 44.62 42.83 42.76 41.16 40.16 38.86 38.43 37.88 36.91
40.26 42.07 35.62 36.16 28.18 21.06 30.46 32.11 33.78 42.65 43.66 45.75 47.83 48.33 48.95 50.41 51.54 53.14 54.66 54.36 54.48 55.72 57.06 59.18 58.50 57.41 55.06 52.85 49.60 48.75 49.48 49.54 48.76 47.82 46.15 46.26 44.00 45.06 43.37 42.69 42.52 40.81 40.02 39.11 38.64 37.51 37.20 36.93 35.75
35.55 34.79 39.88 37.36 36.74 30.21 24.27 28.82 39.33 38.99 42.06 41.58 45.39 49.22 47.80 47.20 47.31 45.24 44.89 46.36 47.50 48.30 47.80 48.24 50.66 50.14 50.13 50.38 49.32 48.34 47.57 47.06 46.12 45.68 45.17 43.20 44.43 42.97 43.12 41.58 40.45 39.89 38.69 37.61 36.52 36.04 36.18 35.60 34.68
37.45 34.79 38.58 32.55 31.75 35.46 32.70 30.64 38.94 39.09 40.68 42.21 42.32 43.70 44.50 45.63 45.49 44.68 44.17 44.42 44.25 45.14 47.97 48.64 49.32 48.50 48.09 47.78 46.97 46.15 45.71 43.72 44.87 43.65 41.89 43.84 41.51 40.67 40.32 39.92 39.19 38.62 38.17 37.02 36.69 36.52 36.13 35.43 34.90

GFSSGP_sfc_wetblb_108.txt.gz
Wetbulb
70.17 67.94 69.31 64.34 49.65 50.47 43.94 46.48 49.53 51.08 53.56 53.82 54.40 52.64 51.23 54.38 52.31 46.09 64.88 68.21 68.62 69.01 72.02 73.86 76.36 75.94 75.59 75.33 75.26 75.16 74.95 74.66 74.32 74.16 73.73 72.24 71.86 71.55 71.28 71.30 72.86 72.31 72.09 72.80 72.66 72.99 72.22 71.81 71.42
67.91 67.73 64.62 59.25 46.96 40.97 42.25 49.33 50.79 52.81 56.03 56.70 55.24 55.36 56.54 56.42 63.13 63.81 65.87 68.54 69.69 71.04 71.05 73.58 75.94 75.62 75.53 75.17 75.11 74.77 74.63 74.44 73.95 73.24 71.56 71.68 71.06 70.90 70.70 71.29 72.71 72.70 72.48 72.53 71.93 72.44 71.54 70.64 69.95
64.49 67.57 59.22 54.67 48.49 42.55 42.77 47.67 50.94 55.60 57.55 56.53 53.75 57.79 58.33 59.33 64.25 64.60 65.95 69.73 71.04 70.66 72.72 73.33 75.80 75.32 75.11 74.88 74.70 74.38 74.15 73.74 72.95 71.64 71.25 70.76 70.39 70.34 71.01 72.03 72.66 72.55 72.01 71.10 71.93 71.75 70.95 70.29 69.72
62.58 61.06 58.74 52.89 48.44 50.98 48.25 48.93 53.50 55.77 57.43 60.30 57.56 53.44 59.34 62.94 65.00 66.01 68.97 70.28 70.88 71.49 71.79 74.77 75.64 75.54 74.74 74.43 74.56 74.02 72.65 71.81 71.51 70.91 70.67 70.62 70.54 70.86 71.39 72.81 72.54 72.24 71.46 70.98 72.12 71.35 70.48 69.52 68.91
59.57 58.54 50.77 50.99 50.56 53.91 54.76 55.78 56.69 55.55 57.43 58.75 59.00 53.67 57.48 62.36 65.75 68.44 69.39 70.75 70.80 70.72 71.90 72.83 75.24 74.80 74.39 73.71 72.79 72.56 72.38 71.24 70.81 70.78 70.94 70.85 70.93 71.48 71.38 72.20 72.15 71.93 71.19 70.46 71.63 70.94 69.83 68.81 67.91
52.79 55.22 50.11 47.30 49.27 54.33 55.24 56.51 56.43 57.47 57.62 58.29 57.41 56.18 57.22 62.96 66.23 68.69 70.11 70.06 71.07 70.95 71.65 71.75 74.07 73.69 73.35 72.81 72.12 71.74 71.12 70.80 70.93 71.37 71.98 71.63 71.98 71.93 71.61 71.40 70.85 70.66 70.22 69.27 69.81 70.27 68.33 66.65 65.84
50.59 49.74 46.46 46.25 48.63 51.88 55.50 58.53 54.40 55.48 56.56 58.07 60.34 55.55 56.58 61.29 65.99 68.50 68.60 69.33 70.12 70.66 69.98 69.07 69.31 70.85 72.65 71.93 71.32 70.94 70.88 70.98 71.83 72.27 72.16 71.58 71.07 70.92 70.55 70.22 70.12 69.80 69.07 67.95 68.99 69.10 66.69 65.25 64.39
50.91 49.98 43.96 46.40 47.88 49.48 56.22 57.94 59.53 58.11 56.72 62.48 61.98 54.87 55.05 60.70 64.39 66.04 68.46 68.15 67.32 67.50 67.70 66.15 66.70 66.95 66.92 68.28 71.96 71.38 71.60 72.55 72.31 72.59 71.79 70.87 70.02 69.84 69.48 68.89 67.91 67.43 66.77 66.04 67.52 66.69 64.77 64.27 64.05
53.67 45.06 41.44 44.76 47.93 50.47 54.44 52.09 56.87 59.83 57.29 59.09 60.46 58.89 61.09 63.99 64.45 65.69 66.91 67.79 66.59 65.90 64.69 64.87 65.21 66.01 66.41 66.90 69.32 71.86 72.56 72.00 72.22 71.75 71.13 67.85 63.05 63.24 62.52 66.38 66.53 65.10 65.07 65.49 66.18 64.86 63.94 64.30 64.84
45.64 43.19 43.98 50.14 50.72 49.87 52.20 51.35 50.29 50.92 50.95 54.66 59.46 60.70 63.98 63.87 63.33 63.58 64.10 63.93 66.00 65.33 64.17 64.07 64.73 65.77 66.50 69.38 69.02 68.89 69.89 68.90 67.71 65.07 61.55 59.82 58.95 58.86 60.77 64.50 66.43 64.22 63.89 64.19 64.99 63.53 61.96 55.82 50.55
42.50 40.66 47.08 46.92 48.37 48.67 48.57 47.85 51.14 50.62 49.49 53.88 55.41 58.77 62.55 63.08 62.94 63.04 63.71 64.33 64.64 65.51 64.94 64.87 64.93 65.61 67.12 68.38 67.42 67.18 67.34 65.15 63.35 60.54 58.77 57.68 57.97 54.93 52.73 50.61 50.32 50.32 58.06 50.14 50.46 47.60 46.51 46.63 48.34
37.47 42.62 43.08 44.52 46.77 45.49 44.74 47.05 46.57 51.04 50.59 54.42 57.36 59.51 62.33 62.27 62.79 63.21 63.60 64.09 64.26 64.43 64.74 65.28 65.73 66.52 67.70 68.21 66.69 65.98 65.31 62.74 60.03 58.39 57.13 56.32 53.16 50.70 48.77 47.18 45.43 44.76 44.05 43.35 43.49 43.67 44.58 45.62 45.95
37.84 40.29 44.13 45.43 45.57 44.83 45.37 43.73 44.03 45.41 51.30 54.70 58.37 59.89 60.95 62.32 63.15 64.18 64.61 65.06 64.40 64.42 64.82 65.36 65.99 66.43 67.80 68.12 65.55 64.13 63.57 61.88 58.65 57.16 56.95 54.34 51.09 49.05 47.19 45.76 44.93 43.82 43.51 43.31 42.50 42.60 43.11 43.42 44.46
41.60 42.56 43.17 44.30 44.42 44.05 43.05 43.07 43.50 45.77 47.42 49.36 57.26 58.80 59.80 61.96 62.99 63.80 63.82 63.50 63.82 64.57 64.81 65.57 65.91 66.83 68.26 68.75 65.56 63.91 62.29 60.57 58.17 56.68 56.13 52.26 50.17 47.73 46.22 45.24 44.29 43.94 43.61 43.27 43.03 42.64 42.49 42.18 42.65
44.26 40.03 41.78 41.51 42.72 42.83 43.10 40.42 40.06 44.62 45.37 47.33 53.55 57.56 59.17 60.56 62.69 62.60 63.60 63.00 63.69 64.39 65.25 65.12 65.66 66.99 67.98 68.08 66.31 63.62 62.60 60.65 58.14 57.11 54.66 50.43 49.05 47.55 46.08 45.14 44.38 43.75 43.55 44.21 43.97 43.05 42.54 42.59 43.21
40.09 38.18 35.05 42.51 42.80 44.15 41.44 36.23 43.30 44.23 43.59 43.41 43.23 48.35 58.54 59.50 60.93 62.72 63.83 63.85 63.20 63.68 64.05 65.09 66.01 66.61 67.26 67.52 66.13 62.57 61.40 59.25 58.59 56.95 54.77 50.68 49.42 47.44 45.70 45.35 44.64 43.92 44.38 45.27 44.99 44.47 43.69 43.13 42.64
37.21 32.99 34.53 38.20 43.03 42.80 39.70 37.15 42.94 45.56 43.86 42.40 42.03 41.85 49.70 58.84 60.96 61.84 62.92 64.10 62.43 62.52 63.11 63.68 64.54 65.94 66.78 66.35 65.09 60.02 56.56 56.16 57.11 56.00 54.53 50.60 49.60 47.37 46.19 45.40 44.63 44.76 45.06 45.10 45.99 44.27 44.33 43.29 42.70
34.03 33.32 35.80 35.11 40.72 41.29 39.66 38.63 42.07 43.95 42.74 41.49 41.21 40.48 41.38 52.81 59.97 62.14 62.53 63.45 63.00 62.45 62.88 63.16 63.89 65.53 66.47 64.70 58.78 55.08 53.10 52.52 53.25 55.33 54.84 51.54 49.31 47.23 46.94 45.76 45.03 45.17 44.56 44.15 44.33 43.69 43.35 43.24 43.58
38.48 36.85 35.75 39.69 42.87 39.75 38.82 38.87 40.95 43.29 41.63 40.29 40.11 40.47 40.88 42.16 57.33 61.93 62.93 63.04 62.59 62.41 62.32 62.66 63.65 65.38 63.69 59.73 57.64 55.91 55.32 52.48 51.02 51.02 53.53 53.90 50.79 47.59 46.72 46.40 46.16 45.57 44.89 44.25 44.15 43.39 43.58 43.18 42.41
40.16 37.15 36.59 40.15 42.40 40.56 39.82 38.92 42.43 42.78 42.24 41.55 41.46 40.59 40.17 41.08 43.58 56.26 61.54 62.32 61.69 61.58 62.21 62.92 64.04 65.30 65.29 64.19 61.23 56.86 55.74 56.03 54.89 54.44 50.70 50.11 50.18 48.43 47.70 47.48 46.76 47.28 45.55 44.07 43.83 44.22 43.05 43.42 42.26
38.53 36.64 36.33 37.25 41.44 41.27 40.61 35.89 37.13 40.86 40.21 40.99 42.73 44.20 45.56 46.12 47.25 47.80 59.56 61.19 61.44 60.96 61.79 62.88 64.02 65.02 65.45 62.13 59.24 58.00 57.42 56.62 54.19 52.51 49.80 50.04 50.11 49.67 49.46 48.50 47.93 46.94 46.36 45.24 45.23 45.47 45.41 43.47 43.50
35.06 41.10 41.12 40.35 36.78 31.81 40.44 28.49 35.10 38.25 38.23 42.60 44.27 45.12 46.27 47.21 48.54 50.02 58.04 59.94 60.84 61.10 62.24 63.02 63.88 64.02 62.24 59.73 58.79 56.40 56.52 53.14 56.61 54.57 52.86 52.65 51.48 49.59 49.00 48.65 47.33 46.52 46.27 45.11 45.05 45.89 44.29 43.85 42.53
38.02 42.31 40.89 39.23 36.04 31.43 35.97 31.06 30.86 37.93 38.50 41.89 44.64 46.72 47.67 49.37 48.59 52.03 58.14 60.19 61.35 61.71 62.09 62.98 63.71 62.03 59.71 59.68 58.87 57.09 56.53 56.71 55.65 53.43 52.72 52.28 51.23 49.75 49.21 48.44 47.07 45.51 45.39 45.12 45.64 44.46 44.08 43.77 43.02
43.94 40.85 37.28 35.14 32.58 27.43 35.53 32.11 29.38 36.84 39.75 42.01 45.47 47.25 49.97 51.74 52.21 55.96 58.00 59.94 60.20 61.54 62.55 62.49 61.84 60.99 60.06 59.94 59.04 57.57 57.15 55.91 54.56 53.36 52.21 50.92 50.56 49.45 48.07 48.15 46.61 46.21 46.34 45.41 44.94 44.55 44.31 42.78 42.05
41.39 35.65 26.85 24.06 23.47 23.07 36.29 34.45 34.68 41.37 45.01 47.18 47.21 48.99 51.63 52.85 55.73 55.94 56.26 57.91 59.62 60.99 62.12 61.81 60.98 59.94 59.96 60.36 59.69 59.05 57.56 56.62 55.50 53.68 52.94 51.24 50.72 48.25 47.30 47.67 47.09 46.59 46.49 46.18 44.18 43.38 42.43 41.47 40.78
37.91 35.52 29.22 25.54 25.47 27.85 35.11 30.70 36.24 43.17 46.23 48.80 49.37 49.58 51.52 53.30 54.90 56.74 58.72 58.99 59.27 61.45 61.42 61.10 60.87 60.01 60.57 59.84 58.30 58.32 58.19 58.78 57.72 55.64 53.89 52.75 52.49 52.68 49.12 48.00 47.51 46.84 46.23 44.29 43.28 41.93 40.67 40.26 39.72
34.90 32.92 36.65 32.33 28.79 28.45 26.95 36.81 42.05 42.67 42.47 45.15 47.98 48.02 47.93 49.00 51.93 53.00 55.98 58.35 61.52 60.34 60.83 61.10 61.01 60.32 58.99 59.09 59.12 58.33 58.04 55.61 54.76 54.66 54.88 54.25 52.33 50.07 49.55 47.73 45.81 44.36 44.43 43.51 41.14 40.15 38.38 38.23 36.48
38.71 39.47 31.47 30.86 22.43 23.99 27.20 27.88 32.16 37.35 39.63 43.53 46.02 45.34 44.80 44.98 46.27 49.21 50.33 52.78 56.93 59.56 59.92 59.79 59.31 58.35 59.16 59.75 59.54 56.93 55.81 56.18 55.75 54.10 51.57 49.32 48.60 47.65 46.02 44.24 42.49 41.39 40.97 40.01 39.82 38.26 36.82 36.16 34.84
32.76 30.85 34.44 33.77 32.64 24.11 26.68 27.13 37.72 37.65 40.22 42.52 45.14 45.48 44.73 44.48 44.40 45.80 47.68 49.06 53.45 54.11 55.02 55.63 54.16 53.08 52.12 50.79 52.20 50.19 50.55 48.81 47.95 46.88 45.77 44.56 43.84 42.99 41.90 41.58 40.13 39.53 39.50 38.72 36.84 35.87 35.18 34.73 34.09
34.14 30.64 33.66 28.46 27.40 30.72 28.93 30.92 37.27 37.40 40.91 42.99 42.67 43.94 43.05 43.57 42.86 44.18 44.22 44.81 46.13 45.93 46.84 45.90 46.04 45.65 45.92 45.89 45.34 44.84 44.55 43.27 42.10 41.48 41.41 42.27 41.80 41.21 40.00 39.42 38.86 38.01 37.07 35.85 35.54 35.37 35.21 34.46 33.85

GFSSGP_sfc_wetblb_114.txt.gz
Wetbulb
71.28 71.49 76.11 71.88 58.95 56.46 51.39 51.20 55.88 54.65 58.24 61.65 62.32 59.43 59.03 60.47 58.41 57.46 70.44 71.81 71.92 68.14 75.55 76.52 76.97 76.90 76.39 76.37 76.07 75.67 75.28 74.94 74.75 74.00 73.27 72.60 71.85 73.44 72.81 72.28 73.10 73.41 73.28 72.56 71.67 71.38 71.57 71.42 71.55
71.14 70.18 71.85 66.84 54.48 50.08 51.11 55.82 54.34 57.41 59.77 62.95 61.66 61.86 60.43 59.24 66.30 67.51 69.11 71.60 72.15 69.64 74.83 75.97 76.78 76.54 76.49 76.13 75.54 75.39 75.05 74.80 74.26 73.30 72.60 71.95 71.33 71.91 73.37 72.64 73.04 72.76 73.02 72.04 71.46 70.75 70.56 70.98 71.19
68.37 70.43 65.02 59.14 54.94 50.12 50.71 55.42 56.22 58.78 61.17 61.53 60.63 64.01 63.74 63.49 67.51 68.74 71.43 72.02 70.06 72.16 73.78 74.62 76.62 76.26 76.31 75.66 75.52 75.20 74.89 74.58 73.80 72.71 71.89 71.36 70.95 71.44 73.34 73.08 72.78 72.80 72.67 71.88 71.18 70.53 69.94 69.86 70.31
67.38 67.19 65.08 56.29 52.62 55.76 55.41 56.53 57.97 59.19 60.78 62.31 62.50 60.26 65.78 68.34 68.56 70.75 72.20 71.16 71.22 74.31 74.99 75.88 76.23 76.04 75.56 75.60 75.23 75.02 74.42 73.73 72.75 71.99 71.32 70.83 70.78 71.70 73.19 72.82 71.78 72.81 72.29 71.36 70.54 69.74 69.27 69.11 69.08
67.60 63.91 53.97 53.24 53.03 56.45 59.37 59.93 60.74 59.53 60.10 61.00 62.65 59.83 62.91 67.95 70.90 71.63 71.57 70.08 71.76 72.79 73.46 75.32 76.00 75.43 75.36 74.77 74.92 74.53 73.99 73.52 72.02 71.32 70.78 70.88 71.59 73.17 73.00 72.42 71.58 72.54 71.91 71.15 70.30 69.34 68.62 68.33 68.12
58.39 60.36 49.92 47.31 50.64 56.00 59.49 61.36 61.20 60.82 61.50 61.68 61.66 61.71 63.63 69.09 70.01 71.29 71.76 70.64 71.80 71.52 72.29 74.00 75.02 75.49 75.08 75.14 74.65 74.09 73.11 72.26 71.43 71.01 71.02 71.39 72.93 73.02 72.54 72.05 72.08 72.16 71.62 70.47 68.85 68.12 67.80 67.60 67.47
55.34 53.59 47.62 48.52 49.29 52.36 56.27 61.45 59.85 60.09 59.95 60.97 63.97 60.07 64.46 67.38 69.84 71.15 71.77 71.30 70.91 72.10 73.52 73.59 74.30 74.51 74.64 74.53 74.67 73.85 72.33 71.67 71.46 71.05 71.88 73.28 72.81 72.44 72.10 71.58 70.75 71.71 70.74 69.39 67.82 66.86 66.76 66.95 67.04
57.73 55.28 48.93 50.21 48.54 49.62 56.06 58.74 61.73 59.82 58.53 62.54 64.84 60.67 61.56 67.59 69.70 71.09 71.21 70.60 69.85 71.92 72.82 72.83 73.74 73.78 73.89 73.39 74.09 73.23 72.31 71.87 72.51 72.74 72.98 72.66 72.50 71.45 71.10 70.90 70.03 70.50 70.13 68.08 66.53 65.72 65.91 66.29 66.49
60.22 49.42 46.06 47.89 48.75 50.80 56.47 55.80 59.06 60.01 58.96 58.09 60.62 62.73 65.38 69.41 69.94 69.23 69.35 69.29 69.84 71.58 72.57 72.25 72.33 73.21 72.71 72.45 72.38 72.10 72.08 72.49 72.58 72.22 72.32 71.71 71.29 69.49 70.46 70.58 70.11 69.74 68.83 66.67 65.81 65.60 65.88 65.98 66.01
53.15 48.30 46.40 51.29 52.19 51.71 53.91 54.88 55.86 55.18 57.01 57.47 58.34 62.94 66.11 69.01 68.89 68.26 66.75 67.32 69.15 70.00 71.12 71.51 71.67 71.72 71.65 69.95 70.42 69.55 69.75 71.54 71.70 71.05 70.76 70.34 69.65 69.65 68.17 68.68 68.99 68.98 67.22 65.69 65.73 65.82 65.14 66.11 63.58
50.23 46.15 48.31 49.98 52.20 53.02 51.94 52.01 53.82 52.47 51.74 55.20 56.27 57.99 64.80 67.05 67.02 67.21 66.70 67.43 68.62 69.67 70.64 70.96 71.31 71.20 69.57 68.00 68.60 68.88 69.58 72.61 70.78 70.89 70.14 69.13 68.51 66.90 65.91 65.83 66.06 67.34 66.15 63.36 62.75 62.96 62.55 63.74 63.76
45.84 48.14 49.09 49.58 50.09 49.17 48.26 50.06 48.47 49.38 50.64 54.19 55.88 56.05 60.14 64.87 66.48 66.39 67.09 67.10 67.71 69.20 69.79 70.34 70.67 70.33 68.10 67.57 68.32 69.82 71.67 71.58 70.39 70.33 69.31 68.16 66.89 65.73 64.74 64.05 64.44 64.98 62.89 57.75 57.81 59.22 61.79 62.85 62.99
47.14 49.03 49.64 51.01 50.95 51.13 51.86 50.19 50.16 49.94 52.10 53.30 53.68 55.75 58.35 62.23 64.84 68.05 68.58 68.46 68.04 67.62 69.18 69.66 70.53 69.83 67.43 67.39 68.98 71.18 68.49 69.48 69.69 70.14 68.59 67.26 65.54 64.25 63.78 62.95 62.04 61.26 57.80 56.62 57.06 57.73 58.22 58.83 60.09
50.12 50.21 50.53 51.04 51.05 51.12 49.27 50.27 48.73 50.57 51.91 51.80 52.41 53.18 54.69 57.61 62.72 66.10 67.12 67.07 67.09 68.03 67.92 70.16 69.68 69.59 67.19 67.77 70.05 70.00 68.85 68.89 69.75 69.09 67.18 65.82 64.63 63.27 62.16 61.04 59.36 57.64 57.00 57.19 57.10 56.89 56.88 56.78 57.13
50.42 47.20 49.72 49.90 50.29 49.62 49.25 47.28 47.75 51.07 52.51 51.38 51.85 53.39 53.64 58.52 60.26 62.93 66.59 67.35 67.38 67.76 68.83 69.57 69.48 69.21 66.83 67.90 70.06 70.09 67.96 68.07 68.84 67.30 65.57 64.36 63.29 61.76 60.13 58.76 56.81 56.44 56.73 56.60 56.75 56.41 56.65 56.69 56.75
47.51 47.47 44.55 49.42 49.70 49.49 48.60 43.58 49.77 52.61 51.78 51.83 52.88 53.49 53.61 53.63 61.64 64.97 66.68 66.81 68.47 67.98 68.34 68.70 68.63 68.20 66.61 68.09 69.46 69.54 68.31 68.21 68.50 65.86 64.26 63.08 61.77 60.16 57.80 56.76 56.21 56.48 56.37 56.44 56.14 56.16 55.93 56.00 56.16
46.96 42.22 43.62 45.50 50.16 48.62 47.87 45.22 50.28 53.39 52.62 51.79 52.65 53.18 53.43 54.16 54.69 64.69 66.99 67.69 68.47 68.35 67.00 67.39 68.23 67.68 66.95 68.26 69.52 69.62 69.01 68.76 67.69 65.20 63.89 61.64 60.00 58.34 57.11 56.51 56.47 56.49 56.44 56.39 56.36 56.34 56.22 55.31 55.41
41.26 42.21 43.51 43.62 47.51 48.31 46.69 46.36 49.85 51.79 51.26 51.42 52.55 53.00 53.29 53.22 53.27 57.15 66.25 67.16 68.22 68.77 68.24 68.48 68.30 67.73 67.25 69.17 68.21 67.95 68.32 67.80 66.23 65.02 64.06 60.01 58.72 57.40 56.57 56.80 56.22 56.38 56.30 56.36 56.48 56.17 56.61 56.05 55.59
45.11 43.63 42.92 45.85 48.14 46.05 45.61 45.40 46.95 49.59 49.55 48.79 50.59 52.14 52.56 52.23 53.46 53.33 59.94 66.57 67.51 67.78 67.58 67.54 67.40 67.41 67.13 65.95 63.69 63.93 64.62 65.45 65.09 64.64 64.05 58.97 57.58 55.05 53.63 56.27 55.49 56.67 56.54 56.55 56.81 56.49 55.80 55.45 56.18
44.88 43.11 43.37 45.75 47.11 46.22 44.67 43.60 46.05 49.25 49.46 50.22 51.08 51.88 52.84 54.30 54.66 55.86 56.44 63.82 65.67 66.53 67.08 67.25 67.25 67.34 67.15 66.80 64.80 65.17 63.09 64.14 64.42 64.07 63.59 59.16 56.62 54.34 54.71 54.61 54.94 56.41 56.72 56.91 56.48 56.49 55.46 55.86 55.79
44.11 42.10 42.19 42.67 45.86 46.32 44.30 42.19 44.19 48.46 50.03 50.44 51.29 53.32 54.13 54.42 54.92 55.99 56.76 60.39 64.90 65.37 66.07 66.81 67.32 67.44 67.50 66.46 62.63 60.98 59.99 59.91 58.89 57.04 56.07 55.92 54.87 54.02 50.90 51.93 53.87 55.91 56.36 55.76 56.19 56.53 56.43 54.00 53.95
41.23 45.34 44.66 43.65 42.20 37.96 43.91 37.35 42.43 45.40 46.06 47.62 49.88 50.92 53.09 55.03 56.41 56.98 57.89 58.53 63.28 64.50 66.04 66.89 66.78 67.06 67.55 66.13 63.66 62.35 61.59 58.05 57.61 53.16 52.46 52.62 52.99 52.83 52.79 52.07 51.50 52.51 53.28 53.46 54.54 54.76 55.70 55.12 52.82
42.81 46.60 44.63 43.37 42.46 41.13 40.90 37.04 40.17 44.00 39.93 43.31 46.78 49.22 52.10 54.89 57.00 57.34 58.32 59.14 60.91 65.38 65.10 65.63 64.98 65.43 64.88 63.61 62.01 62.31 59.14 55.93 54.83 52.47 52.13 52.63 53.63 54.86 54.17 53.22 52.43 50.50 51.64 52.82 53.56 53.82 54.68 55.21 54.13
47.30 45.74 43.47 43.02 42.09 37.77 38.64 36.31 37.84 37.53 39.35 41.63 45.79 48.90 49.72 52.76 57.46 60.05 61.28 60.63 60.76 65.26 64.61 64.82 64.87 65.20 64.46 64.10 62.98 58.56 55.19 52.87 51.79 51.88 51.76 52.19 53.30 54.49 54.32 53.82 52.83 51.72 51.79 52.40 52.84 53.62 54.30 54.67 54.66
46.19 44.29 39.65 37.63 37.07 34.77 40.60 38.25 37.75 40.96 42.45 43.98 47.58 47.63 49.14 51.46 53.95 58.28 61.27 62.03 62.90 62.51 63.56 64.12 63.59 60.63 60.86 60.41 58.47 56.49 54.47 53.08 52.09 51.70 52.37 52.75 53.22 53.77 53.85 53.58 52.71 52.07 52.68 53.19 54.10 54.48 54.00 54.89 54.61
42.62 42.72 37.22 30.62 31.82 35.09 40.64 35.31 38.72 42.38 46.49 49.38 49.28 48.63 48.51 49.33 51.89 54.78 59.82 61.25 62.02 62.52 62.70 61.43 60.06 59.17 59.72 58.62 57.96 58.91 58.11 55.49 55.35 54.24 53.73 54.44 54.08 54.75 54.83 53.57 53.50 51.82 51.45 51.87 52.44 52.85 52.67 52.98 53.16
41.94 39.68 43.55 36.25 36.62 35.00 38.49 40.90 43.26 44.92 47.18 47.75 47.96 47.21 46.48 47.55 49.88 52.19 55.55 59.80 60.17 60.32 60.11 60.17 59.86 59.56 60.12 58.81 58.81 59.10 59.62 59.36 58.26 57.49 56.31 56.25 55.24 54.16 53.94 53.69 53.33 50.41 50.17 49.85 49.28 51.08 51.33 51.87 52.02
43.72 44.82 38.65 40.95 31.83 30.07 35.70 36.22 36.11 41.54 43.78 46.07 47.21 45.54 45.10 46.42 48.04 49.59 51.36 53.65 56.27 57.82 60.08 60.04 60.93 60.42 59.97 59.75 59.93 60.03 59.37 59.10 58.71 56.93 55.76 54.85 54.68 54.19 51.83 51.04 48.92 48.12 48.05 47.85 47.33 48.25 49.23 49.20 48.64
41.61 40.72 40.61 41.38 39.44 33.53 32.30 35.36 42.94 42.71 44.16 44.71 46.27 46.68 44.77 44.45 46.96 47.96 48.50 48.99 50.13 50.81 51.37 53.45 54.21 56.04 55.69 55.40 55.07 53.70 52.28 50.68 50.87 50.76 50.74 51.44 52.04 50.89 49.89 47.98 46.62 45.69 45.98 46.78 47.26 48.63 48.28 47.65 46.80
41.71 39.91 39.34 37.20 33.74 39.64 37.07 37.40 44.99 44.91 45.07 45.88 46.13 46.43 45.12 44.73 46.24 48.20 47.32 47.26 48.51 49.35 48.87 48.02 48.34 47.69 48.31 48.83 47.33 46.13 45.87 45.46 44.83 44.89 46.25 46.95 46.33 48.21 48.01 47.35 47.29 46.83 47.40 47.83 48.18 46.85 46.06 45.75 45.55

GFSSGP_sfc_wetblb_117.txt.gz
Wetbulb
72.21 71.98 73.89 72.01 59.57 56.87 52.36 53.91 56.60 54.92 57.49 61.56 62.91 61.17 60.05 61.24 60.25 59.24 71.38 71.84 70.66 68.96 74.64 76.24 77.18 76.84 76.58 76.47 76.44 76.00 75.50 75.17 74.69 73.77 73.15 72.76 73.98 72.80 72.45 73.18 73.66 73.30 72.33 71.82 71.72 71.58 71.55 71.64 72.05
71.62 70.18 71.34 66.02 55.30 50.11 52.22 56.47 54.69 55.90 59.39 62.10 62.29 62.39 61.62 59.52 66.96 68.39 69.45 71.97 69.87 71.61 74.64 75.37 77.16 77.07 76.69 76.06 75.73 75.37 75.16 74.86 74.36 73.56 72.70 71.85 73.12 73.18 72.70 73.21 73.45 72.93 72.23 71.58 71.02 70.96 71.26 71.59 71.89
69.47 69.98 64.53 59.58 55.19 50.29 51.19 56.07 57.28 58.29 60.29 60.74 61.17 63.96 63.91 64.35 68.66 69.75 72.57 72.43 69.05 73.03 74.70 75.75 76.93 76.78 76.26 75.93 75.64 75.19 74.86 74.60 73.83 73.05 72.22 71.51 71.44 73.49 73.10 73.08 73.38 72.82 71.76 71.21 70.50 70.24 70.31 70.71 71.25
65.61 65.58 63.99 55.41 52.71 55.65 56.12 57.90 58.02 58.62 60.26 61.66 62.00 60.25 66.06 69.44 69.24 71.86 73.03 72.46 69.53 73.10 73.87 75.98 76.68 76.33 76.18 75.86 75.26 75.13 74.60 74.28 73.32 72.35 71.59 71.06 70.96 73.01 73.05 72.79 73.30 72.38 71.41 70.47 69.99 69.49 69.45 69.45 70.16
65.24 61.04 53.17 51.33 52.63 55.49 57.71 59.67 60.24 58.97 59.48 60.33 61.87 59.93 63.03 69.69 71.96 72.47 72.13 70.33 70.77 73.34 74.24 75.44 76.09 75.70 75.90 75.31 75.02 74.68 74.36 73.43 72.67 71.78 71.03 70.71 71.44 73.06 72.82 72.02 72.96 72.10 71.16 70.46 69.58 68.86 68.63 68.58 69.03
57.73 57.30 49.50 46.97 49.78 54.17 56.88 60.24 59.49 59.64 60.58 60.99 60.93 61.19 63.99 70.81 70.96 71.80 71.33 70.61 73.36 73.04 74.29 74.75 75.49 75.72 75.39 75.22 74.83 74.55 73.79 72.93 71.90 71.22 70.87 71.50 73.04 72.86 72.50 72.35 72.27 71.73 70.67 69.44 68.83 68.40 68.11 67.71 68.26
55.71 53.45 48.86 49.00 48.77 50.16 53.20 59.45 57.49 58.40 58.96 59.36 64.15 60.10 64.94 68.50 71.07 71.91 70.81 71.33 72.34 72.20 72.05 73.47 73.78 74.31 75.14 74.95 74.64 74.53 73.21 72.40 71.52 70.95 71.55 72.82 72.75 72.53 72.31 72.15 71.79 71.30 69.64 68.47 67.81 67.69 67.52 67.47 67.52
58.33 54.28 49.89 50.50 48.08 49.21 54.94 56.45 59.91 59.64 58.96 63.41 64.52 59.49 61.27 68.78 70.99 71.58 71.39 70.59 70.98 71.17 71.43 71.65 72.59 73.47 73.46 73.43 73.85 74.12 73.27 71.93 72.33 72.31 72.81 73.02 72.31 72.16 71.95 71.89 71.34 70.50 68.82 67.48 66.64 66.78 67.01 66.95 66.72
58.82 50.46 46.90 48.12 48.84 50.80 55.06 54.69 58.47 60.32 59.17 60.25 61.31 63.26 65.50 69.39 70.26 69.69 69.56 69.17 69.17 70.13 71.96 72.59 71.68 71.92 71.83 71.97 72.77 72.90 72.92 72.49 72.67 72.58 72.36 71.72 70.96 70.18 70.49 70.68 70.89 69.14 67.64 66.63 66.13 66.32 66.22 66.44 65.59
53.46 49.37 48.91 51.83 52.44 51.07 52.96 53.85 55.51 56.27 56.04 56.80 58.44 62.33 65.72 69.17 69.24 67.50 66.77 66.89 67.00 68.37 70.04 71.96 71.64 71.38 71.48 71.46 72.04 70.91 70.36 69.51 70.59 70.69 70.51 70.85 69.83 69.73 69.43 69.15 70.51 67.95 66.64 66.07 66.11 65.64 65.98 65.93 63.57
50.73 47.87 50.18 49.83 51.17 51.76 51.25 52.02 53.98 52.17 50.99 54.50 56.21 59.41 64.02 65.89 67.64 67.72 67.47 67.73 67.40 68.96 69.82 70.80 71.88 71.49 71.23 70.15 70.21 68.07 67.62 69.25 71.98 70.22 69.28 68.88 68.53 67.87 67.43 66.44 67.84 66.13 66.06 63.31 63.16 64.00 63.78 62.98 63.38
47.42 50.03 50.18 51.36 52.09 51.11 49.20 51.21 49.87 50.42 50.91 53.40 55.04 57.35 59.45 61.86 65.49 66.95 67.51 67.78 67.31 67.60 68.78 70.44 70.85 71.57 69.99 69.30 67.77 66.92 67.14 71.18 72.07 69.67 68.85 67.85 67.07 65.54 65.48 64.99 66.15 65.25 62.05 59.21 59.67 61.49 62.97 62.82 63.23
49.66 50.57 51.94 52.69 52.56 52.44 52.93 51.05 51.03 51.41 53.65 53.84 53.51 53.44 53.90 56.30 63.74 66.35 68.07 68.86 68.51 67.69 68.96 70.15 70.18 69.60 68.90 67.69 66.99 67.18 70.91 71.73 69.83 69.14 68.49 68.05 65.98 64.62 64.30 63.84 64.37 63.52 58.92 57.22 58.33 60.23 61.00 61.47 61.88
52.05 51.40 51.54 52.45 52.00 52.47 50.63 51.14 51.90 52.21 53.49 52.70 52.62 52.67 53.21 55.76 59.57 63.07 66.33 67.75 67.38 67.71 68.29 69.39 69.37 70.01 68.25 66.82 66.75 69.68 70.78 70.83 69.51 69.08 68.72 66.65 65.09 64.14 63.39 62.76 61.02 59.83 57.17 57.45 57.77 57.72 57.86 58.17 58.89
52.09 48.80 51.33 50.81 51.50 50.51 51.59 47.69 49.12 53.14 53.07 52.47 52.66 52.62 53.68 54.18 56.18 57.64 63.75 66.86 68.29 68.61 68.44 68.63 69.42 69.54 67.88 66.19 67.53 70.46 70.28 69.66 69.96 69.12 68.02 65.18 64.31 63.35 62.42 61.23 58.39 57.00 57.01 56.82 57.23 57.08 57.32 57.13 57.02
49.77 50.11 46.26 50.85 50.85 51.32 49.72 44.77 51.20 53.53 52.96 52.48 53.30 53.99 54.30 54.79 54.84 58.29 60.69 65.11 67.78 68.43 68.60 68.48 69.40 68.35 67.89 66.38 69.95 69.90 69.85 68.75 69.02 68.38 65.91 63.93 63.00 62.21 61.06 59.09 56.83 56.93 57.09 57.50 56.85 56.68 56.65 56.62 56.47
49.40 43.86 45.35 47.17 51.47 49.96 49.29 46.31 51.56 54.26 53.62 52.85 53.83 54.17 54.26 54.47 55.18 56.14 61.94 64.18 67.16 69.04 68.11 67.76 69.02 67.76 67.84 66.90 69.93 69.84 69.28 68.13 68.29 67.27 63.94 62.72 61.77 60.46 58.49 57.58 57.27 56.96 57.32 56.71 57.13 56.61 56.46 55.68 55.98
42.12 43.41 45.42 45.31 48.85 49.07 47.55 47.42 50.39 51.95 51.59 51.53 52.41 53.64 54.27 54.16 54.42 55.72 60.76 65.70 67.46 69.42 67.15 67.55 68.02 68.04 67.86 67.18 69.05 68.17 68.97 68.09 68.06 65.27 63.37 61.66 60.49 58.52 57.76 57.81 57.43 56.62 57.50 57.42 57.64 56.19 56.64 56.12 55.72
45.91 44.88 44.52 47.29 49.11 47.47 46.75 46.55 47.49 50.62 50.84 50.89 51.33 53.27 53.60 54.11 55.57 55.53 55.88 64.96 67.65 67.57 66.22 64.11 66.00 67.71 66.56 66.60 67.82 66.89 65.87 66.96 66.36 64.86 63.30 60.62 58.83 57.31 57.78 57.82 56.75 57.65 57.43 57.17 57.70 56.97 56.03 56.09 56.11
45.72 44.63 44.52 47.19 48.62 47.67 46.45 45.34 48.02 49.85 49.98 51.03 51.09 51.55 53.81 54.76 55.82 56.42 56.00 59.29 64.66 67.06 66.02 66.43 67.11 67.23 66.63 68.15 67.16 66.17 65.46 66.53 65.47 65.18 63.51 59.71 57.84 56.76 56.45 56.56 56.36 54.83 57.76 57.55 57.42 58.31 56.46 56.64 56.69
45.31 43.66 43.31 43.67 47.42 48.56 46.22 43.75 45.62 48.38 49.82 49.75 50.77 52.08 53.11 54.75 54.92 56.19 56.95 58.23 62.76 66.18 66.01 66.65 66.89 67.59 67.04 67.78 66.11 63.28 61.13 61.11 62.81 63.12 62.60 58.49 55.81 55.14 55.44 55.80 55.38 56.30 58.41 57.99 58.51 58.17 58.63 55.68 56.78
42.12 46.59 46.48 45.56 43.86 39.99 46.48 38.08 44.39 46.16 46.65 47.60 49.02 50.08 52.74 54.14 56.18 57.10 57.07 58.31 60.69 64.42 67.76 67.62 66.30 66.64 67.17 66.71 63.47 61.82 60.09 58.62 59.96 58.00 56.57 56.01 55.90 53.83 53.05 52.60 51.84 52.11 52.45 53.94 56.36 56.03 56.94 56.14 53.90
44.08 47.79 46.42 46.01 44.31 43.69 42.84 38.65 41.69 45.47 41.91 44.35 46.48 49.01 50.22 51.79 55.24 58.00 57.57 58.48 59.67 63.64 65.63 67.62 66.22 65.28 65.16 64.45 63.45 63.52 61.25 59.65 57.06 54.42 53.53 53.08 53.82 53.88 52.76 51.95 51.20 50.94 51.05 50.99 51.65 52.67 53.55 55.05 54.56
48.20 47.29 47.05 46.34 44.85 37.54 40.91 38.86 39.52 39.96 40.76 43.12 47.80 48.35 48.91 50.59 53.02 58.29 60.08 59.77 60.00 63.86 65.66 66.03 64.06 63.41 63.31 63.20 63.45 60.15 56.60 54.57 53.35 53.53 52.99 53.59 53.08 54.03 54.13 53.07 52.59 52.66 52.17 51.66 51.74 51.99 52.98 53.57 53.74
47.14 45.29 40.42 37.57 37.53 35.63 42.56 39.70 40.43 44.49 44.79 46.99 47.19 46.84 48.30 50.16 52.07 55.94 59.71 59.94 60.85 64.21 64.94 64.16 62.92 61.49 63.04 61.00 59.19 57.27 55.62 54.66 53.88 53.26 52.58 52.28 53.39 53.79 53.21 53.32 52.53 52.85 52.83 52.41 51.80 51.87 53.13 54.37 53.96
44.58 44.05 37.72 29.91 32.40 35.56 42.60 36.22 40.81 47.29 48.39 49.44 49.27 47.39 47.93 49.17 50.78 53.65 60.53 61.86 62.03 63.01 62.46 60.42 60.25 59.60 58.95 57.83 57.70 57.03 55.39 54.45 53.46 53.97 54.35 54.39 54.46 54.89 54.16 53.61 53.12 52.89 52.31 51.16 51.22 52.33 54.28 54.56 54.05
43.49 40.65 44.73 38.29 40.06 37.04 40.31 41.87 46.85 48.82 48.39 48.50 47.71 46.71 46.09 47.83 49.98 51.54 53.90 59.15 59.96 60.05 59.90 59.80 59.44 58.34 58.26 58.66 58.83 58.40 57.94 57.28 56.20 55.21 54.82 56.23 55.33 55.51 54.65 53.71 53.10 52.35 50.62 50.06 51.12 52.36 52.37 52.71 52.90
44.27 45.76 40.19 42.34 33.34 31.79 37.80 37.48 37.78 43.31 45.21 47.39 47.21 45.20 45.36 48.21 49.14 49.97 51.06 52.22 54.27 57.46 59.46 59.79 59.49 58.34 58.51 59.28 59.92 59.30 59.19 58.40 57.94 57.35 56.27 55.84 54.59 53.85 52.98 50.05 49.33 49.06 49.46 49.57 50.48 50.19 50.05 49.16 48.43
43.30 42.52 42.70 42.94 40.26 34.78 33.74 36.75 44.35 44.17 46.09 46.35 47.60 44.76 44.89 47.06 47.36 47.77 49.24 50.56 51.46 54.10 56.98 56.79 53.71 56.30 53.74 52.35 53.79 52.16 50.62 50.52 50.57 50.03 51.28 52.75 52.57 52.32 50.78 50.29 49.43 48.54 48.15 47.44 46.53 46.20 45.92 46.33 46.86
43.77 41.51 41.75 37.59 36.05 40.23 38.91 38.04 46.78 46.89 48.04 48.14 46.51 46.64 46.23 47.02 48.61 48.57 48.33 49.16 48.67 48.70 49.63 52.22 50.89 49.68 49.21 47.60 46.77 46.76 46.81 45.86 45.57 46.10 46.61 47.84 49.53 50.11 49.29 48.72 48.03 47.01 46.85 46.29 46.78 47.44 47.93 47.97 47.19

GFSSGP_sfc_wetblb_120.txt.gz
Wetbulb
70.57 71.24 70.21 69.52 58.03 56.65 50.16 52.09 56.78 55.33 57.06 59.85 61.00 60.24 58.27 59.37 60.99 57.05 68.95 69.83 68.96 69.99 74.37 76.10 77.70 77.39 76.98 76.73 76.65 75.94 75.66 75.10 74.40 73.81 73.85 73.52 72.83 72.83 73.71 73.63 72.91 72.38 72.06 71.73 71.64 71.86 71.95 72.27 72.66
69.17 69.89 69.96 64.86 54.83 48.30 49.19 55.66 54.04 55.63 56.79 59.77 61.08 60.73 59.45 60.80 67.09 66.48 66.82 68.77 67.77 72.15 74.63 75.00 77.60 77.21 77.15 76.87 76.61 75.69 75.34 74.88 74.04 73.27 72.81 74.03 73.05 72.86 73.47 73.61 72.85 72.26 71.71 71.39 71.30 71.43 71.65 71.74 71.99
67.75 68.92 63.11 58.57 53.10 48.45 49.13 54.37 56.05 58.12 59.02 59.71 58.69 61.60 61.27 63.79 67.66 67.34 69.74 67.41 67.99 71.90 73.68 75.14 77.24 76.80 76.57 76.34 76.03 75.29 75.10 74.72 73.91 73.05 71.94 72.53 73.50 73.19 73.38 73.61 72.71 71.62 71.21 70.81 70.59 70.76 71.26 71.62 71.95
64.01 63.74 61.92 52.41 50.28 53.83 54.51 55.80 58.82 57.92 59.53 59.47 59.18 57.94 65.35 68.22 68.10 70.02 70.53 67.01 69.25 71.87 73.58 76.19 76.92 76.79 76.22 75.72 75.50 75.29 74.86 74.26 73.54 72.60 71.78 71.07 72.95 73.45 73.27 73.00 72.65 71.43 70.78 70.23 69.78 69.74 70.18 71.00 71.38
62.58 59.91 51.02 48.59 49.18 53.10 55.61 56.87 57.86 57.31 57.97 58.48 59.96 57.37 63.20 68.14 70.85 71.18 69.86 67.15 69.38 72.10 74.15 75.14 76.72 76.16 75.79 75.41 75.15 75.05 74.71 73.86 72.96 72.08 71.22 70.81 72.14 73.17 72.99 72.69 72.12 71.27 70.60 69.84 69.12 68.77 69.28 70.05 70.29
56.35 56.55 46.65 44.72 48.31 51.92 53.46 56.29 58.09 56.22 55.87 58.98 59.24 59.09 62.87 68.93 69.41 69.79 69.76 67.11 70.99 72.56 73.61 74.01 76.22 76.14 75.52 75.32 75.07 74.77 74.26 73.34 72.37 71.50 70.92 71.35 73.18 72.87 72.66 72.38 72.11 70.95 70.01 69.41 68.71 68.11 68.23 68.84 69.36
55.30 52.02 47.15 46.89 47.19 49.07 51.11 54.00 55.20 56.63 55.09 57.71 62.10 58.26 63.65 66.67 68.91 69.75 68.03 68.19 71.88 72.49 73.01 72.55 73.41 74.29 75.38 75.22 74.92 74.60 73.71 72.73 71.85 71.08 71.48 73.20 73.15 72.58 72.57 72.14 71.50 70.01 69.16 68.69 68.11 67.67 67.45 67.44 68.48
57.01 53.46 47.21 47.58 46.87 47.81 53.16 54.33 56.38 57.07 57.07 62.12 63.28 57.39 58.14 65.35 68.47 68.92 67.90 69.68 69.25 71.46 71.94 71.28 72.22 72.30 72.40 72.54 74.02 74.08 73.91 72.45 71.49 72.36 73.59 73.41 72.49 72.39 72.25 71.76 70.76 69.37 68.32 67.73 67.39 67.09 66.65 66.56 67.32
60.80 48.62 45.25 46.89 47.74 49.29 53.69 52.25 55.72 58.61 57.15 58.12 59.42 59.86 64.96 62.88 65.22 67.11 66.41 66.42 67.71 68.01 69.84 70.14 70.94 71.35 71.53 71.35 72.11 72.98 73.78 72.77 72.46 72.37 73.14 71.95 69.06 68.86 69.44 71.19 69.95 68.53 67.57 67.05 66.61 66.52 65.78 65.74 65.24
52.40 47.42 47.80 50.62 50.55 48.87 51.27 51.72 52.85 52.71 54.23 55.01 56.05 59.47 63.67 62.51 63.92 65.05 65.35 64.28 64.87 66.54 68.77 70.73 70.57 70.91 71.09 71.55 70.48 69.63 69.68 68.34 67.65 69.48 69.27 68.79 67.22 67.50 68.62 69.63 69.07 67.74 66.95 66.41 65.61 65.74 66.19 65.90 60.85
50.78 45.87 49.91 49.21 50.36 50.74 48.85 48.35 50.61 49.08 48.47 51.33 51.30 54.33 64.57 65.58 65.74 65.62 65.04 64.91 64.60 67.31 69.18 70.45 69.94 70.10 70.09 70.32 69.98 68.98 67.80 66.04 67.79 68.53 68.39 68.13 66.74 66.41 66.07 66.28 63.70 62.16 64.93 60.61 62.60 62.73 61.53 57.48 59.29
47.37 50.13 50.46 51.56 52.33 51.19 49.36 51.32 49.17 49.66 49.59 51.82 51.71 51.81 52.29 58.42 64.30 64.74 65.44 65.68 65.50 67.72 68.32 69.79 69.99 69.49 69.72 69.93 68.45 65.52 65.35 66.51 68.04 68.29 67.40 65.91 64.50 63.06 62.75 62.92 63.30 60.70 58.54 56.92 56.82 57.77 57.97 58.23 59.43
49.05 50.43 51.53 52.18 52.33 51.91 52.34 50.20 49.92 50.13 52.55 53.40 53.11 52.19 50.81 50.97 53.13 63.73 65.81 67.35 66.14 66.00 66.82 68.47 69.54 69.51 69.40 66.11 64.13 62.70 65.66 68.45 68.44 68.79 66.84 65.44 62.19 60.59 61.22 60.64 61.60 58.33 53.60 52.43 54.69 56.33 56.70 56.06 56.36
51.19 50.39 50.56 51.71 51.93 51.88 49.90 49.92 50.59 51.42 53.17 52.19 51.98 50.55 50.23 50.08 51.07 55.21 64.70 63.81 66.20 65.79 65.32 67.81 68.47 68.68 67.60 64.17 62.66 66.99 69.10 69.34 67.77 68.28 65.79 64.52 61.93 60.07 58.91 58.63 57.98 53.13 52.11 52.80 53.79 53.37 52.81 53.45 53.50
51.48 47.77 50.30 51.25 52.17 50.48 51.12 46.89 48.26 51.50 52.68 50.57 50.64 50.92 50.21 50.75 51.53 51.84 58.52 63.98 65.83 66.20 68.01 68.11 67.53 68.20 66.17 64.28 62.73 68.35 68.31 68.24 67.87 67.18 66.07 62.36 61.24 59.21 58.48 56.43 54.46 52.27 52.07 52.19 51.66 51.55 51.68 51.69 52.83
48.70 49.06 44.29 50.10 51.14 50.93 49.80 42.38 50.34 52.81 51.26 50.64 51.60 50.74 52.00 52.02 51.84 51.72 53.94 56.80 65.70 66.07 66.20 66.09 68.62 67.57 66.24 63.29 67.48 68.28 67.70 67.61 67.99 67.03 64.43 61.16 60.59 58.54 57.17 54.45 53.01 52.46 52.11 52.24 51.65 51.59 51.24 50.79 50.53
47.48 40.15 42.89 46.24 51.45 49.63 47.88 43.82 50.07 51.98 51.09 50.00 50.31 51.10 52.29 52.67 53.39 52.81 53.16 55.30 62.79 66.04 66.19 66.61 66.90 66.83 66.14 64.09 67.64 67.69 67.59 67.50 67.34 65.70 61.32 59.55 59.07 57.79 55.55 53.37 52.33 52.40 52.27 52.02 51.89 50.90 51.00 49.79 50.00
39.30 40.07 42.80 43.17 47.63 48.00 46.45 44.87 48.32 50.11 49.69 48.60 49.26 49.97 51.41 52.06 53.23 53.43 53.68 55.13 61.18 65.63 66.86 67.23 67.18 67.66 65.80 67.53 67.87 67.06 66.69 67.00 67.05 63.26 60.33 58.52 57.39 55.58 53.43 53.13 51.78 52.99 52.32 51.35 51.16 50.42 50.50 50.27 49.83
44.34 42.59 42.41 45.12 48.91 46.19 45.79 45.07 46.59 49.29 48.63 47.99 48.69 49.39 50.45 51.94 55.04 54.34 53.29 53.47 61.02 67.76 66.30 65.39 64.60 66.04 64.85 65.70 65.42 65.36 64.94 64.67 66.16 61.89 59.42 57.40 55.46 53.67 53.07 53.44 52.31 53.07 51.82 51.64 51.04 50.70 49.64 49.42 49.47
44.29 42.78 42.26 44.98 48.67 46.45 45.46 45.13 47.20 48.10 47.63 48.06 48.02 48.30 50.14 51.85 52.54 54.61 53.46 52.16 54.32 64.49 64.51 63.00 64.08 63.25 61.82 65.07 65.52 65.16 65.68 64.89 64.01 61.56 58.30 55.58 53.98 52.98 54.29 53.61 52.73 53.05 51.85 52.05 51.45 52.58 49.90 49.90 49.88
43.07 41.62 42.05 42.48 46.38 47.37 44.79 41.50 44.48 47.72 48.12 48.67 49.41 49.35 50.39 50.99 52.08 54.15 55.89 52.47 55.23 61.47 63.05 60.71 61.71 62.32 60.94 64.93 65.08 62.21 62.03 61.62 61.29 59.26 54.61 53.20 52.98 53.17 53.00 52.75 52.78 52.92 52.91 52.11 52.57 53.13 51.76 50.04 50.94
39.68 45.26 45.39 45.41 42.79 37.25 44.75 33.08 41.76 43.39 44.24 45.83 46.95 49.34 49.47 49.44 51.19 53.28 55.73 54.93 54.12 60.06 63.99 61.35 62.51 61.35 63.21 66.02 63.23 62.56 61.48 59.24 59.12 55.56 54.45 54.27 53.01 52.38 52.17 50.91 51.45 51.33 52.16 51.65 51.88 53.03 52.99 52.36 50.08
42.15 46.09 45.13 45.46 42.24 41.03 40.24 34.62 39.88 43.25 41.03 43.49 46.58 48.43 48.76 49.85 51.25 52.17 54.64 57.61 56.57 58.19 64.11 64.44 63.16 61.83 63.33 62.42 63.39 61.40 59.92 57.37 56.24 56.15 53.83 52.74 52.96 52.37 52.18 51.01 50.71 50.67 50.66 50.56 50.79 50.52 50.16 51.76 50.82
47.79 45.87 46.39 45.20 41.83 34.52 38.44 36.43 35.94 38.77 41.17 44.71 47.76 47.26 47.95 49.64 51.43 53.03 55.73 58.09 56.49 63.09 64.37 61.44 62.43 61.12 61.25 62.55 60.27 59.20 56.86 55.49 54.46 53.89 53.66 52.11 52.64 53.45 53.40 52.92 52.07 51.55 51.24 51.15 50.95 50.64 50.48 49.94 50.09
46.14 41.66 35.82 32.47 32.88 30.56 40.91 37.24 36.52 42.96 45.10 47.05 46.03 46.24 47.69 49.38 50.83 52.87 56.04 56.80 60.89 61.21 62.83 61.91 61.51 60.19 59.38 58.90 59.50 57.84 56.98 56.27 54.44 53.73 53.35 52.93 51.52 51.32 52.91 52.76 52.66 52.42 52.32 52.11 51.49 50.44 50.50 50.73 50.54
42.62 41.11 33.69 26.69 28.07 31.50 41.68 32.67 38.59 46.62 47.96 48.98 48.09 47.01 47.56 49.24 50.32 51.48 54.77 59.12 60.75 60.06 60.75 60.33 59.07 58.81 59.37 58.13 57.77 57.28 56.15 54.37 54.02 53.49 53.15 53.28 53.85 53.43 53.29 52.66 52.68 52.73 52.53 52.20 51.52 50.23 50.56 51.12 50.87
41.61 37.14 43.17 36.62 37.98 33.93 37.33 39.32 44.32 45.54 46.13 47.96 47.25 46.49 46.55 47.90 48.60 50.26 51.70 54.93 58.99 59.30 59.59 58.58 58.00 57.95 57.84 57.17 56.69 56.00 55.62 54.90 53.60 54.34 54.69 54.71 55.01 54.70 53.86 53.15 52.45 52.41 51.62 50.14 49.58 49.28 49.56 50.36 49.41
42.97 44.51 36.71 38.53 27.25 27.18 33.83 33.49 33.00 39.93 42.83 46.27 44.46 44.37 46.69 47.58 47.93 49.47 50.12 51.96 55.93 55.75 57.77 58.04 57.39 56.91 57.76 56.70 56.12 55.09 56.94 56.84 56.34 55.86 55.30 54.77 54.72 54.36 53.37 52.42 50.52 49.43 49.20 49.13 49.30 49.03 48.52 47.50 46.31
40.92 39.62 39.84 39.27 37.36 29.75 28.40 30.60 40.43 41.41 44.00 44.17 44.85 44.44 45.60 47.40 46.99 48.67 49.41 50.04 50.18 52.86 52.63 53.46 52.68 52.13 52.51 51.82 50.33 49.70 50.17 51.11 51.54 51.61 52.32 52.22 52.34 50.95 49.65 49.14 48.98 48.66 48.44 48.04 46.82 46.04 45.59 45.34 45.42
42.22 39.45 38.46 32.11 31.64 34.58 33.92 32.53 43.77 44.46 45.03 45.60 45.17 45.24 45.92 47.58 48.35 48.03 48.14 48.05 48.47 48.44 49.52 49.64 48.47 47.50 46.82 47.33 47.67 47.12 46.30 46.62 46.69 46.85 48.32 50.79 50.21 50.47 50.06 49.90 49.48 49.22 49.28 48.71 47.73 46.32 46.26 45.26 44.90

GFSSGP_sfc_wetblb_123.txt.gz
Wetbulb
68.78 68.47 67.23 64.75 52.83 53.16 46.99 48.71 52.35 51.63 52.31 56.09 58.45 57.44 56.28 59.84 59.89 53.05 66.75 68.34 71.57 72.95 75.02 75.51 77.82 77.66 77.49 76.60 76.43 76.16 75.67 75.36 74.99 74.00 73.21 72.79 73.37 74.11 73.75 72.97 72.53 72.08 71.73 71.80 72.01 71.99 72.66 73.19 73.71
66.57 67.26 65.09 61.10 50.39 44.41 45.88 51.57 51.76 53.93 55.89 56.60 58.16 57.73 56.81 60.52 65.37 65.24 64.95 69.19 71.40 73.30 75.09 74.87 77.81 77.49 77.34 77.04 76.77 75.84 75.25 74.58 74.23 74.08 73.55 72.87 73.16 74.17 73.50 72.88 72.34 71.93 71.64 71.44 71.64 71.63 72.34 73.09 73.47
65.65 66.56 58.34 54.78 50.13 45.93 46.05 51.74 52.28 56.56 56.98 56.81 55.64 58.37 60.69 62.37 65.81 65.41 66.37 68.83 71.60 73.41 74.57 75.74 77.50 77.15 77.05 76.97 76.51 75.73 75.11 74.31 73.33 73.07 74.04 73.06 73.51 73.96 73.36 72.51 71.95 71.46 71.14 70.93 71.22 71.64 72.29 72.76 73.64
60.41 58.27 57.02 49.82 47.27 50.20 50.98 53.79 54.99 55.99 57.57 58.08 56.34 56.61 63.39 66.52 66.11 67.20 66.13 70.12 72.40 72.89 73.89 76.59 77.26 77.01 76.80 76.50 75.90 75.41 74.98 74.29 73.40 72.24 72.81 73.55 73.69 73.58 73.40 72.23 71.60 70.95 70.39 69.90 70.15 71.20 71.69 71.86 71.95
56.83 54.21 47.38 44.58 45.81 48.90 51.70 53.75 54.78 54.53 55.92 56.25 57.47 55.36 61.18 66.56 68.38 68.12 64.59 70.15 71.78 72.30 74.15 75.59 77.20 76.88 76.32 76.01 75.60 75.24 75.02 73.98 73.07 72.04 71.51 72.84 73.66 73.48 73.09 71.95 71.09 70.74 69.93 69.17 69.22 70.18 70.97 70.92 70.46
50.49 50.80 41.35 40.23 44.34 48.92 49.59 51.71 51.58 55.44 54.80 55.95 56.85 56.31 61.35 66.40 65.07 65.64 64.91 67.66 71.43 72.85 74.06 74.67 76.53 76.60 76.19 75.79 75.45 75.20 74.54 73.57 72.63 71.61 71.70 72.42 73.53 73.03 72.71 71.86 70.79 70.43 69.52 68.71 68.24 68.69 70.13 69.90 72.21
49.23 46.99 42.64 42.52 43.37 45.71 49.75 51.60 49.62 53.68 55.07 54.53 58.79 54.27 61.32 63.43 65.45 66.40 66.06 71.61 72.85 73.24 73.32 73.66 73.98 74.70 75.54 75.60 75.28 75.03 74.25 73.11 72.12 71.10 71.93 73.72 73.63 72.82 72.44 71.44 70.53 69.93 69.14 68.39 67.74 67.53 68.97 69.29 70.92
51.32 48.45 42.61 41.93 42.60 43.75 49.86 50.84 53.37 53.96 53.92 61.44 61.58 56.70 57.42 61.66 65.18 64.11 62.69 67.00 71.69 71.91 72.53 72.48 72.83 73.03 72.80 72.89 74.72 74.55 74.09 72.85 71.73 72.46 73.70 73.82 73.18 72.47 71.98 70.85 69.89 69.27 68.57 67.80 67.12 66.80 67.79 68.35 68.58
53.31 42.73 40.11 42.83 43.63 45.09 49.00 47.35 51.69 54.06 51.94 56.09 57.89 58.34 61.84 62.39 63.91 61.26 60.55 66.15 69.10 70.90 71.04 71.52 71.33 71.60 71.58 71.59 72.48 73.52 73.80 72.92 72.61 73.35 73.42 71.86 68.86 69.51 68.81 69.91 69.23 68.47 67.89 67.01 66.22 66.40 67.16 66.84 68.11
46.81 41.42 43.49 47.16 45.32 44.39 47.55 46.76 47.06 46.60 46.52 48.69 51.55 62.01 62.17 62.47 59.07 57.37 58.80 61.77 64.61 67.70 69.46 70.48 70.47 70.71 70.68 71.50 70.59 69.54 70.44 68.82 68.26 70.04 68.71 68.32 67.28 68.32 68.21 68.80 68.91 67.91 66.76 65.81 65.65 66.34 66.91 64.31 59.66
45.28 41.24 46.54 47.39 49.57 49.88 48.28 48.04 49.86 46.51 44.44 46.67 47.16 53.71 60.65 60.23 61.07 60.53 60.55 58.87 61.30 66.25 68.19 69.52 69.81 70.30 70.20 70.05 69.41 68.40 67.69 66.67 67.12 68.64 67.83 66.56 67.27 67.86 65.51 64.38 62.73 61.93 63.79 60.41 62.01 61.88 60.48 58.04 58.76
43.01 47.78 48.46 49.23 51.33 50.11 47.78 49.69 47.75 48.19 47.91 50.34 50.67 49.53 55.25 61.85 63.07 63.89 64.02 62.35 61.03 66.97 68.36 69.14 69.67 70.10 69.59 69.31 68.69 67.55 66.00 64.87 66.45 67.67 67.05 65.79 65.04 65.26 63.55 61.65 60.16 59.56 57.73 58.58 58.49 59.33 59.50 57.21 58.74
44.77 47.26 49.92 50.22 50.48 49.97 50.40 48.24 47.84 48.27 50.87 51.75 52.04 51.13 48.78 48.26 52.09 59.41 64.71 64.49 63.83 65.50 67.23 68.71 69.20 68.89 68.50 68.62 68.23 66.23 64.58 65.52 67.06 66.43 66.98 65.27 63.68 63.07 63.15 61.59 59.84 58.15 54.67 54.27 53.70 54.70 55.00 54.44 55.71
47.98 48.39 48.46 49.69 49.69 50.04 48.47 47.72 48.24 49.36 51.20 50.69 50.43 49.20 48.85 48.24 48.60 48.76 61.06 63.53 64.78 66.56 64.34 66.31 68.80 68.95 68.44 67.30 64.50 64.15 65.70 66.70 67.32 67.07 65.96 64.31 62.54 61.11 61.40 61.39 58.45 53.85 50.65 52.05 53.78 52.87 51.66 51.35 55.26
49.39 44.96 46.87 48.23 49.08 47.99 48.95 45.25 45.95 49.70 50.35 49.28 48.97 48.88 49.89 50.40 49.06 48.28 50.81 62.10 65.33 65.29 65.47 66.41 67.55 68.82 67.73 66.31 65.95 66.86 66.91 67.33 67.07 67.80 66.66 62.90 60.16 58.82 57.87 57.23 50.95 49.95 51.02 52.39 50.67 49.72 50.24 50.62 51.35
45.61 43.68 38.69 46.28 48.49 48.48 46.93 39.37 47.45 49.22 48.87 47.79 48.04 47.50 50.03 51.64 51.70 48.85 51.10 52.44 64.09 65.36 64.98 66.97 68.30 67.48 66.08 64.14 67.84 67.97 67.36 66.74 66.64 67.41 64.00 61.95 59.46 57.81 55.40 53.10 50.58 50.27 50.03 50.30 49.75 50.06 49.23 48.87 48.74
40.19 34.05 37.63 41.67 48.24 47.55 44.73 40.37 46.63 48.94 48.54 47.29 47.02 47.77 49.37 50.86 52.72 54.00 54.29 51.39 61.12 65.84 65.91 66.02 66.48 64.71 66.14 65.36 67.31 66.93 66.50 66.62 66.27 66.38 61.18 60.72 58.45 56.85 54.60 52.56 50.83 50.29 50.41 50.11 50.91 49.27 49.55 47.75 47.71
34.86 34.80 38.21 37.47 44.62 45.53 43.46 41.42 45.55 47.49 47.70 46.09 45.92 46.91 47.92 49.49 51.63 54.70 55.42 52.75 59.38 65.21 65.56 65.31 63.60 62.68 64.44 66.14 67.05 66.57 66.07 65.84 66.79 63.58 60.39 59.05 56.17 54.64 52.65 51.24 50.26 50.80 50.37 49.53 49.60 49.50 48.76 48.24 48.01
40.35 38.19 37.30 41.24 46.61 43.50 42.42 41.82 44.45 46.33 46.41 45.54 45.35 45.89 47.48 48.92 52.24 54.15 55.79 56.81 64.60 64.84 63.66 64.52 63.54 63.96 63.17 63.77 65.00 64.50 64.07 64.66 64.13 60.75 59.68 57.43 54.17 52.38 51.33 49.88 50.70 51.11 50.54 50.37 50.13 49.03 48.72 47.43 46.73
40.48 38.18 37.43 42.98 46.96 43.31 41.95 41.77 44.45 45.58 45.27 45.58 45.73 45.79 47.77 49.30 50.14 51.71 53.75 55.80 54.58 62.63 63.73 64.63 63.45 63.93 63.07 62.32 61.62 64.25 64.04 63.18 63.06 59.67 58.02 56.53 52.59 51.68 51.60 50.37 50.75 51.09 50.67 50.87 50.75 50.58 48.44 47.96 46.96
38.96 37.75 37.82 40.06 44.80 44.68 41.85 38.23 40.97 44.10 45.63 46.88 46.73 47.69 48.68 48.37 48.78 50.42 52.81 54.01 56.11 60.08 62.02 62.31 61.78 62.27 62.52 61.59 62.14 63.08 61.92 61.48 59.50 55.84 55.26 54.25 51.62 52.50 51.35 50.95 51.28 50.97 51.27 50.90 52.08 51.54 50.89 47.89 48.04
35.82 42.86 42.82 42.53 39.83 33.24 40.14 29.16 37.60 41.27 42.45 43.81 44.93 46.99 48.70 48.47 49.68 50.64 52.32 53.40 54.47 57.72 60.79 60.87 60.66 60.95 60.93 61.72 62.47 62.90 61.30 59.24 57.77 55.27 53.97 53.66 51.41 50.62 50.49 51.26 51.52 52.26 52.37 52.36 52.72 53.27 52.40 51.12 48.89
39.34 43.91 42.38 42.29 39.09 36.39 36.95 31.06 35.14 40.11 39.43 41.83 45.41 47.66 47.97 49.22 50.15 50.57 52.00 53.98 55.86 57.96 59.64 60.57 59.89 60.53 60.31 59.21 58.00 61.52 59.06 56.55 55.63 53.65 52.58 52.42 52.43 52.45 51.83 51.50 50.92 50.57 50.96 51.11 51.34 50.87 51.23 51.11 50.59
45.13 42.88 42.96 41.47 37.94 31.05 35.11 33.53 31.90 36.53 39.16 41.89 46.56 46.86 47.56 49.34 51.03 52.44 54.33 56.35 56.91 61.27 62.23 61.39 60.62 58.51 58.48 58.81 58.68 58.22 57.22 56.56 55.63 54.72 53.22 53.31 53.13 52.53 52.66 52.63 52.09 51.90 51.08 50.64 50.70 50.32 49.72 49.60 49.87
41.02 35.87 25.15 26.91 26.32 27.07 38.29 33.40 34.70 40.65 43.23 44.87 45.92 46.36 48.07 49.28 49.85 51.88 55.04 56.58 59.60 58.18 59.63 60.47 60.87 59.50 58.21 58.64 57.44 59.13 59.42 58.10 56.75 55.59 54.88 52.32 50.99 51.82 51.97 52.49 52.12 51.94 52.01 51.88 51.65 50.95 50.72 50.65 50.05
37.75 36.84 25.81 16.40 21.88 26.45 38.03 28.75 36.15 43.65 46.50 46.69 47.71 47.55 48.14 48.42 49.46 51.21 54.56 57.35 58.01 59.89 59.82 59.39 58.50 57.62 57.79 58.28 57.40 56.72 55.51 54.93 54.73 54.29 53.91 53.17 51.52 51.81 52.15 52.38 52.37 52.32 52.30 52.19 52.01 51.53 50.90 50.75 50.23
37.50 33.31 39.86 31.93 33.34 28.33 32.15 36.78 41.89 43.22 44.02 44.70 44.64 46.80 46.84 47.48 48.77 49.97 51.52 54.72 58.28 57.86 58.23 58.35 57.69 56.97 56.48 56.13 55.76 55.19 54.87 54.53 53.84 53.80 53.88 53.63 54.16 52.28 52.01 51.79 51.97 52.26 52.14 51.88 51.31 50.30 49.69 49.71 49.18
38.94 41.77 32.95 33.50 20.47 22.75 29.15 29.00 30.62 38.37 40.95 43.56 42.46 44.74 46.78 47.53 48.43 49.08 49.83 51.81 53.96 54.72 55.14 55.99 56.20 55.01 54.81 54.72 55.29 55.42 55.43 55.34 54.23 54.79 54.48 54.47 54.83 54.38 53.17 52.39 51.95 51.72 51.25 50.82 49.31 48.89 48.31 47.87 46.95
37.68 35.83 35.92 34.81 33.18 26.19 24.83 28.24 37.09 39.05 42.35 41.87 42.59 44.56 46.00 47.05 47.30 48.16 48.86 50.61 51.57 52.35 51.93 51.79 52.56 52.23 51.24 50.97 51.31 51.38 51.64 52.02 52.48 52.69 52.91 52.47 51.96 51.86 50.77 49.88 49.44 48.75 48.31 48.46 47.80 47.45 46.27 45.80 44.92
38.24 35.09 34.14 28.18 28.33 30.49 29.05 30.06 42.36 41.84 42.70 43.36 43.46 43.60 45.93 47.60 46.93 46.82 46.84 48.25 48.07 49.40 49.00 47.90 47.27 46.82 48.25 48.36 47.27 46.86 47.60 48.39 49.06 49.17 50.93 51.23 50.37 50.24 49.75 49.74 49.54 49.49 49.40 49.24 48.64 47.34 46.03 45.20 44.30

GFSSGP_sfc_wetblb_126.txt.gz
Wetbulb
67.19 66.84 66.45 63.37 50.79 51.14 46.18 48.40 51.76 52.37 51.98 55.33 57.58 56.69 57.16 58.69 58.90 51.56 65.88 69.43 70.86 72.81 73.98 76.00 77.55 77.75 77.54 77.04 76.52 76.17 75.71 74.81 73.44 72.90 73.09 73.59 74.14 73.26 72.94 72.40 71.85 71.78 71.91 72.01 72.93 73.59 73.79 74.08 74.16
64.81 66.74 64.25 59.60 48.04 42.57 44.03 50.56 50.87 52.26 55.06 56.07 56.20 57.21 56.42 59.58 64.27 63.79 64.80 70.37 71.46 73.98 73.88 75.43 77.77 77.67 77.37 76.91 76.65 76.66 75.65 74.98 73.70 73.00 72.94 74.29 74.04 73.10 72.82 72.32 71.87 71.56 71.63 71.70 72.51 73.13 73.33 73.80 73.68
63.80 65.82 57.44 53.51 48.46 43.51 44.95 49.47 51.25 55.94 56.02 55.95 54.42 59.13 60.61 61.26 65.04 64.87 66.24 71.10 72.85 73.39 73.48 75.44 77.53 77.58 77.20 76.90 76.99 76.44 75.59 74.92 74.51 73.23 72.86 74.02 74.10 73.09 72.64 72.03 71.59 71.39 71.34 71.55 72.21 72.88 72.66 73.31 73.28
59.04 57.34 54.95 49.48 46.60 49.61 49.76 51.98 54.19 53.05 55.18 57.05 55.27 55.11 62.72 65.70 64.47 65.16 69.37 71.20 72.58 73.13 73.13 76.50 77.47 77.35 77.13 76.78 76.55 76.11 75.04 74.42 74.59 74.08 72.83 73.50 73.95 73.17 72.39 71.61 71.05 70.54 70.90 71.48 71.60 71.44 71.80 72.41 72.58
55.72 52.86 45.74 43.64 44.55 47.27 48.73 51.11 51.91 51.28 53.05 55.40 57.79 54.86 60.28 65.43 66.56 65.21 68.63 70.94 71.84 72.68 73.52 75.75 77.27 77.00 77.05 76.77 76.43 75.83 75.28 73.92 73.74 74.29 73.67 73.83 73.48 73.11 72.13 71.46 70.79 69.85 69.74 71.04 71.72 71.41 70.67 71.78 71.68
49.06 48.96 40.46 39.23 43.12 47.05 47.59 49.35 48.37 53.60 53.56 54.76 55.26 54.64 60.06 65.15 65.11 65.18 64.78 68.98 72.38 72.33 74.10 74.79 75.93 76.39 76.39 76.09 75.66 75.37 74.79 73.66 72.86 73.01 73.33 73.76 73.37 72.86 71.72 71.14 70.41 69.51 68.75 69.74 71.11 70.46 71.42 72.03 71.01
47.96 45.41 41.30 40.67 42.32 44.00 47.38 49.09 49.78 50.51 53.66 54.21 57.33 52.58 57.00 62.88 65.26 64.52 63.47 67.16 71.63 72.99 73.60 73.78 73.84 74.53 75.60 75.42 75.44 74.90 74.54 73.56 72.42 71.60 72.57 73.76 73.07 72.66 71.68 71.06 70.29 69.31 68.24 68.26 70.32 70.72 70.56 70.96 70.16
50.11 46.99 41.58 40.24 40.95 42.11 47.66 47.71 51.26 47.88 52.90 60.10 60.57 54.90 53.85 62.94 66.27 66.66 66.32 64.72 67.04 71.32 72.36 72.40 72.88 73.07 72.14 72.74 74.79 74.47 74.38 73.53 72.53 72.31 73.51 73.47 73.03 72.64 71.63 70.60 70.01 69.15 67.98 67.31 69.32 70.15 69.28 69.65 69.19
51.32 41.33 38.66 41.21 40.28 42.25 47.16 45.94 49.54 50.07 47.36 51.93 57.72 57.84 59.71 63.14 62.91 64.36 64.44 65.23 64.47 64.19 65.35 71.76 71.45 71.38 71.57 71.71 72.64 73.83 74.18 73.26 72.47 72.57 73.28 71.94 69.81 69.04 67.63 69.24 69.48 68.64 67.38 66.59 68.29 68.98 68.57 68.62 67.97
46.11 40.04 41.59 46.02 44.25 43.80 47.24 46.74 47.47 46.87 45.81 46.29 49.87 59.55 61.34 61.10 58.40 59.40 61.29 61.55 62.88 62.74 63.25 59.98 70.96 70.60 70.64 72.01 70.84 70.33 70.54 69.18 69.46 70.72 68.48 68.03 68.01 67.17 67.59 68.66 69.09 67.82 66.26 66.38 68.03 68.08 66.93 64.19 61.91
44.82 40.10 44.77 46.36 47.65 49.07 47.48 47.24 49.05 45.92 44.37 46.85 46.98 49.03 60.22 59.58 57.89 56.41 58.74 61.35 62.00 62.24 62.09 59.49 65.95 69.92 69.69 70.28 69.46 69.07 67.97 67.98 68.89 67.62 67.37 67.16 67.63 67.20 65.59 64.59 63.52 60.45 63.95 59.85 62.34 61.40 57.83 57.80 58.75
41.07 45.93 46.71 48.33 50.14 49.11 47.08 48.73 46.90 47.01 47.63 50.11 50.17 49.20 58.86 59.09 58.67 57.61 58.01 59.43 56.53 58.38 59.02 59.19 68.39 69.36 69.10 69.20 68.55 67.92 67.01 67.06 67.99 67.29 66.11 66.87 65.91 63.92 61.73 61.07 59.73 58.89 58.37 58.36 58.42 58.12 57.37 57.44 57.80
43.62 46.05 48.79 49.31 49.16 48.64 49.16 47.15 46.57 47.28 49.93 50.44 50.96 50.06 48.05 49.24 52.79 59.81 61.18 60.82 59.08 58.07 59.79 64.27 66.85 66.48 68.21 68.43 67.91 66.82 66.17 66.57 67.54 66.75 65.77 66.02 64.78 62.99 60.85 59.39 58.16 56.85 56.65 56.97 55.21 54.65 55.07 56.49 56.73
46.63 47.27 47.43 48.71 48.88 48.62 47.32 46.78 47.33 48.39 49.57 49.58 49.97 48.86 49.09 49.36 49.95 48.82 50.40 62.73 60.18 60.38 64.75 65.97 64.65 64.23 68.76 67.76 66.98 66.05 65.38 65.92 67.03 66.36 65.13 64.66 64.50 62.92 60.85 58.59 57.20 54.66 53.73 52.12 53.47 51.58 54.83 55.28 56.65
48.33 44.21 45.98 46.69 47.74 47.01 47.99 44.05 44.57 48.46 48.82 47.37 47.25 47.60 49.43 50.31 52.06 50.76 52.20 56.88 62.83 62.24 65.03 66.37 66.28 68.07 67.84 67.55 65.24 64.98 64.32 65.91 66.83 66.67 63.94 63.50 62.32 62.34 60.71 58.70 55.42 53.02 49.98 52.09 49.39 48.99 53.09 53.55 55.80
44.25 41.10 36.34 43.68 47.03 47.54 45.54 38.39 45.75 47.55 47.70 46.42 46.61 45.69 48.75 50.10 51.25 52.94 54.87 55.28 56.22 64.36 63.54 64.43 65.14 67.40 66.86 66.54 64.64 65.15 65.44 66.09 67.03 67.17 63.87 63.26 61.37 60.98 59.35 56.61 52.01 49.93 49.59 49.44 49.20 48.88 49.74 49.98 52.95
38.08 32.72 35.45 39.68 46.87 46.22 43.41 38.77 45.09 47.85 47.40 46.00 45.53 46.53 47.98 49.17 51.09 52.85 54.39 55.36 56.00 64.32 63.49 63.70 65.33 66.94 66.80 65.59 66.89 65.90 66.28 65.93 66.00 66.38 61.48 61.95 60.30 59.22 57.84 52.65 49.29 49.30 48.92 48.71 49.88 47.90 50.16 49.28 48.35
32.95 32.90 36.29 35.67 42.44 44.13 41.44 40.15 44.36 46.33 46.39 44.97 44.79 45.29 46.20 48.72 49.71 52.46 53.51 54.99 56.74 62.84 64.25 64.39 64.58 65.51 64.94 65.35 66.07 65.77 66.08 65.34 64.30 61.73 60.52 59.37 58.82 56.17 54.04 50.23 49.02 49.36 48.80 48.22 48.47 48.26 47.54 48.05 47.85
37.99 36.06 35.66 39.53 44.70 42.21 40.42 40.84 43.01 45.44 45.23 44.77 44.61 44.76 46.73 48.75 50.75 51.78 53.04 54.26 55.56 60.98 62.70 61.64 62.05 62.74 64.42 64.66 64.34 63.67 63.99 64.67 62.68 59.68 59.36 58.16 56.45 54.73 51.39 49.33 49.23 49.45 49.22 48.31 48.72 47.79 47.63 46.67 46.74
38.67 36.20 35.54 40.95 45.30 42.73 40.31 40.26 43.32 44.44 44.11 44.62 45.12 45.25 46.35 48.45 49.08 49.93 51.86 53.19 53.96 56.71 61.94 62.03 61.88 62.09 61.74 61.41 61.88 63.55 63.70 63.45 61.89 60.47 59.26 58.30 56.37 52.49 50.54 49.89 49.33 49.22 48.67 48.30 48.91 48.87 47.65 47.58 47.63
36.93 36.14 36.12 37.87 42.73 42.65 40.24 36.85 39.78 43.50 44.48 45.90 46.09 47.31 48.16 47.46 47.98 49.62 51.27 51.89 53.33 54.55 59.22 61.46 62.82 62.40 61.98 62.24 62.45 62.87 63.27 62.29 58.72 57.63 56.57 56.71 55.50 51.49 50.08 49.77 49.55 49.05 49.12 48.52 48.89 49.47 49.12 48.48 48.66
34.17 41.64 41.27 40.57 38.26 32.60 38.38 28.93 36.02 39.86 41.18 42.35 44.57 47.87 47.33 48.79 49.60 50.21 51.31 52.27 53.09 54.47 60.16 61.03 61.26 60.51 60.65 60.96 60.59 60.31 59.84 59.26 56.18 55.08 56.26 55.15 52.68 51.33 50.39 50.36 49.43 49.67 49.35 49.85 50.15 51.56 50.19 50.69 48.29
38.00 42.25 40.59 40.42 37.42 34.67 35.10 30.58 32.41 38.74 38.50 40.60 46.01 47.28 48.03 49.68 50.71 51.33 51.54 53.01 54.82 56.55 58.83 59.23 60.16 59.53 57.11 58.28 60.76 60.61 58.94 55.74 54.50 54.45 53.78 52.72 52.85 52.54 51.74 50.76 50.17 50.41 50.57 51.10 51.69 51.37 51.32 51.12 49.96
43.57 40.99 38.49 39.54 36.31 30.27 33.75 32.58 30.63 35.14 37.94 41.97 46.27 47.05 48.22 49.30 50.24 52.21 54.80 55.44 57.79 60.23 59.43 59.48 59.41 57.19 57.27 57.50 59.21 58.90 55.14 53.64 52.80 52.72 52.36 52.35 52.04 52.23 52.50 52.38 51.55 51.61 50.86 50.29 49.80 50.04 50.24 50.04 49.83
40.20 32.91 23.28 25.19 25.22 27.04 36.15 31.65 33.63 38.80 43.22 44.85 45.55 46.80 48.04 49.12 49.30 51.34 54.68 56.50 57.45 58.20 59.30 59.09 57.77 57.63 56.26 57.32 58.40 57.53 56.16 54.72 53.70 53.53 52.10 51.17 51.44 52.23 51.98 52.33 51.94 51.69 51.78 51.69 51.44 50.95 50.53 50.14 49.72
36.31 34.63 23.67 15.99 19.71 23.69 36.07 27.70 34.39 42.84 45.49 45.95 47.27 47.75 48.37 48.57 49.77 50.07 53.68 56.34 58.00 58.35 58.86 58.27 57.48 56.72 57.36 56.92 56.22 56.63 56.39 56.07 56.16 55.34 52.85 51.98 51.84 51.87 52.42 52.22 52.26 52.11 52.14 52.04 51.95 51.38 51.28 50.33 49.64
35.69 32.15 37.70 29.48 30.34 26.61 30.49 34.77 40.04 43.13 43.73 43.54 45.78 47.14 47.23 48.11 49.08 49.77 51.71 54.25 55.46 57.32 57.60 56.85 56.11 56.06 56.09 55.95 55.67 54.62 54.61 54.44 54.05 54.41 54.36 52.86 52.34 52.26 52.09 52.12 51.86 51.82 51.88 51.88 51.49 50.86 50.29 50.09 49.42
37.08 40.97 32.02 30.77 20.41 21.40 27.19 27.65 29.53 36.62 39.73 42.65 44.59 45.88 46.75 47.68 48.02 48.56 50.25 51.79 52.61 54.16 54.91 54.77 54.45 53.64 54.49 55.16 55.18 54.84 54.25 54.46 54.82 54.44 53.94 54.12 52.61 52.23 51.38 51.47 51.64 51.45 51.30 51.02 50.51 49.54 48.98 48.58 47.39
36.51 34.77 34.47 33.21 31.23 25.01 23.98 27.72 34.68 38.49 41.58 41.43 43.35 45.49 46.48 46.98 46.80 46.80 48.55 50.50 51.12 51.02 51.05 51.70 51.87 51.52 51.62 52.63 52.79 52.77 52.81 53.30 53.33 53.27 52.88 52.64 53.39 53.08 52.08 51.74 51.41 50.65 50.01 49.74 48.87 48.33 47.43 46.96 45.53
37.11 34.73 33.06 27.14 27.66 28.37 26.80 28.94 41.52 40.94 42.18 43.15 41.95 45.21 46.73 46.77 46.15 46.20 47.71 47.64 47.64 47.97 47.53 48.22 49.52 49.71 49.71 50.48 49.37 49.61 50.63 51.27 51.21 50.98 51.02 51.00 49.98 50.01 49.59 49.53 49.02 48.68 48.40 48.13 46.94 46.43 45.79 45.14 43.82

GFSSGP_sfc_wetblb_129.txt.gz
Wetbulb
65.62 65.46 65.73 61.94 48.46 49.35 43.93 47.19 50.85 51.67 51.34 53.48 54.51 55.62 54.81 57.06 56.84 50.06 65.45 69.66 70.02 69.84 73.35 76.04 77.77 77.51 77.23 76.93 76.45 75.74 74.42 73.33 73.25 73.55 74.88 74.57 73.35 72.41 72.14 71.93 71.76 71.74 72.56 73.62 73.75 74.21 74.26 74.44 74.34
63.59 66.69 63.58 58.07 44.59 38.97 39.19 49.25 49.99 51.31 54.34 55.13 54.40 58.36 56.12 58.26 63.61 63.76 65.44 69.76 70.50 70.92 73.01 75.45 77.90 77.49 77.26 76.93 76.57 76.10 74.54 73.65 73.14 72.99 74.00 73.99 73.03 72.19 72.10 71.79 71.74 71.73 72.73 73.27 73.40 74.06 73.97 73.81 73.72
62.64 64.97 57.25 51.70 45.98 40.57 41.46 48.01 50.23 53.18 53.56 52.89 52.97 60.22 59.93 60.55 63.79 64.28 66.82 70.45 71.45 71.49 72.93 75.25 77.18 77.10 77.00 76.67 76.14 76.29 74.81 73.55 73.10 73.29 74.40 73.91 73.02 72.08 72.02 71.65 71.46 71.45 72.11 73.08 73.00 73.58 73.38 73.08 73.08
58.54 56.73 53.46 48.71 44.72 48.89 47.65 49.15 50.14 50.23 51.76 56.12 54.95 54.37 62.43 64.70 63.45 63.70 70.35 71.14 72.25 72.16 72.20 75.71 76.88 76.93 76.54 75.92 75.63 76.05 75.05 73.84 73.16 73.49 74.50 73.90 72.96 71.99 71.83 71.45 71.23 71.29 71.84 72.21 72.23 72.68 72.79 72.73 72.69
55.01 51.43 43.60 42.13 43.46 46.61 47.44 49.35 47.69 47.64 50.29 53.59 55.68 53.71 59.74 64.34 65.85 64.99 69.79 72.18 71.82 71.52 72.39 74.76 76.07 76.22 76.26 75.52 75.75 75.45 74.87 74.58 73.88 73.60 74.32 73.78 72.97 72.00 71.56 70.88 70.71 71.01 71.22 71.17 71.37 72.26 72.08 72.32 72.33
48.42 47.57 39.86 37.05 41.23 45.43 46.23 46.03 47.06 46.80 52.11 53.72 52.75 52.87 59.14 64.18 63.92 63.41 68.19 70.47 72.62 71.87 72.56 74.24 75.52 75.77 75.53 75.51 75.63 75.18 74.32 74.48 74.27 73.70 74.34 73.52 73.02 71.97 71.51 70.56 69.90 70.78 71.44 71.27 71.10 71.91 71.59 71.29 71.26
47.01 43.59 38.97 38.43 41.03 42.65 45.78 46.66 44.75 45.08 51.38 51.23 56.37 52.25 55.26 61.92 64.07 64.22 65.76 69.05 71.78 72.63 72.49 72.37 72.13 73.50 74.97 75.14 75.22 74.81 74.30 73.73 74.05 73.95 73.69 73.34 73.09 71.96 71.45 70.43 69.30 69.62 71.27 70.91 71.87 71.68 71.07 70.56 70.08
49.47 45.70 40.52 39.29 38.79 39.88 45.54 46.72 48.94 46.12 46.83 52.65 58.54 51.71 51.30 61.97 65.48 65.53 65.80 66.23 66.00 67.53 70.31 65.75 65.66 71.05 71.45 72.58 74.65 74.18 74.23 73.71 73.19 73.37 73.26 73.11 72.70 72.48 71.25 70.22 69.11 68.46 70.55 70.57 70.84 70.96 70.02 69.81 69.24
49.73 40.87 37.84 39.94 39.32 40.96 46.12 45.46 48.20 49.23 46.84 48.37 56.43 56.84 58.79 63.05 64.69 64.10 63.56 64.47 64.94 66.04 65.38 63.35 64.12 63.38 68.79 70.06 72.11 73.62 73.85 73.61 72.66 72.33 72.82 72.00 69.20 69.41 68.71 69.16 69.25 67.88 69.81 70.19 69.72 70.06 69.32 68.53 67.94
45.01 38.07 39.66 45.05 43.23 41.90 46.23 45.68 46.70 45.95 45.58 45.07 48.00 52.80 60.09 60.33 57.63 60.87 60.95 61.33 63.18 65.27 65.05 63.22 61.89 62.48 63.07 71.01 70.45 69.22 70.79 69.37 67.97 69.66 68.44 68.07 66.84 66.55 67.23 69.16 69.43 67.25 68.74 69.64 69.11 69.31 68.03 63.97 60.47
43.62 38.94 43.56 45.56 46.57 46.93 46.48 46.32 48.04 45.23 44.01 45.93 46.45 48.27 51.97 59.33 56.52 56.77 59.02 60.81 62.17 63.15 63.68 61.87 61.65 63.09 62.49 66.60 68.58 68.00 67.09 68.33 68.41 67.21 67.31 67.10 66.37 66.65 65.24 64.70 63.30 60.44 65.62 62.97 62.17 60.72 58.20 57.61 58.40
40.00 44.86 45.13 47.22 49.00 47.98 45.79 47.58 46.20 45.92 46.64 48.73 48.95 48.54 51.86 52.13 55.45 57.14 55.81 58.83 58.85 60.18 60.69 59.95 62.14 62.43 63.12 65.23 68.54 67.91 67.48 68.51 67.85 66.78 66.98 66.39 64.81 63.22 62.18 61.25 58.38 57.96 58.03 57.89 57.23 57.23 56.33 56.85 56.91
42.02 44.81 47.68 48.49 48.36 47.58 48.12 46.18 45.60 45.98 48.24 49.11 50.20 49.34 48.39 48.66 49.11 48.39 53.90 58.97 57.98 57.57 59.11 60.63 62.46 62.37 66.31 67.44 68.18 67.54 67.06 68.12 67.18 66.19 66.54 66.09 64.12 62.20 60.49 58.94 57.33 56.66 57.27 56.74 55.40 55.05 56.25 55.88 56.08
45.23 46.18 46.63 47.36 47.49 47.77 46.55 45.57 46.57 47.07 48.38 48.47 48.95 48.00 48.25 48.95 49.46 50.50 51.67 52.55 59.07 58.24 59.33 62.12 62.26 65.42 64.05 64.17 66.77 66.75 66.55 67.59 66.85 65.77 66.17 65.38 63.75 61.71 59.80 57.55 56.07 55.42 55.21 53.31 53.19 56.75 56.24 55.47 55.91
46.78 43.02 43.88 44.39 46.32 45.85 47.13 42.79 43.33 46.43 47.88 47.02 46.82 46.64 48.03 49.03 50.27 49.92 51.92 52.48 53.35 59.24 59.42 62.63 64.32 65.26 64.41 66.29 64.88 65.83 65.00 66.61 66.50 65.51 65.15 65.01 63.44 61.57 59.26 56.27 54.59 53.13 50.66 51.31 50.77 53.34 54.83 54.72 55.64
41.60 39.11 34.99 42.19 45.50 46.00 45.13 37.90 44.52 47.10 45.96 45.47 45.51 44.76 47.23 48.68 49.92 50.27 52.63 52.88 54.07 58.27 61.57 63.77 64.35 63.69 64.15 63.56 64.41 65.07 65.32 65.49 66.64 65.99 64.61 64.23 63.38 62.19 58.91 56.21 53.75 50.72 50.35 48.76 51.98 54.02 53.27 52.15 53.88
36.55 31.74 33.74 38.35 43.92 44.92 42.51 38.41 44.18 46.79 46.05 45.16 44.78 45.12 46.72 48.68 50.67 51.30 52.57 53.03 54.06 55.96 63.23 63.21 63.63 64.06 63.35 63.00 64.05 64.27 65.68 65.51 66.57 66.57 63.46 63.24 62.90 61.90 59.40 55.96 52.10 49.12 48.78 48.48 52.13 49.08 53.21 51.60 51.27
31.53 31.23 34.56 34.48 40.86 42.70 40.21 40.04 43.24 45.20 45.34 44.03 43.76 44.14 45.94 47.93 49.05 51.25 52.08 53.18 54.24 56.43 63.52 63.95 64.51 65.27 64.86 64.67 64.76 64.52 65.12 65.44 64.54 65.44 61.86 62.13 60.97 61.04 58.04 53.04 50.10 48.90 48.03 47.62 48.08 48.88 47.48 51.06 51.77
36.45 34.46 34.08 37.55 43.11 41.90 40.15 39.65 42.32 44.65 44.06 43.64 43.91 45.59 47.22 47.48 49.77 50.69 51.96 52.72 53.44 57.87 63.00 63.20 63.77 65.60 65.14 63.96 63.99 64.29 63.93 64.36 63.03 62.98 61.76 59.97 59.44 59.48 55.26 50.22 48.52 48.43 48.82 48.24 48.24 46.84 48.23 45.83 47.25
37.50 34.56 34.33 39.05 43.39 41.58 38.97 39.58 42.14 43.57 43.59 43.32 44.64 46.48 46.83 47.09 47.96 49.02 51.14 52.20 52.51 55.58 62.06 61.84 62.92 63.68 63.91 63.95 63.98 63.85 64.19 63.62 61.32 61.62 60.12 59.18 57.08 56.33 55.08 49.58 48.34 48.43 47.71 47.66 47.79 48.02 46.43 45.67 45.66
35.46 34.46 34.36 36.12 40.50 40.78 38.22 35.87 38.50 42.23 43.37 44.09 44.95 46.90 48.59 48.84 49.58 50.21 51.06 51.56 52.36 54.79 61.74 61.16 61.72 61.84 62.14 62.88 63.51 62.37 61.50 60.08 58.31 58.10 57.30 55.53 56.25 54.32 51.90 49.02 49.14 48.22 48.81 48.41 47.53 47.95 47.41 45.42 46.16
32.40 39.50 39.76 39.10 36.34 31.61 37.11 28.93 33.75 38.60 40.13 41.19 44.28 45.92 48.17 49.31 50.72 51.41 51.51 51.88 52.13 53.90 61.42 62.09 61.90 61.59 61.79 61.59 61.42 61.25 59.08 56.56 54.98 54.58 54.45 53.45 53.18 52.60 52.20 49.74 48.86 49.03 48.66 48.95 48.46 49.17 48.27 47.43 45.78
36.78 40.87 39.11 38.67 35.60 33.28 34.05 29.83 31.79 37.27 37.70 40.36 44.30 47.29 48.16 49.31 50.09 51.40 52.14 52.96 54.12 56.26 59.86 59.49 58.87 58.15 58.94 60.01 59.72 59.31 58.05 56.23 54.74 54.18 53.14 54.18 53.21 53.28 52.38 50.37 49.36 48.75 48.81 48.68 49.88 48.82 48.15 48.31 47.70
42.24 39.90 37.74 37.32 35.10 29.36 32.59 31.59 30.03 34.45 37.09 41.58 45.86 47.30 48.06 49.11 50.34 52.50 55.67 55.98 58.23 59.56 59.76 58.48 56.87 56.71 57.41 59.20 58.62 57.78 56.06 55.71 54.20 52.78 51.19 51.25 51.91 52.36 52.54 52.22 50.86 49.58 49.50 50.11 50.19 50.14 50.07 50.13 50.00
39.23 33.44 24.00 26.28 23.62 25.77 34.53 30.74 32.42 37.84 41.08 43.07 45.08 46.96 48.31 49.39 50.01 51.98 55.29 56.53 57.03 57.99 58.26 57.85 56.87 55.96 57.71 58.42 57.57 55.84 54.22 53.61 52.06 52.10 51.41 51.14 51.58 51.52 51.59 51.91 51.49 51.41 51.48 51.36 51.01 50.55 50.20 50.06 50.10
35.04 33.52 22.61 15.23 17.53 21.76 34.39 26.31 32.92 41.93 43.12 45.14 46.98 48.16 48.77 48.56 49.43 50.77 53.65 56.16 57.54 57.54 57.45 57.42 57.06 56.39 56.38 56.63 56.94 56.85 56.52 55.16 54.39 53.67 52.62 52.26 51.84 51.71 52.45 52.23 52.08 51.94 51.97 51.90 51.81 51.40 50.60 49.92 49.23
34.81 31.64 36.02 28.36 27.08 24.64 28.97 33.28 38.53 42.66 42.41 43.44 45.71 47.02 47.59 47.99 48.76 49.29 51.43 53.18 55.50 56.01 55.88 55.97 55.88 56.07 55.91 55.71 55.46 55.53 56.07 55.67 54.91 53.51 53.33 52.68 52.44 52.49 52.47 52.21 51.80 51.80 51.80 51.71 51.53 50.90 50.26 49.86 49.33
36.06 39.85 31.10 28.96 20.28 20.55 25.28 27.02 28.96 33.88 38.60 42.48 43.82 46.06 47.06 48.20 48.18 48.60 50.01 50.86 51.75 53.63 53.96 54.08 54.46 54.18 54.88 55.12 54.91 54.60 54.68 54.81 54.69 54.72 53.36 52.05 52.30 52.17 51.77 51.60 51.34 51.13 51.16 50.98 50.41 49.84 49.56 49.22 48.59
35.40 33.77 32.78 32.29 29.72 24.13 22.47 26.53 33.61 35.99 40.56 41.60 42.67 44.74 46.91 47.17 46.99 47.65 48.49 49.64 49.81 50.51 51.62 52.09 52.29 52.19 52.30 52.94 53.06 53.13 53.24 53.46 53.60 53.32 53.60 53.04 51.79 50.97 51.08 51.31 51.06 50.75 50.43 50.18 49.28 48.87 48.38 47.92 46.82
36.82 34.90 32.75 26.90 26.01 27.19 25.73 27.82 38.95 39.36 41.94 43.30 42.06 44.41 47.27 46.88 46.10 46.87 47.26 47.81 48.10 48.55 49.57 50.04 50.35 50.03 49.93 50.36 51.08 51.45 51.99 52.09 51.50 51.11 51.25 51.37 50.68 51.21 51.01 50.72 50.09 49.59 49.09 48.91 48.64 46.98 46.49 45.98 44.26